<?xml version='1.0' encoding='UTF-8'?><gpx version="1.1" creator="JPX - https://github.com/jenetics/jpx" xmlns="http://www.topografix.com/GPX/1/1"><trk><trkseg><trkpt lat="43.9271560609926" lon="11.180739264946963"><ele>356.0</ele><time>2026-05-01T13:12:37.004Z</time></trkpt><trkpt lat="43.92716746768872" lon="11.180650624850056"><ele>356.0</ele><time>2026-05-01T13:12:40.003Z</time></trkpt><trkpt lat="43.92715877376894" lon="11.180554516437107"><ele>356.0</ele><time>2026-05-01T13:13:18Z</time></trkpt><trkpt lat="43.92708284946973" lon="11.180604966115151"><ele>356.0</ele><time>2026-05-01T13:13:21Z</time></trkpt><trkpt lat="43.927031075528184" lon="11.18074070223714"><ele>356.0</ele><time>2026-05-01T13:13:23Z</time></trkpt><trkpt lat="43.9269963966622" lon="11.180828291562019"><ele>356.0</ele><time>2026-05-01T13:13:25Z</time></trkpt><trkpt lat="43.926999600851246" lon="11.180926911200464"><ele>356.0</ele><time>2026-05-01T13:13:27Z</time></trkpt><trkpt lat="43.92694087876753" lon="11.181022977198504"><ele>356.0</ele><time>2026-05-01T13:13:30Z</time></trkpt><trkpt lat="43.92683616346341" lon="11.181061581597934"><ele>356.0</ele><time>2026-05-01T13:13:32Z</time></trkpt><trkpt lat="43.92676225674517" lon="11.181135206903116"><ele>356.0</ele><time>2026-05-01T13:13:34Z</time></trkpt><trkpt lat="43.926694505273254" lon="11.18124696323809"><ele>356.0</ele><time>2026-05-01T13:13:36Z</time></trkpt><trkpt lat="43.926629799359" lon="11.181357613549777"><ele>352.6</ele><time>2026-05-01T13:13:38Z</time></trkpt><trkpt lat="43.9265757321874" lon="11.18146829243596"><ele>349.20000000000005</ele><time>2026-05-01T13:13:40Z</time></trkpt><trkpt lat="43.926536101618645" lon="11.181564070853764"><ele>345.79999999999995</ele><time>2026-05-01T13:13:42Z</time></trkpt><trkpt lat="43.92649482075652" lon="11.18167796895101"><ele>342.4</ele><time>2026-05-01T13:13:44Z</time></trkpt><trkpt lat="43.92646599898259" lon="11.18175982425591"><ele>339.0</ele><time>2026-05-01T13:13:45Z</time></trkpt><trkpt lat="43.926360600137784" lon="11.181857383380958"><ele>339.0</ele><time>2026-05-01T13:13:47Z</time></trkpt><trkpt lat="43.92623932437965" lon="11.181889573440348"><ele>339.0</ele><time>2026-05-01T13:13:49Z</time></trkpt><trkpt lat="43.92617543443656" lon="11.181892687627897"><ele>339.0</ele><time>2026-05-01T13:13:50Z</time></trkpt><trkpt lat="43.9261033851762" lon="11.181917245331203"><ele>339.0</ele><time>2026-05-01T13:13:51Z</time></trkpt><trkpt lat="43.926040413633395" lon="11.181959188387964"><ele>339.0</ele><time>2026-05-01T13:13:52Z</time></trkpt><trkpt lat="43.92598441140404" lon="11.182020007044551"><ele>339.0</ele><time>2026-05-01T13:13:53Z</time></trkpt><trkpt lat="43.925935795148746" lon="11.182177319752334"><ele>339.0</ele><time>2026-05-01T13:13:55Z</time></trkpt><trkpt lat="43.925928947888046" lon="11.182294886779369"><ele>339.0</ele><time>2026-05-01T13:13:56Z</time></trkpt><trkpt lat="43.92592707850979" lon="11.182396719958618"><ele>339.0</ele><time>2026-05-01T13:13:57Z</time></trkpt><trkpt lat="43.925901216874166" lon="11.182484122345699"><ele>339.0</ele><time>2026-05-01T13:14:00Z</time></trkpt><trkpt lat="43.92588073480525" lon="11.18262301881212"><ele>339.0</ele><time>2026-05-01T13:14:02Z</time></trkpt><trkpt lat="43.92585946884344" lon="11.182728777133086"><ele>339.0</ele><time>2026-05-01T13:14:04Z</time></trkpt><trkpt lat="43.925837482507994" lon="11.18285653176507"><ele>336.0</ele><time>2026-05-01T13:14:06Z</time></trkpt><trkpt lat="43.925818721633256" lon="11.183011270869192"><ele>333.0</ele><time>2026-05-01T13:14:10Z</time></trkpt><trkpt lat="43.92579258505484" lon="11.183178876550437"><ele>330.0</ele><time>2026-05-01T13:14:12Z</time></trkpt><trkpt lat="43.92574137880321" lon="11.183270063753572"><ele>327.0</ele><time>2026-05-01T13:14:13Z</time></trkpt><trkpt lat="43.92567611635864" lon="11.18335041008277"><ele>324.0</ele><time>2026-05-01T13:14:14Z</time></trkpt><trkpt lat="43.92560315796141" lon="11.183438353967306"><ele>322.8333333333333</ele><time>2026-05-01T13:14:15Z</time></trkpt><trkpt lat="43.92553854218361" lon="11.183545352322138"><ele>321.6666666666667</ele><time>2026-05-01T13:14:16Z</time></trkpt><trkpt lat="43.92548582645792" lon="11.183654364996187"><ele>320.5</ele><time>2026-05-01T13:14:17Z</time></trkpt><trkpt lat="43.925425283744865" lon="11.183739454253798"><ele>319.33333333333337</ele><time>2026-05-01T13:14:18Z</time></trkpt><trkpt lat="43.925345466340886" lon="11.183760537715262"><ele>318.1666666666667</ele><time>2026-05-01T13:14:19Z</time></trkpt><trkpt lat="43.92526662375041" lon="11.183800694208639"><ele>317.0</ele><time>2026-05-01T13:14:20Z</time></trkpt><trkpt lat="43.925200474847955" lon="11.183844360898775"><ele>317.0</ele><time>2026-05-01T13:14:21Z</time></trkpt><trkpt lat="43.925112894689406" lon="11.183857601118353"><ele>317.0</ele><time>2026-05-01T13:14:22.999Z</time></trkpt><trkpt lat="43.925069848939955" lon="11.183950874282225"><ele>317.0</ele><time>2026-05-01T13:14:24.999Z</time></trkpt><trkpt lat="43.92501082428443" lon="11.184054896076626"><ele>317.0</ele><time>2026-05-01T13:14:25.999Z</time></trkpt><trkpt lat="43.92496663904918" lon="11.184205142068613"><ele>317.0</ele><time>2026-05-01T13:14:26.999Z</time></trkpt><trkpt lat="43.92489721184764" lon="11.184343027210273"><ele>312.75</ele><time>2026-05-01T13:14:27.999Z</time></trkpt><trkpt lat="43.92482707658317" lon="11.184496797967322"><ele>308.5</ele><time>2026-05-01T13:14:28.999Z</time></trkpt><trkpt lat="43.9247609037232" lon="11.184661154353087"><ele>304.25</ele><time>2026-05-01T13:14:29.999Z</time></trkpt><trkpt lat="43.924697169433166" lon="11.184855396766778"><ele>300.0</ele><time>2026-05-01T13:14:30.999Z</time></trkpt><trkpt lat="43.924645871943156" lon="11.18508829562437"><ele>299.5</ele><time>2026-05-01T13:14:31.999Z</time></trkpt><trkpt lat="43.924613558335444" lon="11.185306806223466"><ele>299.0</ele><time>2026-05-01T13:14:32.999Z</time></trkpt><trkpt lat="43.9245504759408" lon="11.185475515006708"><ele>298.5</ele><time>2026-05-01T13:14:33.999Z</time></trkpt><trkpt lat="43.92449224311098" lon="11.185660937326523"><ele>298.0</ele><time>2026-05-01T13:14:34.999Z</time></trkpt><trkpt lat="43.92440777642921" lon="11.185841539927248"><ele>299.5</ele><time>2026-05-01T13:14:35.999Z</time></trkpt><trkpt lat="43.92433450327018" lon="11.185988524930208"><ele>301.0</ele><time>2026-05-01T13:14:36.999Z</time></trkpt><trkpt lat="43.92426783512101" lon="11.186083837664523"><ele>302.5</ele><time>2026-05-01T13:14:37.999Z</time></trkpt><trkpt lat="43.924210436708776" lon="11.186163783293656"><ele>304.0</ele><time>2026-05-01T13:14:38.999Z</time></trkpt><trkpt lat="43.924171898930275" lon="11.186242623259812"><ele>305.5</ele><time>2026-05-01T13:14:39.999Z</time></trkpt><trkpt lat="43.924155420772365" lon="11.186331214021797"><ele>307.0</ele><time>2026-05-01T13:14:40.999Z</time></trkpt><trkpt lat="43.92414622902264" lon="11.186437492877197"><ele>303.5</ele><time>2026-05-01T13:14:42.999Z</time></trkpt><trkpt lat="43.92412580423564" lon="11.186575798908008"><ele>300.0</ele><time>2026-05-01T13:14:44.999Z</time></trkpt><trkpt lat="43.924107056994956" lon="11.186718165622347"><ele>296.5</ele><time>2026-05-01T13:14:45.999Z</time></trkpt><trkpt lat="43.92409828967517" lon="11.186888463820578"><ele>293.0</ele><time>2026-05-01T13:14:46.999Z</time></trkpt><trkpt lat="43.924067775864096" lon="11.187055414556202"><ele>293.0</ele><time>2026-05-01T13:14:47.999Z</time></trkpt><trkpt lat="43.92400185242238" lon="11.187214622944442"><ele>293.0</ele><time>2026-05-01T13:14:48.999Z</time></trkpt><trkpt lat="43.92393400354638" lon="11.187381836068846"><ele>293.0</ele><time>2026-05-01T13:14:49.999Z</time></trkpt><trkpt lat="43.9238640268182" lon="11.187540951000939"><ele>293.0</ele><time>2026-05-01T13:14:50.999Z</time></trkpt><trkpt lat="43.923796697937746" lon="11.187662006213204"><ele>295.2</ele><time>2026-05-01T13:14:51.999Z</time></trkpt><trkpt lat="43.92373570866868" lon="11.187740419373846"><ele>297.4</ele><time>2026-05-01T13:14:52.999Z</time></trkpt><trkpt lat="43.92368927522155" lon="11.187815011369526"><ele>299.59999999999997</ele><time>2026-05-01T13:14:53.999Z</time></trkpt><trkpt lat="43.92366970011009" lon="11.187943423507042"><ele>301.8</ele><time>2026-05-01T13:14:55Z</time></trkpt><trkpt lat="43.923642038477404" lon="11.188105592031881"><ele>304.0</ele><time>2026-05-01T13:14:56Z</time></trkpt><trkpt lat="43.923591138077256" lon="11.188274483945307"><ele>307.25</ele><time>2026-05-01T13:14:57Z</time></trkpt><trkpt lat="43.92353413886946" lon="11.188448285846642"><ele>310.5</ele><time>2026-05-01T13:14:58Z</time></trkpt><trkpt lat="43.92348645914955" lon="11.188606108041915"><ele>313.75</ele><time>2026-05-01T13:14:59Z</time></trkpt><trkpt lat="43.92344249961153" lon="11.188740908245418"><ele>317.0</ele><time>2026-05-01T13:15:00Z</time></trkpt><trkpt lat="43.923387358232" lon="11.188856769491927"><ele>311.5</ele><time>2026-05-01T13:15:01Z</time></trkpt><trkpt lat="43.92332976866527" lon="11.18894776654909"><ele>306.0</ele><time>2026-05-01T13:15:02Z</time></trkpt><trkpt lat="43.92327798027486" lon="11.189022224059059"><ele>300.5</ele><time>2026-05-01T13:15:03Z</time></trkpt><trkpt lat="43.9232227039448" lon="11.18909484556156"><ele>295.0</ele><time>2026-05-01T13:15:05Z</time></trkpt><trkpt lat="43.923178263447085" lon="11.189161823985268"><ele>289.5</ele><time>2026-05-01T13:15:17Z</time></trkpt><trkpt lat="43.923104434815805" lon="11.189226539370557"><ele>284.0</ele><time>2026-05-01T13:15:18Z</time></trkpt><trkpt lat="43.923057250739916" lon="11.189325022756188"><ele>284.0</ele><time>2026-05-01T13:15:19Z</time></trkpt><trkpt lat="43.92304753517905" lon="11.189437377245408"><ele>284.0</ele><time>2026-05-01T13:15:20Z</time></trkpt><trkpt lat="43.92304060955039" lon="11.189548096084888"><ele>284.0</ele><time>2026-05-01T13:15:21Z</time></trkpt><trkpt lat="43.92303263553079" lon="11.18966760273923"><ele>284.0</ele><time>2026-05-01T13:15:22Z</time></trkpt><trkpt lat="43.923031511524556" lon="11.189786885305624"><ele>284.0</ele><time>2026-05-01T13:15:23Z</time></trkpt><trkpt lat="43.92303180396727" lon="11.189914264705907"><ele>284.0</ele><time>2026-05-01T13:15:24Z</time></trkpt><trkpt lat="43.92303738379013" lon="11.19004264845926"><ele>283.33333333333337</ele><time>2026-05-01T13:15:25Z</time></trkpt><trkpt lat="43.92304374893357" lon="11.190156031746772"><ele>282.6666666666667</ele><time>2026-05-01T13:15:26Z</time></trkpt><trkpt lat="43.92301199563319" lon="11.1902572115285"><ele>282.0</ele><time>2026-05-01T13:15:27Z</time></trkpt><trkpt lat="43.922949938741795" lon="11.190334957580784"><ele>281.3333333333333</ele><time>2026-05-01T13:15:28Z</time></trkpt><trkpt lat="43.92287972365685" lon="11.19039722680236"><ele>280.66666666666663</ele><time>2026-05-01T13:15:29Z</time></trkpt><trkpt lat="43.922809031234344" lon="11.190453994821345"><ele>280.0</ele><time>2026-05-01T13:15:30Z</time></trkpt><trkpt lat="43.92273184394199" lon="11.190502422549939"><ele>280.0</ele><time>2026-05-01T13:15:31Z</time></trkpt><trkpt lat="43.92265033572391" lon="11.190573246833642"><ele>280.0</ele><time>2026-05-01T13:15:32Z</time></trkpt><trkpt lat="43.92258070437275" lon="11.190654634563224"><ele>280.0</ele><time>2026-05-01T13:15:33Z</time></trkpt><trkpt lat="43.92252228574495" lon="11.190744229936255"><ele>280.0</ele><time>2026-05-01T13:15:34Z</time></trkpt><trkpt lat="43.92245322862876" lon="11.19083037036962"><ele>280.0</ele><time>2026-05-01T13:15:35Z</time></trkpt><trkpt lat="43.922384498701824" lon="11.19093043516318"><ele>274.6</ele><time>2026-05-01T13:15:36Z</time></trkpt><trkpt lat="43.92232656546633" lon="11.191043692556622"><ele>269.2</ele><time>2026-05-01T13:15:37Z</time></trkpt><trkpt lat="43.92226447535352" lon="11.191137720513876"><ele>263.8</ele><time>2026-05-01T13:15:38Z</time></trkpt><trkpt lat="43.922170545859686" lon="11.191176133402616"><ele>258.4</ele><time>2026-05-01T13:15:39Z</time></trkpt><trkpt lat="43.92206663964274" lon="11.19121335824181"><ele>253.0</ele><time>2026-05-01T13:15:40Z</time></trkpt><trkpt lat="43.92196532785072" lon="11.191272463656764"><ele>252.99999999999997</ele><time>2026-05-01T13:15:41Z</time></trkpt><trkpt lat="43.92187522390795" lon="11.191330229270593"><ele>253.0</ele><time>2026-05-01T13:15:42Z</time></trkpt><trkpt lat="43.92178903810537" lon="11.191339071004593"><ele>253.0</ele><time>2026-05-01T13:15:43Z</time></trkpt><trkpt lat="43.92170269083557" lon="11.191311015304114"><ele>253.0</ele><time>2026-05-01T13:15:44Z</time></trkpt><trkpt lat="43.92163146228616" lon="11.191273376722465"><ele>252.99999999999997</ele><time>2026-05-01T13:15:45Z</time></trkpt><trkpt lat="43.92154638002136" lon="11.191203809283861"><ele>253.0</ele><time>2026-05-01T13:15:47Z</time></trkpt><trkpt lat="43.92147572924437" lon="11.191261804300805"><ele>251.75</ele><time>2026-05-01T13:15:49Z</time></trkpt><trkpt lat="43.92136472900235" lon="11.191276573061549"><ele>250.5</ele><time>2026-05-01T13:15:51Z</time></trkpt><trkpt lat="43.92126485767704" lon="11.19133444759748"><ele>249.25</ele><time>2026-05-01T13:15:53Z</time></trkpt><trkpt lat="43.921205905318224" lon="11.191464014364234"><ele>248.0</ele><time>2026-05-01T13:15:55Z</time></trkpt><trkpt lat="43.92118888343982" lon="11.191632253472248"><ele>248.0</ele><time>2026-05-01T13:15:57Z</time></trkpt><trkpt lat="43.92116019169234" lon="11.191781153229265"><ele>248.0</ele><time>2026-05-01T13:15:59Z</time></trkpt><trkpt lat="43.921138306393466" lon="11.191917434446719"><ele>248.0</ele><time>2026-05-01T13:16:01Z</time></trkpt><trkpt lat="43.92109429534465" lon="11.192088664303832"><ele>248.0</ele><time>2026-05-01T13:16:03Z</time></trkpt><trkpt lat="43.921046144513824" lon="11.192200646542545"><ele>248.0</ele><time>2026-05-01T13:16:04Z</time></trkpt><trkpt lat="43.92097150769472" lon="11.192281515605167"><ele>249.33333333333334</ele><time>2026-05-01T13:16:05Z</time></trkpt><trkpt lat="43.92092231296142" lon="11.192364680395322"><ele>250.66666666666669</ele><time>2026-05-01T13:16:06Z</time></trkpt><trkpt lat="43.92088437408128" lon="11.192438559342365"><ele>252.0</ele><time>2026-05-01T13:16:07Z</time></trkpt><trkpt lat="43.92087306048713" lon="11.192549591316139"><ele>253.33333333333331</ele><time>2026-05-01T13:16:08Z</time></trkpt><trkpt lat="43.92087898717067" lon="11.192688384879357"><ele>254.66666666666666</ele><time>2026-05-01T13:16:09Z</time></trkpt><trkpt lat="43.92086943809269" lon="11.192857294565433"><ele>256.0</ele><time>2026-05-01T13:16:10Z</time></trkpt><trkpt lat="43.92084968343" lon="11.1930251181164"><ele>255.99999999999997</ele><time>2026-05-01T13:16:11Z</time></trkpt><trkpt lat="43.92083479369779" lon="11.193167517726202"><ele>256.0</ele><time>2026-05-01T13:16:12Z</time></trkpt><trkpt lat="43.92083242310221" lon="11.193313804360125"><ele>256.0</ele><time>2026-05-01T13:16:14Z</time></trkpt><trkpt lat="43.92091382882617" lon="11.193371925690922"><ele>256.0</ele><time>2026-05-01T13:16:16Z</time></trkpt><trkpt lat="43.92097333374315" lon="11.193326548022144"><ele>255.99999999999997</ele><time>2026-05-01T13:16:17Z</time></trkpt><trkpt lat="43.92103534045914" lon="11.193285210391975"><ele>256.0</ele><time>2026-05-01T13:16:18Z</time></trkpt><trkpt lat="43.9211380727341" lon="11.193339107434037"><ele>259.8</ele><time>2026-05-01T13:16:20Z</time></trkpt><trkpt lat="43.921210170397586" lon="11.19348269669299"><ele>263.6</ele><time>2026-05-01T13:16:22Z</time></trkpt><trkpt lat="43.921274394800996" lon="11.19355487625508"><ele>267.4</ele><time>2026-05-01T13:16:23Z</time></trkpt><trkpt lat="43.92133708119991" lon="11.19361177232314"><ele>271.2</ele><time>2026-05-01T13:16:24Z</time></trkpt><trkpt lat="43.92142491853692" lon="11.193698906038984"><ele>275.0</ele><time>2026-05-01T13:16:25Z</time></trkpt><trkpt lat="43.92150519054262" lon="11.193789087429176"><ele>275.0</ele><time>2026-05-01T13:16:26Z</time></trkpt><trkpt lat="43.92159536937021" lon="11.19389621177267"><ele>275.0</ele><time>2026-05-01T13:16:27Z</time></trkpt><trkpt lat="43.92170251174772" lon="11.194062755667808"><ele>275.0</ele><time>2026-05-01T13:16:28Z</time></trkpt><trkpt lat="43.921806789917724" lon="11.194244311136602"><ele>275.0</ele><time>2026-05-01T13:16:29Z</time></trkpt><trkpt lat="43.921894164685945" lon="11.194451767321674"><ele>280.0</ele><time>2026-05-01T13:16:30Z</time></trkpt><trkpt lat="43.92197389492074" lon="11.194662702223587"><ele>285.0</ele><time>2026-05-01T13:16:31Z</time></trkpt><trkpt lat="43.92204207898666" lon="11.19479640592868"><ele>290.0</ele><time>2026-05-01T13:16:32Z</time></trkpt><trkpt lat="43.92209072796709" lon="11.194888887810901"><ele>295.0</ele><time>2026-05-01T13:16:33Z</time></trkpt><trkpt lat="43.922155098475116" lon="11.194988962021776"><ele>296.8</ele><time>2026-05-01T13:16:34Z</time></trkpt><trkpt lat="43.92224664121867" lon="11.195076974032242"><ele>298.6</ele><time>2026-05-01T13:16:35Z</time></trkpt><trkpt lat="43.92233121641153" lon="11.195161579870568"><ele>300.4</ele><time>2026-05-01T13:16:36Z</time></trkpt><trkpt lat="43.92238383921431" lon="11.195258898145944"><ele>302.2</ele><time>2026-05-01T13:16:37Z</time></trkpt><trkpt lat="43.92241811802272" lon="11.195380715514395"><ele>304.0</ele><time>2026-05-01T13:16:38Z</time></trkpt><trkpt lat="43.92242533453202" lon="11.195484126293165"><ele>304.0</ele><time>2026-05-01T13:16:39Z</time></trkpt><trkpt lat="43.922488457333536" lon="11.195631239179225"><ele>304.0</ele><time>2026-05-01T13:16:41Z</time></trkpt><trkpt lat="43.92253692537378" lon="11.195703731472237"><ele>304.0</ele><time>2026-05-01T13:16:42Z</time></trkpt><trkpt lat="43.922604958521624" lon="11.195764270254417"><ele>304.0</ele><time>2026-05-01T13:16:43Z</time></trkpt><trkpt lat="43.922690778617884" lon="11.195829659955157"><ele>304.0</ele><time>2026-05-01T13:16:44Z</time></trkpt><trkpt lat="43.92276046113995" lon="11.195884576691327"><ele>308.2</ele><time>2026-05-01T13:16:45Z</time></trkpt><trkpt lat="43.92280546224343" lon="11.195960355968516"><ele>312.4</ele><time>2026-05-01T13:16:46Z</time></trkpt><trkpt lat="43.92285361695512" lon="11.196049232415922"><ele>316.6</ele><time>2026-05-01T13:16:47Z</time></trkpt><trkpt lat="43.92294946643434" lon="11.196117494501147"><ele>320.8</ele><time>2026-05-01T13:16:48Z</time></trkpt><trkpt lat="43.92306663867844" lon="11.196177711517304"><ele>325.0</ele><time>2026-05-01T13:16:49Z</time></trkpt><trkpt lat="43.923188663107155" lon="11.196238223507518"><ele>325.0</ele><time>2026-05-01T13:16:50Z</time></trkpt><trkpt lat="43.92325932520954" lon="11.196333927712878"><ele>325.0</ele><time>2026-05-01T13:16:51Z</time></trkpt><trkpt lat="43.92331300678482" lon="11.196403453211067"><ele>325.0</ele><time>2026-05-01T13:16:52Z</time></trkpt><trkpt lat="43.92338168531302" lon="11.196492933308848"><ele>325.0</ele><time>2026-05-01T13:16:53Z</time></trkpt><trkpt lat="43.9234466295864" lon="11.19658854089234"><ele>325.0</ele><time>2026-05-01T13:16:54Z</time></trkpt><trkpt lat="43.92351966268505" lon="11.196659022020183"><ele>324.4</ele><time>2026-05-01T13:16:55Z</time></trkpt><trkpt lat="43.92355164080672" lon="11.196776992761057"><ele>323.8</ele><time>2026-05-01T13:16:56Z</time></trkpt><trkpt lat="43.92357401150574" lon="11.196954844366926"><ele>323.20000000000005</ele><time>2026-05-01T13:16:57Z</time></trkpt><trkpt lat="43.923608821534295" lon="11.197130491464629"><ele>322.6</ele><time>2026-05-01T13:16:58Z</time></trkpt><trkpt lat="43.92362380881819" lon="11.197246148571821"><ele>322.0</ele><time>2026-05-01T13:16:59Z</time></trkpt><trkpt lat="43.923624463169" lon="11.197353744837015"><ele>322.0</ele><time>2026-05-01T13:17:00Z</time></trkpt><trkpt lat="43.92360254607096" lon="11.197547719707776"><ele>322.0</ele><time>2026-05-01T13:17:02Z</time></trkpt><trkpt lat="43.9236135632857" lon="11.197641737263522"><ele>322.0</ele><time>2026-05-01T13:17:03Z</time></trkpt><trkpt lat="43.92368221657723" lon="11.197779794584337"><ele>322.0</ele><time>2026-05-01T13:17:05Z</time></trkpt><trkpt lat="43.923766369988144" lon="11.19787144020665"><ele>322.0</ele><time>2026-05-01T13:17:07Z</time></trkpt><trkpt lat="43.92385471754326" lon="11.197933122499384"><ele>322.0</ele><time>2026-05-01T13:17:08Z</time></trkpt><trkpt lat="43.923973203488735" lon="11.198020817622588"><ele>322.0</ele><time>2026-05-01T13:17:09Z</time></trkpt><trkpt lat="43.92409724220168" lon="11.19810330667655"><ele>322.0</ele><time>2026-05-01T13:17:10Z</time></trkpt><trkpt lat="43.924217125398" lon="11.1981984232962"><ele>322.0</ele><time>2026-05-01T13:17:11Z</time></trkpt><trkpt lat="43.9243239939905" lon="11.19825697737597"><ele>318.6</ele><time>2026-05-01T13:17:12Z</time></trkpt><trkpt lat="43.92439792967797" lon="11.198315133370434"><ele>315.20000000000005</ele><time>2026-05-01T13:17:13Z</time></trkpt><trkpt lat="43.92447122345576" lon="11.1983690856658"><ele>311.8</ele><time>2026-05-01T13:17:14Z</time></trkpt><trkpt lat="43.924583750896495" lon="11.198431038913098"><ele>308.4</ele><time>2026-05-01T13:17:16Z</time></trkpt><trkpt lat="43.924664820999425" lon="11.19842612880525"><ele>305.0</ele><time>2026-05-01T13:17:17Z</time></trkpt><trkpt lat="43.92475471856197" lon="11.19840204151348"><ele>305.0</ele><time>2026-05-01T13:17:18Z</time></trkpt><trkpt lat="43.924828056741035" lon="11.19841668054203"><ele>305.0</ele><time>2026-05-01T13:17:19Z</time></trkpt><trkpt lat="43.92489740331584" lon="11.19844007835207"><ele>305.0</ele><time>2026-05-01T13:17:20Z</time></trkpt><trkpt lat="43.92496105741135" lon="11.198470397272036"><ele>305.0</ele><time>2026-05-01T13:17:21Z</time></trkpt><trkpt lat="43.92503156148023" lon="11.19849858095477"><ele>305.0</ele><time>2026-05-01T13:17:22Z</time></trkpt><trkpt lat="43.925106722804884" lon="11.198517845212292"><ele>305.0</ele><time>2026-05-01T13:17:23Z</time></trkpt><trkpt lat="43.92517278344192" lon="11.198520968118975"><ele>305.0</ele><time>2026-05-01T13:17:24Z</time></trkpt><trkpt lat="43.92525622893886" lon="11.198546839527092"><ele>301.83333333333337</ele><time>2026-05-01T13:17:26Z</time></trkpt><trkpt lat="43.92532160069924" lon="11.198499861534607"><ele>298.6666666666667</ele><time>2026-05-01T13:17:28Z</time></trkpt><trkpt lat="43.92539252601102" lon="11.198488013144436"><ele>295.5</ele><time>2026-05-01T13:17:30Z</time></trkpt><trkpt lat="43.925460577394794" lon="11.198504968890603"><ele>292.3333333333333</ele><time>2026-05-01T13:17:32Z</time></trkpt><trkpt lat="43.92553820003939" lon="11.198498721597547"><ele>289.16666666666663</ele><time>2026-05-01T13:17:34Z</time></trkpt><trkpt lat="43.925601414142136" lon="11.198431953870623"><ele>286.0</ele><time>2026-05-01T13:17:36Z</time></trkpt><trkpt lat="43.92565870646805" lon="11.198345858300872"><ele>286.0</ele><time>2026-05-01T13:17:38Z</time></trkpt><trkpt lat="43.92570866286072" lon="11.19823675875534"><ele>286.0</ele><time>2026-05-01T13:17:40Z</time></trkpt><trkpt lat="43.925740221900156" lon="11.19812047927936"><ele>286.0</ele><time>2026-05-01T13:17:42Z</time></trkpt><trkpt lat="43.925777965459815" lon="11.19795872721582"><ele>286.0</ele><time>2026-05-01T13:17:44Z</time></trkpt><trkpt lat="43.92581064535442" lon="11.197871236972718"><ele>286.0</ele><time>2026-05-01T13:17:45Z</time></trkpt><trkpt lat="43.92584891813684" lon="11.19778865539192"><ele>286.0</ele><time>2026-05-01T13:17:46Z</time></trkpt><trkpt lat="43.92588242008546" lon="11.19771235428544"><ele>286.3333333333333</ele><time>2026-05-01T13:17:47Z</time></trkpt><trkpt lat="43.92596863972042" lon="11.197589976826174"><ele>286.66666666666663</ele><time>2026-05-01T13:17:49Z</time></trkpt><trkpt lat="43.9260260032005" lon="11.197522371454326"><ele>287.0</ele><time>2026-05-01T13:17:50Z</time></trkpt><trkpt lat="43.92608920982091" lon="11.197460257578783"><ele>287.3333333333333</ele><time>2026-05-01T13:17:51Z</time></trkpt><trkpt lat="43.92614881948411" lon="11.197415459100927"><ele>287.6666666666667</ele><time>2026-05-01T13:17:52Z</time></trkpt><trkpt lat="43.92621095018758" lon="11.197391844338096"><ele>288.0</ele><time>2026-05-01T13:17:53Z</time></trkpt><trkpt lat="43.926334530161" lon="11.19738224662436"><ele>288.0</ele><time>2026-05-01T13:17:55Z</time></trkpt><trkpt lat="43.9264284480374" lon="11.197379745229453"><ele>288.0</ele><time>2026-05-01T13:17:56Z</time></trkpt><trkpt lat="43.92653223045434" lon="11.1973961238847"><ele>288.0</ele><time>2026-05-01T13:17:57Z</time></trkpt><trkpt lat="43.92660460836235" lon="11.197392573517638"><ele>288.0</ele><time>2026-05-01T13:17:58Z</time></trkpt><trkpt lat="43.92667258423215" lon="11.19739563489075"><ele>288.0</ele><time>2026-05-01T13:17:59Z</time></trkpt><trkpt lat="43.92679037302959" lon="11.197378455513531"><ele>289.6666666666667</ele><time>2026-05-01T13:18:01Z</time></trkpt><trkpt lat="43.92688687456249" lon="11.197367101746392"><ele>291.3333333333333</ele><time>2026-05-01T13:18:03Z</time></trkpt><trkpt lat="43.92696907818672" lon="11.197356594311655"><ele>293.0</ele><time>2026-05-01T13:18:05Z</time></trkpt><trkpt lat="43.927043622431036" lon="11.197320670035639"><ele>294.66666666666663</ele><time>2026-05-01T13:18:07Z</time></trkpt><trkpt lat="43.927104884382395" lon="11.197273402047605"><ele>296.3333333333333</ele><time>2026-05-01T13:18:09Z</time></trkpt><trkpt lat="43.9271923850856" lon="11.197211857651316"><ele>298.0</ele><time>2026-05-01T13:18:11Z</time></trkpt><trkpt lat="43.92726183015883" lon="11.197194609532291"><ele>298.0</ele><time>2026-05-01T13:18:12Z</time></trkpt><trkpt lat="43.9273773003901" lon="11.197262581420313"><ele>298.0</ele><time>2026-05-01T13:18:14Z</time></trkpt><trkpt lat="43.92744384290495" lon="11.197311264483575"><ele>298.0</ele><time>2026-05-01T13:18:15Z</time></trkpt><trkpt lat="43.92755009254974" lon="11.19740139877238"><ele>298.0</ele><time>2026-05-01T13:18:17Z</time></trkpt><trkpt lat="43.927610671256474" lon="11.197444683289438"><ele>298.0</ele><time>2026-05-01T13:18:18Z</time></trkpt><trkpt lat="43.927673157324335" lon="11.19748671642696"><ele>300.4</ele><time>2026-05-01T13:18:19Z</time></trkpt><trkpt lat="43.92773608582983" lon="11.197541844924018"><ele>302.8</ele><time>2026-05-01T13:18:20Z</time></trkpt><trkpt lat="43.927809058457974" lon="11.197615953111315"><ele>305.2</ele><time>2026-05-01T13:18:21Z</time></trkpt><trkpt lat="43.92789996092035" lon="11.197699532890162"><ele>307.6</ele><time>2026-05-01T13:18:22Z</time></trkpt><trkpt lat="43.92802831070829" lon="11.197793383468683"><ele>310.0</ele><time>2026-05-01T13:18:23Z</time></trkpt><trkpt lat="43.92814321754384" lon="11.197867868576596"><ele>310.0</ele><time>2026-05-01T13:18:24Z</time></trkpt><trkpt lat="43.928210155397295" lon="11.197892751635475"><ele>310.0</ele><time>2026-05-01T13:18:25Z</time></trkpt><trkpt lat="43.928252884058324" lon="11.197981338804336"><ele>310.0</ele><time>2026-05-01T13:18:27Z</time></trkpt><trkpt lat="43.92826356731364" lon="11.198113974946907"><ele>310.0</ele><time>2026-05-01T13:18:29Z</time></trkpt><trkpt lat="43.92832204108596" lon="11.198220882786853"><ele>310.0</ele><time>2026-05-01T13:18:31Z</time></trkpt><trkpt lat="43.92844627535007" lon="11.198171529580232"><ele>312.0</ele><time>2026-05-01T13:18:33Z</time></trkpt><trkpt lat="43.92851550701414" lon="11.198134005972783"><ele>314.0</ele><time>2026-05-01T13:18:35Z</time></trkpt><trkpt lat="43.928615530438506" lon="11.198111087258532"><ele>316.0</ele><time>2026-05-01T13:18:38Z</time></trkpt><trkpt lat="43.92871870551134" lon="11.198151954170774"><ele>318.0</ele><time>2026-05-01T13:18:40Z</time></trkpt><trkpt lat="43.92877898004769" lon="11.198200000944546"><ele>320.0</ele><time>2026-05-01T13:18:41Z</time></trkpt><trkpt lat="43.92884583055275" lon="11.198263579988188"><ele>322.0</ele><time>2026-05-01T13:18:42Z</time></trkpt><trkpt lat="43.92888394066125" lon="11.198362022337761"><ele>322.0</ele><time>2026-05-01T13:18:43Z</time></trkpt><trkpt lat="43.92886865077884" lon="11.198508507089112"><ele>322.0</ele><time>2026-05-01T13:18:45Z</time></trkpt><trkpt lat="43.928836314842144" lon="11.19859887778068"><ele>322.0</ele><time>2026-05-01T13:20:44Z</time></trkpt><trkpt lat="43.92881298722102" lon="11.198685941166522"><ele>322.0</ele><time>2026-05-01T13:20:46Z</time></trkpt><trkpt lat="43.92878986113123" lon="11.198790060675867"><ele>322.0</ele><time>2026-05-01T13:20:48Z</time></trkpt><trkpt lat="43.92876176816348" lon="11.198960309039213"><ele>321.8</ele><time>2026-05-01T13:20:50Z</time></trkpt><trkpt lat="43.92873559362254" lon="11.199057091664823"><ele>321.6</ele><time>2026-05-01T13:20:51Z</time></trkpt><trkpt lat="43.92873143773888" lon="11.199229704642319"><ele>321.40000000000003</ele><time>2026-05-01T13:20:53Z</time></trkpt><trkpt lat="43.92869330951362" lon="11.199364960680445"><ele>321.20000000000005</ele><time>2026-05-01T13:20:54Z</time></trkpt><trkpt lat="43.928639209404864" lon="11.19951411022356"><ele>321.0</ele><time>2026-05-01T13:20:55Z</time></trkpt><trkpt lat="43.92860922757577" lon="11.19965780748652"><ele>321.0</ele><time>2026-05-01T13:20:56Z</time></trkpt><trkpt lat="43.92854559937391" lon="11.199764728696074"><ele>321.0</ele><time>2026-05-01T13:20:57Z</time></trkpt><trkpt lat="43.92848184756058" lon="11.199878159006012"><ele>321.0</ele><time>2026-05-01T13:20:58Z</time></trkpt><trkpt lat="43.92844558222593" lon="11.200024126908119"><ele>321.0</ele><time>2026-05-01T13:20:59Z</time></trkpt><trkpt lat="43.928414885725466" lon="11.20013576792652"><ele>321.0</ele><time>2026-05-01T13:21:00Z</time></trkpt><trkpt lat="43.92836473385297" lon="11.200297858421989"><ele>318.2</ele><time>2026-05-01T13:21:02Z</time></trkpt><trkpt lat="43.928326995088796" lon="11.200466241906602"><ele>315.40000000000003</ele><time>2026-05-01T13:21:04Z</time></trkpt><trkpt lat="43.92831954115465" lon="11.200597980030652"><ele>312.6</ele><time>2026-05-01T13:21:06Z</time></trkpt><trkpt lat="43.928315941182554" lon="11.200694455717075"><ele>309.8</ele><time>2026-05-01T13:21:08Z</time></trkpt><trkpt lat="43.928414305156" lon="11.200816035997814"><ele>307.0</ele><time>2026-05-01T13:21:09Z</time></trkpt><trkpt lat="43.92850352015898" lon="11.200927341772976"><ele>307.0</ele><time>2026-05-01T13:21:10Z</time></trkpt><trkpt lat="43.92858376674556" lon="11.201000726619897"><ele>307.0</ele><time>2026-05-01T13:21:11Z</time></trkpt><trkpt lat="43.92868919581055" lon="11.201030387922101"><ele>307.0</ele><time>2026-05-01T13:21:12Z</time></trkpt><trkpt lat="43.928811317548806" lon="11.201084041531992"><ele>307.0</ele><time>2026-05-01T13:21:13Z</time></trkpt><trkpt lat="43.928941644784416" lon="11.201110795446871"><ele>307.0</ele><time>2026-05-01T13:21:14Z</time></trkpt><trkpt lat="43.92906754017718" lon="11.201166269224965"><ele>307.0</ele><time>2026-05-01T13:21:15Z</time></trkpt><trkpt lat="43.929200749541934" lon="11.201283368130765"><ele>307.0</ele><time>2026-05-01T13:21:16Z</time></trkpt><trkpt lat="43.92936773843014" lon="11.201404750229994"><ele>307.0</ele><time>2026-05-01T13:21:17Z</time></trkpt><trkpt lat="43.92955965425698" lon="11.201531726014613"><ele>307.0</ele><time>2026-05-01T13:21:18Z</time></trkpt><trkpt lat="43.929750648521654" lon="11.201648000816034"><ele>307.0</ele><time>2026-05-01T13:21:19Z</time></trkpt><trkpt lat="43.92988053017351" lon="11.201725928091143"><ele>307.0</ele><time>2026-05-01T13:21:20Z</time></trkpt><trkpt lat="43.929957735828566" lon="11.201801106692697"><ele>307.0</ele><time>2026-05-01T13:21:21Z</time></trkpt><trkpt lat="43.930033526627305" lon="11.20184328080977"><ele>307.0</ele><time>2026-05-01T13:21:22Z</time></trkpt><trkpt lat="43.9301243540381" lon="11.201982313762572"><ele>307.0</ele><time>2026-05-01T13:21:24Z</time></trkpt><trkpt lat="43.930168219022605" lon="11.202060313304091"><ele>307.0</ele><time>2026-05-01T13:21:25Z</time></trkpt><trkpt lat="43.93021331798601" lon="11.202200552964964"><ele>307.4</ele><time>2026-05-01T13:21:27Z</time></trkpt><trkpt lat="43.930204989363084" lon="11.202342766766707"><ele>307.79999999999995</ele><time>2026-05-01T13:21:29Z</time></trkpt><trkpt lat="43.930170537282436" lon="11.202426289856625"><ele>308.2</ele><time>2026-05-01T13:21:30Z</time></trkpt><trkpt lat="43.93012039172235" lon="11.202491875444542"><ele>308.59999999999997</ele><time>2026-05-01T13:21:31Z</time></trkpt><trkpt lat="43.93005022119344" lon="11.202602863092178"><ele>309.0</ele><time>2026-05-01T13:21:33Z</time></trkpt><trkpt lat="43.93001626886031" lon="11.20276284529928"><ele>309.0</ele><time>2026-05-01T13:21:35Z</time></trkpt><trkpt lat="43.92999184468231" lon="11.202921155075408"><ele>309.0</ele><time>2026-05-01T13:21:37Z</time></trkpt><trkpt lat="43.92997243242678" lon="11.20306428770512"><ele>309.0</ele><time>2026-05-01T13:21:39Z</time></trkpt><trkpt lat="43.92997021156129" lon="11.203166308809843"><ele>309.0</ele><time>2026-05-01T13:21:41Z</time></trkpt><trkpt lat="43.93002541856646" lon="11.203215814554987"><ele>309.0</ele><time>2026-05-01T13:21:44Z</time></trkpt><trkpt lat="43.93007659708572" lon="11.203150051736388"><ele>309.0</ele><time>2026-05-01T13:21:46Z</time></trkpt><trkpt lat="43.93013245993584" lon="11.203059703848329"><ele>310.0</ele><time>2026-05-01T13:21:48Z</time></trkpt><trkpt lat="43.93021519774132" lon="11.203005659626713"><ele>311.0</ele><time>2026-05-01T13:21:50Z</time></trkpt><trkpt lat="43.930293201506345" lon="11.20292017395609"><ele>312.0</ele><time>2026-05-01T13:21:52Z</time></trkpt><trkpt lat="43.930346127994916" lon="11.202830068017466"><ele>313.0</ele><time>2026-05-01T13:21:54Z</time></trkpt><trkpt lat="43.93037885745581" lon="11.20271733646699"><ele>314.0</ele><time>2026-05-01T13:21:56Z</time></trkpt><trkpt lat="43.93043757681576" lon="11.202617040840241"><ele>314.0</ele><time>2026-05-01T13:21:58Z</time></trkpt><trkpt lat="43.93053649560086" lon="11.202563166938187"><ele>314.0</ele><time>2026-05-01T13:22:00Z</time></trkpt><trkpt lat="43.93063873495703" lon="11.202465158231464"><ele>314.0</ele><time>2026-05-01T13:22:02Z</time></trkpt><trkpt lat="43.93071424021041" lon="11.202338006270763"><ele>314.0</ele><time>2026-05-01T13:22:04Z</time></trkpt><trkpt lat="43.930768082338666" lon="11.202268975674668"><ele>314.0</ele><time>2026-05-01T13:22:05Z</time></trkpt><trkpt lat="43.93081614571589" lon="11.202197238482398"><ele>314.2857142857143</ele><time>2026-05-01T13:22:06Z</time></trkpt><trkpt lat="43.93085983811345" lon="11.202103144291282"><ele>314.57142857142856</ele><time>2026-05-01T13:22:07Z</time></trkpt><trkpt lat="43.930897127862124" lon="11.202023577769818"><ele>314.8571428571429</ele><time>2026-05-01T13:22:08Z</time></trkpt><trkpt lat="43.93091815621116" lon="11.20193066354975"><ele>315.1428571428571</ele><time>2026-05-01T13:22:09Z</time></trkpt><trkpt lat="43.93090754669575" lon="11.201831583058157"><ele>315.42857142857144</ele><time>2026-05-01T13:22:10Z</time></trkpt><trkpt lat="43.93090291399298" lon="11.201731521282614"><ele>315.7142857142857</ele><time>2026-05-01T13:22:11Z</time></trkpt><trkpt lat="43.930892126225025" lon="11.201641460228108"><ele>316.0</ele><time>2026-05-01T13:22:12Z</time></trkpt><trkpt lat="43.93089236426227" lon="11.201538865870765"><ele>318.0</ele><time>2026-05-01T13:22:13Z</time></trkpt><trkpt lat="43.930946892972706" lon="11.201406017774703"><ele>320.0</ele><time>2026-05-01T13:22:15Z</time></trkpt><trkpt lat="43.93094374090524" lon="11.201276898906274"><ele>322.0</ele><time>2026-05-01T13:22:17Z</time></trkpt><trkpt lat="43.93093449445236" lon="11.201190155085564"><ele>324.0</ele><time>2026-05-01T13:22:18Z</time></trkpt><trkpt lat="43.93092554553535" lon="11.201088013375825"><ele>326.0</ele><time>2026-05-01T13:22:19Z</time></trkpt><trkpt lat="43.93093930143653" lon="11.200971832891517"><ele>328.0</ele><time>2026-05-01T13:22:20Z</time></trkpt><trkpt lat="43.930980034997575" lon="11.200864161083254"><ele>328.0</ele><time>2026-05-01T13:22:21Z</time></trkpt><trkpt lat="43.931046725858614" lon="11.200773687115628"><ele>328.0</ele><time>2026-05-01T13:22:22Z</time></trkpt><trkpt lat="43.93110731468056" lon="11.200684573316996"><ele>328.0</ele><time>2026-05-01T13:22:23Z</time></trkpt><trkpt lat="43.93114629723317" lon="11.20059746885906"><ele>328.0</ele><time>2026-05-01T13:22:24Z</time></trkpt><trkpt lat="43.93117170540308" lon="11.200507261662876"><ele>328.0</ele><time>2026-05-01T13:22:25Z</time></trkpt><trkpt lat="43.931190995671024" lon="11.20042358181132"><ele>328.0</ele><time>2026-05-01T13:22:26Z</time></trkpt><trkpt lat="43.931209866870844" lon="11.200302469692401"><ele>330.66666666666663</ele><time>2026-05-01T13:22:27Z</time></trkpt><trkpt lat="43.931264784437666" lon="11.200241153668467"><ele>333.3333333333333</ele><time>2026-05-01T13:22:28Z</time></trkpt><trkpt lat="43.9312545077507" lon="11.200153909332084"><ele>336.0</ele><time>2026-05-01T13:22:31Z</time></trkpt><trkpt lat="43.93132671368673" lon="11.200132138287145"><ele>338.6666666666667</ele><time>2026-05-01T13:22:41Z</time></trkpt><trkpt lat="43.93139154230929" lon="11.200103821740694"><ele>341.33333333333337</ele><time>2026-05-01T13:22:42Z</time></trkpt><trkpt lat="43.93144683392324" lon="11.20000790139301"><ele>344.0</ele><time>2026-05-01T13:22:44Z</time></trkpt><trkpt lat="43.93142228650335" lon="11.199874929257307"><ele>347.0</ele><time>2026-05-01T13:22:46Z</time></trkpt><trkpt lat="43.93144231031429" lon="11.199767100784209"><ele>350.0</ele><time>2026-05-01T13:22:48Z</time></trkpt><trkpt lat="43.93141313065903" lon="11.199663044863103"><ele>353.0</ele><time>2026-05-01T13:22:50Z</time></trkpt><trkpt lat="43.93135760672928" lon="11.199558249310321"><ele>356.0</ele><time>2026-05-01T13:22:52Z</time></trkpt><trkpt lat="43.931265119530636" lon="11.1995339663009"><ele>359.0</ele><time>2026-05-01T13:22:53Z</time></trkpt><trkpt lat="43.93119188030214" lon="11.199477504029995"><ele>362.0</ele><time>2026-05-01T13:22:54Z</time></trkpt><trkpt lat="43.931147375938174" lon="11.199403458755622"><ele>362.0</ele><time>2026-05-01T13:22:55Z</time></trkpt><trkpt lat="43.931095963976475" lon="11.199324309137387"><ele>362.0</ele><time>2026-05-01T13:22:56Z</time></trkpt><trkpt lat="43.93105502768369" lon="11.199218592319479"><ele>362.0</ele><time>2026-05-01T13:22:58Z</time></trkpt><trkpt lat="43.93109287292544" lon="11.19911760885769"><ele>362.0</ele><time>2026-05-01T13:23:00Z</time></trkpt><trkpt lat="43.93119259153038" lon="11.199157762004097"><ele>362.0</ele><time>2026-05-01T13:23:02Z</time></trkpt><trkpt lat="43.931263460738734" lon="11.199175986883587"><ele>362.0</ele><time>2026-05-01T13:23:03Z</time></trkpt><trkpt lat="43.931337138102286" lon="11.19909602489259"><ele>364.40000000000003</ele><time>2026-05-01T13:23:05Z</time></trkpt><trkpt lat="43.93142764648018" lon="11.198967222695412"><ele>366.8</ele><time>2026-05-01T13:23:07Z</time></trkpt><trkpt lat="43.93146402001371" lon="11.198861861840824"><ele>369.2</ele><time>2026-05-01T13:23:09Z</time></trkpt><trkpt lat="43.9314718833391" lon="11.19874487089136"><ele>371.6</ele><time>2026-05-01T13:23:11Z</time></trkpt><trkpt lat="43.93144862292293" lon="11.198627650059626"><ele>374.0</ele><time>2026-05-01T13:23:13Z</time></trkpt><trkpt lat="43.931446624763495" lon="11.19847316972091"><ele>374.0</ele><time>2026-05-01T13:23:15Z</time></trkpt><trkpt lat="43.93141714516978" lon="11.198364610255787"><ele>374.0</ele><time>2026-05-01T13:23:17Z</time></trkpt><trkpt lat="43.93139607876672" lon="11.198270253297196"><ele>374.0</ele><time>2026-05-01T13:23:19Z</time></trkpt><trkpt lat="43.931432167347694" lon="11.198145491962343"><ele>374.0</ele><time>2026-05-01T13:23:21Z</time></trkpt><trkpt lat="43.93145394402262" lon="11.19806269663776"><ele>374.0</ele><time>2026-05-01T13:23:22Z</time></trkpt><trkpt lat="43.93145425740832" lon="11.197968380985145"><ele>374.0</ele><time>2026-05-01T13:23:23Z</time></trkpt><trkpt lat="43.9314533199064" lon="11.197862620849559"><ele>375.79999999999995</ele><time>2026-05-01T13:23:24Z</time></trkpt><trkpt lat="43.931457634124015" lon="11.197749507751174"><ele>377.59999999999997</ele><time>2026-05-01T13:23:25Z</time></trkpt><trkpt lat="43.93147282729862" lon="11.197625598114913"><ele>379.4</ele><time>2026-05-01T13:23:26Z</time></trkpt><trkpt lat="43.93149187924088" lon="11.19749317289644"><ele>381.2</ele><time>2026-05-01T13:23:27Z</time></trkpt><trkpt lat="43.931511903994675" lon="11.19735521649757"><ele>383.0</ele><time>2026-05-01T13:23:28Z</time></trkpt><trkpt lat="43.931539601625246" lon="11.1972038818154"><ele>383.59999999999997</ele><time>2026-05-01T13:23:29Z</time></trkpt><trkpt lat="43.93156880901834" lon="11.197043684318775"><ele>384.2</ele><time>2026-05-01T13:23:30Z</time></trkpt><trkpt lat="43.931601270418554" lon="11.196893276845048"><ele>384.8</ele><time>2026-05-01T13:23:31Z</time></trkpt><trkpt lat="43.93163880542201" lon="11.19675225287655"><ele>385.4</ele><time>2026-05-01T13:23:32Z</time></trkpt><trkpt lat="43.931669902536555" lon="11.196610171377584"><ele>386.0</ele><time>2026-05-01T13:23:33Z</time></trkpt><trkpt lat="43.93169538634024" lon="11.196476186814808"><ele>385.8</ele><time>2026-05-01T13:23:34Z</time></trkpt><trkpt lat="43.931722705171154" lon="11.196334749336518"><ele>385.6</ele><time>2026-05-01T13:23:35Z</time></trkpt><trkpt lat="43.93174358868454" lon="11.19618917164591"><ele>385.4</ele><time>2026-05-01T13:23:36Z</time></trkpt><trkpt lat="43.931746511898105" lon="11.196030689691673"><ele>385.2</ele><time>2026-05-01T13:23:37Z</time></trkpt><trkpt lat="43.93173330901104" lon="11.195889197926812"><ele>385.0</ele><time>2026-05-01T13:23:38Z</time></trkpt><trkpt lat="43.931718340784826" lon="11.195739216744649"><ele>385.6666666666667</ele><time>2026-05-01T13:23:39Z</time></trkpt><trkpt lat="43.93170866614884" lon="11.195592337405953"><ele>386.33333333333337</ele><time>2026-05-01T13:23:40Z</time></trkpt><trkpt lat="43.93170395585772" lon="11.195462570301459"><ele>387.0</ele><time>2026-05-01T13:23:41Z</time></trkpt><trkpt lat="43.931701512335984" lon="11.195358067807057"><ele>387.66666666666663</ele><time>2026-05-01T13:23:42Z</time></trkpt><trkpt lat="43.93170331361832" lon="11.195248093214467"><ele>388.3333333333333</ele><time>2026-05-01T13:23:44Z</time></trkpt><trkpt lat="43.931734032063524" lon="11.195168267376483"><ele>389.0</ele><time>2026-05-01T13:23:46Z</time></trkpt><trkpt lat="43.9318033581708" lon="11.195006891357062"><ele>389.0</ele><time>2026-05-01T13:23:48Z</time></trkpt><trkpt lat="43.93183507043956" lon="11.194897951691367"><ele>389.0</ele><time>2026-05-01T13:23:49Z</time></trkpt><trkpt lat="43.931873662812656" lon="11.194786856053208"><ele>389.0</ele><time>2026-05-01T13:23:50Z</time></trkpt><trkpt lat="43.93190496769468" lon="11.194664358198343"><ele>389.0</ele><time>2026-05-01T13:23:51Z</time></trkpt><trkpt lat="43.93193182892735" lon="11.194534437517163"><ele>389.0</ele><time>2026-05-01T13:23:52Z</time></trkpt><trkpt lat="43.93195173666313" lon="11.19439426799279"><ele>391.0</ele><time>2026-05-01T13:23:53Z</time></trkpt><trkpt lat="43.93196223865668" lon="11.194243938113686"><ele>393.0</ele><time>2026-05-01T13:23:54Z</time></trkpt><trkpt lat="43.931968928771816" lon="11.194074472575455"><ele>395.0</ele><time>2026-05-01T13:23:55Z</time></trkpt><trkpt lat="43.93197981530446" lon="11.193903890914905"><ele>397.0</ele><time>2026-05-01T13:23:56Z</time></trkpt><trkpt lat="43.931988646605504" lon="11.19371926091225"><ele>399.0</ele><time>2026-05-01T13:23:57Z</time></trkpt><trkpt lat="43.93198056370818" lon="11.193524967978794"><ele>401.0</ele><time>2026-05-01T13:23:58Z</time></trkpt><trkpt lat="43.93197177136275" lon="11.193323970940666"><ele>403.0</ele><time>2026-05-01T13:23:59Z</time></trkpt><trkpt lat="43.93197355509057" lon="11.193163502993217"><ele>405.0</ele><time>2026-05-01T13:24:00Z</time></trkpt><trkpt lat="43.931971558116736" lon="11.193034172406973"><ele>407.75</ele><time>2026-05-01T13:24:01Z</time></trkpt><trkpt lat="43.93197297515262" lon="11.192883600883716"><ele>410.5</ele><time>2026-05-01T13:24:02Z</time></trkpt><trkpt lat="43.931970451407764" lon="11.192712242076043"><ele>413.25</ele><time>2026-05-01T13:24:03Z</time></trkpt><trkpt lat="43.93196883049179" lon="11.192541008240799"><ele>416.0</ele><time>2026-05-01T13:24:04Z</time></trkpt><trkpt lat="43.931963516028986" lon="11.192408644048074"><ele>417.8333333333333</ele><time>2026-05-01T13:24:05Z</time></trkpt><trkpt lat="43.93201785975859" lon="11.192308969730298"><ele>419.66666666666663</ele><time>2026-05-01T13:24:07Z</time></trkpt><trkpt lat="43.93209682728521" lon="11.192254042127937"><ele>421.5</ele><time>2026-05-01T13:24:09Z</time></trkpt><trkpt lat="43.93218907297648" lon="11.192189303920816"><ele>423.33333333333337</ele><time>2026-05-01T13:24:11Z</time></trkpt><trkpt lat="43.93225349874448" lon="11.19219623672629"><ele>425.1666666666667</ele><time>2026-05-01T13:24:12Z</time></trkpt><trkpt lat="43.93232340252119" lon="11.192098634720798"><ele>427.0</ele><time>2026-05-01T13:24:14Z</time></trkpt><trkpt lat="43.93234447448562" lon="11.191993197221937"><ele>427.00000000000006</ele><time>2026-05-01T13:24:15Z</time></trkpt><trkpt lat="43.93235735710789" lon="11.191871904286508"><ele>427.0</ele><time>2026-05-01T13:24:16Z</time></trkpt><trkpt lat="43.93236861952176" lon="11.191736940758966"><ele>427.0</ele><time>2026-05-01T13:24:17Z</time></trkpt><trkpt lat="43.93237676527792" lon="11.191612190616798"><ele>427.0</ele><time>2026-05-01T13:24:18Z</time></trkpt><trkpt lat="43.93238622910998" lon="11.19152047112376"><ele>427.00000000000006</ele><time>2026-05-01T13:24:19Z</time></trkpt><trkpt lat="43.932431216969384" lon="11.191457703289919"><ele>427.0</ele><time>2026-05-01T13:24:20Z</time></trkpt><trkpt lat="43.9325097140555" lon="11.191430491968696"><ele>429.0</ele><time>2026-05-01T13:24:21Z</time></trkpt><trkpt lat="43.9325856387949" lon="11.191391275152172"><ele>431.00000000000006</ele><time>2026-05-01T13:24:22Z</time></trkpt><trkpt lat="43.932650195517816" lon="11.19131295923469"><ele>433.00000000000006</ele><time>2026-05-01T13:24:23Z</time></trkpt><trkpt lat="43.932724949102145" lon="11.191224297176957"><ele>435.0</ele><time>2026-05-01T13:24:24Z</time></trkpt><trkpt lat="43.93281349512932" lon="11.191159484842224"><ele>437.0</ele><time>2026-05-01T13:24:25Z</time></trkpt><trkpt lat="43.932901917767495" lon="11.191070914251087"><ele>437.0</ele><time>2026-05-01T13:24:26Z</time></trkpt><trkpt lat="43.932969049154565" lon="11.19096884432493"><ele>437.00000000000006</ele><time>2026-05-01T13:24:27Z</time></trkpt><trkpt lat="43.93301766240957" lon="11.190845429041756"><ele>437.00000000000006</ele><time>2026-05-01T13:24:28Z</time></trkpt><trkpt lat="43.9330412155173" lon="11.190725701577199"><ele>437.0</ele><time>2026-05-01T13:24:29Z</time></trkpt><trkpt lat="43.93304487380154" lon="11.190598527734796"><ele>437.0</ele><time>2026-05-01T13:24:30Z</time></trkpt><trkpt lat="43.93303837899785" lon="11.19047290501696"><ele>439.40000000000003</ele><time>2026-05-01T13:24:31Z</time></trkpt><trkpt lat="43.93305094208065" lon="11.190336565458137"><ele>441.80000000000007</ele><time>2026-05-01T13:24:32Z</time></trkpt><trkpt lat="43.93306373201206" lon="11.19019039439736"><ele>444.2</ele><time>2026-05-01T13:24:33Z</time></trkpt><trkpt lat="43.933054197604704" lon="11.190042315751404"><ele>446.6</ele><time>2026-05-01T13:24:34Z</time></trkpt><trkpt lat="43.93303871849444" lon="11.189900686542538"><ele>449.0</ele><time>2026-05-01T13:24:35Z</time></trkpt><trkpt lat="43.933042272149" lon="11.189784074521032"><ele>451.79999999999995</ele><time>2026-05-01T13:24:36Z</time></trkpt><trkpt lat="43.933069373890206" lon="11.189700310021253"><ele>454.59999999999997</ele><time>2026-05-01T13:24:37Z</time></trkpt><trkpt lat="43.93305390154012" lon="11.189588613602515"><ele>457.4</ele><time>2026-05-01T13:24:39Z</time></trkpt><trkpt lat="43.93294616012677" lon="11.189500418911477"><ele>460.2</ele><time>2026-05-01T13:24:41Z</time></trkpt><trkpt lat="43.93282361565454" lon="11.18949555117957"><ele>463.0</ele><time>2026-05-01T13:24:43Z</time></trkpt><trkpt lat="43.93274175367938" lon="11.189519525753909"><ele>463.0</ele><time>2026-05-01T13:24:44Z</time></trkpt><trkpt lat="43.93266343788846" lon="11.189571140278357"><ele>462.99999999999994</ele><time>2026-05-01T13:24:45Z</time></trkpt><trkpt lat="43.93256161144248" lon="11.189580097889058"><ele>462.99999999999994</ele><time>2026-05-01T13:24:46Z</time></trkpt><trkpt lat="43.93247490708869" lon="11.189589761057578"><ele>463.0</ele><time>2026-05-01T13:24:47Z</time></trkpt><trkpt lat="43.932365429285944" lon="11.189589839875595"><ele>463.0</ele><time>2026-05-01T13:24:49Z</time></trkpt><trkpt lat="43.93229097362413" lon="11.189559741571854"><ele>463.1666666666667</ele><time>2026-05-01T13:24:50Z</time></trkpt><trkpt lat="43.93219604723124" lon="11.189512034946807"><ele>463.33333333333337</ele><time>2026-05-01T13:24:51Z</time></trkpt><trkpt lat="43.932084251531904" lon="11.189482377111469"><ele>463.5</ele><time>2026-05-01T13:24:52Z</time></trkpt><trkpt lat="43.932008574425595" lon="11.189411534257234"><ele>463.66666666666663</ele><time>2026-05-01T13:24:53Z</time></trkpt><trkpt lat="43.93195657156418" lon="11.189348388138479"><ele>463.8333333333333</ele><time>2026-05-01T13:24:54Z</time></trkpt><trkpt lat="43.93190940282846" lon="11.189284527478927"><ele>464.0</ele><time>2026-05-01T13:24:57Z</time></trkpt><trkpt lat="43.93196692096448" lon="11.189237165394127"><ele>464.0</ele><time>2026-05-01T13:25:09Z</time></trkpt><trkpt lat="43.93205715460637" lon="11.189242230613191"><ele>464.0</ele><time>2026-05-01T13:25:11Z</time></trkpt><trkpt lat="43.93219375138707" lon="11.189164884931714"><ele>464.0</ele><time>2026-05-01T13:25:13Z</time></trkpt><trkpt lat="43.93229620058284" lon="11.189118011731033"><ele>464.0</ele><time>2026-05-01T13:25:14Z</time></trkpt><trkpt lat="43.93239370307332" lon="11.18906435151223"><ele>465.79999999999995</ele><time>2026-05-01T13:25:15Z</time></trkpt><trkpt lat="43.932488371659225" lon="11.188994431492667"><ele>467.59999999999997</ele><time>2026-05-01T13:25:16Z</time></trkpt><trkpt lat="43.93258132757779" lon="11.188902970632379"><ele>469.4</ele><time>2026-05-01T13:25:17Z</time></trkpt><trkpt lat="43.93266057748916" lon="11.188867363843567"><ele>471.2</ele><time>2026-05-01T13:25:18Z</time></trkpt><trkpt lat="43.9327313604554" lon="11.18880155155506"><ele>473.0</ele><time>2026-05-01T13:25:19Z</time></trkpt><trkpt lat="43.93281641420844" lon="11.188738453628801"><ele>472.99999999999994</ele><time>2026-05-01T13:25:20Z</time></trkpt><trkpt lat="43.93290143335392" lon="11.188675452708964"><ele>473.0</ele><time>2026-05-01T13:25:21Z</time></trkpt><trkpt lat="43.93297601340336" lon="11.188618986175175"><ele>473.0</ele><time>2026-05-01T13:25:22Z</time></trkpt><trkpt lat="43.93303015092398" lon="11.188559695320173"><ele>473.0</ele><time>2026-05-01T13:25:23Z</time></trkpt><trkpt lat="43.93309418036137" lon="11.18850086587841"><ele>472.99999999999994</ele><time>2026-05-01T13:25:24Z</time></trkpt><trkpt lat="43.93319733638954" lon="11.18846148769946"><ele>473.0</ele><time>2026-05-01T13:25:25Z</time></trkpt><trkpt lat="43.93329645672124" lon="11.18841097010066"><ele>473.0</ele><time>2026-05-01T13:25:26Z</time></trkpt><trkpt lat="43.93338849256111" lon="11.188380161698314"><ele>472.99999999999994</ele><time>2026-05-01T13:25:27Z</time></trkpt><trkpt lat="43.93346510049664" lon="11.188321054841511"><ele>472.99999999999994</ele><time>2026-05-01T13:25:28Z</time></trkpt><trkpt lat="43.933539928546715" lon="11.18825747637554"><ele>473.0</ele><time>2026-05-01T13:25:29Z</time></trkpt><trkpt lat="43.93363092467019" lon="11.188248331589087"><ele>473.0</ele><time>2026-05-01T13:25:30Z</time></trkpt><trkpt lat="43.93372681340072" lon="11.188264431675556"><ele>474.2</ele><time>2026-05-01T13:25:31Z</time></trkpt><trkpt lat="43.9338383158226" lon="11.188302637202614"><ele>475.4</ele><time>2026-05-01T13:25:32Z</time></trkpt><trkpt lat="43.93395074118938" lon="11.188290912772203"><ele>476.59999999999997</ele><time>2026-05-01T13:25:33Z</time></trkpt><trkpt lat="43.934071490478296" lon="11.188259603376887"><ele>477.79999999999995</ele><time>2026-05-01T13:25:34Z</time></trkpt><trkpt lat="43.93415954418919" lon="11.188237147667417"><ele>479.0</ele><time>2026-05-01T13:25:35Z</time></trkpt><trkpt lat="43.93423315996138" lon="11.188253455683318"><ele>481.0</ele><time>2026-05-01T13:25:36Z</time></trkpt><trkpt lat="43.93433489726053" lon="11.188276737448714"><ele>483.0</ele><time>2026-05-01T13:25:37Z</time></trkpt><trkpt lat="43.93442323903693" lon="11.188309679887986"><ele>485.0</ele><time>2026-05-01T13:25:38Z</time></trkpt><trkpt lat="43.93449149553598" lon="11.188328465692072"><ele>487.0</ele><time>2026-05-01T13:25:39Z</time></trkpt><trkpt lat="43.93463594131228" lon="11.188304404961126"><ele>489.0</ele><time>2026-05-01T13:25:41Z</time></trkpt><trkpt lat="43.93475118791633" lon="11.188267304175447"><ele>489.0</ele><time>2026-05-01T13:25:42Z</time></trkpt><trkpt lat="43.934836384632376" lon="11.188237409568522"><ele>489.0</ele><time>2026-05-01T13:25:43Z</time></trkpt><trkpt lat="43.93496153495809" lon="11.188263041903738"><ele>489.0</ele><time>2026-05-01T13:25:45Z</time></trkpt><trkpt lat="43.93503643163811" lon="11.188334697575003"><ele>489.0</ele><time>2026-05-01T13:25:46Z</time></trkpt><trkpt lat="43.935143237199995" lon="11.188405009686102"><ele>489.0</ele><time>2026-05-01T13:25:47Z</time></trkpt><trkpt lat="43.93523367511117" lon="11.188465607582499"><ele>490.2</ele><time>2026-05-01T13:25:48Z</time></trkpt><trkpt lat="43.935306681304446" lon="11.188490780007273"><ele>491.4</ele><time>2026-05-01T13:25:49Z</time></trkpt><trkpt lat="43.93536900623511" lon="11.188477108888039"><ele>492.6</ele><time>2026-05-01T13:25:50Z</time></trkpt><trkpt lat="43.93548965446457" lon="11.18837942069781"><ele>493.8</ele><time>2026-05-01T13:25:52Z</time></trkpt><trkpt lat="43.93558135784759" lon="11.188282440241025"><ele>495.0</ele><time>2026-05-01T13:25:53Z</time></trkpt><trkpt lat="43.935632595896266" lon="11.18817888042788"><ele>497.0</ele><time>2026-05-01T13:25:54Z</time></trkpt><trkpt lat="43.93560777861503" lon="11.188008395233172"><ele>499.0</ele><time>2026-05-01T13:25:56Z</time></trkpt><trkpt lat="43.9356358805855" lon="11.187902166494927"><ele>501.0</ele><time>2026-05-01T13:25:58Z</time></trkpt><trkpt lat="43.93569620398962" lon="11.187856343218336"><ele>503.0</ele><time>2026-05-01T13:25:59Z</time></trkpt><trkpt lat="43.935776920650056" lon="11.18783304656532"><ele>505.0</ele><time>2026-05-01T13:26:00Z</time></trkpt><trkpt lat="43.9358626705304" lon="11.18779615724329"><ele>507.0</ele><time>2026-05-01T13:26:01Z</time></trkpt><trkpt lat="43.93593740797682" lon="11.187769894078015"><ele>507.0</ele><time>2026-05-01T13:26:02Z</time></trkpt><trkpt lat="43.935907583930344" lon="11.187684511011632"><ele>507.00000000000006</ele><time>2026-05-01T13:26:12Z</time></trkpt><trkpt lat="43.93579803683001" lon="11.187576130779982"><ele>507.00000000000006</ele><time>2026-05-01T13:26:14Z</time></trkpt><trkpt lat="43.93572356640291" lon="11.187528854043322"><ele>507.0</ele><time>2026-05-01T13:26:15Z</time></trkpt><trkpt lat="43.93564867441498" lon="11.187495092355894"><ele>507.0</ele><time>2026-05-01T13:26:16Z</time></trkpt><trkpt lat="43.93557896063228" lon="11.187384399648188"><ele>509.0</ele><time>2026-05-01T13:26:18Z</time></trkpt><trkpt lat="43.935543127107124" lon="11.187280831517498"><ele>511.00000000000006</ele><time>2026-05-01T13:26:19Z</time></trkpt><trkpt lat="43.93550218679222" lon="11.187164065182873"><ele>513.0</ele><time>2026-05-01T13:26:20Z</time></trkpt><trkpt lat="43.93545844858727" lon="11.187050496582502"><ele>515.0</ele><time>2026-05-01T13:26:21Z</time></trkpt><trkpt lat="43.93537322304061" lon="11.186975659300973"><ele>517.0</ele><time>2026-05-01T13:26:22Z</time></trkpt><trkpt lat="43.93527533534421" lon="11.186903649994868"><ele>517.0</ele><time>2026-05-01T13:26:23Z</time></trkpt><trkpt lat="43.93518585539221" lon="11.186862936711938"><ele>517.0</ele><time>2026-05-01T13:26:24Z</time></trkpt><trkpt lat="43.93510304674119" lon="11.186798804177249"><ele>517.0</ele><time>2026-05-01T13:26:25Z</time></trkpt><trkpt lat="43.93500420375932" lon="11.18669463839634"><ele>517.0</ele><time>2026-05-01T13:26:26Z</time></trkpt><trkpt lat="43.93488609699296" lon="11.186583416458008"><ele>518.0</ele><time>2026-05-01T13:26:27Z</time></trkpt><trkpt lat="43.934752650304226" lon="11.18647646996309"><ele>519.0</ele><time>2026-05-01T13:26:28Z</time></trkpt><trkpt lat="43.93465969260811" lon="11.186382526734349"><ele>520.0</ele><time>2026-05-01T13:26:29Z</time></trkpt><trkpt lat="43.93458248080702" lon="11.186321946969882"><ele>521.0</ele><time>2026-05-01T13:26:30Z</time></trkpt><trkpt lat="43.93450801537685" lon="11.186242766690372"><ele>521.0</ele><time>2026-05-01T13:26:31Z</time></trkpt><trkpt lat="43.93443280218297" lon="11.186144754236421"><ele>521.0</ele><time>2026-05-01T13:26:32Z</time></trkpt><trkpt lat="43.93437854961812" lon="11.186038368555964"><ele>521.0</ele><time>2026-05-01T13:26:33Z</time></trkpt><trkpt lat="43.93433566406908" lon="11.185953168817877"><ele>521.0</ele><time>2026-05-01T13:26:34Z</time></trkpt><trkpt lat="43.93430363781041" lon="11.185864757704296"><ele>521.0</ele><time>2026-05-01T13:26:35Z</time></trkpt><trkpt lat="43.93430029530101" lon="11.185759211732808"><ele>521.0</ele><time>2026-05-01T13:26:36Z</time></trkpt><trkpt lat="43.93429906673171" lon="11.185656326992268"><ele>523.4</ele><time>2026-05-01T13:26:37Z</time></trkpt><trkpt lat="43.9342650272293" lon="11.185562911206569"><ele>525.8</ele><time>2026-05-01T13:26:38Z</time></trkpt><trkpt lat="43.934197723003905" lon="11.185469606604121"><ele>528.1999999999999</ele><time>2026-05-01T13:26:39Z</time></trkpt><trkpt lat="43.934100517724964" lon="11.185385245863671"><ele>530.6</ele><time>2026-05-01T13:26:40Z</time></trkpt><trkpt lat="43.93398179611436" lon="11.185299183427489"><ele>533.0</ele><time>2026-05-01T13:26:41Z</time></trkpt><trkpt lat="43.933841898576546" lon="11.185173967412952"><ele>533.0</ele><time>2026-05-01T13:26:42Z</time></trkpt><trkpt lat="43.9337104119763" lon="11.184997659011932"><ele>533.0</ele><time>2026-05-01T13:26:43Z</time></trkpt><trkpt lat="43.933622924226086" lon="11.184845404647405"><ele>533.0</ele><time>2026-05-01T13:26:44Z</time></trkpt><trkpt lat="43.93353417302311" lon="11.184776243801558"><ele>533.0</ele><time>2026-05-01T13:26:45Z</time></trkpt><trkpt lat="43.93346796504669" lon="11.184746434355224"><ele>536.0</ele><time>2026-05-01T13:26:46Z</time></trkpt><trkpt lat="43.933371110379895" lon="11.184715009660305"><ele>539.0</ele><time>2026-05-01T13:26:47Z</time></trkpt><trkpt lat="43.93327609195926" lon="11.184642463197477"><ele>542.0</ele><time>2026-05-01T13:26:48Z</time></trkpt><trkpt lat="43.93320672471552" lon="11.184563859988858"><ele>545.0</ele><time>2026-05-01T13:26:49Z</time></trkpt><trkpt lat="43.93313913985716" lon="11.18445588828638"><ele>548.0</ele><time>2026-05-01T13:26:50Z</time></trkpt><trkpt lat="43.93303144411825" lon="11.18438424322834"><ele>548.0</ele><time>2026-05-01T13:26:51Z</time></trkpt><trkpt lat="43.93291004140352" lon="11.184351831816908"><ele>548.0</ele><time>2026-05-01T13:26:52Z</time></trkpt><trkpt lat="43.93281645375122" lon="11.184315512996704"><ele>548.0</ele><time>2026-05-01T13:26:53Z</time></trkpt><trkpt lat="43.932746405247244" lon="11.184257235101022"><ele>548.0</ele><time>2026-05-01T13:26:54Z</time></trkpt><trkpt lat="43.93266238547097" lon="11.184173470026145"><ele>548.0</ele><time>2026-05-01T13:26:56Z</time></trkpt><trkpt lat="43.93261651759011" lon="11.184001482101557"><ele>551.8333333333333</ele><time>2026-05-01T13:26:58Z</time></trkpt><trkpt lat="43.932598224515125" lon="11.1838833245047"><ele>555.6666666666666</ele><time>2026-05-01T13:26:59Z</time></trkpt><trkpt lat="43.93259306871025" lon="11.183793324339112"><ele>559.5</ele><time>2026-05-01T13:27:00Z</time></trkpt><trkpt lat="43.932615714082004" lon="11.183708144595801"><ele>563.3333333333334</ele><time>2026-05-01T13:27:01Z</time></trkpt><trkpt lat="43.93263295323552" lon="11.18358996047196"><ele>567.1666666666667</ele><time>2026-05-01T13:27:02Z</time></trkpt><trkpt lat="43.93261408212457" lon="11.183415605737826"><ele>571.0</ele><time>2026-05-01T13:27:03Z</time></trkpt><trkpt lat="43.93259301488872" lon="11.183203239394217"><ele>573.0</ele><time>2026-05-01T13:27:04Z</time></trkpt><trkpt lat="43.9325974547284" lon="11.182999589664213"><ele>575.0</ele><time>2026-05-01T13:27:05Z</time></trkpt><trkpt lat="43.93261193111553" lon="11.182811905166059"><ele>577.0</ele><time>2026-05-01T13:27:06Z</time></trkpt><trkpt lat="43.93260863904976" lon="11.18265100601001"><ele>579.0</ele><time>2026-05-01T13:27:07Z</time></trkpt><trkpt lat="43.93262225931492" lon="11.182502117483786"><ele>580.2</ele><time>2026-05-01T13:27:08Z</time></trkpt><trkpt lat="43.93261462674119" lon="11.182320447784734"><ele>581.4</ele><time>2026-05-01T13:27:09Z</time></trkpt><trkpt lat="43.93260187930843" lon="11.182156660876593"><ele>582.6</ele><time>2026-05-01T13:27:10Z</time></trkpt><trkpt lat="43.932603171264" lon="11.182006729183515"><ele>583.8</ele><time>2026-05-01T13:27:11Z</time></trkpt><trkpt lat="43.93259008411364" lon="11.181899607451172"><ele>585.0</ele><time>2026-05-01T13:27:12Z</time></trkpt><trkpt lat="43.932605945755874" lon="11.18180062715997"><ele>585.0</ele><time>2026-05-01T13:27:13Z</time></trkpt><trkpt lat="43.93258793994909" lon="11.181658236425195"><ele>585.0</ele><time>2026-05-01T13:27:14Z</time></trkpt><trkpt lat="43.93254491457777" lon="11.181524862066622"><ele>585.0</ele><time>2026-05-01T13:27:15Z</time></trkpt><trkpt lat="43.932542925400874" lon="11.18135864484964"><ele>585.0</ele><time>2026-05-01T13:27:16Z</time></trkpt><trkpt lat="43.93253880581585" lon="11.181204371450203"><ele>585.0</ele><time>2026-05-01T13:27:17Z</time></trkpt><trkpt lat="43.93253737156794" lon="11.181067223880857"><ele>579.8333333333334</ele><time>2026-05-01T13:27:18Z</time></trkpt><trkpt lat="43.9325511034133" lon="11.18094724158137"><ele>574.6666666666666</ele><time>2026-05-01T13:27:19Z</time></trkpt><trkpt lat="43.93254149183409" lon="11.180827065486817"><ele>569.5</ele><time>2026-05-01T13:27:20Z</time></trkpt><trkpt lat="43.9325170977471" lon="11.180722082491569"><ele>564.3333333333333</ele><time>2026-05-01T13:27:21Z</time></trkpt><trkpt lat="43.932495748420024" lon="11.180613329246077"><ele>559.1666666666666</ele><time>2026-05-01T13:27:22Z</time></trkpt><trkpt lat="43.932446501135374" lon="11.180514743767029"><ele>554.0</ele><time>2026-05-01T13:27:23Z</time></trkpt><trkpt lat="43.93241805277271" lon="11.180424375702737"><ele>554.0</ele><time>2026-05-01T13:27:24Z</time></trkpt><trkpt lat="43.93239431263731" lon="11.18033533709129"><ele>554.0</ele><time>2026-05-01T13:27:26Z</time></trkpt><trkpt lat="43.93237650078713" lon="11.180207192977264"><ele>554.0</ele><time>2026-05-01T13:27:31Z</time></trkpt><trkpt lat="43.93234726168165" lon="11.180105922462783"><ele>554.0</ele><time>2026-05-01T13:27:36Z</time></trkpt><trkpt lat="43.93234593142811" lon="11.180009498734503"><ele>554.0</ele><time>2026-05-01T13:28:18Z</time></trkpt><trkpt lat="43.9323571198765" lon="11.180133409238541"><ele>554.0</ele><time>2026-05-01T13:28:49Z</time></trkpt><trkpt lat="43.932380962125045" lon="11.180228196273717"><ele>554.0</ele><time>2026-05-01T13:28:50Z</time></trkpt><trkpt lat="43.932378862438966" lon="11.180339132174625"><ele>554.0</ele><time>2026-05-01T13:28:51Z</time></trkpt><trkpt lat="43.932415985479665" lon="11.180460018504933"><ele>554.0</ele><time>2026-05-01T13:28:52Z</time></trkpt><trkpt lat="43.93245373953617" lon="11.180589614173735"><ele>554.0</ele><time>2026-05-01T13:28:53Z</time></trkpt><trkpt lat="43.932496925668694" lon="11.180781569922049"><ele>554.0</ele><time>2026-05-01T13:28:54Z</time></trkpt><trkpt lat="43.932505694134186" lon="11.180954195330223"><ele>552.4</ele><time>2026-05-01T13:28:55Z</time></trkpt><trkpt lat="43.93250689788833" lon="11.181096267365099"><ele>550.8</ele><time>2026-05-01T13:28:56Z</time></trkpt><trkpt lat="43.932506801664246" lon="11.181253646145638"><ele>549.2</ele><time>2026-05-01T13:28:57Z</time></trkpt><trkpt lat="43.93250845137932" lon="11.181379063097069"><ele>547.6</ele><time>2026-05-01T13:28:58Z</time></trkpt><trkpt lat="43.932512001119896" lon="11.181495241283113"><ele>546.0</ele><time>2026-05-01T13:28:59Z</time></trkpt><trkpt lat="43.932550698005464" lon="11.181618634233494"><ele>552.5</ele><time>2026-05-01T13:29:00Z</time></trkpt><trkpt lat="43.932567230789445" lon="11.181736122490413"><ele>559.0</ele><time>2026-05-01T13:29:01Z</time></trkpt><trkpt lat="43.93257174116885" lon="11.181857463018906"><ele>565.5</ele><time>2026-05-01T13:29:03Z</time></trkpt><trkpt lat="43.93256986859705" lon="11.18200708519741"><ele>572.0</ele><time>2026-05-01T13:29:05Z</time></trkpt><trkpt lat="43.932569005075024" lon="11.18210729775808"><ele>578.5</ele><time>2026-05-01T13:29:06Z</time></trkpt><trkpt lat="43.932568392659576" lon="11.182208653803459"><ele>585.0</ele><time>2026-05-01T13:29:07Z</time></trkpt><trkpt lat="43.93256976640292" lon="11.18234079256663"><ele>583.5</ele><time>2026-05-01T13:29:08Z</time></trkpt><trkpt lat="43.93257140154858" lon="11.182498076037696"><ele>582.0</ele><time>2026-05-01T13:29:09Z</time></trkpt><trkpt lat="43.932582687983086" lon="11.1825970821862"><ele>580.5</ele><time>2026-05-01T13:29:10Z</time></trkpt><trkpt lat="43.93259934031421" lon="11.182734103345252"><ele>579.0</ele><time>2026-05-01T13:29:11Z</time></trkpt><trkpt lat="43.93316943677182" lon="11.182889365006742"><ele>579.0</ele><time>2026-05-01T13:29:12Z</time></trkpt><trkpt lat="43.933202331499594" lon="11.182985715772332"><ele>579.0</ele><time>2026-05-01T13:29:13Z</time></trkpt><trkpt lat="43.933241320950195" lon="11.183055047857296"><ele>579.0</ele><time>2026-05-01T13:29:14Z</time></trkpt><trkpt lat="43.93326807039749" lon="11.18314515122555"><ele>579.0</ele><time>2026-05-01T13:29:15Z</time></trkpt><trkpt lat="43.933347288352174" lon="11.18328726673006"><ele>579.0</ele><time>2026-05-01T13:29:17Z</time></trkpt><trkpt lat="43.93339800963616" lon="11.183341038190925"><ele>579.0</ele><time>2026-05-01T13:29:18Z</time></trkpt><trkpt lat="43.933460404782366" lon="11.18347448388781"><ele>581.3333333333334</ele><time>2026-05-01T13:29:20Z</time></trkpt><trkpt lat="43.93349438109396" lon="11.183552795807993"><ele>583.6666666666666</ele><time>2026-05-01T13:29:21Z</time></trkpt><trkpt lat="43.93356082035295" lon="11.18359301688738"><ele>586.0</ele><time>2026-05-01T13:29:22Z</time></trkpt><trkpt lat="43.93366157821562" lon="11.183649055183876"><ele>588.3333333333333</ele><time>2026-05-01T13:29:23Z</time></trkpt><trkpt lat="43.93373006305348" lon="11.183678865536276"><ele>590.6666666666666</ele><time>2026-05-01T13:29:24Z</time></trkpt><trkpt lat="43.933829744580486" lon="11.183699666618633"><ele>593.0</ele><time>2026-05-01T13:29:32Z</time></trkpt><trkpt lat="43.93391864215258" lon="11.18374537983214"><ele>593.0</ele><time>2026-05-01T13:29:33Z</time></trkpt><trkpt lat="43.93410515914126" lon="11.183696131448595"><ele>593.0</ele><time>2026-05-01T13:29:34Z</time></trkpt><trkpt lat="43.93422447797622" lon="11.183620241380785"><ele>593.0</ele><time>2026-05-01T13:29:35Z</time></trkpt><trkpt lat="43.934376118631064" lon="11.183568369433782"><ele>593.6666666666666</ele><time>2026-05-01T13:29:36Z</time></trkpt><trkpt lat="43.93455029302004" lon="11.183440309442462"><ele>594.3333333333334</ele><time>2026-05-01T13:29:37Z</time></trkpt><trkpt lat="43.93468121501102" lon="11.183424817865799"><ele>595.0</ele><time>2026-05-01T13:29:38Z</time></trkpt><trkpt lat="43.93483906727502" lon="11.183321126889116"><ele>595.0</ele><time>2026-05-01T13:29:39Z</time></trkpt><trkpt lat="43.93497335632147" lon="11.183297382602518"><ele>595.0</ele><time>2026-05-01T13:29:40Z</time></trkpt><trkpt lat="43.93510927475541" lon="11.183256693170254"><ele>595.0</ele><time>2026-05-01T13:29:41Z</time></trkpt><trkpt lat="43.93520855352334" lon="11.183217844670974"><ele>595.0</ele><time>2026-05-01T13:29:42Z</time></trkpt><trkpt lat="43.93532251950928" lon="11.183169232380505"><ele>603.5</ele><time>2026-05-01T13:29:43Z</time></trkpt><trkpt lat="43.93547862729917" lon="11.183116347833375"><ele>612.0</ele><time>2026-05-01T13:29:44Z</time></trkpt><trkpt lat="43.935626072036676" lon="11.183043376261878"><ele>620.5</ele><time>2026-05-01T13:29:45Z</time></trkpt><trkpt lat="43.935747089593264" lon="11.183021357273663"><ele>629.0</ele><time>2026-05-01T13:29:46Z</time></trkpt><trkpt lat="43.93587730240815" lon="11.182978693304747"><ele>627.25</ele><time>2026-05-01T13:29:47Z</time></trkpt><trkpt lat="43.93598981125023" lon="11.18289037036173"><ele>625.5</ele><time>2026-05-01T13:29:48Z</time></trkpt><trkpt lat="43.93610906202326" lon="11.182817874511608"><ele>623.75</ele><time>2026-05-01T13:29:49Z</time></trkpt><trkpt lat="43.936222023762475" lon="11.182736776833305"><ele>622.0</ele><time>2026-05-01T13:29:50Z</time></trkpt><trkpt lat="43.93633179491976" lon="11.182617304053093"><ele>622.0</ele><time>2026-05-01T13:29:51Z</time></trkpt><trkpt lat="43.93640500753878" lon="11.182524833988582"><ele>622.0</ele><time>2026-05-01T13:29:52Z</time></trkpt><trkpt lat="43.93648271739595" lon="11.182569076894964"><ele>622.0</ele><time>2026-05-01T13:29:53Z</time></trkpt><trkpt lat="43.93656612110158" lon="11.182603791317014"><ele>622.0</ele><time>2026-05-01T13:29:54Z</time></trkpt><trkpt lat="43.936632059420646" lon="11.182690555603683"><ele>622.0</ele><time>2026-05-01T13:29:55Z</time></trkpt><trkpt lat="43.936743306876394" lon="11.18268623495749"><ele>621.5</ele><time>2026-05-01T13:29:56Z</time></trkpt><trkpt lat="43.93688252771612" lon="11.182641621970095"><ele>621.0</ele><time>2026-05-01T13:29:57Z</time></trkpt><trkpt lat="43.93697771797251" lon="11.182582676013373"><ele>620.5</ele><time>2026-05-01T13:29:58Z</time></trkpt><trkpt lat="43.93707620210114" lon="11.182519169536457"><ele>620.0</ele><time>2026-05-01T13:29:59Z</time></trkpt><trkpt lat="43.93716914856683" lon="11.182477409744765"><ele>620.0</ele><time>2026-05-01T13:30:00Z</time></trkpt><trkpt lat="43.937245772656524" lon="11.182449750707606"><ele>620.0</ele><time>2026-05-01T13:30:01Z</time></trkpt><trkpt lat="43.93734115762103" lon="11.182443766204033"><ele>620.0</ele><time>2026-05-01T13:30:02Z</time></trkpt><trkpt lat="43.937464394157914" lon="11.182474267247324"><ele>620.0</ele><time>2026-05-01T13:30:03Z</time></trkpt><trkpt lat="43.93757203215927" lon="11.18252134663687"><ele>620.0</ele><time>2026-05-01T13:30:04Z</time></trkpt><trkpt lat="43.937663630989874" lon="11.182490300677832"><ele>620.0</ele><time>2026-05-01T13:30:05Z</time></trkpt><trkpt lat="43.93775690874049" lon="11.182463863798777"><ele>620.0</ele><time>2026-05-01T13:30:06Z</time></trkpt><trkpt lat="43.93785441810604" lon="11.182407478421073"><ele>620.0</ele><time>2026-05-01T13:30:07Z</time></trkpt><trkpt lat="43.93798242724277" lon="11.182342380151258"><ele>620.0</ele><time>2026-05-01T13:30:08Z</time></trkpt><trkpt lat="43.93814010325209" lon="11.182299423784919"><ele>629.75</ele><time>2026-05-01T13:30:09Z</time></trkpt><trkpt lat="43.938309108372444" lon="11.18222629871001"><ele>639.5</ele><time>2026-05-01T13:30:10Z</time></trkpt><trkpt lat="43.9384526020527" lon="11.182166810669353"><ele>649.25</ele><time>2026-05-01T13:30:11Z</time></trkpt><trkpt lat="43.938556708405414" lon="11.182136438736196"><ele>659.0</ele><time>2026-05-01T13:30:12Z</time></trkpt><trkpt lat="43.93866077975033" lon="11.18212503163474"><ele>659.0</ele><time>2026-05-01T13:30:13Z</time></trkpt><trkpt lat="43.938751586355274" lon="11.182119038295296"><ele>659.0</ele><time>2026-05-01T13:30:14Z</time></trkpt><trkpt lat="43.938834125514646" lon="11.182131503148126"><ele>659.0</ele><time>2026-05-01T13:30:15Z</time></trkpt><trkpt lat="43.93889875634638" lon="11.182156904753164"><ele>659.0</ele><time>2026-05-01T13:30:16Z</time></trkpt><trkpt lat="43.93897659056813" lon="11.182174419571755"><ele>659.0</ele><time>2026-05-01T13:30:18Z</time></trkpt><trkpt lat="43.93906487042301" lon="11.182103694246829"><ele>659.0</ele><time>2026-05-01T13:30:28Z</time></trkpt><trkpt lat="43.93913669462242" lon="11.182087674118062"><ele>658.1666666666666</ele><time>2026-05-01T13:30:29Z</time></trkpt><trkpt lat="43.93922745148487" lon="11.182016672099204"><ele>657.3333333333333</ele><time>2026-05-01T13:30:31Z</time></trkpt><trkpt lat="43.93925984440377" lon="11.18193584978144"><ele>656.5</ele><time>2026-05-01T13:30:32Z</time></trkpt><trkpt lat="43.93927086379306" lon="11.181835665122623"><ele>655.6666666666666</ele><time>2026-05-01T13:30:33Z</time></trkpt><trkpt lat="43.93927328518114" lon="11.181725518622613"><ele>654.8333333333334</ele><time>2026-05-01T13:30:34Z</time></trkpt><trkpt lat="43.93927046331593" lon="11.181627142963332"><ele>654.0</ele><time>2026-05-01T13:30:35Z</time></trkpt><trkpt lat="43.93931663543585" lon="11.181510665009794"><ele>659.0</ele><time>2026-05-01T13:30:37Z</time></trkpt><trkpt lat="43.93936003268228" lon="11.18144622211965"><ele>664.0</ele><time>2026-05-01T13:30:38Z</time></trkpt><trkpt lat="43.93941038245628" lon="11.181363821992823"><ele>669.0</ele><time>2026-05-01T13:30:39Z</time></trkpt><trkpt lat="43.93945718423107" lon="11.181283971440607"><ele>674.0</ele><time>2026-05-01T13:30:40Z</time></trkpt><trkpt lat="43.93953698870118" lon="11.181203398235544"><ele>679.0</ele><time>2026-05-01T13:30:42Z</time></trkpt><trkpt lat="43.939591631496235" lon="11.181146319653989"><ele>684.0</ele><time>2026-05-01T13:30:43Z</time></trkpt><trkpt lat="43.939671933432415" lon="11.181098703336511"><ele>684.0</ele><time>2026-05-01T13:30:44Z</time></trkpt><trkpt lat="43.93974365885093" lon="11.181057017008042"><ele>684.0</ele><time>2026-05-01T13:30:45Z</time></trkpt><trkpt lat="43.9398058793076" lon="11.180998627501177"><ele>684.0</ele><time>2026-05-01T13:30:46Z</time></trkpt><trkpt lat="43.939849036708964" lon="11.180921955784445"><ele>684.0</ele><time>2026-05-01T13:30:47Z</time></trkpt><trkpt lat="43.93993667205817" lon="11.180823415591345"><ele>684.0</ele><time>2026-05-01T13:30:49Z</time></trkpt><trkpt lat="43.94000512792755" lon="11.180770554594528"><ele>684.0</ele><time>2026-05-01T13:30:50Z</time></trkpt><trkpt lat="43.94006992827513" lon="11.18073841850252"><ele>687.4000000000001</ele><time>2026-05-01T13:30:51Z</time></trkpt><trkpt lat="43.94016635783738" lon="11.180723046303568"><ele>690.8</ele><time>2026-05-01T13:30:52Z</time></trkpt><trkpt lat="43.94024437423971" lon="11.180702870120772"><ele>694.2</ele><time>2026-05-01T13:30:54Z</time></trkpt><trkpt lat="43.94030882552704" lon="11.180583078149299"><ele>697.5999999999999</ele><time>2026-05-01T13:30:56Z</time></trkpt><trkpt lat="43.94035673411869" lon="11.180488579338075"><ele>701.0</ele><time>2026-05-01T13:30:58Z</time></trkpt><trkpt lat="43.94039897961336" lon="11.18038581838003"><ele>702.8333333333333</ele><time>2026-05-01T13:31:41Z</time></trkpt><trkpt lat="43.94046897759262" lon="11.180342679264298"><ele>704.6666666666666</ele><time>2026-05-01T13:32:03Z</time></trkpt><trkpt lat="43.94056311183488" lon="11.18032075556565"><ele>706.5</ele><time>2026-05-01T13:32:05Z</time></trkpt><trkpt lat="43.940664999998" lon="11.180276563792402"><ele>708.3333333333334</ele><time>2026-05-01T13:32:07Z</time></trkpt><trkpt lat="43.94073093949843" lon="11.18024717345346"><ele>710.1666666666667</ele><time>2026-05-01T13:32:08Z</time></trkpt><trkpt lat="43.94078955796559" lon="11.180206059657163"><ele>712.0</ele><time>2026-05-01T13:32:09Z</time></trkpt><trkpt lat="43.940849114611616" lon="11.180153540889554"><ele>716.0</ele><time>2026-05-01T13:32:10Z</time></trkpt><trkpt lat="43.94091005057702" lon="11.180085415696418"><ele>720.0</ele><time>2026-05-01T13:32:11Z</time></trkpt><trkpt lat="43.940978271024356" lon="11.180018747080753"><ele>724.0</ele><time>2026-05-01T13:32:12Z</time></trkpt><trkpt lat="43.94104160331508" lon="11.179957491013326"><ele>728.0</ele><time>2026-05-01T13:32:13Z</time></trkpt><trkpt lat="43.941104307039645" lon="11.179898545385155"><ele>732.0</ele><time>2026-05-01T13:32:14Z</time></trkpt><trkpt lat="43.941168724345204" lon="11.179850711540876"><ele>736.0</ele><time>2026-05-01T13:32:15Z</time></trkpt><trkpt lat="43.94123492980082" lon="11.179779617089517"><ele>736.4</ele><time>2026-05-01T13:32:16Z</time></trkpt><trkpt lat="43.941297147821594" lon="11.179709119308688"><ele>736.8</ele><time>2026-05-01T13:32:17Z</time></trkpt><trkpt lat="43.941358374970406" lon="11.179666320766154"><ele>737.1999999999999</ele><time>2026-05-01T13:32:18Z</time></trkpt><trkpt lat="43.94148614144637" lon="11.179670443192512"><ele>737.5999999999999</ele><time>2026-05-01T13:32:20Z</time></trkpt><trkpt lat="43.941576221848194" lon="11.17956162241985"><ele>738.0</ele><time>2026-05-01T13:32:22Z</time></trkpt><trkpt lat="43.9416545474833" lon="11.179397174665322"><ele>738.0</ele><time>2026-05-01T13:32:24Z</time></trkpt><trkpt lat="43.94170448362798" lon="11.17930855886441"><ele>738.0</ele><time>2026-05-01T13:32:25Z</time></trkpt><trkpt lat="43.94175932336573" lon="11.179217152715507"><ele>738.0</ele><time>2026-05-01T13:32:26Z</time></trkpt><trkpt lat="43.94180602751931" lon="11.179117149589702"><ele>738.0</ele><time>2026-05-01T13:32:27Z</time></trkpt><trkpt lat="43.941823636639946" lon="11.179025354840169"><ele>738.0</ele><time>2026-05-01T13:32:28Z</time></trkpt><trkpt lat="43.94184029782661" lon="11.178936562321617"><ele>738.0</ele><time>2026-05-01T13:32:29Z</time></trkpt><trkpt lat="43.94190544328613" lon="11.178778956621132"><ele>745.2</ele><time>2026-05-01T13:32:31Z</time></trkpt><trkpt lat="43.94195337827251" lon="11.178702620539271"><ele>752.4</ele><time>2026-05-01T13:32:32Z</time></trkpt><trkpt lat="43.94198798470222" lon="11.178570504606451"><ele>759.6</ele><time>2026-05-01T13:32:34Z</time></trkpt><trkpt lat="43.941990876571495" lon="11.178461583391442"><ele>766.8000000000001</ele><time>2026-05-01T13:32:37Z</time></trkpt><trkpt lat="43.94203734571113" lon="11.178299501728405"><ele>774.0</ele><time>2026-05-01T13:32:39Z</time></trkpt><trkpt lat="43.942080723012936" lon="11.178153928535824"><ele>776.6</ele><time>2026-05-01T13:32:41Z</time></trkpt><trkpt lat="43.942146618018185" lon="11.178045903007055"><ele>779.2</ele><time>2026-05-01T13:32:43Z</time></trkpt><trkpt lat="43.94216088997681" lon="11.177941312606142"><ele>781.8000000000001</ele><time>2026-05-01T13:32:45Z</time></trkpt><trkpt lat="43.942197064875735" lon="11.177771923147754"><ele>784.4000000000001</ele><time>2026-05-01T13:32:48Z</time></trkpt><trkpt lat="43.94222411973652" lon="11.17768936148766"><ele>787.0</ele><time>2026-05-01T13:32:49Z</time></trkpt><trkpt lat="43.94226500018192" lon="11.17756793935766"><ele>787.0</ele><time>2026-05-01T13:32:51Z</time></trkpt><trkpt lat="43.942314790865" lon="11.177441126433651"><ele>787.0</ele><time>2026-05-01T13:32:54Z</time></trkpt><trkpt lat="43.9423371519003" lon="11.177280091518135"><ele>787.0</ele><time>2026-05-01T13:32:56Z</time></trkpt><trkpt lat="43.94236862826212" lon="11.177133737452158"><ele>787.0</ele><time>2026-05-01T13:33:00Z</time></trkpt><trkpt lat="43.94240777462093" lon="11.177000862247967"><ele>787.0</ele><time>2026-05-01T13:33:02Z</time></trkpt><trkpt lat="43.94243803443801" lon="11.176878912085202"><ele>788.6</ele><time>2026-05-01T13:33:05Z</time></trkpt><trkpt lat="43.942475378936706" lon="11.176766681362878"><ele>790.2</ele><time>2026-05-01T13:33:07Z</time></trkpt><trkpt lat="43.942504952336954" lon="11.176584440108225"><ele>791.8</ele><time>2026-05-01T13:33:09Z</time></trkpt><trkpt lat="43.94252328726766" lon="11.17648149050436"><ele>793.4</ele><time>2026-05-01T13:33:12Z</time></trkpt><trkpt lat="43.94247548041725" lon="11.176375683930553"><ele>795.0</ele><time>2026-05-01T13:33:55Z</time></trkpt><trkpt lat="43.94240855960324" lon="11.17637172637174"><ele>795.0</ele><time>2026-05-01T13:33:57Z</time></trkpt><trkpt lat="43.942355940146534" lon="11.176426817740966"><ele>795.0</ele><time>2026-05-01T13:34:01Z</time></trkpt><trkpt lat="43.94227406959352" lon="11.176490744575805"><ele>795.0</ele><time>2026-05-01T13:34:03Z</time></trkpt><trkpt lat="43.94210014294045" lon="11.176549366315983"><ele>795.0</ele><time>2026-05-01T13:34:05Z</time></trkpt><trkpt lat="43.942041354060194" lon="11.176601597864696"><ele>795.0</ele><time>2026-05-01T13:34:07Z</time></trkpt><trkpt lat="43.941959288777475" lon="11.17663949875535"><ele>795.0</ele><time>2026-05-01T13:34:09Z</time></trkpt><trkpt lat="43.94187000392589" lon="11.17668435442069"><ele>795.0</ele><time>2026-05-01T13:34:11Z</time></trkpt><trkpt lat="43.94178994544778" lon="11.176677727345421"><ele>795.0</ele><time>2026-05-01T13:34:13Z</time></trkpt><trkpt lat="43.94171578674456" lon="11.176744985531103"><ele>795.0</ele><time>2026-05-01T13:34:15Z</time></trkpt><trkpt lat="43.94159907592349" lon="11.176790499613388"><ele>795.0</ele><time>2026-05-01T13:34:18Z</time></trkpt><trkpt lat="43.94151732023895" lon="11.176812939899776"><ele>797.0</ele><time>2026-05-01T13:34:20Z</time></trkpt><trkpt lat="43.94143933688037" lon="11.176761189399103"><ele>799.0</ele><time>2026-05-01T13:34:22Z</time></trkpt><trkpt lat="43.94143820326267" lon="11.176659630716037"><ele>801.0</ele><time>2026-05-01T13:34:24Z</time></trkpt><trkpt lat="43.9414574796412" lon="11.176547725610732"><ele>803.0</ele><time>2026-05-01T13:34:26Z</time></trkpt><trkpt lat="43.94152823044627" lon="11.176403042086289"><ele>805.0</ele><time>2026-05-01T13:34:28Z</time></trkpt><trkpt lat="43.941541853296926" lon="11.176317483042777"><ele>807.0</ele><time>2026-05-01T13:34:29Z</time></trkpt><trkpt lat="43.94155281300542" lon="11.176230677755607"><ele>809.6666666666666</ele><time>2026-05-01T13:34:30Z</time></trkpt><trkpt lat="43.94155876994686" lon="11.176138550525733"><ele>812.3333333333333</ele><time>2026-05-01T13:34:31Z</time></trkpt><trkpt lat="43.9415853429582" lon="11.176031846929794"><ele>815.0</ele><time>2026-05-01T13:34:33Z</time></trkpt><trkpt lat="43.94162047949709" lon="11.17591954624572"><ele>817.6666666666666</ele><time>2026-05-01T13:34:35Z</time></trkpt><trkpt lat="43.9416303925188" lon="11.175822302910998"><ele>820.3333333333333</ele><time>2026-05-01T13:34:38Z</time></trkpt><trkpt lat="43.94164531768134" lon="11.17569270861982"><ele>823.0</ele><time>2026-05-01T13:34:39Z</time></trkpt><trkpt lat="43.94164610329426" lon="11.17555730416538"><ele>826.0</ele><time>2026-05-01T13:34:41Z</time></trkpt><trkpt lat="43.941638402937535" lon="11.175463077114486"><ele>829.0</ele><time>2026-05-01T13:34:42Z</time></trkpt><trkpt lat="43.941626729770356" lon="11.17537557975012"><ele>832.0</ele><time>2026-05-01T13:34:43Z</time></trkpt><trkpt lat="43.94160136995699" lon="11.175217822520862"><ele>835.0</ele><time>2026-05-01T13:34:45Z</time></trkpt><trkpt lat="43.94158019555438" lon="11.175077337534308"><ele>838.0</ele><time>2026-05-01T13:34:47Z</time></trkpt><trkpt lat="43.941588873328165" lon="11.174937504221903"><ele>838.4</ele><time>2026-05-01T13:34:49Z</time></trkpt><trkpt lat="43.94161532401866" lon="11.174829927115896"><ele>838.8</ele><time>2026-05-01T13:34:51Z</time></trkpt><trkpt lat="43.941634795812256" lon="11.174731365217681"><ele>839.2</ele><time>2026-05-01T13:34:53Z</time></trkpt><trkpt lat="43.94162054380942" lon="11.174611344400235"><ele>839.6</ele><time>2026-05-01T13:34:55Z</time></trkpt><trkpt lat="43.941576979474256" lon="11.174476241463255"><ele>840.0</ele><time>2026-05-01T13:34:57Z</time></trkpt><trkpt lat="43.941522430808014" lon="11.174358092300864"><ele>840.0</ele><time>2026-05-01T13:34:59Z</time></trkpt><trkpt lat="43.941539419047565" lon="11.174271520264597"><ele>840.0</ele><time>2026-05-01T13:35:02Z</time></trkpt><trkpt lat="43.94152782575565" lon="11.174121668361368"><ele>840.0</ele><time>2026-05-01T13:35:03Z</time></trkpt><trkpt lat="43.94156826662982" lon="11.17404432177274"><ele>840.0</ele><time>2026-05-01T13:35:05Z</time></trkpt><trkpt lat="43.94162023548953" lon="11.173896737024707"><ele>840.0</ele><time>2026-05-01T13:35:08Z</time></trkpt><trkpt lat="43.94171342968494" lon="11.173741398589266"><ele>840.0</ele><time>2026-05-01T13:35:10Z</time></trkpt><trkpt lat="43.941762160286785" lon="11.173679477242542"><ele>840.0</ele><time>2026-05-01T13:35:11Z</time></trkpt><trkpt lat="43.94183191750391" lon="11.17354821976832"><ele>840.0</ele><time>2026-05-01T13:35:13Z</time></trkpt><trkpt lat="43.9418869524067" lon="11.17343636537199"><ele>840.0</ele><time>2026-05-01T13:35:15Z</time></trkpt><trkpt lat="43.941979190226526" lon="11.173329829988024"><ele>840.0</ele><time>2026-05-01T13:35:17Z</time></trkpt><trkpt lat="43.94203708638453" lon="11.173271961338505"><ele>840.0</ele><time>2026-05-01T13:35:18Z</time></trkpt><trkpt lat="43.942094875665745" lon="11.173218799544536"><ele>840.0</ele><time>2026-05-01T13:35:19Z</time></trkpt><trkpt lat="43.942154911501525" lon="11.173165129231467"><ele>840.0</ele><time>2026-05-01T13:35:20Z</time></trkpt><trkpt lat="43.94221256900879" lon="11.173116771991653"><ele>840.0</ele><time>2026-05-01T13:35:21Z</time></trkpt><trkpt lat="43.94226606737713" lon="11.17298417000884"><ele>840.0</ele><time>2026-05-01T13:35:23Z</time></trkpt><trkpt lat="43.94227571188476" lon="11.172889770746451"><ele>840.0</ele><time>2026-05-01T13:35:26Z</time></trkpt><trkpt lat="43.94228543687634" lon="11.172779241988225"><ele>840.0</ele><time>2026-05-01T13:35:52Z</time></trkpt><trkpt lat="43.942300827196306" lon="11.172689869463271"><ele>840.0</ele><time>2026-05-01T13:35:53Z</time></trkpt><trkpt lat="43.94231196031707" lon="11.172599435359798"><ele>840.0</ele><time>2026-05-01T13:35:54Z</time></trkpt><trkpt lat="43.942307336477995" lon="11.172488214871727"><ele>840.0</ele><time>2026-05-01T13:35:55Z</time></trkpt><trkpt lat="43.942305909645" lon="11.172382942234007"><ele>840.0</ele><time>2026-05-01T13:35:56Z</time></trkpt><trkpt lat="43.94230150312911" lon="11.172278941464036"><ele>840.0</ele><time>2026-05-01T13:35:57Z</time></trkpt><trkpt lat="43.942295349639814" lon="11.172169048343449"><ele>840.0</ele><time>2026-05-01T13:35:58Z</time></trkpt><trkpt lat="43.94229360059261" lon="11.172067260373572"><ele>840.0</ele><time>2026-05-01T13:35:59Z</time></trkpt><trkpt lat="43.94228033975543" lon="11.171960673573656"><ele>840.0</ele><time>2026-05-01T13:36:00Z</time></trkpt><trkpt lat="43.942263616899446" lon="11.171875768654104"><ele>840.0</ele><time>2026-05-01T13:36:01Z</time></trkpt><trkpt lat="43.9422339496913" lon="11.171739551766949"><ele>840.0</ele><time>2026-05-01T13:36:03Z</time></trkpt><trkpt lat="43.94215457434656" lon="11.171673176346747"><ele>840.0</ele><time>2026-05-01T13:36:06Z</time></trkpt><trkpt lat="43.94205075796682" lon="11.17162706870748"><ele>840.0</ele><time>2026-05-01T13:36:08Z</time></trkpt><trkpt lat="43.941936085896714" lon="11.171564889406755"><ele>840.0</ele><time>2026-05-01T13:36:10Z</time></trkpt><trkpt lat="43.941872375427" lon="11.171545157080578"><ele>840.0</ele><time>2026-05-01T13:36:11Z</time></trkpt><trkpt lat="43.94175621001304" lon="11.171530867930764"><ele>840.0</ele><time>2026-05-01T13:36:13Z</time></trkpt><trkpt lat="43.941657667405835" lon="11.17149906884799"><ele>840.0</ele><time>2026-05-01T13:36:15Z</time></trkpt><trkpt lat="43.941564565491014" lon="11.1714321205448"><ele>840.0</ele><time>2026-05-01T13:36:17Z</time></trkpt><trkpt lat="43.94146400281842" lon="11.171388184630967"><ele>839.2</ele><time>2026-05-01T13:36:19Z</time></trkpt><trkpt lat="43.94138690765712" lon="11.171320885193746"><ele>838.4</ele><time>2026-05-01T13:36:21Z</time></trkpt><trkpt lat="43.94129100742026" lon="11.171265463670156"><ele>837.5999999999999</ele><time>2026-05-01T13:36:23Z</time></trkpt><trkpt lat="43.9412013655252" lon="11.171196276649157"><ele>836.8</ele><time>2026-05-01T13:36:25Z</time></trkpt><trkpt lat="43.94109861254792" lon="11.171141588078429"><ele>836.0</ele><time>2026-05-01T13:36:27Z</time></trkpt><trkpt lat="43.941001579133264" lon="11.171084190315742"><ele>836.0</ele><time>2026-05-01T13:36:29Z</time></trkpt><trkpt lat="43.94092155362754" lon="11.171027470471893"><ele>836.0</ele><time>2026-05-01T13:36:30Z</time></trkpt><trkpt lat="43.94085668619091" lon="11.170991840958703"><ele>836.0</ele><time>2026-05-01T13:36:31Z</time></trkpt><trkpt lat="43.94079280792674" lon="11.170955980958128"><ele>836.0</ele><time>2026-05-01T13:36:32Z</time></trkpt><trkpt lat="43.940731658720935" lon="11.170922674280042"><ele>836.0</ele><time>2026-05-01T13:36:33Z</time></trkpt><trkpt lat="43.94067062245698" lon="11.170871651634934"><ele>836.0</ele><time>2026-05-01T13:36:34Z</time></trkpt><trkpt lat="43.94060979042272" lon="11.170819091509602"><ele>836.0</ele><time>2026-05-01T13:36:35Z</time></trkpt><trkpt lat="43.94054691697166" lon="11.170769765926048"><ele>833.5999999999999</ele><time>2026-05-01T13:36:36Z</time></trkpt><trkpt lat="43.940480135015136" lon="11.170718979102777"><ele>831.2</ele><time>2026-05-01T13:36:37Z</time></trkpt><trkpt lat="43.940377897577335" lon="11.170646041630325"><ele>828.8</ele><time>2026-05-01T13:36:39Z</time></trkpt><trkpt lat="43.940283516132745" lon="11.170534562466006"><ele>826.4000000000001</ele><time>2026-05-01T13:36:41Z</time></trkpt><trkpt lat="43.94016749018793" lon="11.170459632589163"><ele>824.0</ele><time>2026-05-01T13:36:43Z</time></trkpt><trkpt lat="43.94010337628831" lon="11.170437591478265"><ele>819.3333333333334</ele><time>2026-05-01T13:36:44Z</time></trkpt><trkpt lat="43.94003003082089" lon="11.170417524045046"><ele>814.6666666666667</ele><time>2026-05-01T13:36:45Z</time></trkpt><trkpt lat="43.939960215977266" lon="11.170400918108678"><ele>810.0</ele><time>2026-05-01T13:36:46Z</time></trkpt><trkpt lat="43.939898555712425" lon="11.170369471046445"><ele>805.3333333333333</ele><time>2026-05-01T13:36:47Z</time></trkpt><trkpt lat="43.93978193359071" lon="11.170332934074988"><ele>800.6666666666666</ele><time>2026-05-01T13:36:49Z</time></trkpt><trkpt lat="43.93970987788334" lon="11.170353016265238"><ele>796.0</ele><time>2026-05-01T13:36:50Z</time></trkpt><trkpt lat="43.93965384440495" lon="11.17031257301597"><ele>796.0</ele><time>2026-05-01T13:36:51Z</time></trkpt><trkpt lat="43.939554217386586" lon="11.170253664276808"><ele>796.0</ele><time>2026-05-01T13:36:53Z</time></trkpt><trkpt lat="43.9395003619398" lon="11.17013380376456"><ele>796.0</ele><time>2026-05-01T13:36:55Z</time></trkpt><trkpt lat="43.93948989644477" lon="11.169973919035847"><ele>796.0</ele><time>2026-05-01T13:36:57Z</time></trkpt><trkpt lat="43.93952534952502" lon="11.169891005169857"><ele>796.0</ele><time>2026-05-01T13:36:58Z</time></trkpt><trkpt lat="43.93956794853152" lon="11.16982241646099"><ele>795.1666666666666</ele><time>2026-05-01T13:36:59Z</time></trkpt><trkpt lat="43.93959054039858" lon="11.169693015148763"><ele>794.3333333333333</ele><time>2026-05-01T13:37:01Z</time></trkpt><trkpt lat="43.939603113802136" lon="11.16959794427046"><ele>793.5</ele><time>2026-05-01T13:37:02Z</time></trkpt><trkpt lat="43.939611626047544" lon="11.169501126762437"><ele>792.6666666666667</ele><time>2026-05-01T13:37:03Z</time></trkpt><trkpt lat="43.93958980748134" lon="11.169310140308873"><ele>791.8333333333334</ele><time>2026-05-01T13:37:05Z</time></trkpt><trkpt lat="43.93958675503795" lon="11.169218431365255"><ele>791.0</ele><time>2026-05-01T13:37:06Z</time></trkpt><trkpt lat="43.93958148237131" lon="11.169060309920084"><ele>789.4</ele><time>2026-05-01T13:37:08Z</time></trkpt><trkpt lat="43.93956996998542" lon="11.168894384810011"><ele>787.8</ele><time>2026-05-01T13:37:10Z</time></trkpt><trkpt lat="43.939569696332136" lon="11.168699057535926"><ele>786.1999999999999</ele><time>2026-05-01T13:37:12Z</time></trkpt><trkpt lat="43.939569410095835" lon="11.168591059908824"><ele>784.5999999999999</ele><time>2026-05-01T13:37:13Z</time></trkpt><trkpt lat="43.939564067427106" lon="11.168471614629057"><ele>783.0</ele><time>2026-05-01T13:37:14Z</time></trkpt><trkpt lat="43.93954401996829" lon="11.168384626835147"><ele>783.0</ele><time>2026-05-01T13:37:15Z</time></trkpt><trkpt lat="43.93954319134537" lon="11.168234390309038"><ele>783.0</ele><time>2026-05-01T13:37:17Z</time></trkpt><trkpt lat="43.93953362459436" lon="11.168084020153527"><ele>783.0</ele><time>2026-05-01T13:37:19Z</time></trkpt><trkpt lat="43.939465007907614" lon="11.167937205657081"><ele>783.0</ele><time>2026-05-01T13:37:21Z</time></trkpt><trkpt lat="43.93946823064976" lon="11.167801748270454"><ele>783.0</ele><time>2026-05-01T13:37:23Z</time></trkpt><trkpt lat="43.939487134523816" lon="11.167716225488103"><ele>781.4</ele><time>2026-05-01T13:37:24Z</time></trkpt><trkpt lat="43.939516655028385" lon="11.167557640089356"><ele>779.8</ele><time>2026-05-01T13:37:26Z</time></trkpt><trkpt lat="43.93954163185311" lon="11.16741177434132"><ele>778.2</ele><time>2026-05-01T13:37:28Z</time></trkpt><trkpt lat="43.93954250137979" lon="11.167270562021983"><ele>776.6</ele><time>2026-05-01T13:37:30Z</time></trkpt><trkpt lat="43.93951138206732" lon="11.167115003798372"><ele>775.0</ele><time>2026-05-01T13:37:32Z</time></trkpt><trkpt lat="43.93948059596028" lon="11.166961233572351"><ele>773.8</ele><time>2026-05-01T13:37:34Z</time></trkpt><trkpt lat="43.9394148887519" lon="11.166855323483505"><ele>772.6</ele><time>2026-05-01T13:37:36Z</time></trkpt><trkpt lat="43.939346070989274" lon="11.166708796467127"><ele>771.4000000000001</ele><time>2026-05-01T13:37:38Z</time></trkpt><trkpt lat="43.93929746315788" lon="11.166634108560396"><ele>770.2</ele><time>2026-05-01T13:37:39Z</time></trkpt><trkpt lat="43.939229795205385" lon="11.166499781634652"><ele>769.0</ele><time>2026-05-01T13:37:41Z</time></trkpt><trkpt lat="43.939108474430924" lon="11.166387270975234"><ele>766.5714285714286</ele><time>2026-05-01T13:37:43Z</time></trkpt><trkpt lat="43.939037993432095" lon="11.166323483202332"><ele>764.1428571428572</ele><time>2026-05-01T13:37:44Z</time></trkpt><trkpt lat="43.93898102958916" lon="11.166246154817804"><ele>761.7142857142858</ele><time>2026-05-01T13:37:45Z</time></trkpt><trkpt lat="43.938930094729855" lon="11.166180745534238"><ele>759.2857142857142</ele><time>2026-05-01T13:37:46Z</time></trkpt><trkpt lat="43.93887155507677" lon="11.166123705139519"><ele>756.8571428571429</ele><time>2026-05-01T13:37:47Z</time></trkpt><trkpt lat="43.9388127515535" lon="11.166059690428222"><ele>754.4285714285714</ele><time>2026-05-01T13:37:48Z</time></trkpt><trkpt lat="43.93876003157825" lon="11.165996464481664"><ele>752.0</ele><time>2026-05-01T13:37:49Z</time></trkpt><trkpt lat="43.9386639900996" lon="11.165885119071245"><ele>752.0</ele><time>2026-05-01T13:37:51Z</time></trkpt><trkpt lat="43.938597780427244" lon="11.165834261486651"><ele>752.0</ele><time>2026-05-01T13:37:52Z</time></trkpt><trkpt lat="43.938495923777516" lon="11.165745896224728"><ele>752.0</ele><time>2026-05-01T13:37:54Z</time></trkpt><trkpt lat="43.93843177332373" lon="11.165731302777735"><ele>752.0</ele><time>2026-05-01T13:37:55Z</time></trkpt><trkpt lat="43.938365244608605" lon="11.165730821737197"><ele>752.0</ele><time>2026-05-01T13:37:56Z</time></trkpt><trkpt lat="43.93830019897872" lon="11.165729578849119"><ele>752.0</ele><time>2026-05-01T13:37:57Z</time></trkpt><trkpt lat="43.93823187029168" lon="11.165731252318013"><ele>750.8571428571429</ele><time>2026-05-01T13:37:58Z</time></trkpt><trkpt lat="43.938158352408934" lon="11.165739234984965"><ele>749.7142857142857</ele><time>2026-05-01T13:37:59Z</time></trkpt><trkpt lat="43.93808188112928" lon="11.165750855333014"><ele>748.5714285714287</ele><time>2026-05-01T13:38:00Z</time></trkpt><trkpt lat="43.93802002675318" lon="11.165772906846284"><ele>747.4285714285714</ele><time>2026-05-01T13:38:01Z</time></trkpt><trkpt lat="43.93795651701287" lon="11.165813819063139"><ele>746.2857142857143</ele><time>2026-05-01T13:38:02Z</time></trkpt><trkpt lat="43.937891235718965" lon="11.165853660673891"><ele>745.1428571428572</ele><time>2026-05-01T13:38:03Z</time></trkpt><trkpt lat="43.937827813416185" lon="11.165881250992122"><ele>744.0</ele><time>2026-05-01T13:38:04Z</time></trkpt><trkpt lat="43.937757474303496" lon="11.165894073858459"><ele>744.0000000000001</ele><time>2026-05-01T13:38:05Z</time></trkpt><trkpt lat="43.937691410389355" lon="11.165897487342123"><ele>744.0</ele><time>2026-05-01T13:38:06Z</time></trkpt><trkpt lat="43.93762514939047" lon="11.16589333969414"><ele>744.0</ele><time>2026-05-01T13:38:07Z</time></trkpt><trkpt lat="43.93755393471535" lon="11.165904384783866"><ele>744.0</ele><time>2026-05-01T13:38:08Z</time></trkpt><trkpt lat="43.93748009259518" lon="11.165911731396235"><ele>744.0</ele><time>2026-05-01T13:38:09Z</time></trkpt><trkpt lat="43.93740815085113" lon="11.165904790406586"><ele>744.0000000000001</ele><time>2026-05-01T13:38:10Z</time></trkpt><trkpt lat="43.93734244005129" lon="11.165889312516018"><ele>744.0</ele><time>2026-05-01T13:38:11Z</time></trkpt><trkpt lat="43.937270893365884" lon="11.165883802015017"><ele>741.3333333333334</ele><time>2026-05-01T13:38:12Z</time></trkpt><trkpt lat="43.93719418435451" lon="11.165873680133252"><ele>738.6666666666666</ele><time>2026-05-01T13:38:13Z</time></trkpt><trkpt lat="43.937121036649025" lon="11.16587080962339"><ele>736.0</ele><time>2026-05-01T13:38:14Z</time></trkpt><trkpt lat="43.9370444993339" lon="11.165872166135385"><ele>733.3333333333333</ele><time>2026-05-01T13:38:15Z</time></trkpt><trkpt lat="43.93697643598479" lon="11.165859268066717"><ele>730.6666666666666</ele><time>2026-05-01T13:38:16Z</time></trkpt><trkpt lat="43.93685774752278" lon="11.16585262716699"><ele>728.0</ele><time>2026-05-01T13:38:18Z</time></trkpt><trkpt lat="43.93674242445166" lon="11.16581659079976"><ele>724.6666666666666</ele><time>2026-05-01T13:38:20Z</time></trkpt><trkpt lat="43.936654991179786" lon="11.16582607668971"><ele>721.3333333333333</ele><time>2026-05-01T13:38:22Z</time></trkpt><trkpt lat="43.93657408666124" lon="11.165815338966677"><ele>718.0</ele><time>2026-05-01T13:38:24Z</time></trkpt><trkpt lat="43.93647013331819" lon="11.165857632009596"><ele>714.6666666666666</ele><time>2026-05-01T13:38:26Z</time></trkpt><trkpt lat="43.9364097122143" lon="11.165888977323318"><ele>711.3333333333334</ele><time>2026-05-01T13:38:27Z</time></trkpt><trkpt lat="43.93635081964494" lon="11.165927998749567"><ele>708.0</ele><time>2026-05-01T13:38:28Z</time></trkpt><trkpt lat="43.936305336067804" lon="11.165993713078475"><ele>708.0</ele><time>2026-05-01T13:38:29Z</time></trkpt><trkpt lat="43.936273973988705" lon="11.16615268422578"><ele>708.0</ele><time>2026-05-01T13:38:31Z</time></trkpt><trkpt lat="43.93628190546949" lon="11.166320665141578"><ele>708.0</ele><time>2026-05-01T13:38:33Z</time></trkpt><trkpt lat="43.93624043629727" lon="11.166436321194226"><ele>708.0</ele><time>2026-05-01T13:38:35Z</time></trkpt><trkpt lat="43.93612202472179" lon="11.16651757270124"><ele>709.6666666666666</ele><time>2026-05-01T13:38:37Z</time></trkpt><trkpt lat="43.93605116068076" lon="11.166576005110882"><ele>711.3333333333334</ele><time>2026-05-01T13:38:38Z</time></trkpt><trkpt lat="43.93599634528742" lon="11.166634145644677"><ele>713.0</ele><time>2026-05-01T13:38:39Z</time></trkpt><trkpt lat="43.93592089780028" lon="11.166754616232804"><ele>714.6666666666667</ele><time>2026-05-01T13:38:41Z</time></trkpt><trkpt lat="43.93588053280561" lon="11.16682645974836"><ele>716.3333333333334</ele><time>2026-05-01T13:38:42Z</time></trkpt><trkpt lat="43.935847542683334" lon="11.166907495227893"><ele>718.0</ele><time>2026-05-01T13:38:43Z</time></trkpt><trkpt lat="43.93578941892065" lon="11.167049051495447"><ele>713.1666666666667</ele><time>2026-05-01T13:38:45Z</time></trkpt><trkpt lat="43.93574575008058" lon="11.16719746875158"><ele>708.3333333333334</ele><time>2026-05-01T13:38:47Z</time></trkpt><trkpt lat="43.93569292227846" lon="11.167266220613568"><ele>703.5</ele><time>2026-05-01T13:38:49Z</time></trkpt><trkpt lat="43.93563014229291" lon="11.167303563568641"><ele>698.6666666666666</ele><time>2026-05-01T13:38:51Z</time></trkpt><trkpt lat="43.935546422869365" lon="11.167348567725469"><ele>693.8333333333333</ele><time>2026-05-01T13:38:53Z</time></trkpt><trkpt lat="43.93548372010496" lon="11.167315982342634"><ele>689.0</ele><time>2026-05-01T13:38:55Z</time></trkpt><trkpt lat="43.93548154214698" lon="11.167226777887029"><ele>689.0</ele><time>2026-05-01T13:38:58Z</time></trkpt><trkpt lat="43.9355135427631" lon="11.16713833533931"><ele>689.0</ele><time>2026-05-01T13:39:01Z</time></trkpt><trkpt lat="43.93557050965781" lon="11.167092841094997"><ele>689.0</ele><time>2026-05-01T13:39:04Z</time></trkpt><trkpt lat="43.93560728189279" lon="11.167020993340696"><ele>689.0</ele><time>2026-05-01T13:39:06Z</time></trkpt><trkpt lat="43.93559890025192" lon="11.16691055690591"><ele>689.0</ele><time>2026-05-01T13:39:08Z</time></trkpt><trkpt lat="43.93558831692146" lon="11.16676722384459"><ele>689.0</ele><time>2026-05-01T13:39:10Z</time></trkpt><trkpt lat="43.935592686529034" lon="11.166610532695252"><ele>688.2</ele><time>2026-05-01T13:39:12Z</time></trkpt><trkpt lat="43.93564265598247" lon="11.166470402907253"><ele>687.4000000000001</ele><time>2026-05-01T13:39:14Z</time></trkpt><trkpt lat="43.935721369058726" lon="11.166362716363066"><ele>686.6</ele><time>2026-05-01T13:39:16Z</time></trkpt><trkpt lat="43.935762396899555" lon="11.166227818290695"><ele>685.8</ele><time>2026-05-01T13:39:18Z</time></trkpt><trkpt lat="43.93570752673313" lon="11.166092513922022"><ele>685.0</ele><time>2026-05-01T13:39:20Z</time></trkpt><trkpt lat="43.93567988166878" lon="11.166010796943914"><ele>685.0</ele><time>2026-05-01T13:39:21Z</time></trkpt><trkpt lat="43.935659271633085" lon="11.165926687726673"><ele>685.0</ele><time>2026-05-01T13:39:22Z</time></trkpt><trkpt lat="43.93564198220363" lon="11.165770246341431"><ele>685.0</ele><time>2026-05-01T13:39:24Z</time></trkpt><trkpt lat="43.9356514606703" lon="11.16563532291532"><ele>685.0</ele><time>2026-05-01T13:39:26Z</time></trkpt><trkpt lat="43.935681837423004" lon="11.165523643761322"><ele>685.0</ele><time>2026-05-01T13:39:28Z</time></trkpt><trkpt lat="43.93574736024932" lon="11.165382176870386"><ele>686.3333333333334</ele><time>2026-05-01T13:39:30Z</time></trkpt><trkpt lat="43.93578662349989" lon="11.165309604400953"><ele>687.6666666666667</ele><time>2026-05-01T13:39:31Z</time></trkpt><trkpt lat="43.935871495777334" lon="11.165266123570493"><ele>689.0</ele><time>2026-05-01T13:39:32Z</time></trkpt><trkpt lat="43.93595302591527" lon="11.165223410714644"><ele>690.3333333333334</ele><time>2026-05-01T13:39:33Z</time></trkpt><trkpt lat="43.93601769312675" lon="11.165152283758223"><ele>691.6666666666666</ele><time>2026-05-01T13:39:34Z</time></trkpt><trkpt lat="43.93609791772405" lon="11.165087039254265"><ele>693.0</ele><time>2026-05-01T13:39:35Z</time></trkpt><trkpt lat="43.936162403982976" lon="11.164984031445654"><ele>693.0</ele><time>2026-05-01T13:39:36Z</time></trkpt><trkpt lat="43.93619844212925" lon="11.16486912505807"><ele>693.0</ele><time>2026-05-01T13:39:37Z</time></trkpt><trkpt lat="43.936232709695254" lon="11.164777374340028"><ele>693.0</ele><time>2026-05-01T13:39:38Z</time></trkpt><trkpt lat="43.93627838146794" lon="11.16470982906238"><ele>693.0</ele><time>2026-05-01T13:39:39Z</time></trkpt><trkpt lat="43.93637719332958" lon="11.164640956956708"><ele>693.0</ele><time>2026-05-01T13:39:41Z</time></trkpt><trkpt lat="43.93643238658662" lon="11.164567978918985"><ele>693.0</ele><time>2026-05-01T13:39:43Z</time></trkpt><trkpt lat="43.936384618345116" lon="11.164468635460626"><ele>693.4</ele><time>2026-05-01T13:39:45Z</time></trkpt><trkpt lat="43.9363252973743" lon="11.164410334544156"><ele>693.8</ele><time>2026-05-01T13:39:46Z</time></trkpt><trkpt lat="43.93625166195744" lon="11.16436434001051"><ele>694.2</ele><time>2026-05-01T13:39:47Z</time></trkpt><trkpt lat="43.93617327841574" lon="11.164324367519761"><ele>694.6</ele><time>2026-05-01T13:39:48Z</time></trkpt><trkpt lat="43.93607458163764" lon="11.164244840716556"><ele>695.0</ele><time>2026-05-01T13:39:49Z</time></trkpt><trkpt lat="43.93597377195156" lon="11.164205970165"><ele>695.0</ele><time>2026-05-01T13:39:50Z</time></trkpt><trkpt lat="43.93589745254433" lon="11.164181889784226"><ele>695.0</ele><time>2026-05-01T13:39:51Z</time></trkpt><trkpt lat="43.93581943894994" lon="11.164159823364969"><ele>695.0</ele><time>2026-05-01T13:39:52Z</time></trkpt><trkpt lat="43.935746403389224" lon="11.164129301965554"><ele>695.0</ele><time>2026-05-01T13:39:53Z</time></trkpt><trkpt lat="43.93566147779673" lon="11.164099678075509"><ele>695.0</ele><time>2026-05-01T13:39:54Z</time></trkpt><trkpt lat="43.93558884558247" lon="11.164073705886121"><ele>695.0</ele><time>2026-05-01T13:39:55Z</time></trkpt><trkpt lat="43.93550548254422" lon="11.16405134081016"><ele>693.1666666666666</ele><time>2026-05-01T13:39:56Z</time></trkpt><trkpt lat="43.93542461956272" lon="11.16402783295537"><ele>691.3333333333333</ele><time>2026-05-01T13:39:57Z</time></trkpt><trkpt lat="43.93537097054504" lon="11.163973277918501"><ele>689.5</ele><time>2026-05-01T13:39:58Z</time></trkpt><trkpt lat="43.9353070364601" lon="11.163855279284011"><ele>687.6666666666666</ele><time>2026-05-01T13:40:00Z</time></trkpt><trkpt lat="43.93527403248948" lon="11.163707948824861"><ele>685.8333333333334</ele><time>2026-05-01T13:40:02Z</time></trkpt><trkpt lat="43.93528060398623" lon="11.16360169044884"><ele>684.0</ele><time>2026-05-01T13:40:03Z</time></trkpt><trkpt lat="43.935268064966685" lon="11.16349427586924"><ele>684.0</ele><time>2026-05-01T13:40:04Z</time></trkpt><trkpt lat="43.93522691416453" lon="11.163400665049192"><ele>684.0</ele><time>2026-05-01T13:40:05Z</time></trkpt><trkpt lat="43.935176513504096" lon="11.163338934320086"><ele>684.0</ele><time>2026-05-01T13:40:06Z</time></trkpt><trkpt lat="43.935099469929256" lon="11.16324638658955"><ele>684.0</ele><time>2026-05-01T13:40:08Z</time></trkpt><trkpt lat="43.93509461589306" lon="11.163092550213113"><ele>684.0</ele><time>2026-05-01T13:40:10Z</time></trkpt><trkpt lat="43.93511093280904" lon="11.16298709169516"><ele>684.0</ele><time>2026-05-01T13:40:11Z</time></trkpt><trkpt lat="43.93515334654598" lon="11.162804302745647"><ele>682.8000000000001</ele><time>2026-05-01T13:40:13Z</time></trkpt><trkpt lat="43.93519292662643" lon="11.162701464487979"><ele>681.6</ele><time>2026-05-01T13:40:14Z</time></trkpt><trkpt lat="43.9352373512024" lon="11.162580667932165"><ele>680.4</ele><time>2026-05-01T13:40:15Z</time></trkpt><trkpt lat="43.93528264694117" lon="11.162459861646738"><ele>679.2</ele><time>2026-05-01T13:40:16Z</time></trkpt><trkpt lat="43.93533107978874" lon="11.162347644011831"><ele>678.0</ele><time>2026-05-01T13:40:17Z</time></trkpt><trkpt lat="43.935365523016124" lon="11.162246642309148"><ele>675.5</ele><time>2026-05-01T13:40:18Z</time></trkpt><trkpt lat="43.93539706221488" lon="11.162152584887261"><ele>673.0</ele><time>2026-05-01T13:40:19Z</time></trkpt><trkpt lat="43.935427619435046" lon="11.162055061891513"><ele>670.5</ele><time>2026-05-01T13:40:20Z</time></trkpt><trkpt lat="43.935443475276706" lon="11.161953046249709"><ele>668.0</ele><time>2026-05-01T13:40:21Z</time></trkpt><trkpt lat="43.93545493545761" lon="11.161814919977221"><ele>665.5</ele><time>2026-05-01T13:40:23Z</time></trkpt><trkpt lat="43.93545179852165" lon="11.16170750264043"><ele>663.0</ele><time>2026-05-01T13:40:53Z</time></trkpt><trkpt lat="43.935429472319164" lon="11.161615271205264"><ele>661.0</ele><time>2026-05-01T13:40:57Z</time></trkpt><trkpt lat="43.93539960459537" lon="11.161504004462468"><ele>659.0</ele><time>2026-05-01T13:40:59Z</time></trkpt><trkpt lat="43.93537944798037" lon="11.161402353424291"><ele>657.0</ele><time>2026-05-01T13:41:02Z</time></trkpt><trkpt lat="43.93538401380151" lon="11.161257898509197"><ele>655.0</ele><time>2026-05-01T13:41:04Z</time></trkpt><trkpt lat="43.93543205196302" lon="11.161169305202524"><ele>653.0</ele><time>2026-05-01T13:41:07Z</time></trkpt><trkpt lat="43.935459855959905" lon="11.161056659260913"><ele>651.0</ele><time>2026-05-01T13:41:10Z</time></trkpt><trkpt lat="43.93541675411917" lon="11.160973516172191"><ele>651.0</ele><time>2026-05-01T13:41:24Z</time></trkpt><trkpt lat="43.93536537912829" lon="11.160881329125019"><ele>651.0</ele><time>2026-05-01T13:41:26Z</time></trkpt><trkpt lat="43.93528196140738" lon="11.160787117789027"><ele>651.0</ele><time>2026-05-01T13:41:28Z</time></trkpt><trkpt lat="43.935223887614" lon="11.16069311784319"><ele>651.0</ele><time>2026-05-01T13:41:30Z</time></trkpt><trkpt lat="43.93515590662527" lon="11.160637775943124"><ele>651.0</ele><time>2026-05-01T13:41:32Z</time></trkpt><trkpt lat="43.93507250556349" lon="11.160635749396933"><ele>651.0</ele><time>2026-05-01T13:41:35Z</time></trkpt><trkpt lat="43.93500468866632" lon="11.160677506022047"><ele>651.0</ele><time>2026-05-01T13:41:38Z</time></trkpt><trkpt lat="43.93491412010854" lon="11.160693109397487"><ele>651.0</ele><time>2026-05-01T13:41:39Z</time></trkpt><trkpt lat="43.93482250475285" lon="11.16071523930156"><ele>651.0</ele><time>2026-05-01T13:41:40Z</time></trkpt><trkpt lat="43.93473903526919" lon="11.160741868617217"><ele>651.0</ele><time>2026-05-01T13:41:41Z</time></trkpt><trkpt lat="43.93466654523992" lon="11.16077715599505"><ele>651.0</ele><time>2026-05-01T13:41:42Z</time></trkpt><trkpt lat="43.93459908520142" lon="11.160815965384433"><ele>651.0</ele><time>2026-05-01T13:41:43Z</time></trkpt><trkpt lat="43.934527398280615" lon="11.16083668052942"><ele>651.0</ele><time>2026-05-01T13:41:44Z</time></trkpt><trkpt lat="43.9344339348785" lon="11.160857718918054"><ele>651.0</ele><time>2026-05-01T13:41:46Z</time></trkpt><trkpt lat="43.93437289279905" lon="11.161043828518505"><ele>651.0</ele><time>2026-05-01T13:41:48Z</time></trkpt><trkpt lat="43.93435263410479" lon="11.161213527425517"><ele>651.0</ele><time>2026-05-01T13:41:49Z</time></trkpt><trkpt lat="43.93431356097137" lon="11.161362069415352"><ele>651.0</ele><time>2026-05-01T13:41:50Z</time></trkpt><trkpt lat="43.934278349301685" lon="11.16149286356248"><ele>651.0</ele><time>2026-05-01T13:41:51Z</time></trkpt><trkpt lat="43.9342445692735" lon="11.16162608784389"><ele>651.0</ele><time>2026-05-01T13:41:52Z</time></trkpt><trkpt lat="43.934204865283796" lon="11.161770917332381"><ele>651.0</ele><time>2026-05-01T13:41:53Z</time></trkpt><trkpt lat="43.93416667913086" lon="11.1619076568071"><ele>651.0</ele><time>2026-05-01T13:41:54Z</time></trkpt><trkpt lat="43.93415415650687" lon="11.162040084472402"><ele>650.0</ele><time>2026-05-01T13:41:55Z</time></trkpt><trkpt lat="43.93414345485663" lon="11.16214149180305"><ele>649.0</ele><time>2026-05-01T13:41:56Z</time></trkpt><trkpt lat="43.934111425988064" lon="11.16222425156918"><ele>648.0</ele><time>2026-05-01T13:41:57Z</time></trkpt><trkpt lat="43.934047819220744" lon="11.16235813469243"><ele>647.0</ele><time>2026-05-01T13:41:59Z</time></trkpt><trkpt lat="43.933988903358845" lon="11.162404533259076"><ele>646.0</ele><time>2026-05-01T13:42:00Z</time></trkpt><trkpt lat="43.933914582101856" lon="11.162423687560585"><ele>645.0</ele><time>2026-05-01T13:42:01Z</time></trkpt><trkpt lat="43.933840575675084" lon="11.162415429516004"><ele>645.0</ele><time>2026-05-01T13:42:02Z</time></trkpt><trkpt lat="43.93375380146806" lon="11.162378670387964"><ele>645.0</ele><time>2026-05-01T13:42:03Z</time></trkpt><trkpt lat="43.93365039787485" lon="11.162351352249345"><ele>645.0</ele><time>2026-05-01T13:42:04Z</time></trkpt><trkpt lat="43.93353925251863" lon="11.162351791178097"><ele>645.0</ele><time>2026-05-01T13:42:05Z</time></trkpt><trkpt lat="43.93342926803475" lon="11.162382881832752"><ele>645.0</ele><time>2026-05-01T13:42:06Z</time></trkpt><trkpt lat="43.93333679741104" lon="11.162455642493756"><ele>643.4</ele><time>2026-05-01T13:42:07Z</time></trkpt><trkpt lat="43.933268991096085" lon="11.162564364136305"><ele>641.8</ele><time>2026-05-01T13:42:08Z</time></trkpt><trkpt lat="43.933185403112255" lon="11.162669728555016"><ele>640.2</ele><time>2026-05-01T13:42:09Z</time></trkpt><trkpt lat="43.9331415203436" lon="11.162781084136922"><ele>638.6</ele><time>2026-05-01T13:42:10Z</time></trkpt><trkpt lat="43.93311026225965" lon="11.162889006158993"><ele>637.0</ele><time>2026-05-01T13:42:11Z</time></trkpt><trkpt lat="43.933084065056626" lon="11.162989196434232"><ele>637.0</ele><time>2026-05-01T13:42:12Z</time></trkpt><trkpt lat="43.93307837305686" lon="11.1630977555462"><ele>637.0</ele><time>2026-05-01T13:42:13Z</time></trkpt><trkpt lat="43.9330636230932" lon="11.163247129107132"><ele>637.0</ele><time>2026-05-01T13:42:15Z</time></trkpt><trkpt lat="43.93302200912109" lon="11.163373404863194"><ele>637.0</ele><time>2026-05-01T13:42:17Z</time></trkpt><trkpt lat="43.93295475146697" lon="11.163506758413643"><ele>637.0</ele><time>2026-05-01T13:42:19Z</time></trkpt><trkpt lat="43.93284186750805" lon="11.163627286271032"><ele>635.7142857142857</ele><time>2026-05-01T13:42:21Z</time></trkpt><trkpt lat="43.93277843350079" lon="11.16368406416007"><ele>634.4285714285714</ele><time>2026-05-01T13:42:22Z</time></trkpt><trkpt lat="43.93271369767075" lon="11.163718228798668"><ele>633.1428571428571</ele><time>2026-05-01T13:42:23Z</time></trkpt><trkpt lat="43.932639530061024" lon="11.163744965364744"><ele>631.8571428571429</ele><time>2026-05-01T13:42:24Z</time></trkpt><trkpt lat="43.93257504601991" lon="11.163757492479114"><ele>630.5714285714286</ele><time>2026-05-01T13:42:25Z</time></trkpt><trkpt lat="43.93250101162144" lon="11.163768144066003"><ele>629.2857142857142</ele><time>2026-05-01T13:42:26Z</time></trkpt><trkpt lat="43.93242532805454" lon="11.163782831283195"><ele>628.0</ele><time>2026-05-01T13:42:27Z</time></trkpt><trkpt lat="43.9323515368728" lon="11.163791738604273"><ele>627.0</ele><time>2026-05-01T13:42:28Z</time></trkpt><trkpt lat="43.93226559367958" lon="11.163769868742808"><ele>626.0</ele><time>2026-05-01T13:42:29Z</time></trkpt><trkpt lat="43.93215598018011" lon="11.163683969463733"><ele>625.0</ele><time>2026-05-01T13:42:31Z</time></trkpt><trkpt lat="43.9320875297286" lon="11.163676828583606"><ele>624.0</ele><time>2026-05-01T13:42:32Z</time></trkpt><trkpt lat="43.93200817327099" lon="11.163738091539534"><ele>623.0</ele><time>2026-05-01T13:42:33Z</time></trkpt><trkpt lat="43.93193412783872" lon="11.163816451706166"><ele>623.0</ele><time>2026-05-01T13:42:34Z</time></trkpt><trkpt lat="43.93188919326381" lon="11.16391164929251"><ele>623.0</ele><time>2026-05-01T13:42:35Z</time></trkpt><trkpt lat="43.931854281359755" lon="11.1640233560971"><ele>623.0</ele><time>2026-05-01T13:42:36Z</time></trkpt><trkpt lat="43.93182602607155" lon="11.164144541703072"><ele>623.0</ele><time>2026-05-01T13:42:37Z</time></trkpt><trkpt lat="43.93180729491472" lon="11.164253639335547"><ele>623.0</ele><time>2026-05-01T13:42:38Z</time></trkpt><trkpt lat="43.93177009537877" lon="11.164369860893167"><ele>623.0</ele><time>2026-05-01T13:42:39Z</time></trkpt><trkpt lat="43.9317317301733" lon="11.164486881928982"><ele>621.4</ele><time>2026-05-01T13:42:40Z</time></trkpt><trkpt lat="43.931685174681405" lon="11.16457278005692"><ele>619.8</ele><time>2026-05-01T13:42:41Z</time></trkpt><trkpt lat="43.93162724540209" lon="11.164700373670108"><ele>618.2</ele><time>2026-05-01T13:42:43Z</time></trkpt><trkpt lat="43.93158373957728" lon="11.164835028924799"><ele>616.6</ele><time>2026-05-01T13:42:45Z</time></trkpt><trkpt lat="43.93158823189774" lon="11.16497510132549"><ele>615.0</ele><time>2026-05-01T13:42:47Z</time></trkpt><trkpt lat="43.93155979056859" lon="11.165111293479432"><ele>612.3333333333334</ele><time>2026-05-01T13:42:49Z</time></trkpt><trkpt lat="43.93154220443384" lon="11.16520226249865"><ele>609.6666666666666</ele><time>2026-05-01T13:42:50Z</time></trkpt><trkpt lat="43.93149351689014" lon="11.165304257540484"><ele>607.0</ele><time>2026-05-01T13:42:51Z</time></trkpt><trkpt lat="43.9314417393253" lon="11.165402961904814"><ele>604.3333333333333</ele><time>2026-05-01T13:42:52Z</time></trkpt><trkpt lat="43.93139225085676" lon="11.165513330646142"><ele>601.6666666666666</ele><time>2026-05-01T13:42:53Z</time></trkpt><trkpt lat="43.93135418066439" lon="11.165619228846438"><ele>599.0</ele><time>2026-05-01T13:42:54Z</time></trkpt><trkpt lat="43.9313066184721" lon="11.165740186466447"><ele>598.6666666666666</ele><time>2026-05-01T13:42:55Z</time></trkpt><trkpt lat="43.93132126664867" lon="11.165827335228531"><ele>598.3333333333334</ele><time>2026-05-01T13:42:56Z</time></trkpt><trkpt lat="43.93129236792018" lon="11.165917098778102"><ele>598.0</ele><time>2026-05-01T13:42:57Z</time></trkpt><trkpt lat="43.930887531728" lon="11.165924513862965"><ele>598.0</ele><time>2026-05-01T13:43:01Z</time></trkpt><trkpt lat="43.9308286277646" lon="11.165796033851413"><ele>598.0</ele><time>2026-05-01T13:43:03Z</time></trkpt><trkpt lat="43.930812295798134" lon="11.165701150763287"><ele>598.0</ele><time>2026-05-01T13:43:04Z</time></trkpt><trkpt lat="43.930797917205616" lon="11.165607389915676"><ele>598.0</ele><time>2026-05-01T13:43:05Z</time></trkpt><trkpt lat="43.930788647789456" lon="11.165517812847362"><ele>598.0</ele><time>2026-05-01T13:43:06Z</time></trkpt><trkpt lat="43.9307764784933" lon="11.165422599343126"><ele>598.0</ele><time>2026-05-01T13:43:07Z</time></trkpt><trkpt lat="43.93072582915433" lon="11.165297560817441"><ele>600.1999999999999</ele><time>2026-05-01T13:43:09Z</time></trkpt><trkpt lat="43.93061318359567" lon="11.165240215781795"><ele>602.4</ele><time>2026-05-01T13:43:11Z</time></trkpt><trkpt lat="43.93051928156237" lon="11.165262631269494"><ele>604.5999999999999</ele><time>2026-05-01T13:43:13Z</time></trkpt><trkpt lat="43.930453002901" lon="11.165358520530381"><ele>606.8</ele><time>2026-05-01T13:43:15Z</time></trkpt><trkpt lat="43.930378325149555" lon="11.165331173626655"><ele>609.0</ele><time>2026-05-01T13:43:19Z</time></trkpt><trkpt lat="43.93029358671908" lon="11.165271971750785"><ele>609.0</ele><time>2026-05-01T13:43:21Z</time></trkpt><trkpt lat="43.93022724415033" lon="11.165225006502617"><ele>609.0</ele><time>2026-05-01T13:43:22Z</time></trkpt><trkpt lat="43.930144822255556" lon="11.165193146288944"><ele>609.0</ele><time>2026-05-01T13:43:23Z</time></trkpt><trkpt lat="43.93006448898982" lon="11.165122288598683"><ele>609.0</ele><time>2026-05-01T13:43:24Z</time></trkpt><trkpt lat="43.92999676725308" lon="11.165067733520418"><ele>609.0</ele><time>2026-05-01T13:43:25Z</time></trkpt><trkpt lat="43.92990617670184" lon="11.16500280120603"><ele>609.0</ele><time>2026-05-01T13:43:27Z</time></trkpt><trkpt lat="43.92985208745065" lon="11.164940090565214"><ele>611.0</ele><time>2026-05-01T13:43:29Z</time></trkpt><trkpt lat="43.92978374662429" lon="11.164869170372453"><ele>613.0</ele><time>2026-05-01T13:43:30Z</time></trkpt><trkpt lat="43.92969162615745" lon="11.16479424708039"><ele>615.0</ele><time>2026-05-01T13:43:32Z</time></trkpt><trkpt lat="43.929598285835766" lon="11.16472412650409"><ele>617.0</ele><time>2026-05-01T13:43:34Z</time></trkpt><trkpt lat="43.929497800318245" lon="11.164657056162984"><ele>619.0</ele><time>2026-05-01T13:43:36Z</time></trkpt><trkpt lat="43.929426056085994" lon="11.164596660711604"><ele>620.3333333333334</ele><time>2026-05-01T13:43:38Z</time></trkpt><trkpt lat="43.929340430483826" lon="11.164533745874424"><ele>621.6666666666667</ele><time>2026-05-01T13:43:40Z</time></trkpt><trkpt lat="43.92927947350684" lon="11.164494907341082"><ele>623.0</ele><time>2026-05-01T13:43:42Z</time></trkpt><trkpt lat="43.929204951253936" lon="11.164450349582246"><ele>624.3333333333334</ele><time>2026-05-01T13:43:44Z</time></trkpt><trkpt lat="43.92913424206077" lon="11.164394466552233"><ele>625.6666666666666</ele><time>2026-05-01T13:43:46Z</time></trkpt><trkpt lat="43.9290569440988" lon="11.164344206050814"><ele>627.0</ele><time>2026-05-01T13:43:48Z</time></trkpt><trkpt lat="43.92898837300144" lon="11.164276481326795"><ele>627.0</ele><time>2026-05-01T13:43:50Z</time></trkpt><trkpt lat="43.92891177875537" lon="11.164209587132948"><ele>627.0</ele><time>2026-05-01T13:43:52Z</time></trkpt><trkpt lat="43.928824351968515" lon="11.164121243181224"><ele>627.0</ele><time>2026-05-01T13:43:54Z</time></trkpt><trkpt lat="43.928727740089776" lon="11.164029904677312"><ele>627.0</ele><time>2026-05-01T13:43:56Z</time></trkpt><trkpt lat="43.928622170976055" lon="11.163942317476668"><ele>627.0</ele><time>2026-05-01T13:43:58Z</time></trkpt><trkpt lat="43.928557361660594" lon="11.163887005852455"><ele>627.1666666666666</ele><time>2026-05-01T13:43:59Z</time></trkpt><trkpt lat="43.92849135331555" lon="11.163828456898841"><ele>627.3333333333334</ele><time>2026-05-01T13:44:00Z</time></trkpt><trkpt lat="43.92842962067554" lon="11.163762651259526"><ele>627.5</ele><time>2026-05-01T13:44:01Z</time></trkpt><trkpt lat="43.92836979742197" lon="11.1636890641007"><ele>627.6666666666667</ele><time>2026-05-01T13:44:02Z</time></trkpt><trkpt lat="43.92831529358023" lon="11.163567961225302"><ele>627.8333333333334</ele><time>2026-05-01T13:44:03Z</time></trkpt><trkpt lat="43.928256750446664" lon="11.163450359929097"><ele>628.0</ele><time>2026-05-01T13:44:04Z</time></trkpt><trkpt lat="43.92817649708313" lon="11.163322186099432"><ele>628.0</ele><time>2026-05-01T13:44:05Z</time></trkpt><trkpt lat="43.92810882895273" lon="11.163203415505274"><ele>628.0</ele><time>2026-05-01T13:44:06Z</time></trkpt><trkpt lat="43.928053675167575" lon="11.163108999651577"><ele>628.0</ele><time>2026-05-01T13:44:07Z</time></trkpt><trkpt lat="43.92796427990631" lon="11.162989431515125"><ele>628.0</ele><time>2026-05-01T13:44:09Z</time></trkpt><trkpt lat="43.927879789936476" lon="11.162882732166002"><ele>628.0</ele><time>2026-05-01T13:44:11Z</time></trkpt><trkpt lat="43.9278156513431" lon="11.1628200386382"><ele>627.4</ele><time>2026-05-01T13:44:12Z</time></trkpt><trkpt lat="43.92775719150255" lon="11.16270897714448"><ele>626.8</ele><time>2026-05-01T13:44:13Z</time></trkpt><trkpt lat="43.927698265634554" lon="11.16257974260622"><ele>626.2</ele><time>2026-05-01T13:44:14Z</time></trkpt><trkpt lat="43.92763593484353" lon="11.162448651651722"><ele>625.6</ele><time>2026-05-01T13:44:15Z</time></trkpt><trkpt lat="43.927572529651094" lon="11.162316328799475"><ele>625.0</ele><time>2026-05-01T13:44:16Z</time></trkpt><trkpt lat="43.92753358018813" lon="11.162200134729598"><ele>623.1666666666667</ele><time>2026-05-01T13:44:17Z</time></trkpt><trkpt lat="43.92749138169003" lon="11.162102640154286"><ele>621.3333333333334</ele><time>2026-05-01T13:44:18Z</time></trkpt><trkpt lat="43.92745104139633" lon="11.162018349882029"><ele>619.5</ele><time>2026-05-01T13:44:19Z</time></trkpt><trkpt lat="43.92741198227188" lon="11.161949696412735"><ele>617.6666666666666</ele><time>2026-05-01T13:44:20Z</time></trkpt><trkpt lat="43.92741708117222" lon="11.161853771502445"><ele>615.8333333333333</ele><time>2026-05-01T13:44:21Z</time></trkpt><trkpt lat="43.927384889977496" lon="11.161754816808074"><ele>614.0</ele><time>2026-05-01T13:44:23Z</time></trkpt><trkpt lat="43.927297815343636" lon="11.161674120016107"><ele>614.0</ele><time>2026-05-01T13:44:25Z</time></trkpt><trkpt lat="43.927228774254125" lon="11.161617993947589"><ele>614.0</ele><time>2026-05-01T13:44:26Z</time></trkpt><trkpt lat="43.92716177797752" lon="11.161574693688141"><ele>614.0</ele><time>2026-05-01T13:44:27Z</time></trkpt><trkpt lat="43.927065149589716" lon="11.161510094334753"><ele>614.0</ele><time>2026-05-01T13:44:29Z</time></trkpt><trkpt lat="43.92700475371471" lon="11.161449099697522"><ele>614.0</ele><time>2026-05-01T13:44:31Z</time></trkpt><trkpt lat="43.92696246569386" lon="11.161382037482557"><ele>614.0</ele><time>2026-05-01T13:44:33Z</time></trkpt><trkpt lat="43.926922764623825" lon="11.161280954134217"><ele>613.0</ele><time>2026-05-01T13:44:36Z</time></trkpt><trkpt lat="43.92691478747702" lon="11.161148117618465"><ele>612.0</ele><time>2026-05-01T13:45:57Z</time></trkpt><trkpt lat="43.926940935788096" lon="11.161020666161058"><ele>611.0</ele><time>2026-05-01T13:46:00Z</time></trkpt><trkpt lat="43.926933248706234" lon="11.160894052316747"><ele>610.0</ele><time>2026-05-01T13:46:02Z</time></trkpt><trkpt lat="43.92693139975492" lon="11.160762144896989"><ele>609.0</ele><time>2026-05-01T13:46:04Z</time></trkpt><trkpt lat="43.92692252969182" lon="11.16066670240933"><ele>608.0</ele><time>2026-05-01T13:46:06Z</time></trkpt><trkpt lat="43.92690812324897" lon="11.160546942704707"><ele>607.6</ele><time>2026-05-01T13:46:09Z</time></trkpt><trkpt lat="43.92689368162382" lon="11.160461864521764"><ele>607.1999999999999</ele><time>2026-05-01T13:46:11Z</time></trkpt><trkpt lat="43.9269089204084" lon="11.16033996268167"><ele>606.8</ele><time>2026-05-01T13:46:15Z</time></trkpt><trkpt lat="43.92689160338108" lon="11.160078293498675"><ele>606.4</ele><time>2026-05-01T13:46:17Z</time></trkpt><trkpt lat="43.92690414762334" lon="11.159957557445368"><ele>606.0</ele><time>2026-05-01T13:46:37Z</time></trkpt><trkpt lat="43.92686387854636" lon="11.159861761425626"><ele>606.8333333333334</ele><time>2026-05-01T13:46:40Z</time></trkpt><trkpt lat="43.92682102060897" lon="11.159740598564309"><ele>607.6666666666666</ele><time>2026-05-01T13:46:42Z</time></trkpt><trkpt lat="43.926770122121226" lon="11.159602885283295"><ele>608.5</ele><time>2026-05-01T13:46:44Z</time></trkpt><trkpt lat="43.92671595702644" lon="11.159523734987317"><ele>609.3333333333333</ele><time>2026-05-01T13:46:46Z</time></trkpt><trkpt lat="43.926665847516894" lon="11.15944998427806"><ele>610.1666666666666</ele><time>2026-05-01T13:46:48Z</time></trkpt><trkpt lat="43.92663183307178" lon="11.159356327645375"><ele>611.0</ele><time>2026-05-01T13:46:56Z</time></trkpt><trkpt lat="43.9265957272668" lon="11.15924382185166"><ele>609.1666666666666</ele><time>2026-05-01T13:47:07Z</time></trkpt><trkpt lat="43.92653309939936" lon="11.159163491984193"><ele>607.3333333333333</ele><time>2026-05-01T13:47:09Z</time></trkpt><trkpt lat="43.92651721687037" lon="11.159072396444998"><ele>605.5</ele><time>2026-05-01T13:47:12Z</time></trkpt><trkpt lat="43.92646888194213" lon="11.158975876138427"><ele>603.6666666666666</ele><time>2026-05-01T13:47:15Z</time></trkpt><trkpt lat="43.92641005782809" lon="11.158890270778297"><ele>601.8333333333334</ele><time>2026-05-01T13:47:18Z</time></trkpt><trkpt lat="43.926350389079126" lon="11.158836204289384"><ele>600.0</ele><time>2026-05-01T13:47:20Z</time></trkpt><trkpt lat="43.926296672031285" lon="11.15876751582401"><ele>599.9999999999999</ele><time>2026-05-01T13:47:22Z</time></trkpt><trkpt lat="43.926254182514405" lon="11.158696583020632"><ele>600.0</ele><time>2026-05-01T13:47:25Z</time></trkpt><trkpt lat="43.926193039236" lon="11.158674376075204"><ele>600.0</ele><time>2026-05-01T13:47:29Z</time></trkpt><trkpt lat="43.92617220040198" lon="11.158586601206148"><ele>600.0</ele><time>2026-05-01T13:47:35Z</time></trkpt><trkpt lat="43.92612108334331" lon="11.158523520543662"><ele>600.0</ele><time>2026-05-01T13:47:38Z</time></trkpt><trkpt lat="43.92607580867355" lon="11.15842185777544"><ele>599.9999999999999</ele><time>2026-05-01T13:47:41Z</time></trkpt><trkpt lat="43.9260208392298" lon="11.158337141001496"><ele>600.0</ele><time>2026-05-01T13:47:44Z</time></trkpt><trkpt lat="43.9259697344463" lon="11.158271744943292"><ele>600.6666666666666</ele><time>2026-05-01T13:47:47Z</time></trkpt><trkpt lat="43.92591127667989" lon="11.158189654244103"><ele>601.3333333333334</ele><time>2026-05-01T13:47:51Z</time></trkpt><trkpt lat="43.92586109171408" lon="11.158096486136815"><ele>602.0</ele><time>2026-05-01T13:47:54Z</time></trkpt><trkpt lat="43.925808235945645" lon="11.15798390636032"><ele>602.6666666666667</ele><time>2026-05-01T13:47:57Z</time></trkpt><trkpt lat="43.92580127817343" lon="11.157887465832331"><ele>603.3333333333334</ele><time>2026-05-01T13:48:00Z</time></trkpt><trkpt lat="43.9258092750229" lon="11.157779308701853"><ele>604.0</ele><time>2026-05-01T13:48:03Z</time></trkpt><trkpt lat="43.92580547038745" lon="11.157678214126298"><ele>599.4</ele><time>2026-05-01T13:48:06Z</time></trkpt><trkpt lat="43.92577874376882" lon="11.157566430939372"><ele>594.8</ele><time>2026-05-01T13:48:09Z</time></trkpt><trkpt lat="43.92574204198562" lon="11.157409189155802"><ele>590.2</ele><time>2026-05-01T13:48:11Z</time></trkpt><trkpt lat="43.92570623461289" lon="11.157302936400418"><ele>585.6</ele><time>2026-05-01T13:48:14Z</time></trkpt><trkpt lat="43.92568357850873" lon="11.157201354470894"><ele>581.0</ele><time>2026-05-01T13:48:17Z</time></trkpt><trkpt lat="43.92567560821559" lon="11.157070361071776"><ele>580.3333333333333</ele><time>2026-05-01T13:48:20Z</time></trkpt><trkpt lat="43.92566104613232" lon="11.156980466967502"><ele>579.6666666666666</ele><time>2026-05-01T13:48:22Z</time></trkpt><trkpt lat="43.92562883697602" lon="11.156869587760195"><ele>579.0</ele><time>2026-05-01T13:48:25Z</time></trkpt><trkpt lat="43.92556336438274" lon="11.156780928336289"><ele>578.3333333333334</ele><time>2026-05-01T13:48:27Z</time></trkpt><trkpt lat="43.92552700420205" lon="11.156641262872604"><ele>577.6666666666667</ele><time>2026-05-01T13:48:30Z</time></trkpt><trkpt lat="43.9254834573636" lon="11.15657231432609"><ele>577.0</ele><time>2026-05-01T13:48:31Z</time></trkpt><trkpt lat="43.92542969623322" lon="11.156433577018406"><ele>576.4285714285714</ele><time>2026-05-01T13:48:33Z</time></trkpt><trkpt lat="43.925396866935955" lon="11.15635774634746"><ele>575.8571428571429</ele><time>2026-05-01T13:48:36Z</time></trkpt><trkpt lat="43.92536758870964" lon="11.156275416274882"><ele>575.2857142857143</ele><time>2026-05-01T13:48:38Z</time></trkpt><trkpt lat="43.925323864049" lon="11.15616915579607"><ele>574.7142857142858</ele><time>2026-05-01T13:48:40Z</time></trkpt><trkpt lat="43.925288984887516" lon="11.156085694426535"><ele>574.1428571428572</ele><time>2026-05-01T13:48:43Z</time></trkpt><trkpt lat="43.92525641446049" lon="11.156003723427686"><ele>573.5714285714286</ele><time>2026-05-01T13:48:45Z</time></trkpt><trkpt lat="43.92525951620916" lon="11.155891948917956"><ele>573.0</ele><time>2026-05-01T13:48:48Z</time></trkpt><trkpt lat="43.92524012812856" lon="11.155797110699794"><ele>573.8333333333334</ele><time>2026-05-01T13:48:51Z</time></trkpt><trkpt lat="43.9252155051167" lon="11.155702086191715"><ele>574.6666666666666</ele><time>2026-05-01T13:48:54Z</time></trkpt><trkpt lat="43.92513577908318" lon="11.155563828048772"><ele>575.5</ele><time>2026-05-01T13:48:57Z</time></trkpt><trkpt lat="43.925095599563676" lon="11.155479889945775"><ele>576.3333333333333</ele><time>2026-05-01T13:49:08Z</time></trkpt><trkpt lat="43.925062330245645" lon="11.15539730249782"><ele>577.1666666666666</ele><time>2026-05-01T13:49:15Z</time></trkpt><trkpt lat="43.925019571207635" lon="11.155273138437282"><ele>578.0</ele><time>2026-05-01T13:49:18Z</time></trkpt><trkpt lat="43.92495350401949" lon="11.155207973913889"><ele>573.5</ele><time>2026-05-01T13:49:21Z</time></trkpt><trkpt lat="43.92489855083918" lon="11.155100434986943"><ele>569.0</ele><time>2026-05-01T13:49:25Z</time></trkpt><trkpt lat="43.92486777862202" lon="11.155023354553427"><ele>564.5</ele><time>2026-05-01T13:49:30Z</time></trkpt><trkpt lat="43.92483695588192" lon="11.15494709402563"><ele>560.0</ele><time>2026-05-01T13:49:33Z</time></trkpt><trkpt lat="43.92474848712975" lon="11.154894843596612"><ele>555.5</ele><time>2026-05-01T13:49:36Z</time></trkpt><trkpt lat="43.924693365586734" lon="11.154848920884783"><ele>551.0</ele><time>2026-05-01T13:49:55Z</time></trkpt><trkpt lat="43.92462283741066" lon="11.154829100035181"><ele>550.9999999999999</ele><time>2026-05-01T13:49:59Z</time></trkpt><trkpt lat="43.92456666750022" lon="11.15477373751225"><ele>551.0</ele><time>2026-05-01T13:50:09Z</time></trkpt><trkpt lat="43.924584836460234" lon="11.154684010801244"><ele>551.0</ele><time>2026-05-01T13:50:12Z</time></trkpt><trkpt lat="43.924568996376706" lon="11.154587978274959"><ele>551.0</ele><time>2026-05-01T13:50:15Z</time></trkpt><trkpt lat="43.924582199098516" lon="11.15448315012993"><ele>551.0</ele><time>2026-05-01T13:50:18Z</time></trkpt><trkpt lat="43.92459096928706" lon="11.154384644816"><ele>550.9999999999999</ele><time>2026-05-01T13:50:20Z</time></trkpt><trkpt lat="43.924597538782606" lon="11.154287949387182"><ele>551.0</ele><time>2026-05-01T13:50:22Z</time></trkpt><trkpt lat="43.92459639710767" lon="11.154199862734831"><ele>551.0</ele><time>2026-05-01T13:50:24Z</time></trkpt><trkpt lat="43.924583659769986" lon="11.1540864315811"><ele>551.0</ele><time>2026-05-01T13:50:27Z</time></trkpt><trkpt lat="43.92455841528097" lon="11.153977768396157"><ele>551.0</ele><time>2026-05-01T13:50:29Z</time></trkpt><trkpt lat="43.92449059226674" lon="11.15386203843845"><ele>551.0</ele><time>2026-05-01T13:50:31Z</time></trkpt><trkpt lat="43.924440653976774" lon="11.153770895297232"><ele>551.0</ele><time>2026-05-01T13:50:33Z</time></trkpt><trkpt lat="43.92440708521259" lon="11.153676394421458"><ele>551.0</ele><time>2026-05-01T13:50:37Z</time></trkpt><trkpt lat="43.924387864122096" lon="11.1535854686112"><ele>552.5</ele><time>2026-05-01T13:50:40Z</time></trkpt><trkpt lat="43.924329215088925" lon="11.153527737776649"><ele>554.0</ele><time>2026-05-01T13:50:42Z</time></trkpt><trkpt lat="43.924277036899056" lon="11.153463850931809"><ele>555.5</ele><time>2026-05-01T13:50:44Z</time></trkpt><trkpt lat="43.92422940001569" lon="11.153380328110146"><ele>557.0</ele><time>2026-05-01T13:50:47Z</time></trkpt><trkpt lat="43.924170030588066" lon="11.153259866127966"><ele>558.5</ele><time>2026-05-01T13:50:51Z</time></trkpt><trkpt lat="43.92412596452729" lon="11.153188222257832"><ele>560.0</ele><time>2026-05-01T13:50:54Z</time></trkpt><trkpt lat="43.92408536439117" lon="11.15309240310166"><ele>554.8333333333333</ele><time>2026-05-01T13:50:57Z</time></trkpt><trkpt lat="43.92403594050836" lon="11.152958325134334"><ele>549.6666666666666</ele><time>2026-05-01T13:51:00Z</time></trkpt><trkpt lat="43.923965652337806" lon="11.152877081642012"><ele>544.5</ele><time>2026-05-01T13:51:03Z</time></trkpt><trkpt lat="43.92391247622699" lon="11.152822365784393"><ele>539.3333333333334</ele><time>2026-05-01T13:51:05Z</time></trkpt><trkpt lat="43.923869781263235" lon="11.152747570861024"><ele>534.1666666666667</ele><time>2026-05-01T13:51:08Z</time></trkpt><trkpt lat="43.92387007161546" lon="11.152623535340636"><ele>529.0</ele><time>2026-05-01T13:51:11Z</time></trkpt><trkpt lat="43.923872919577164" lon="11.152514848634095"><ele>529.3333333333334</ele><time>2026-05-01T13:51:13Z</time></trkpt><trkpt lat="43.92388300363109" lon="11.152336722201579"><ele>529.6666666666667</ele><time>2026-05-01T13:51:15Z</time></trkpt><trkpt lat="43.92387239074242" lon="11.152226598816076"><ele>530.0</ele><time>2026-05-01T13:51:16Z</time></trkpt><trkpt lat="43.92384298402066" lon="11.152133312718732"><ele>530.3333333333334</ele><time>2026-05-01T13:51:17Z</time></trkpt><trkpt lat="43.923812911863514" lon="11.152054480402978"><ele>530.6666666666666</ele><time>2026-05-01T13:51:18Z</time></trkpt><trkpt lat="43.92379921624085" lon="11.151967810202741"><ele>531.0</ele><time>2026-05-01T13:51:19Z</time></trkpt><trkpt lat="43.92380225538791" lon="11.151803628554521"><ele>531.0</ele><time>2026-05-01T13:51:21Z</time></trkpt><trkpt lat="43.923809051093016" lon="11.151695664687368"><ele>531.0</ele><time>2026-05-01T13:51:23Z</time></trkpt><trkpt lat="43.92378451478838" lon="11.151581099440481"><ele>531.0</ele><time>2026-05-01T13:51:25Z</time></trkpt><trkpt lat="43.92373078355116" lon="11.151440007192988"><ele>531.0</ele><time>2026-05-01T13:51:27Z</time></trkpt><trkpt lat="43.92370671604155" lon="11.151350233147422"><ele>531.0</ele><time>2026-05-01T13:51:28Z</time></trkpt><trkpt lat="43.92369868370742" lon="11.151252294518562"><ele>531.0</ele><time>2026-05-01T13:51:29Z</time></trkpt><trkpt lat="43.923648617973434" lon="11.151144221606641"><ele>530.6</ele><time>2026-05-01T13:51:31Z</time></trkpt><trkpt lat="43.923605660077826" lon="11.151026959032817"><ele>530.2</ele><time>2026-05-01T13:51:33Z</time></trkpt><trkpt lat="43.923576928402845" lon="11.150879251557487"><ele>529.8</ele><time>2026-05-01T13:51:35Z</time></trkpt><trkpt lat="43.923517025141955" lon="11.150811265169294"><ele>529.4</ele><time>2026-05-01T13:51:37Z</time></trkpt><trkpt lat="43.923501917694445" lon="11.150705639366905"><ele>529.0</ele><time>2026-05-01T13:51:39Z</time></trkpt><trkpt lat="43.9235058133965" lon="11.150574358209292"><ele>529.0</ele><time>2026-05-01T13:51:41Z</time></trkpt><trkpt lat="43.923479535554236" lon="11.150413850465188"><ele>529.0</ele><time>2026-05-01T13:51:43Z</time></trkpt><trkpt lat="43.92340376351144" lon="11.150285275491168"><ele>529.0</ele><time>2026-05-01T13:51:45Z</time></trkpt><trkpt lat="43.92336505658439" lon="11.150198769645938"><ele>529.0</ele><time>2026-05-01T13:51:47Z</time></trkpt><trkpt lat="43.923297951367545" lon="11.150082918571263"><ele>529.0</ele><time>2026-05-01T13:51:49Z</time></trkpt><trkpt lat="43.92322031186249" lon="11.149969259952604"><ele>525.8333333333334</ele><time>2026-05-01T13:51:51Z</time></trkpt><trkpt lat="43.92323058948446" lon="11.149881234530572"><ele>522.6666666666667</ele><time>2026-05-01T13:51:54Z</time></trkpt><trkpt lat="43.92319221035791" lon="11.149768778976506"><ele>519.5</ele><time>2026-05-01T13:51:57Z</time></trkpt><trkpt lat="43.92317284220624" lon="11.149663791786898"><ele>516.3333333333334</ele><time>2026-05-01T13:52:00Z</time></trkpt><trkpt lat="43.92312126286042" lon="11.149600735659082"><ele>513.1666666666666</ele><time>2026-05-01T13:52:02Z</time></trkpt><trkpt lat="43.92309148566859" lon="11.149488993356329"><ele>510.0</ele><time>2026-05-01T13:52:05Z</time></trkpt><trkpt lat="43.92301878096388" lon="11.149330074799204"><ele>508.0</ele><time>2026-05-01T13:52:08Z</time></trkpt><trkpt lat="43.92293513246364" lon="11.149252512846001"><ele>506.0</ele><time>2026-05-01T13:52:10Z</time></trkpt><trkpt lat="43.92288880061794" lon="11.149164547202703"><ele>504.0</ele><time>2026-05-01T13:52:13Z</time></trkpt><trkpt lat="43.92287005352924" lon="11.149059421248804"><ele>502.0</ele><time>2026-05-01T13:52:16Z</time></trkpt><trkpt lat="43.922807816286415" lon="11.14898270472548"><ele>500.0</ele><time>2026-05-01T13:52:18Z</time></trkpt><trkpt lat="43.922714595052916" lon="11.148873001134024"><ele>500.0</ele><time>2026-05-01T13:52:21Z</time></trkpt><trkpt lat="43.92265303552844" lon="11.14880643679072"><ele>500.0</ele><time>2026-05-01T13:52:24Z</time></trkpt><trkpt lat="43.922539005036676" lon="11.148715254453943"><ele>500.0</ele><time>2026-05-01T13:52:27Z</time></trkpt><trkpt lat="43.92245436024134" lon="11.1486740399685"><ele>500.0</ele><time>2026-05-01T13:52:29Z</time></trkpt><trkpt lat="43.92236884006537" lon="11.148632578320386"><ele>500.0</ele><time>2026-05-01T13:52:33Z</time></trkpt><trkpt lat="43.92230367256981" lon="11.148584395523741"><ele>497.16666666666663</ele><time>2026-05-01T13:52:35Z</time></trkpt><trkpt lat="43.92223646621177" lon="11.148518225872143"><ele>494.3333333333333</ele><time>2026-05-01T13:52:38Z</time></trkpt><trkpt lat="43.922168944953285" lon="11.148478731801918"><ele>491.5</ele><time>2026-05-01T13:52:41Z</time></trkpt><trkpt lat="43.92210484033884" lon="11.148441755046635"><ele>488.66666666666663</ele><time>2026-05-01T13:52:42Z</time></trkpt><trkpt lat="43.92202463824209" lon="11.14839931259291"><ele>485.8333333333333</ele><time>2026-05-01T13:52:46Z</time></trkpt><trkpt lat="43.92194639596251" lon="11.14840252086429"><ele>483.0</ele><time>2026-05-01T13:52:48Z</time></trkpt><trkpt lat="43.921891670060816" lon="11.148352072597511"><ele>483.0</ele><time>2026-05-01T13:52:49Z</time></trkpt><trkpt lat="43.92180179464671" lon="11.148338569980075"><ele>483.0</ele><time>2026-05-01T13:52:51Z</time></trkpt><trkpt lat="43.92171564672958" lon="11.148335190884819"><ele>483.0</ele><time>2026-05-01T13:52:53Z</time></trkpt><trkpt lat="43.92165278822609" lon="11.148311335727126"><ele>483.0</ele><time>2026-05-01T13:52:55Z</time></trkpt><trkpt lat="43.92158787328496" lon="11.148289970585708"><ele>483.0</ele><time>2026-05-01T13:52:57Z</time></trkpt><trkpt lat="43.9215308683383" lon="11.148180560727438"><ele>483.0</ele><time>2026-05-01T13:53:00Z</time></trkpt><trkpt lat="43.92145888382352" lon="11.148135604578032"><ele>480.3333333333333</ele><time>2026-05-01T13:53:02Z</time></trkpt><trkpt lat="43.921403729872495" lon="11.148084935973602"><ele>477.66666666666663</ele><time>2026-05-01T13:53:05Z</time></trkpt><trkpt lat="43.92133854201385" lon="11.148128057278031"><ele>475.0</ele><time>2026-05-01T13:54:39Z</time></trkpt><trkpt lat="43.921263469316585" lon="11.14804276007849"><ele>472.3333333333333</ele><time>2026-05-01T13:56:25Z</time></trkpt><trkpt lat="43.92119193518051" lon="11.147989363778033"><ele>469.66666666666663</ele><time>2026-05-01T13:56:28Z</time></trkpt><trkpt lat="43.921109051083356" lon="11.147939218311656"><ele>467.0</ele><time>2026-05-01T13:56:32Z</time></trkpt><trkpt lat="43.92104863495663" lon="11.14791258632405"><ele>466.99999999999994</ele><time>2026-05-01T13:56:35Z</time></trkpt><trkpt lat="43.9209993547146" lon="11.147850478414814"><ele>467.0</ele><time>2026-05-01T13:56:37Z</time></trkpt><trkpt lat="43.9209334999784" lon="11.147822338635972"><ele>466.99999999999994</ele><time>2026-05-01T13:56:39Z</time></trkpt><trkpt lat="43.920877870260924" lon="11.147770908814158"><ele>466.99999999999994</ele><time>2026-05-01T13:56:42Z</time></trkpt><trkpt lat="43.92081585095436" lon="11.147696697658985"><ele>467.0</ele><time>2026-05-01T13:56:45Z</time></trkpt><trkpt lat="43.92076225640426" lon="11.147639894347813"><ele>466.99999999999994</ele><time>2026-05-01T13:56:48Z</time></trkpt><trkpt lat="43.920708346871024" lon="11.147570774074941"><ele>466.99999999999994</ele><time>2026-05-01T13:56:51Z</time></trkpt><trkpt lat="43.920667219695254" lon="11.147490564952882"><ele>467.66666666666663</ele><time>2026-05-01T13:56:55Z</time></trkpt><trkpt lat="43.92060888311243" lon="11.147415238981054"><ele>468.3333333333333</ele><time>2026-05-01T13:56:58Z</time></trkpt><trkpt lat="43.92054574689518" lon="11.147318709552057"><ele>469.0</ele><time>2026-05-01T13:57:02Z</time></trkpt><trkpt lat="43.92050065161796" lon="11.147257242234437"><ele>469.66666666666663</ele><time>2026-05-01T13:57:05Z</time></trkpt><trkpt lat="43.92044130968804" lon="11.147181444994121"><ele>470.3333333333333</ele><time>2026-05-01T13:57:08Z</time></trkpt><trkpt lat="43.92037979040422" lon="11.147108067560564"><ele>471.0</ele><time>2026-05-01T13:57:11Z</time></trkpt><trkpt lat="43.92034347731301" lon="11.147027172051335"><ele>470.3333333333333</ele><time>2026-05-01T13:57:14Z</time></trkpt><trkpt lat="43.92028397531001" lon="11.14694826337336"><ele>469.66666666666663</ele><time>2026-05-01T13:57:17Z</time></trkpt><trkpt lat="43.92023378644626" lon="11.146874449042038"><ele>469.0</ele><time>2026-05-01T13:57:19Z</time></trkpt><trkpt lat="43.920178943236564" lon="11.146799276193743"><ele>468.3333333333333</ele><time>2026-05-01T13:57:21Z</time></trkpt><trkpt lat="43.92009572626942" lon="11.14672490350524"><ele>467.66666666666663</ele><time>2026-05-01T13:57:24Z</time></trkpt><trkpt lat="43.92005903895586" lon="11.14664748388504"><ele>467.0</ele><time>2026-05-01T13:57:27Z</time></trkpt><trkpt lat="43.92000112953488" lon="11.146586509655688"><ele>463.16666666666663</ele><time>2026-05-01T13:57:29Z</time></trkpt><trkpt lat="43.919951918609804" lon="11.146513170670532"><ele>459.3333333333333</ele><time>2026-05-01T13:57:31Z</time></trkpt><trkpt lat="43.919874042095685" lon="11.146452922687331"><ele>455.5</ele><time>2026-05-01T13:57:34Z</time></trkpt><trkpt lat="43.91982838873801" lon="11.146345184188137"><ele>451.66666666666663</ele><time>2026-05-01T13:57:38Z</time></trkpt><trkpt lat="43.91977067916006" lon="11.146285531881071"><ele>447.8333333333333</ele><time>2026-05-01T13:57:40Z</time></trkpt><trkpt lat="43.91971820615037" lon="11.146230002331784"><ele>444.0</ele><time>2026-05-01T13:57:42Z</time></trkpt><trkpt lat="43.91968582073708" lon="11.14615138246157"><ele>444.0</ele><time>2026-05-01T13:57:44Z</time></trkpt><trkpt lat="43.91959305253335" lon="11.146058505399909"><ele>444.0</ele><time>2026-05-01T13:57:47Z</time></trkpt><trkpt lat="43.91953207231195" lon="11.146011636848458"><ele>444.0</ele><time>2026-05-01T13:57:49Z</time></trkpt><trkpt lat="43.91945260046514" lon="11.145970871183764"><ele>444.0</ele><time>2026-05-01T13:57:51Z</time></trkpt><trkpt lat="43.91937370381812" lon="11.145919601084385"><ele>444.0</ele><time>2026-05-01T13:57:54Z</time></trkpt><trkpt lat="43.91934203908673" lon="11.145842783868785"><ele>444.0</ele><time>2026-05-01T13:57:56Z</time></trkpt><trkpt lat="43.91928898474475" lon="11.145781867200599"><ele>444.0</ele><time>2026-05-01T13:57:58Z</time></trkpt><trkpt lat="43.91923477427493" lon="11.145728841214975"><ele>444.0</ele><time>2026-05-01T13:58:00Z</time></trkpt><trkpt lat="43.9191537991337" lon="11.145664417026895"><ele>444.0</ele><time>2026-05-01T13:58:03Z</time></trkpt><trkpt lat="43.91909688388528" lon="11.14560119302063"><ele>444.0</ele><time>2026-05-01T13:58:06Z</time></trkpt><trkpt lat="43.919021641999024" lon="11.145540887693949"><ele>444.0</ele><time>2026-05-01T13:58:09Z</time></trkpt><trkpt lat="43.91896614274198" lon="11.145490814613288"><ele>444.0</ele><time>2026-05-01T13:58:11Z</time></trkpt><trkpt lat="43.91889548515089" lon="11.145458604835891"><ele>442.7142857142857</ele><time>2026-05-01T13:58:14Z</time></trkpt><trkpt lat="43.9188281857288" lon="11.145414784575557"><ele>441.42857142857144</ele><time>2026-05-01T13:58:17Z</time></trkpt><trkpt lat="43.918763508888865" lon="11.145372339359405"><ele>440.14285714285717</ele><time>2026-05-01T13:58:19Z</time></trkpt><trkpt lat="43.91869749126882" lon="11.145350969856231"><ele>438.8571428571429</ele><time>2026-05-01T13:58:21Z</time></trkpt><trkpt lat="43.918644350986824" lon="11.14527846766867"><ele>437.57142857142856</ele><time>2026-05-01T13:58:25Z</time></trkpt><trkpt lat="43.91857850902221" lon="11.145225661118394"><ele>436.28571428571433</ele><time>2026-05-01T13:58:28Z</time></trkpt><trkpt lat="43.91850438665973" lon="11.145179519772158"><ele>435.0</ele><time>2026-05-01T13:58:31Z</time></trkpt><trkpt lat="43.91844248374741" lon="11.145144204419482"><ele>437.1666666666667</ele><time>2026-05-01T13:58:33Z</time></trkpt><trkpt lat="43.918387308019376" lon="11.145053326162188"><ele>439.33333333333337</ele><time>2026-05-01T13:58:36Z</time></trkpt><trkpt lat="43.91834751427423" lon="11.144982547480058"><ele>441.5</ele><time>2026-05-01T13:58:37Z</time></trkpt><trkpt lat="43.91825467551299" lon="11.14492496232895"><ele>443.6666666666667</ele><time>2026-05-01T13:58:39Z</time></trkpt><trkpt lat="43.91818845384031" lon="11.144895799039897"><ele>445.83333333333337</ele><time>2026-05-01T13:58:41Z</time></trkpt><trkpt lat="43.918129955053" lon="11.144857260955382"><ele>448.0</ele><time>2026-05-01T13:58:42Z</time></trkpt><trkpt lat="43.918072004211545" lon="11.144810820598746"><ele>442.2</ele><time>2026-05-01T13:58:45Z</time></trkpt><trkpt lat="43.91797022485753" lon="11.144773170977055"><ele>436.4</ele><time>2026-05-01T13:58:47Z</time></trkpt><trkpt lat="43.91790573527557" lon="11.144751791194198"><ele>430.59999999999997</ele><time>2026-05-01T13:58:49Z</time></trkpt><trkpt lat="43.917858628494216" lon="11.144687564824956"><ele>424.79999999999995</ele><time>2026-05-01T13:58:50Z</time></trkpt><trkpt lat="43.91776565319893" lon="11.144603526323035"><ele>419.0</ele><time>2026-05-01T13:58:52Z</time></trkpt><trkpt lat="43.91768069005051" lon="11.144501797991243"><ele>418.99999999999994</ele><time>2026-05-01T13:58:54Z</time></trkpt><trkpt lat="43.91759482267501" lon="11.144416707652416"><ele>419.0</ele><time>2026-05-01T13:58:56Z</time></trkpt><trkpt lat="43.91753552525919" lon="11.144370879102413"><ele>419.0</ele><time>2026-05-01T13:58:58Z</time></trkpt><trkpt lat="43.91749082784167" lon="11.144299046580409"><ele>419.0</ele><time>2026-05-01T13:59:00Z</time></trkpt><trkpt lat="43.91745563721377" lon="11.144213414211007"><ele>419.0</ele><time>2026-05-01T13:59:02Z</time></trkpt><trkpt lat="43.9174494726975" lon="11.144125023961001"><ele>418.99999999999994</ele><time>2026-05-01T13:59:04Z</time></trkpt><trkpt lat="43.91741372406578" lon="11.14405110596232"><ele>419.0</ele><time>2026-05-01T13:59:06Z</time></trkpt><trkpt lat="43.917358963061034" lon="11.14396020673857"><ele>417.66666666666663</ele><time>2026-05-01T13:59:09Z</time></trkpt><trkpt lat="43.91729061027335" lon="11.143874650889153"><ele>416.3333333333333</ele><time>2026-05-01T13:59:12Z</time></trkpt><trkpt lat="43.91721816890818" lon="11.143820604837149"><ele>415.0</ele><time>2026-05-01T13:59:15Z</time></trkpt><trkpt lat="43.91716371000301" lon="11.143730066762824"><ele>413.66666666666663</ele><time>2026-05-01T13:59:18Z</time></trkpt><trkpt lat="43.91713463390717" lon="11.143624158698552"><ele>412.3333333333333</ele><time>2026-05-01T13:59:21Z</time></trkpt><trkpt lat="43.91708715065605" lon="11.143538250415903"><ele>411.0</ele><time>2026-05-01T13:59:25Z</time></trkpt><trkpt lat="43.91702002314806" lon="11.14347243657084"><ele>411.0</ele><time>2026-05-01T13:59:28Z</time></trkpt><trkpt lat="43.91695936169344" lon="11.143413137847636"><ele>411.0</ele><time>2026-05-01T13:59:32Z</time></trkpt><trkpt lat="43.91690857664118" lon="11.14334001508953"><ele>411.0</ele><time>2026-05-01T13:59:35Z</time></trkpt><trkpt lat="43.916897436299585" lon="11.143244140559961"><ele>411.0</ele><time>2026-05-01T13:59:38Z</time></trkpt><trkpt lat="43.916845364476266" lon="11.143162032474008"><ele>411.0</ele><time>2026-05-01T13:59:41Z</time></trkpt><trkpt lat="43.91679349494294" lon="11.143074999017303"><ele>411.0</ele><time>2026-05-01T13:59:43Z</time></trkpt><trkpt lat="43.916735183793406" lon="11.143005853229617"><ele>410.5</ele><time>2026-05-01T13:59:47Z</time></trkpt><trkpt lat="43.916695959512204" lon="11.142923938911036"><ele>410.0</ele><time>2026-05-01T14:00:07Z</time></trkpt><trkpt lat="43.91663849774712" lon="11.14282208252108"><ele>409.5</ele><time>2026-05-01T14:00:11Z</time></trkpt><trkpt lat="43.91662032867732" lon="11.142712569432625"><ele>409.0</ele><time>2026-05-01T14:00:14Z</time></trkpt><trkpt lat="43.916592614569815" lon="11.14262733832437"><ele>408.5</ele><time>2026-05-01T14:00:17Z</time></trkpt><trkpt lat="43.91654062339103" lon="11.14255157574275"><ele>408.0</ele><time>2026-05-01T14:00:20Z</time></trkpt><trkpt lat="43.916503898918386" lon="11.142458222474843"><ele>408.0</ele><time>2026-05-01T14:00:24Z</time></trkpt><trkpt lat="43.91646477151036" lon="11.142384389027276"><ele>408.0</ele><time>2026-05-01T14:00:26Z</time></trkpt><trkpt lat="43.91641192668664" lon="11.142289669352675"><ele>408.0</ele><time>2026-05-01T14:00:29Z</time></trkpt><trkpt lat="43.91637693492791" lon="11.142189914885199"><ele>408.0</ele><time>2026-05-01T14:00:33Z</time></trkpt><trkpt lat="43.91633300078143" lon="11.142117167123017"><ele>408.0</ele><time>2026-05-01T14:00:35Z</time></trkpt><trkpt lat="43.916275792054094" lon="11.142075285226168"><ele>408.0</ele><time>2026-05-01T14:00:37Z</time></trkpt><trkpt lat="43.916241299889705" lon="11.141997986457199"><ele>408.0</ele><time>2026-05-01T14:00:41Z</time></trkpt><trkpt lat="43.91618646998884" lon="11.141942413229469"><ele>404.57142857142856</ele><time>2026-05-01T14:00:43Z</time></trkpt><trkpt lat="43.91612708380832" lon="11.141889554449477"><ele>401.14285714285717</ele><time>2026-05-01T14:00:46Z</time></trkpt><trkpt lat="43.91609142140084" lon="11.141796886689841"><ele>397.71428571428567</ele><time>2026-05-01T14:00:49Z</time></trkpt><trkpt lat="43.91605012518464" lon="11.141712045074055"><ele>394.2857142857143</ele><time>2026-05-01T14:00:52Z</time></trkpt><trkpt lat="43.91599093040746" lon="11.1416645876949"><ele>390.85714285714283</ele><time>2026-05-01T14:00:56Z</time></trkpt><trkpt lat="43.915951791521" lon="11.141579798931748"><ele>387.4285714285714</ele><time>2026-05-01T14:01:32Z</time></trkpt><trkpt lat="43.915891249173235" lon="11.141506420126536"><ele>384.0</ele><time>2026-05-01T14:01:43Z</time></trkpt><trkpt lat="43.915825082515724" lon="11.14146268810362"><ele>383.3333333333333</ele><time>2026-05-01T14:01:48Z</time></trkpt><trkpt lat="43.915773242082146" lon="11.141399231486838"><ele>382.6666666666667</ele><time>2026-05-01T14:01:52Z</time></trkpt><trkpt lat="43.91573011976648" lon="11.141313912374004"><ele>382.0</ele><time>2026-05-01T14:01:56Z</time></trkpt><trkpt lat="43.91568622094526" lon="11.141217303253915"><ele>381.33333333333337</ele><time>2026-05-01T14:01:59Z</time></trkpt><trkpt lat="43.915650664837585" lon="11.141136175872067"><ele>380.6666666666667</ele><time>2026-05-01T14:02:02Z</time></trkpt><trkpt lat="43.91561524113347" lon="11.141057160738033"><ele>380.0</ele><time>2026-05-01T14:02:04Z</time></trkpt><trkpt lat="43.91552783536472" lon="11.140900219640734"><ele>380.0</ele><time>2026-05-01T14:02:07Z</time></trkpt><trkpt lat="43.91545595948242" lon="11.140793081156005"><ele>380.0</ele><time>2026-05-01T14:02:09Z</time></trkpt><trkpt lat="43.91539321182695" lon="11.140681206324837"><ele>380.0</ele><time>2026-05-01T14:02:11Z</time></trkpt><trkpt lat="43.91534044981621" lon="11.140582334468402"><ele>380.0</ele><time>2026-05-01T14:02:13Z</time></trkpt><trkpt lat="43.91526057378462" lon="11.14049667321366"><ele>380.0</ele><time>2026-05-01T14:02:15Z</time></trkpt><trkpt lat="43.915152441291994" lon="11.140405290369578"><ele>378.6666666666667</ele><time>2026-05-01T14:02:17Z</time></trkpt><trkpt lat="43.91509416852032" lon="11.140344673298339"><ele>377.33333333333337</ele><time>2026-05-01T14:02:18Z</time></trkpt><trkpt lat="43.91502871763166" lon="11.140280332283533"><ele>376.0</ele><time>2026-05-01T14:02:19Z</time></trkpt><trkpt lat="43.91497084131993" lon="11.140224712746209"><ele>374.6666666666667</ele><time>2026-05-01T14:02:20Z</time></trkpt><trkpt lat="43.914896626604175" lon="11.14007339135143"><ele>373.3333333333333</ele><time>2026-05-01T14:02:22Z</time></trkpt><trkpt lat="43.91482866337772" lon="11.1400104231797"><ele>372.0</ele><time>2026-05-01T14:02:23Z</time></trkpt><trkpt lat="43.91476710916436" lon="11.139927230112951"><ele>366.6</ele><time>2026-05-01T14:02:25Z</time></trkpt><trkpt lat="43.91472556433425" lon="11.139775905573687"><ele>361.20000000000005</ele><time>2026-05-01T14:02:27Z</time></trkpt><trkpt lat="43.91469107672469" lon="11.139696788036268"><ele>355.8</ele><time>2026-05-01T14:02:28Z</time></trkpt><trkpt lat="43.91462023284812" lon="11.139609937532674"><ele>350.4</ele><time>2026-05-01T14:02:30Z</time></trkpt><trkpt lat="43.91453050801719" lon="11.139520229772105"><ele>345.0</ele><time>2026-05-01T14:02:32Z</time></trkpt><trkpt lat="43.91444448444123" lon="11.139434434434667"><ele>345.0</ele><time>2026-05-01T14:02:34Z</time></trkpt><trkpt lat="43.91438642964569" lon="11.139368351550901"><ele>345.0</ele><time>2026-05-01T14:02:37Z</time></trkpt><trkpt lat="43.91434684845061" lon="11.139270664344307"><ele>345.0</ele><time>2026-05-01T14:02:42Z</time></trkpt><trkpt lat="43.91430269360878" lon="11.139191665113893"><ele>345.0</ele><time>2026-05-01T14:02:44Z</time></trkpt><trkpt lat="43.91426955431259" lon="11.139078582286052"><ele>345.0</ele><time>2026-05-01T14:02:46Z</time></trkpt><trkpt lat="43.91422767587158" lon="11.138955330449111"><ele>345.0</ele><time>2026-05-01T14:02:48Z</time></trkpt><trkpt lat="43.91418480289813" lon="11.138878269684374"><ele>344.1666666666667</ele><time>2026-05-01T14:02:49Z</time></trkpt><trkpt lat="43.91412822315819" lon="11.138827766865472"><ele>343.3333333333333</ele><time>2026-05-01T14:02:50Z</time></trkpt><trkpt lat="43.91404930907128" lon="11.138743825483166"><ele>342.5</ele><time>2026-05-01T14:02:52Z</time></trkpt><trkpt lat="43.91399355619884" lon="11.13865748496942"><ele>341.66666666666663</ele><time>2026-05-01T14:02:54Z</time></trkpt><trkpt lat="43.913929684552244" lon="11.13855944248448"><ele>340.8333333333333</ele><time>2026-05-01T14:02:56Z</time></trkpt><trkpt lat="43.91388144458963" lon="11.138477753741713"><ele>340.0</ele><time>2026-05-01T14:02:58Z</time></trkpt><trkpt lat="43.913828352252175" lon="11.138401019223933"><ele>340.0</ele><time>2026-05-01T14:03:00Z</time></trkpt><trkpt lat="43.91378166915076" lon="11.138300688995876"><ele>340.0</ele><time>2026-05-01T14:03:02Z</time></trkpt><trkpt lat="43.91372033853274" lon="11.138194833820291"><ele>340.0</ele><time>2026-05-01T14:03:04Z</time></trkpt><trkpt lat="43.9136661100369" lon="11.138094264715116"><ele>340.0</ele><time>2026-05-01T14:03:06Z</time></trkpt><trkpt lat="43.91361031590412" lon="11.137985802395482"><ele>340.0</ele><time>2026-05-01T14:03:08Z</time></trkpt><trkpt lat="43.91358489583936" lon="11.13786830604342"><ele>336.4</ele><time>2026-05-01T14:03:10Z</time></trkpt><trkpt lat="43.91357186753607" lon="11.137725949555499"><ele>332.8</ele><time>2026-05-01T14:03:12Z</time></trkpt><trkpt lat="43.91356418435539" lon="11.137630309349232"><ele>329.20000000000005</ele><time>2026-05-01T14:03:14Z</time></trkpt><trkpt lat="43.91352804126727" lon="11.137499997429552"><ele>325.6</ele><time>2026-05-01T14:03:16Z</time></trkpt><trkpt lat="43.91348254519573" lon="11.13739992438383"><ele>322.0</ele><time>2026-05-01T14:03:18Z</time></trkpt><trkpt lat="43.91340334050879" lon="11.137308138059275"><ele>322.0</ele><time>2026-05-01T14:03:20Z</time></trkpt><trkpt lat="43.91333309666485" lon="11.13721039102385"><ele>322.0</ele><time>2026-05-01T14:03:22Z</time></trkpt><trkpt lat="43.913315845332896" lon="11.137108746201019"><ele>322.0</ele><time>2026-05-01T14:03:24Z</time></trkpt><trkpt lat="43.913297436348266" lon="11.13699940369774"><ele>322.0</ele><time>2026-05-01T14:03:26Z</time></trkpt><trkpt lat="43.91330393663754" lon="11.136892073586948"><ele>322.0</ele><time>2026-05-01T14:03:29Z</time></trkpt><trkpt lat="43.913290728197545" lon="11.136806159811938"><ele>322.0</ele><time>2026-05-01T14:03:54Z</time></trkpt><trkpt lat="43.91324087306062" lon="11.136720997298294"><ele>322.0</ele><time>2026-05-01T14:03:56Z</time></trkpt><trkpt lat="43.913203418920176" lon="11.136643377222184"><ele>322.0</ele><time>2026-05-01T14:03:57Z</time></trkpt><trkpt lat="43.9131607568348" lon="11.136570769162633"><ele>322.0</ele><time>2026-05-01T14:03:58Z</time></trkpt><trkpt lat="43.91309581431849" lon="11.1364926253154"><ele>322.0</ele><time>2026-05-01T14:04:00Z</time></trkpt><trkpt lat="43.91303282232551" lon="11.136383330217535"><ele>322.0</ele><time>2026-05-01T14:04:02Z</time></trkpt><trkpt lat="43.912981739883676" lon="11.136283493366887"><ele>322.0</ele><time>2026-05-01T14:04:04Z</time></trkpt><trkpt lat="43.91293706630033" lon="11.136181783334957"><ele>320.0</ele><time>2026-05-01T14:04:07Z</time></trkpt><trkpt lat="43.912920362197" lon="11.136095408890181"><ele>318.0</ele><time>2026-05-01T14:04:09Z</time></trkpt><trkpt lat="43.91286904800577" lon="11.136021834296907"><ele>316.0</ele><time>2026-05-01T14:04:12Z</time></trkpt><trkpt lat="43.91287223782194" lon="11.135929976646544"><ele>314.0</ele><time>2026-05-01T14:04:14Z</time></trkpt><trkpt lat="43.91283668373814" lon="11.1358491862474"><ele>312.0</ele><time>2026-05-01T14:04:17Z</time></trkpt><trkpt lat="43.91281465161132" lon="11.135765642788197"><ele>310.0</ele><time>2026-05-01T14:04:20Z</time></trkpt><trkpt lat="43.91277947947782" lon="11.135655662619095"><ele>308.0</ele><time>2026-05-01T14:04:24Z</time></trkpt><trkpt lat="43.912783588578336" lon="11.135527293605563"><ele>304.0</ele><time>2026-05-01T14:04:27Z</time></trkpt><trkpt lat="43.91276352472783" lon="11.135410023455051"><ele>300.0</ele><time>2026-05-01T14:04:30Z</time></trkpt><trkpt lat="43.912788603713466" lon="11.135116961088329"><ele>296.0</ele><time>2026-05-01T14:04:35Z</time></trkpt><trkpt lat="43.91274044464917" lon="11.134837876359262"><ele>293.40000000000003</ele><time>2026-05-01T14:04:36Z</time></trkpt><trkpt lat="43.912732643560844" lon="11.134744431892836"><ele>290.8</ele><time>2026-05-01T14:04:37Z</time></trkpt><trkpt lat="43.91270371736691" lon="11.134581344734368"><ele>288.20000000000005</ele><time>2026-05-01T14:04:39Z</time></trkpt><trkpt lat="43.91269256188371" lon="11.134445466521536"><ele>285.6</ele><time>2026-05-01T14:04:41Z</time></trkpt><trkpt lat="43.912727673949796" lon="11.134275995639213"><ele>283.0</ele><time>2026-05-01T14:04:43Z</time></trkpt><trkpt lat="43.91275449946496" lon="11.134192090668417"><ele>283.0</ele><time>2026-05-01T14:04:44Z</time></trkpt><trkpt lat="43.91277629241022" lon="11.134104751220757"><ele>283.0</ele><time>2026-05-01T14:04:45Z</time></trkpt><trkpt lat="43.91279131159912" lon="11.13400777968346"><ele>283.0</ele><time>2026-05-01T14:04:46Z</time></trkpt><trkpt lat="43.9127896015681" lon="11.133903381445212"><ele>283.0</ele><time>2026-05-01T14:04:47Z</time></trkpt><trkpt lat="43.912776665268815" lon="11.13381063060375"><ele>283.0</ele><time>2026-05-01T14:04:48Z</time></trkpt><trkpt lat="43.91272530946296" lon="11.1337099455214"><ele>283.0</ele><time>2026-05-01T14:04:49Z</time></trkpt><trkpt lat="43.91270811661893" lon="11.133617688251903"><ele>283.0</ele><time>2026-05-01T14:04:50Z</time></trkpt><trkpt lat="43.91265490277712" lon="11.133544231050042"><ele>282.2</ele><time>2026-05-01T14:04:51Z</time></trkpt><trkpt lat="43.912620330960586" lon="11.13339470047801"><ele>281.4</ele><time>2026-05-01T14:04:53Z</time></trkpt><trkpt lat="43.9125722407519" lon="11.133262488347663"><ele>280.59999999999997</ele><time>2026-05-01T14:04:55Z</time></trkpt><trkpt lat="43.91254440097651" lon="11.133182530831848"><ele>279.8</ele><time>2026-05-01T14:04:56Z</time></trkpt><trkpt lat="43.91247314786098" lon="11.133078959884847"><ele>279.0</ele><time>2026-05-01T14:04:58Z</time></trkpt><trkpt lat="43.91242811045305" lon="11.132969477090631"><ele>279.0</ele><time>2026-05-01T14:05:00Z</time></trkpt><trkpt lat="43.91234951627736" lon="11.13287872432479"><ele>279.0</ele><time>2026-05-01T14:05:02Z</time></trkpt><trkpt lat="43.912298620869706" lon="11.132820589796326"><ele>279.0</ele><time>2026-05-01T14:05:03Z</time></trkpt><trkpt lat="43.91224415662482" lon="11.132773568591244"><ele>279.0</ele><time>2026-05-01T14:05:04Z</time></trkpt><trkpt lat="43.912140848504514" lon="11.132684649370573"><ele>279.0</ele><time>2026-05-01T14:05:06Z</time></trkpt><trkpt lat="43.91208441081475" lon="11.132631270938942"><ele>279.0</ele><time>2026-05-01T14:05:07Z</time></trkpt><trkpt lat="43.912038806817115" lon="11.132565793270075"><ele>278.99999999999994</ele><time>2026-05-01T14:05:08Z</time></trkpt><trkpt lat="43.912001142106" lon="11.132471971642794"><ele>279.0</ele><time>2026-05-01T14:05:09Z</time></trkpt><trkpt lat="43.91196639832352" lon="11.132396616967442"><ele>279.0</ele><time>2026-05-01T14:05:10Z</time></trkpt><trkpt lat="43.911930374786365" lon="11.132320009062592"><ele>279.0</ele><time>2026-05-01T14:05:11Z</time></trkpt><trkpt lat="43.91188008669929" lon="11.132205361056343"><ele>279.0</ele><time>2026-05-01T14:05:13Z</time></trkpt><trkpt lat="43.91184038228399" lon="11.132127012840506"><ele>278.99999999999994</ele><time>2026-05-01T14:05:14Z</time></trkpt><trkpt lat="43.91180576689508" lon="11.132035411545319"><ele>279.0</ele><time>2026-05-01T14:05:15Z</time></trkpt><trkpt lat="43.91177443830477" lon="11.13195157881199"><ele>280.0</ele><time>2026-05-01T14:05:16Z</time></trkpt><trkpt lat="43.91172866072651" lon="11.131822174786716"><ele>281.0</ele><time>2026-05-01T14:05:18Z</time></trkpt><trkpt lat="43.91165797701402" lon="11.131664020665111"><ele>282.0</ele><time>2026-05-01T14:05:20Z</time></trkpt><trkpt lat="43.911618616967324" lon="11.13157187735884"><ele>283.0</ele><time>2026-05-01T14:05:21Z</time></trkpt><trkpt lat="43.9115731871346" lon="11.131407279437104"><ele>284.0</ele><time>2026-05-01T14:05:23Z</time></trkpt><trkpt lat="43.911548629683864" lon="11.131320574765402"><ele>279.59999999999997</ele><time>2026-05-01T14:05:24Z</time></trkpt><trkpt lat="43.91146779293304" lon="11.13122757049836"><ele>275.2</ele><time>2026-05-01T14:05:26Z</time></trkpt><trkpt lat="43.91140738694122" lon="11.131120008381293"><ele>270.79999999999995</ele><time>2026-05-01T14:05:28Z</time></trkpt><trkpt lat="43.91133781750507" lon="11.13097576001447"><ele>266.4</ele><time>2026-05-01T14:05:30Z</time></trkpt><trkpt lat="43.91128045365232" lon="11.130899181911012"><ele>262.0</ele><time>2026-05-01T14:05:31Z</time></trkpt><trkpt lat="43.9112135423999" lon="11.130821245797623"><ele>262.0</ele><time>2026-05-01T14:05:32Z</time></trkpt><trkpt lat="43.91119013539332" lon="11.1307323524836"><ele>262.0</ele><time>2026-05-01T14:05:33Z</time></trkpt><trkpt lat="43.91114073438024" lon="11.130593318776272"><ele>262.0</ele><time>2026-05-01T14:05:35Z</time></trkpt><trkpt lat="43.911064883311596" lon="11.13045298058861"><ele>262.0</ele><time>2026-05-01T14:05:37Z</time></trkpt><trkpt lat="43.911017076298066" lon="11.13039314642471"><ele>262.0</ele><time>2026-05-01T14:05:38Z</time></trkpt><trkpt lat="43.91095689802528" lon="11.1303100703472"><ele>262.0</ele><time>2026-05-01T14:05:39Z</time></trkpt><trkpt lat="43.910935365450314" lon="11.130225901730915"><ele>262.0</ele><time>2026-05-01T14:05:40Z</time></trkpt><trkpt lat="43.91089108591529" lon="11.130125440523978"><ele>262.0</ele><time>2026-05-01T14:05:42Z</time></trkpt><trkpt lat="43.910839359790025" lon="11.130056207058482"><ele>262.0</ele><time>2026-05-01T14:05:43Z</time></trkpt><trkpt lat="43.91077416061078" lon="11.129975762862689"><ele>262.0</ele><time>2026-05-01T14:05:44Z</time></trkpt><trkpt lat="43.91069287746626" lon="11.129894659612926"><ele>262.0</ele><time>2026-05-01T14:05:45Z</time></trkpt><trkpt lat="43.910606365905544" lon="11.129827646309055"><ele>256.5</ele><time>2026-05-01T14:05:46Z</time></trkpt><trkpt lat="43.910547170699175" lon="11.129760669557655"><ele>251.0</ele><time>2026-05-01T14:05:47Z</time></trkpt><trkpt lat="43.9104839812971" lon="11.129681032788515"><ele>245.5</ele><time>2026-05-01T14:05:48Z</time></trkpt><trkpt lat="43.910430445502065" lon="11.129609675171348"><ele>240.0</ele><time>2026-05-01T14:05:49Z</time></trkpt><trkpt lat="43.91038145606614" lon="11.129547211861308"><ele>234.49999999999997</ele><time>2026-05-01T14:05:50Z</time></trkpt><trkpt lat="43.910323673540525" lon="11.129501345944599"><ele>229.0</ele><time>2026-05-01T14:05:51Z</time></trkpt><trkpt lat="43.910249321700014" lon="11.129429794228516"><ele>229.0</ele><time>2026-05-01T14:05:52Z</time></trkpt><trkpt lat="43.91017308351357" lon="11.129364600323072"><ele>228.99999999999997</ele><time>2026-05-01T14:05:53Z</time></trkpt><trkpt lat="43.910089109680044" lon="11.129318189229302"><ele>228.99999999999997</ele><time>2026-05-01T14:05:54Z</time></trkpt><trkpt lat="43.909966442530745" lon="11.129255982115867"><ele>229.0</ele><time>2026-05-01T14:05:56Z</time></trkpt><trkpt lat="43.90991216917697" lon="11.129201154771655"><ele>229.0</ele><time>2026-05-01T14:05:57Z</time></trkpt><trkpt lat="43.909858054558846" lon="11.129125761383756"><ele>227.16666666666666</ele><time>2026-05-01T14:05:58Z</time></trkpt><trkpt lat="43.90980318504361" lon="11.129056082296943"><ele>225.33333333333331</ele><time>2026-05-01T14:05:59Z</time></trkpt><trkpt lat="43.90971282506797" lon="11.128962883855452"><ele>223.5</ele><time>2026-05-01T14:06:01Z</time></trkpt><trkpt lat="43.909656994804465" lon="11.12889939810012"><ele>221.66666666666669</ele><time>2026-05-01T14:06:02Z</time></trkpt><trkpt lat="43.909600326940534" lon="11.128848383957344"><ele>219.83333333333334</ele><time>2026-05-01T14:06:03Z</time></trkpt><trkpt lat="43.909545060661955" lon="11.128775000668526"><ele>218.0</ele><time>2026-05-01T14:06:04Z</time></trkpt><trkpt lat="43.909494175024825" lon="11.12869749373414"><ele>218.00000000000003</ele><time>2026-05-01T14:06:05Z</time></trkpt><trkpt lat="43.90941883784907" lon="11.128622816827729"><ele>218.0</ele><time>2026-05-01T14:06:06Z</time></trkpt><trkpt lat="43.90935144257501" lon="11.128548791583675"><ele>218.0</ele><time>2026-05-01T14:06:07Z</time></trkpt><trkpt lat="43.90928495756696" lon="11.128466203875037"><ele>218.0</ele><time>2026-05-01T14:06:08Z</time></trkpt><trkpt lat="43.90922731430721" lon="11.128408335361527"><ele>218.00000000000003</ele><time>2026-05-01T14:06:09Z</time></trkpt><trkpt lat="43.90917473140162" lon="11.128337905066404"><ele>218.0</ele><time>2026-05-01T14:06:10Z</time></trkpt><trkpt lat="43.909124494003" lon="11.128282417431592"><ele>217.50000000000003</ele><time>2026-05-01T14:06:11Z</time></trkpt><trkpt lat="43.90904428435978" lon="11.128221936007309"><ele>217.0</ele><time>2026-05-01T14:06:12Z</time></trkpt><trkpt lat="43.908982510975044" lon="11.128132671753285"><ele>216.5</ele><time>2026-05-01T14:06:13Z</time></trkpt><trkpt lat="43.908924737191704" lon="11.128067058596336"><ele>216.0</ele><time>2026-05-01T14:06:14Z</time></trkpt><trkpt lat="43.90885961587466" lon="11.12801413837803"><ele>215.50000000000003</ele><time>2026-05-01T14:06:16Z</time></trkpt><trkpt lat="43.90881303919958" lon="11.127913734691342"><ele>215.0</ele><time>2026-05-01T14:06:18Z</time></trkpt><trkpt lat="43.908763474458766" lon="11.127851405705446"><ele>215.00000000000003</ele><time>2026-05-01T14:06:20Z</time></trkpt><trkpt lat="43.908732565245145" lon="11.12773449940633"><ele>215.0</ele><time>2026-05-01T14:06:22Z</time></trkpt><trkpt lat="43.908692125737375" lon="11.12761925495557"><ele>215.0</ele><time>2026-05-01T14:06:24Z</time></trkpt><trkpt lat="43.908649437882445" lon="11.127507056201628"><ele>215.0</ele><time>2026-05-01T14:06:26Z</time></trkpt><trkpt lat="43.90860641325701" lon="11.127423217478063"><ele>215.00000000000003</ele><time>2026-05-01T14:06:28Z</time></trkpt><trkpt lat="43.908538189115774" lon="11.127344700124233"><ele>215.0</ele><time>2026-05-01T14:06:30Z</time></trkpt><trkpt lat="43.9084807465712" lon="11.127253032045084"><ele>213.8</ele><time>2026-05-01T14:06:32Z</time></trkpt><trkpt lat="43.908425030598266" lon="11.127131350017132"><ele>212.6</ele><time>2026-05-01T14:06:34Z</time></trkpt><trkpt lat="43.908352826267226" lon="11.12704158311676"><ele>211.39999999999998</ele><time>2026-05-01T14:06:36Z</time></trkpt><trkpt lat="43.90827368019287" lon="11.126928277160738"><ele>210.2</ele><time>2026-05-01T14:06:38Z</time></trkpt><trkpt lat="43.90819303525584" lon="11.12678834949008"><ele>209.0</ele><time>2026-05-01T14:06:40Z</time></trkpt><trkpt lat="43.908121478691974" lon="11.126657382373578"><ele>209.00000000000003</ele><time>2026-05-01T14:06:42Z</time></trkpt><trkpt lat="43.9080634769721" lon="11.12656660498442"><ele>209.0</ele><time>2026-05-01T14:06:44Z</time></trkpt><trkpt lat="43.90802294565205" lon="11.126491703659736"><ele>209.0</ele><time>2026-05-01T14:06:46Z</time></trkpt><trkpt lat="43.908020437671055" lon="11.12638925649772"><ele>209.0</ele><time>2026-05-01T14:06:48Z</time></trkpt><trkpt lat="43.9080525093121" lon="11.126291944373447"><ele>209.00000000000003</ele><time>2026-05-01T14:07:00Z</time></trkpt><trkpt lat="43.90801927448414" lon="11.126174987623282"><ele>209.0</ele><time>2026-05-01T14:07:04Z</time></trkpt><trkpt lat="43.907969694171584" lon="11.126074389579843"><ele>201.25</ele><time>2026-05-01T14:07:07Z</time></trkpt><trkpt lat="43.90793073219843" lon="11.125998248728473"><ele>193.5</ele><time>2026-05-01T14:07:09Z</time></trkpt><trkpt lat="43.90788030370019" lon="11.125915213655169"><ele>185.75</ele><time>2026-05-01T14:07:11Z</time></trkpt><trkpt lat="43.90782163971385" lon="11.125829026745919"><ele>178.0</ele><time>2026-05-01T14:07:14Z</time></trkpt><trkpt lat="43.90762812208993" lon="11.12546230123884"><ele>178.8</ele><time>2026-05-01T14:07:17Z</time></trkpt><trkpt lat="43.90758049342663" lon="11.125383082767993"><ele>179.60000000000002</ele><time>2026-05-01T14:07:19Z</time></trkpt><trkpt lat="43.90751913865712" lon="11.125283690056577"><ele>180.39999999999998</ele><time>2026-05-01T14:07:21Z</time></trkpt><trkpt lat="43.90745100663484" lon="11.125176340809261"><ele>181.2</ele><time>2026-05-01T14:07:23Z</time></trkpt><trkpt lat="43.907376965649554" lon="11.12506566184801"><ele>182.0</ele><time>2026-05-01T14:07:25Z</time></trkpt><trkpt lat="43.90729844703344" lon="11.124955699952325"><ele>176.4</ele><time>2026-05-01T14:07:27Z</time></trkpt><trkpt lat="43.907224655095845" lon="11.124860802269383"><ele>170.79999999999998</ele><time>2026-05-01T14:07:29Z</time></trkpt><trkpt lat="43.90715548388404" lon="11.124787482593609"><ele>165.2</ele><time>2026-05-01T14:07:31Z</time></trkpt><trkpt lat="43.9070780335255" lon="11.124712086738759"><ele>159.6</ele><time>2026-05-01T14:07:33Z</time></trkpt><trkpt lat="43.9069950782464" lon="11.124645783269449"><ele>154.0</ele><time>2026-05-01T14:07:35Z</time></trkpt><trkpt lat="43.9069003015943" lon="11.124636146976547"><ele>154.0</ele><time>2026-05-01T14:07:38Z</time></trkpt><trkpt lat="43.906814103917796" lon="11.12462079528551"><ele>154.0</ele><time>2026-05-01T14:07:43Z</time></trkpt><trkpt lat="43.90673244196685" lon="11.124569570237044"><ele>154.0</ele><time>2026-05-01T14:07:45Z</time></trkpt><trkpt lat="43.906656724806425" lon="11.12451655179287"><ele>154.0</ele><time>2026-05-01T14:07:47Z</time></trkpt><trkpt lat="43.90654972908517" lon="11.124462976090083"><ele>154.0</ele><time>2026-05-01T14:07:49Z</time></trkpt><trkpt lat="43.90648783062841" lon="11.124422923252894"><ele>154.0</ele><time>2026-05-01T14:07:50Z</time></trkpt><trkpt lat="43.906405087678365" lon="11.124339623160795"><ele>154.2</ele><time>2026-05-01T14:07:51Z</time></trkpt><trkpt lat="43.90626488079876" lon="11.124272475289938"><ele>154.4</ele><time>2026-05-01T14:07:52Z</time></trkpt><trkpt lat="43.906172835898616" lon="11.124229085654946"><ele>154.6</ele><time>2026-05-01T14:07:53Z</time></trkpt><trkpt lat="43.906093234754636" lon="11.124183157706854"><ele>154.8</ele><time>2026-05-01T14:07:54Z</time></trkpt><trkpt lat="43.90602778937076" lon="11.124144253788902"><ele>155.0</ele><time>2026-05-01T14:07:55Z</time></trkpt><trkpt lat="43.90590434293239" lon="11.124094329229564"><ele>156.0</ele><time>2026-05-01T14:07:57Z</time></trkpt><trkpt lat="43.90583790301791" lon="11.124080650099932"><ele>157.0</ele><time>2026-05-01T14:07:58Z</time></trkpt><trkpt lat="43.9057450727495" lon="11.124055131110236"><ele>158.0</ele><time>2026-05-01T14:08:00Z</time></trkpt><trkpt lat="43.90566257249387" lon="11.123959358449255"><ele>159.0</ele><time>2026-05-01T14:08:02Z</time></trkpt><trkpt lat="43.90562450642533" lon="11.123880099195771"><ele>160.0</ele><time>2026-05-01T14:08:03Z</time></trkpt><trkpt lat="43.90561371920449" lon="11.123786036287601"><ele>161.0</ele><time>2026-05-01T14:08:05Z</time></trkpt><trkpt lat="43.90561328682667" lon="11.123689000443655"><ele>159.0</ele><time>2026-05-01T14:08:09Z</time></trkpt><trkpt lat="43.905602118654556" lon="11.123594497529067"><ele>157.0</ele><time>2026-05-01T14:08:12Z</time></trkpt><trkpt lat="43.90554954474816" lon="11.123536031071588"><ele>155.0</ele><time>2026-05-01T14:08:19Z</time></trkpt><trkpt lat="43.90552207176802" lon="11.123434832284834"><ele>153.0</ele><time>2026-05-01T14:14:14Z</time></trkpt><trkpt lat="43.90551626311119" lon="11.123331948509588"><ele>151.0</ele><time>2026-05-01T14:18:45Z</time></trkpt><trkpt lat="43.90553466251802" lon="11.123232972140313"><ele>149.0</ele><time>2026-05-01T14:18:49Z</time></trkpt><trkpt lat="43.90554251346923" lon="11.123128046233184"><ele>147.0</ele><time>2026-05-01T14:18:52Z</time></trkpt><trkpt lat="43.905571056868624" lon="11.123003062141517"><ele>144.16666666666666</ele><time>2026-05-01T14:18:55Z</time></trkpt><trkpt lat="43.90561842021456" lon="11.122909321540817"><ele>141.33333333333334</ele><time>2026-05-01T14:18:57Z</time></trkpt><trkpt lat="43.90560931596896" lon="11.122786480337355"><ele>138.5</ele><time>2026-05-01T14:18:58Z</time></trkpt><trkpt lat="43.90558563036431" lon="11.122686191702122"><ele>135.66666666666669</ele><time>2026-05-01T14:18:59Z</time></trkpt><trkpt lat="43.905563237100715" lon="11.122597222179401"><ele>132.83333333333334</ele><time>2026-05-01T14:19:00Z</time></trkpt><trkpt lat="43.90554099968902" lon="11.122510190501488"><ele>130.0</ele><time>2026-05-01T14:19:01Z</time></trkpt><trkpt lat="43.90551929359959" lon="11.122418042078253"><ele>127.4</ele><time>2026-05-01T14:19:02Z</time></trkpt><trkpt lat="43.90549663079561" lon="11.122286318457082"><ele>124.8</ele><time>2026-05-01T14:19:04Z</time></trkpt><trkpt lat="43.90549756714094" lon="11.122152050201437"><ele>122.19999999999999</ele><time>2026-05-01T14:19:07Z</time></trkpt><trkpt lat="43.905519386622984" lon="11.122028664412124"><ele>119.6</ele><time>2026-05-01T14:19:08Z</time></trkpt><trkpt lat="43.90554249063941" lon="11.121892767599938"><ele>117.0</ele><time>2026-05-01T14:19:09Z</time></trkpt><trkpt lat="43.905556890068986" lon="11.12172865900615"><ele>117.0</ele><time>2026-05-01T14:19:10Z</time></trkpt><trkpt lat="43.905570561406904" lon="11.121584871015381"><ele>116.99999999999999</ele><time>2026-05-01T14:19:11Z</time></trkpt><trkpt lat="43.90559179105668" lon="11.121449658402705"><ele>116.99999999999999</ele><time>2026-05-01T14:19:12Z</time></trkpt><trkpt lat="43.905617616699246" lon="11.121306165278654"><ele>117.0</ele><time>2026-05-01T14:19:13Z</time></trkpt><trkpt lat="43.90563166378064" lon="11.121176962328887"><ele>117.0</ele><time>2026-05-01T14:19:14Z</time></trkpt><trkpt lat="43.90564125007717" lon="11.121069229880389"><ele>115.57142857142858</ele><time>2026-05-01T14:19:15Z</time></trkpt><trkpt lat="43.90565555458372" lon="11.120976689447492"><ele>114.14285714285715</ele><time>2026-05-01T14:19:16Z</time></trkpt><trkpt lat="43.905671313533354" lon="11.12088558766053"><ele>112.71428571428572</ele><time>2026-05-01T14:19:17Z</time></trkpt><trkpt lat="43.905676537161376" lon="11.120793975955968"><ele>111.28571428571429</ele><time>2026-05-01T14:19:18Z</time></trkpt><trkpt lat="43.9056896734956" lon="11.12065927565271"><ele>109.85714285714286</ele><time>2026-05-01T14:19:20Z</time></trkpt><trkpt lat="43.9057106169508" lon="11.120572393269395"><ele>108.42857142857144</ele><time>2026-05-01T14:19:23Z</time></trkpt><trkpt lat="43.90577911541489" lon="11.120569729585839"><ele>107.0</ele><time>2026-05-01T14:19:25Z</time></trkpt><trkpt lat="43.905827069734116" lon="11.120651708791652"><ele>107.0</ele><time>2026-05-01T14:19:26Z</time></trkpt><trkpt lat="43.90587823341892" lon="11.120744459887254"><ele>106.99999999999999</ele><time>2026-05-01T14:19:27Z</time></trkpt><trkpt lat="43.90594652159193" lon="11.120857933149379"><ele>106.99999999999999</ele><time>2026-05-01T14:19:28Z</time></trkpt><trkpt lat="43.90602318416509" lon="11.120973058999768"><ele>107.0</ele><time>2026-05-01T14:19:29Z</time></trkpt><trkpt lat="43.90610914904508" lon="11.121051310442732"><ele>107.0</ele><time>2026-05-01T14:19:30Z</time></trkpt><trkpt lat="43.90617492548626" lon="11.121144658197206"><ele>105.16666666666666</ele><time>2026-05-01T14:19:31Z</time></trkpt><trkpt lat="43.90623736050044" lon="11.121199497880795"><ele>103.33333333333333</ele><time>2026-05-01T14:19:32Z</time></trkpt><trkpt lat="43.90630823353245" lon="11.121234476188327"><ele>101.5</ele><time>2026-05-01T14:19:34Z</time></trkpt><trkpt lat="43.9064209306012" lon="11.121270509921757"><ele>99.66666666666666</ele><time>2026-05-01T14:19:37Z</time></trkpt><trkpt lat="43.9064923457236" lon="11.121345519085047"><ele>97.83333333333333</ele><time>2026-05-01T14:19:39Z</time></trkpt><trkpt lat="43.9065610688442" lon="11.121351419637357"><ele>96.0</ele><time>2026-05-01T14:19:45Z</time></trkpt><trkpt lat="43.906663588638885" lon="11.121423633510364"><ele>95.5</ele><time>2026-05-01T14:19:47Z</time></trkpt><trkpt lat="43.906780065249905" lon="11.121476245449418"><ele>95.0</ele><time>2026-05-01T14:19:49Z</time></trkpt><trkpt lat="43.90690885874526" lon="11.121551424932447"><ele>94.5</ele><time>2026-05-01T14:19:51Z</time></trkpt><trkpt lat="43.90700808642234" lon="11.12160898275591"><ele>94.0</ele><time>2026-05-01T14:19:52Z</time></trkpt><trkpt lat="43.907108902266" lon="11.121663776624063"><ele>95.4</ele><time>2026-05-01T14:19:53Z</time></trkpt><trkpt lat="43.907199817746715" lon="11.121714546192948"><ele>96.80000000000001</ele><time>2026-05-01T14:19:54Z</time></trkpt><trkpt lat="43.90727642166595" lon="11.121754888986112"><ele>98.19999999999999</ele><time>2026-05-01T14:19:55Z</time></trkpt><trkpt lat="43.907359705463065" lon="11.121802842424136"><ele>99.6</ele><time>2026-05-01T14:19:56Z</time></trkpt><trkpt lat="43.907448755320765" lon="11.121868719107734"><ele>101.0</ele><time>2026-05-01T14:19:57Z</time></trkpt><trkpt lat="43.907533842841026" lon="11.12195387840049"><ele>99.6</ele><time>2026-05-01T14:19:58Z</time></trkpt><trkpt lat="43.90761288313525" lon="11.122053133603089"><ele>98.19999999999999</ele><time>2026-05-01T14:19:59Z</time></trkpt><trkpt lat="43.90769618078294" lon="11.122146870043094"><ele>96.80000000000001</ele><time>2026-05-01T14:20:00Z</time></trkpt><trkpt lat="43.9077805749851" lon="11.122231427341243"><ele>95.4</ele><time>2026-05-01T14:20:01Z</time></trkpt><trkpt lat="43.907842365132396" lon="11.122304974353796"><ele>94.0</ele><time>2026-05-01T14:20:02Z</time></trkpt><trkpt lat="43.907894955759076" lon="11.122364824449928"><ele>96.4</ele><time>2026-05-01T14:20:03Z</time></trkpt><trkpt lat="43.90800925894893" lon="11.122457844955111"><ele>98.80000000000001</ele><time>2026-05-01T14:20:05Z</time></trkpt><trkpt lat="43.90808302771047" lon="11.122509108031231"><ele>101.19999999999999</ele><time>2026-05-01T14:20:06Z</time></trkpt><trkpt lat="43.90815372316558" lon="11.122561868874726"><ele>103.6</ele><time>2026-05-01T14:20:07Z</time></trkpt><trkpt lat="43.908232749733486" lon="11.122607232043183"><ele>106.0</ele><time>2026-05-01T14:20:08Z</time></trkpt><trkpt lat="43.908314305711386" lon="11.122649780326665"><ele>106.00000000000001</ele><time>2026-05-01T14:20:09Z</time></trkpt><trkpt lat="43.908399239069276" lon="11.122689504034696"><ele>106.0</ele><time>2026-05-01T14:20:10Z</time></trkpt><trkpt lat="43.90848210045555" lon="11.122729810723714"><ele>106.0</ele><time>2026-05-01T14:20:11Z</time></trkpt><trkpt lat="43.908567017110535" lon="11.122770488229014"><ele>106.0</ele><time>2026-05-01T14:20:12Z</time></trkpt><trkpt lat="43.90865098525237" lon="11.122810784093303"><ele>106.00000000000001</ele><time>2026-05-01T14:20:13Z</time></trkpt><trkpt lat="43.908722928725595" lon="11.122860545173822"><ele>106.0</ele><time>2026-05-01T14:20:14Z</time></trkpt><trkpt lat="43.908806528695415" lon="11.122930166747146"><ele>105.00000000000001</ele><time>2026-05-01T14:20:15Z</time></trkpt><trkpt lat="43.9088904105346" lon="11.122952825284676"><ele>104.0</ele><time>2026-05-01T14:20:16Z</time></trkpt><trkpt lat="43.90896802523329" lon="11.122967994631399"><ele>103.0</ele><time>2026-05-01T14:20:17Z</time></trkpt><trkpt lat="43.90906064317756" lon="11.122947304352596"><ele>102.0</ele><time>2026-05-01T14:20:18Z</time></trkpt><trkpt lat="43.909151746945994" lon="11.122909758138572"><ele>101.00000000000001</ele><time>2026-05-01T14:20:19Z</time></trkpt><trkpt lat="43.90922616620072" lon="11.122918090424784"><ele>100.0</ele><time>2026-05-01T14:20:20Z</time></trkpt><trkpt lat="43.90928915915598" lon="11.122909843526399"><ele>99.8</ele><time>2026-05-01T14:20:21Z</time></trkpt><trkpt lat="43.90938981866694" lon="11.122905735950892"><ele>99.6</ele><time>2026-05-01T14:20:23Z</time></trkpt><trkpt lat="43.90949637911843" lon="11.122973538332461"><ele>99.4</ele><time>2026-05-01T14:20:25Z</time></trkpt><trkpt lat="43.90956834582236" lon="11.122993822597191"><ele>99.2</ele><time>2026-05-01T14:20:26Z</time></trkpt><trkpt lat="43.909641953894415" lon="11.122965186602608"><ele>99.0</ele><time>2026-05-01T14:20:27Z</time></trkpt><trkpt lat="43.90975660336782" lon="11.12298713501283"><ele>99.0</ele><time>2026-05-01T14:20:29Z</time></trkpt><trkpt lat="43.909841829631915" lon="11.123038201342533"><ele>99.0</ele><time>2026-05-01T14:20:31Z</time></trkpt><trkpt lat="43.90993086257476" lon="11.123007316297727"><ele>99.0</ele><time>2026-05-01T14:20:33Z</time></trkpt><trkpt lat="43.909959397439174" lon="11.122918228942815"><ele>99.0</ele><time>2026-05-01T14:20:34Z</time></trkpt><trkpt lat="43.910045208878635" lon="11.122893388490013"><ele>99.0</ele><time>2026-05-01T14:20:36Z</time></trkpt><trkpt lat="43.910102921612115" lon="11.122935317837106"><ele>99.0</ele><time>2026-05-01T14:20:37Z</time></trkpt><trkpt lat="43.910168242704074" lon="11.122997814755564"><ele>99.6</ele><time>2026-05-01T14:20:38Z</time></trkpt><trkpt lat="43.91024004773834" lon="11.123060831815911"><ele>100.2</ele><time>2026-05-01T14:20:39Z</time></trkpt><trkpt lat="43.91032245127726" lon="11.12314232858622"><ele>100.8</ele><time>2026-05-01T14:20:40Z</time></trkpt><trkpt lat="43.910401842400226" lon="11.123224401370381"><ele>101.39999999999999</ele><time>2026-05-01T14:20:41Z</time></trkpt><trkpt lat="43.91047139369292" lon="11.123275555703854"><ele>102.0</ele><time>2026-05-01T14:20:42Z</time></trkpt><trkpt lat="43.910558394745614" lon="11.123308196125379"><ele>102.0</ele><time>2026-05-01T14:20:44Z</time></trkpt><trkpt lat="43.91066979834387" lon="11.12338248030429"><ele>102.0</ele><time>2026-05-01T14:20:46Z</time></trkpt><trkpt lat="43.91072342446015" lon="11.123469160687492"><ele>102.0</ele><time>2026-05-01T14:20:47Z</time></trkpt><trkpt lat="43.91076618638489" lon="11.123582296590866"><ele>102.0</ele><time>2026-05-01T14:20:48Z</time></trkpt><trkpt lat="43.910806604790096" lon="11.123718438098328"><ele>102.0</ele><time>2026-05-01T14:20:49Z</time></trkpt><trkpt lat="43.91084093894297" lon="11.123855619585493"><ele>102.0</ele><time>2026-05-01T14:20:50Z</time></trkpt><trkpt lat="43.91087157315195" lon="11.123988635420135"><ele>102.0</ele><time>2026-05-01T14:20:51Z</time></trkpt><trkpt lat="43.91089233650124" lon="11.124098683886203"><ele>102.0</ele><time>2026-05-01T14:20:52Z</time></trkpt><trkpt lat="43.910910580881435" lon="11.124195525280832"><ele>102.0</ele><time>2026-05-01T14:20:53Z</time></trkpt><trkpt lat="43.91092843599737" lon="11.124286071775915"><ele>102.0</ele><time>2026-05-01T14:20:54Z</time></trkpt><trkpt lat="43.91095639793382" lon="11.124384389143207"><ele>102.0</ele><time>2026-05-01T14:20:55Z</time></trkpt><trkpt lat="43.91099097192452" lon="11.124493194800381"><ele>100.83333333333333</ele><time>2026-05-01T14:20:56Z</time></trkpt><trkpt lat="43.91102391330952" lon="11.124582604121747"><ele>99.66666666666667</ele><time>2026-05-01T14:20:57Z</time></trkpt><trkpt lat="43.911055325956404" lon="11.12468462601428"><ele>98.5</ele><time>2026-05-01T14:20:58Z</time></trkpt><trkpt lat="43.91107229271503" lon="11.124790930110356"><ele>97.33333333333334</ele><time>2026-05-01T14:20:59Z</time></trkpt><trkpt lat="43.91107714563688" lon="11.12490387512922"><ele>96.16666666666667</ele><time>2026-05-01T14:21:00Z</time></trkpt><trkpt lat="43.91108788804733" lon="11.12501882001854"><ele>95.0</ele><time>2026-05-01T14:21:01Z</time></trkpt><trkpt lat="43.91107509139543" lon="11.125138430617511"><ele>95.0</ele><time>2026-05-01T14:21:03Z</time></trkpt><trkpt lat="43.91106265037924" lon="11.125255048136932"><ele>95.0</ele><time>2026-05-01T14:21:05Z</time></trkpt><trkpt lat="43.91100601583029" lon="11.125393038496659"><ele>95.0</ele><time>2026-05-01T14:21:07Z</time></trkpt><trkpt lat="43.91097782420597" lon="11.125560034244034"><ele>95.0</ele><time>2026-05-01T14:21:09Z</time></trkpt><trkpt lat="43.91097453671334" lon="11.125649371604906"><ele>95.0</ele><time>2026-05-01T14:21:10Z</time></trkpt><trkpt lat="43.91097278990558" lon="11.125744174223247"><ele>95.33333333333334</ele><time>2026-05-01T14:21:11Z</time></trkpt><trkpt lat="43.910968684997336" lon="11.125836706377974"><ele>95.66666666666667</ele><time>2026-05-01T14:21:12Z</time></trkpt><trkpt lat="43.910969794103146" lon="11.125926777424255"><ele>96.0</ele><time>2026-05-01T14:21:13Z</time></trkpt><trkpt lat="43.910983098321445" lon="11.126078015366494"><ele>96.33333333333334</ele><time>2026-05-01T14:21:15Z</time></trkpt><trkpt lat="43.91100193581029" lon="11.126169613125382"><ele>96.66666666666667</ele><time>2026-05-01T14:21:18Z</time></trkpt><trkpt lat="43.91102609760723" lon="11.126263631240501"><ele>97.0</ele><time>2026-05-01T14:21:19Z</time></trkpt><trkpt lat="43.9110567826083" lon="11.126383032236914"><ele>97.0</ele><time>2026-05-01T14:21:20Z</time></trkpt><trkpt lat="43.91115605052212" lon="11.126475314120277"><ele>97.0</ele><time>2026-05-01T14:21:21Z</time></trkpt><trkpt lat="43.911221634072106" lon="11.12656515179196"><ele>97.0</ele><time>2026-05-01T14:21:22Z</time></trkpt><trkpt lat="43.911307291649784" lon="11.12664652072801"><ele>97.0</ele><time>2026-05-01T14:21:23Z</time></trkpt><trkpt lat="43.911399702122196" lon="11.126691911732943"><ele>97.0</ele><time>2026-05-01T14:21:24Z</time></trkpt><trkpt lat="43.91147780449164" lon="11.126770993575697"><ele>96.8</ele><time>2026-05-01T14:21:25Z</time></trkpt><trkpt lat="43.91155634718715" lon="11.1268404692638"><ele>96.6</ele><time>2026-05-01T14:21:26Z</time></trkpt><trkpt lat="43.911628497632684" lon="11.126915581517995"><ele>96.39999999999999</ele><time>2026-05-01T14:21:27Z</time></trkpt><trkpt lat="43.91168408613049" lon="11.12701761722191"><ele>96.19999999999999</ele><time>2026-05-01T14:21:28Z</time></trkpt><trkpt lat="43.91176988907394" lon="11.127061695749534"><ele>96.0</ele><time>2026-05-01T14:21:29Z</time></trkpt><trkpt lat="43.91184397661025" lon="11.127126356364434"><ele>95.99999999999999</ele><time>2026-05-01T14:21:30Z</time></trkpt><trkpt lat="43.9119076379422" lon="11.127189683240049"><ele>96.0</ele><time>2026-05-01T14:21:31Z</time></trkpt><trkpt lat="43.91196446293245" lon="11.12724433035492"><ele>96.0</ele><time>2026-05-01T14:21:32Z</time></trkpt><trkpt lat="43.91199991690259" lon="11.127331304924267"><ele>96.0</ele><time>2026-05-01T14:21:33Z</time></trkpt><trkpt lat="43.91205823436079" lon="11.127386874335421"><ele>96.0</ele><time>2026-05-01T14:21:34Z</time></trkpt><trkpt lat="43.91213302013393" lon="11.12742978662818"><ele>95.99999999999999</ele><time>2026-05-01T14:21:35Z</time></trkpt><trkpt lat="43.91218889125748" lon="11.127480839333543"><ele>96.0</ele><time>2026-05-01T14:21:36Z</time></trkpt><trkpt lat="43.912246840713586" lon="11.127521000447771"><ele>97.19999999999999</ele><time>2026-05-01T14:21:37Z</time></trkpt><trkpt lat="43.91234922889594" lon="11.127589493279471"><ele>98.39999999999999</ele><time>2026-05-01T14:21:39Z</time></trkpt><trkpt lat="43.91242423137625" lon="11.127648320750213"><ele>99.6</ele><time>2026-05-01T14:21:41Z</time></trkpt><trkpt lat="43.912496166716814" lon="11.127729309578905"><ele>100.8</ele><time>2026-05-01T14:21:43Z</time></trkpt><trkpt lat="43.9125912810543" lon="11.1277976109003"><ele>102.0</ele><time>2026-05-01T14:21:45Z</time></trkpt><trkpt lat="43.912707985435986" lon="11.127852456437836"><ele>102.0</ele><time>2026-05-01T14:21:47Z</time></trkpt><trkpt lat="43.912811358719786" lon="11.127893127891317"><ele>102.0</ele><time>2026-05-01T14:22:09Z</time></trkpt><trkpt lat="43.91288428740009" lon="11.127932959810092"><ele>102.0</ele><time>2026-05-01T14:22:10Z</time></trkpt><trkpt lat="43.912954208452284" lon="11.127982707975749"><ele>102.0</ele><time>2026-05-01T14:22:11Z</time></trkpt><trkpt lat="43.91305529703228" lon="11.128052784158335"><ele>102.0</ele><time>2026-05-01T14:22:13Z</time></trkpt><trkpt lat="43.91317086199222" lon="11.128082111421985"><ele>102.0</ele><time>2026-05-01T14:22:15Z</time></trkpt><trkpt lat="43.913233766659545" lon="11.128090035977785"><ele>102.0</ele><time>2026-05-01T14:22:16Z</time></trkpt><trkpt lat="43.913300499125576" lon="11.128097749165107"><ele>102.0</ele><time>2026-05-01T14:22:17Z</time></trkpt><trkpt lat="43.91336464069145" lon="11.128104864742166"><ele>102.0</ele><time>2026-05-01T14:22:18Z</time></trkpt><trkpt lat="43.91349511188303" lon="11.128114328265735"><ele>102.0</ele><time>2026-05-01T14:22:20Z</time></trkpt><trkpt lat="43.91356476376704" lon="11.128109051500779"><ele>102.0</ele><time>2026-05-01T14:22:21Z</time></trkpt><trkpt lat="43.91364124345789" lon="11.128093945137802"><ele>100.33333333333333</ele><time>2026-05-01T14:22:22Z</time></trkpt><trkpt lat="43.913715136766015" lon="11.1280736133466"><ele>98.66666666666667</ele><time>2026-05-01T14:22:23Z</time></trkpt><trkpt lat="43.91379778644344" lon="11.128044773193373"><ele>97.0</ele><time>2026-05-01T14:22:24Z</time></trkpt><trkpt lat="43.91388026455494" lon="11.128019576380554"><ele>95.33333333333334</ele><time>2026-05-01T14:22:25Z</time></trkpt><trkpt lat="43.91395031401108" lon="11.128002916719945"><ele>93.66666666666667</ele><time>2026-05-01T14:22:26Z</time></trkpt><trkpt lat="43.91406746122853" lon="11.127992270799895"><ele>92.0</ele><time>2026-05-01T14:22:28Z</time></trkpt><trkpt lat="43.914134976412086" lon="11.128011481875443"><ele>92.0</ele><time>2026-05-01T14:22:29Z</time></trkpt><trkpt lat="43.91420844911823" lon="11.128037717312305"><ele>92.0</ele><time>2026-05-01T14:22:30Z</time></trkpt><trkpt lat="43.91429086891556" lon="11.12808136197877"><ele>92.0</ele><time>2026-05-01T14:22:31Z</time></trkpt><trkpt lat="43.91439393977906" lon="11.12812091620026"><ele>92.0</ele><time>2026-05-01T14:22:32Z</time></trkpt><trkpt lat="43.914512683547834" lon="11.12811821673856"><ele>92.0</ele><time>2026-05-01T14:22:33Z</time></trkpt><trkpt lat="43.914623547012" lon="11.128123017702189"><ele>94.5</ele><time>2026-05-01T14:22:34Z</time></trkpt><trkpt lat="43.91472834109035" lon="11.128140221075157"><ele>97.0</ele><time>2026-05-01T14:22:35Z</time></trkpt><trkpt lat="43.91485377414507" lon="11.128141100751458"><ele>99.5</ele><time>2026-05-01T14:22:36Z</time></trkpt><trkpt lat="43.91497919600269" lon="11.128097473373108"><ele>102.0</ele><time>2026-05-01T14:22:37Z</time></trkpt><trkpt lat="43.915104131054704" lon="11.128095905020672"><ele>103.8</ele><time>2026-05-01T14:22:38Z</time></trkpt><trkpt lat="43.91524204518746" lon="11.128095853442032"><ele>105.6</ele><time>2026-05-01T14:22:39Z</time></trkpt><trkpt lat="43.91538271168426" lon="11.128059033169182"><ele>107.39999999999999</ele><time>2026-05-01T14:22:40Z</time></trkpt><trkpt lat="43.915476980794004" lon="11.128095434420882"><ele>109.19999999999999</ele><time>2026-05-01T14:22:41Z</time></trkpt><trkpt lat="43.915540980946446" lon="11.12809918616251"><ele>111.0</ele><time>2026-05-01T14:22:42Z</time></trkpt><trkpt lat="43.915620531330234" lon="11.12808112155952"><ele>111.0</ele><time>2026-05-01T14:22:44Z</time></trkpt><trkpt lat="43.91570440309027" lon="11.128073313662666"><ele>111.0</ele><time>2026-05-01T14:22:47Z</time></trkpt><trkpt lat="43.91578920573175" lon="11.128049778095846"><ele>111.0</ele><time>2026-05-01T14:22:49Z</time></trkpt><trkpt lat="43.91587641890899" lon="11.128078333203124"><ele>111.0</ele><time>2026-05-01T14:22:52Z</time></trkpt><trkpt lat="43.915944247678546" lon="11.128058293182333"><ele>111.0</ele><time>2026-05-01T14:22:54Z</time></trkpt><trkpt lat="43.91601673859606" lon="11.128042106543795"><ele>111.0</ele><time>2026-05-01T14:22:57Z</time></trkpt><trkpt lat="43.915913485196455" lon="11.128086023441464"><ele>111.0</ele><time>2026-05-01T14:23:38Z</time></trkpt><trkpt lat="43.915807745797935" lon="11.128082579244643"><ele>111.0</ele><time>2026-05-01T14:23:39Z</time></trkpt><trkpt lat="43.915735161545506" lon="11.128101111341751"><ele>111.0</ele><time>2026-05-01T14:23:40Z</time></trkpt><trkpt lat="43.915653568212356" lon="11.128118900086582"><ele>111.0</ele><time>2026-05-01T14:23:42Z</time></trkpt><trkpt lat="43.91558724957196" lon="11.128117675600384"><ele>111.0</ele><time>2026-05-01T14:23:45Z</time></trkpt><trkpt lat="43.915521132485125" lon="11.128131791863778"><ele>111.0</ele><time>2026-05-01T14:23:49Z</time></trkpt><trkpt lat="43.91543494129332" lon="11.128110198465674"><ele>111.0</ele><time>2026-05-01T14:23:52Z</time></trkpt><trkpt lat="43.91536325013606" lon="11.128110137309086"><ele>111.0</ele><time>2026-05-01T14:23:54Z</time></trkpt><trkpt lat="43.915280914818034" lon="11.128107741780974"><ele>111.0</ele><time>2026-05-01T14:23:56Z</time></trkpt><trkpt lat="43.91518643723005" lon="11.128102145640565"><ele>111.0</ele><time>2026-05-01T14:23:58Z</time></trkpt><trkpt lat="43.915095998030885" lon="11.128097003995354"><ele>111.0</ele><time>2026-05-01T14:24:00Z</time></trkpt><trkpt lat="43.915016616280845" lon="11.128094006783174"><ele>111.0</ele><time>2026-05-01T14:24:02Z</time></trkpt><trkpt lat="43.9149378558407" lon="11.128093267536908"><ele>109.19999999999999</ele><time>2026-05-01T14:24:04Z</time></trkpt><trkpt lat="43.9148563587966" lon="11.128094954022087"><ele>107.39999999999999</ele><time>2026-05-01T14:24:06Z</time></trkpt><trkpt lat="43.9147662495114" lon="11.128134075937266"><ele>105.6</ele><time>2026-05-01T14:24:08Z</time></trkpt><trkpt lat="43.914686770557395" lon="11.128124919093949"><ele>103.8</ele><time>2026-05-01T14:24:10Z</time></trkpt><trkpt lat="43.914592914923325" lon="11.128107040700776"><ele>102.0</ele><time>2026-05-01T14:24:12Z</time></trkpt><trkpt lat="43.91448995992935" lon="11.128108963886518"><ele>102.0</ele><time>2026-05-01T14:24:14Z</time></trkpt><trkpt lat="43.91437682434038" lon="11.128069817693303"><ele>102.0</ele><time>2026-05-01T14:24:16Z</time></trkpt><trkpt lat="43.914270353805506" lon="11.12802272944172"><ele>102.0</ele><time>2026-05-01T14:24:18Z</time></trkpt><trkpt lat="43.91421242587357" lon="11.127967473577087"><ele>102.0</ele><time>2026-05-01T14:24:22Z</time></trkpt><trkpt lat="43.91412241591755" lon="11.127943440240934"><ele>102.0</ele><time>2026-05-01T14:24:24Z</time></trkpt><trkpt lat="43.91404947376236" lon="11.12794688817804"><ele>100.33333333333333</ele><time>2026-05-01T14:24:26Z</time></trkpt><trkpt lat="43.91396461501086" lon="11.127962121261254"><ele>98.66666666666667</ele><time>2026-05-01T14:24:29Z</time></trkpt><trkpt lat="43.91388482202075" lon="11.127971042755792"><ele>97.0</ele><time>2026-05-01T14:24:32Z</time></trkpt><trkpt lat="43.91380772667353" lon="11.127994386263799"><ele>95.33333333333334</ele><time>2026-05-01T14:24:34Z</time></trkpt><trkpt lat="43.91372001716737" lon="11.128025319541148"><ele>93.66666666666667</ele><time>2026-05-01T14:24:37Z</time></trkpt><trkpt lat="43.91363413090512" lon="11.128048840659337"><ele>92.0</ele><time>2026-05-01T14:24:39Z</time></trkpt><trkpt lat="43.9135504341703" lon="11.128064204361005"><ele>92.0</ele><time>2026-05-01T14:24:42Z</time></trkpt><trkpt lat="43.91348269522287" lon="11.128102327777718"><ele>92.0</ele><time>2026-05-01T14:24:44Z</time></trkpt><trkpt lat="43.91339913034555" lon="11.128103847991756"><ele>92.0</ele><time>2026-05-01T14:24:46Z</time></trkpt><trkpt lat="43.91329728609685" lon="11.128075821206746"><ele>92.0</ele><time>2026-05-01T14:24:48Z</time></trkpt><trkpt lat="43.91320170149644" lon="11.128084460311229"><ele>92.0</ele><time>2026-05-01T14:24:49Z</time></trkpt><trkpt lat="43.91313079569054" lon="11.128028991457303"><ele>92.0</ele><time>2026-05-01T14:24:50Z</time></trkpt><trkpt lat="43.91305685797585" lon="11.12800886259191"><ele>93.66666666666667</ele><time>2026-05-01T14:24:51Z</time></trkpt><trkpt lat="43.91298940004889" lon="11.127956351241044"><ele>95.33333333333334</ele><time>2026-05-01T14:24:52Z</time></trkpt><trkpt lat="43.91291479885966" lon="11.12790116722866"><ele>97.0</ele><time>2026-05-01T14:24:53Z</time></trkpt><trkpt lat="43.912832203613824" lon="11.127851081706776"><ele>98.66666666666667</ele><time>2026-05-01T14:24:54Z</time></trkpt><trkpt lat="43.912736166054195" lon="11.127851177504862"><ele>100.33333333333333</ele><time>2026-05-01T14:24:55Z</time></trkpt><trkpt lat="43.912664872076505" lon="11.127817573410061"><ele>102.0</ele><time>2026-05-01T14:24:56Z</time></trkpt><trkpt lat="43.91259667224656" lon="11.127750821160191"><ele>103.57142857142857</ele><time>2026-05-01T14:24:57Z</time></trkpt><trkpt lat="43.91252947408466" lon="11.127702118070275"><ele>105.14285714285714</ele><time>2026-05-01T14:24:58Z</time></trkpt><trkpt lat="43.91246369457524" lon="11.127651926129582"><ele>106.71428571428572</ele><time>2026-05-01T14:24:59Z</time></trkpt><trkpt lat="43.91239675971581" lon="11.127636871388649"><ele>108.28571428571428</ele><time>2026-05-01T14:25:00Z</time></trkpt><trkpt lat="43.91234130893138" lon="11.127591926782438"><ele>109.85714285714285</ele><time>2026-05-01T14:25:01Z</time></trkpt><trkpt lat="43.91228035554845" lon="11.127544294683116"><ele>111.42857142857143</ele><time>2026-05-01T14:25:02Z</time></trkpt><trkpt lat="43.91221648214634" lon="11.127500264232054"><ele>113.0</ele><time>2026-05-01T14:25:03Z</time></trkpt><trkpt lat="43.912154367338545" lon="11.12743968469121"><ele>110.16666666666666</ele><time>2026-05-01T14:25:04Z</time></trkpt><trkpt lat="43.91208564570134" lon="11.127391753580875"><ele>107.33333333333333</ele><time>2026-05-01T14:25:05Z</time></trkpt><trkpt lat="43.912019322941134" lon="11.127334537611166"><ele>104.5</ele><time>2026-05-01T14:25:06Z</time></trkpt><trkpt lat="43.91195407219282" lon="11.127273126128317"><ele>101.66666666666666</ele><time>2026-05-01T14:25:07Z</time></trkpt><trkpt lat="43.91188681296394" lon="11.127203330785935"><ele>98.83333333333333</ele><time>2026-05-01T14:25:08Z</time></trkpt><trkpt lat="43.91182326045668" lon="11.127133506579044"><ele>96.0</ele><time>2026-05-01T14:25:09Z</time></trkpt><trkpt lat="43.911755774323126" lon="11.127067599109814"><ele>98.16666666666667</ele><time>2026-05-01T14:25:10Z</time></trkpt><trkpt lat="43.91169077039932" lon="11.127003753040546"><ele>100.33333333333334</ele><time>2026-05-01T14:25:11Z</time></trkpt><trkpt lat="43.91163400172056" lon="11.126911110786192"><ele>102.5</ele><time>2026-05-01T14:25:12Z</time></trkpt><trkpt lat="43.911569959047924" lon="11.12684919266625"><ele>104.66666666666667</ele><time>2026-05-01T14:25:13Z</time></trkpt><trkpt lat="43.91150595554667" lon="11.126787312078937"><ele>106.83333333333334</ele><time>2026-05-01T14:25:14Z</time></trkpt><trkpt lat="43.9114390596976" lon="11.126722512741063"><ele>109.0</ele><time>2026-05-01T14:25:15Z</time></trkpt><trkpt lat="43.911372378473985" lon="11.12665524196247"><ele>109.0</ele><time>2026-05-01T14:25:16Z</time></trkpt><trkpt lat="43.911310899717" lon="11.126592569107647"><ele>109.0</ele><time>2026-05-01T14:25:17Z</time></trkpt><trkpt lat="43.91121999014155" lon="11.12649760871354"><ele>109.0</ele><time>2026-05-01T14:25:19Z</time></trkpt><trkpt lat="43.91112761155971" lon="11.126402910666815"><ele>109.0</ele><time>2026-05-01T14:25:21Z</time></trkpt><trkpt lat="43.911054265157325" lon="11.126295489997089"><ele>109.0</ele><time>2026-05-01T14:25:23Z</time></trkpt><trkpt lat="43.911032768671106" lon="11.126164725185712"><ele>107.00000000000001</ele><time>2026-05-01T14:25:25Z</time></trkpt><trkpt lat="43.9110080568065" lon="11.126032913426092"><ele>105.0</ele><time>2026-05-01T14:25:27Z</time></trkpt><trkpt lat="43.911002475698986" lon="11.125876198606349"><ele>103.0</ele><time>2026-05-01T14:25:29Z</time></trkpt><trkpt lat="43.910995409381975" lon="11.12578509663832"><ele>101.0</ele><time>2026-05-01T14:25:30Z</time></trkpt><trkpt lat="43.911003482487736" lon="11.12568355051344"><ele>99.00000000000001</ele><time>2026-05-01T14:25:32Z</time></trkpt><trkpt lat="43.91102162380319" lon="11.125577899058293"><ele>97.0</ele><time>2026-05-01T14:25:35Z</time></trkpt><trkpt lat="43.91109030618371" lon="11.125540783221366"><ele>96.66666666666667</ele><time>2026-05-01T14:25:41Z</time></trkpt><trkpt lat="43.911035508505094" lon="11.1256148695829"><ele>96.33333333333334</ele><time>2026-05-01T14:25:46Z</time></trkpt><trkpt lat="43.911032206935445" lon="11.125473951748457"><ele>96.0</ele><time>2026-05-01T14:25:51Z</time></trkpt><trkpt lat="43.91104883207856" lon="11.125368247956068"><ele>95.66666666666667</ele><time>2026-05-01T14:25:52Z</time></trkpt><trkpt lat="43.91107565411695" lon="11.125267877890973"><ele>95.33333333333334</ele><time>2026-05-01T14:25:53Z</time></trkpt><trkpt lat="43.91109118422725" lon="11.125154378065027"><ele>95.0</ele><time>2026-05-01T14:25:54Z</time></trkpt><trkpt lat="43.91109661711653" lon="11.125061407931408"><ele>95.0</ele><time>2026-05-01T14:25:55Z</time></trkpt><trkpt lat="43.91110212767388" lon="11.12496373819941"><ele>95.0</ele><time>2026-05-01T14:25:56Z</time></trkpt><trkpt lat="43.911111324069026" lon="11.124873405081559"><ele>95.0</ele><time>2026-05-01T14:25:57Z</time></trkpt><trkpt lat="43.911095332476165" lon="11.124784803604589"><ele>95.0</ele><time>2026-05-01T14:25:58Z</time></trkpt><trkpt lat="43.91107088579823" lon="11.124685466866172"><ele>95.0</ele><time>2026-05-01T14:25:59Z</time></trkpt><trkpt lat="43.91104584884308" lon="11.124592840904686"><ele>95.0</ele><time>2026-05-01T14:26:00Z</time></trkpt><trkpt lat="43.911010687191315" lon="11.124506993432911"><ele>95.0</ele><time>2026-05-01T14:26:01Z</time></trkpt><trkpt lat="43.91097909697988" lon="11.124420023214459"><ele>94.42857142857143</ele><time>2026-05-01T14:26:02Z</time></trkpt><trkpt lat="43.910957321638485" lon="11.124324230296235"><ele>93.85714285714286</ele><time>2026-05-01T14:26:03Z</time></trkpt><trkpt lat="43.9109521060083" lon="11.124236283370529"><ele>93.28571428571428</ele><time>2026-05-01T14:26:04Z</time></trkpt><trkpt lat="43.91092597829371" lon="11.124155083477318"><ele>92.71428571428572</ele><time>2026-05-01T14:26:05Z</time></trkpt><trkpt lat="43.910902162336946" lon="11.124058283211161"><ele>92.14285714285714</ele><time>2026-05-01T14:26:06Z</time></trkpt><trkpt lat="43.91087306741745" lon="11.123944431742968"><ele>91.57142857142857</ele><time>2026-05-01T14:26:07Z</time></trkpt><trkpt lat="43.91085384419189" lon="11.123836636401908"><ele>91.0</ele><time>2026-05-01T14:26:08Z</time></trkpt><trkpt lat="43.91082326623335" lon="11.123731645277653"><ele>92.83333333333333</ele><time>2026-05-01T14:26:09Z</time></trkpt><trkpt lat="43.91078685918855" lon="11.123630957656816"><ele>94.66666666666666</ele><time>2026-05-01T14:26:10Z</time></trkpt><trkpt lat="43.91074769527838" lon="11.123533110318533"><ele>96.5</ele><time>2026-05-01T14:26:11Z</time></trkpt><trkpt lat="43.910706121378084" lon="11.123444479920167"><ele>98.33333333333333</ele><time>2026-05-01T14:26:12Z</time></trkpt><trkpt lat="43.91065228437826" lon="11.123364062963498"><ele>100.16666666666667</ele><time>2026-05-01T14:26:13Z</time></trkpt><trkpt lat="43.9106178546718" lon="11.123280340106609"><ele>102.0</ele><time>2026-05-01T14:26:14Z</time></trkpt><trkpt lat="43.91054500574332" lon="11.123308171331168"><ele>102.0</ele><time>2026-05-01T14:26:15Z</time></trkpt><trkpt lat="43.91045747119708" lon="11.123286755731757"><ele>102.0</ele><time>2026-05-01T14:26:17Z</time></trkpt><trkpt lat="43.91042263576351" lon="11.123189517806173"><ele>102.0</ele><time>2026-05-01T14:26:18Z</time></trkpt><trkpt lat="43.91036754792249" lon="11.12312962062747"><ele>102.0</ele><time>2026-05-01T14:26:19Z</time></trkpt><trkpt lat="43.91028712879578" lon="11.123060938274516"><ele>102.0</ele><time>2026-05-01T14:26:20Z</time></trkpt><trkpt lat="43.91021897221302" lon="11.123002728585645"><ele>102.0</ele><time>2026-05-01T14:26:21Z</time></trkpt><trkpt lat="43.91016203080244" lon="11.122954097467792"><ele>101.5</ele><time>2026-05-01T14:26:22Z</time></trkpt><trkpt lat="43.91010836408428" lon="11.122908263254931"><ele>101.0</ele><time>2026-05-01T14:26:23Z</time></trkpt><trkpt lat="43.91001691100965" lon="11.122848104364053"><ele>100.5</ele><time>2026-05-01T14:26:25Z</time></trkpt><trkpt lat="43.90994722017781" lon="11.122854398071121"><ele>100.0</ele><time>2026-05-01T14:26:26Z</time></trkpt><trkpt lat="43.90989810996217" lon="11.122966635058463"><ele>99.5</ele><time>2026-05-01T14:26:27Z</time></trkpt><trkpt lat="43.909825379609856" lon="11.122992913388218"><ele>99.0</ele><time>2026-05-01T14:26:30Z</time></trkpt><trkpt lat="43.90973076925728" lon="11.122947097937601"><ele>99.0</ele><time>2026-05-01T14:26:32Z</time></trkpt><trkpt lat="43.90966343653721" lon="11.122926979037318"><ele>99.0</ele><time>2026-05-01T14:26:33Z</time></trkpt><trkpt lat="43.90959661403966" lon="11.122925372846423"><ele>99.0</ele><time>2026-05-01T14:26:34Z</time></trkpt><trkpt lat="43.90952683177107" lon="11.122945258757214"><ele>99.0</ele><time>2026-05-01T14:26:35Z</time></trkpt><trkpt lat="43.90946459428169" lon="11.122928940204618"><ele>99.0</ele><time>2026-05-01T14:26:36Z</time></trkpt><trkpt lat="43.90940682055992" lon="11.122891607566933"><ele>99.0</ele><time>2026-05-01T14:26:37Z</time></trkpt><trkpt lat="43.90934606445076" lon="11.122866786722716"><ele>99.0</ele><time>2026-05-01T14:26:38Z</time></trkpt><trkpt lat="43.90922131672684" lon="11.122872550340961"><ele>99.2</ele><time>2026-05-01T14:26:40Z</time></trkpt><trkpt lat="43.90909767644448" lon="11.122895509246664"><ele>99.4</ele><time>2026-05-01T14:26:42Z</time></trkpt><trkpt lat="43.90902939230841" lon="11.122906943467731"><ele>99.6</ele><time>2026-05-01T14:26:43Z</time></trkpt><trkpt lat="43.90896280914602" lon="11.122917371430473"><ele>99.8</ele><time>2026-05-01T14:26:44Z</time></trkpt><trkpt lat="43.90884504195798" lon="11.122929654216115"><ele>100.0</ele><time>2026-05-01T14:26:46Z</time></trkpt><trkpt lat="43.90878730306424" lon="11.122846683624847"><ele>100.0</ele><time>2026-05-01T14:26:47Z</time></trkpt><trkpt lat="43.908718702799185" lon="11.122802498969175"><ele>100.0</ele><time>2026-05-01T14:26:48Z</time></trkpt><trkpt lat="43.90864446931177" lon="11.122755922371159"><ele>100.0</ele><time>2026-05-01T14:26:49Z</time></trkpt><trkpt lat="43.90856879546767" lon="11.122717841089308"><ele>100.0</ele><time>2026-05-01T14:26:50Z</time></trkpt><trkpt lat="43.9084831821721" lon="11.122678506877223"><ele>100.0</ele><time>2026-05-01T14:26:51Z</time></trkpt><trkpt lat="43.908359257833055" lon="11.122619258913707"><ele>100.85714285714286</ele><time>2026-05-01T14:26:53Z</time></trkpt><trkpt lat="43.90829083537303" lon="11.122584208106424"><ele>101.71428571428572</ele><time>2026-05-01T14:26:54Z</time></trkpt><trkpt lat="43.90821955887306" lon="11.122543847121168"><ele>102.57142857142858</ele><time>2026-05-01T14:26:55Z</time></trkpt><trkpt lat="43.908152578305554" lon="11.122501863072367"><ele>103.42857142857143</ele><time>2026-05-01T14:26:56Z</time></trkpt><trkpt lat="43.90808378020346" lon="11.122455868289912"><ele>104.28571428571428</ele><time>2026-05-01T14:26:57Z</time></trkpt><trkpt lat="43.90801945149" lon="11.122405666655844"><ele>105.14285714285715</ele><time>2026-05-01T14:26:58Z</time></trkpt><trkpt lat="43.90796018040074" lon="11.122355639951914"><ele>106.0</ele><time>2026-05-01T14:26:59Z</time></trkpt><trkpt lat="43.90789926591544" lon="11.122298826832754"><ele>105.16666666666667</ele><time>2026-05-01T14:27:00Z</time></trkpt><trkpt lat="43.907838016013514" lon="11.122241222610125"><ele>104.33333333333334</ele><time>2026-05-01T14:27:01Z</time></trkpt><trkpt lat="43.90778300672279" lon="11.12218414185159"><ele>103.5</ele><time>2026-05-01T14:27:02Z</time></trkpt><trkpt lat="43.9077275101696" lon="11.12211755552098"><ele>102.66666666666666</ele><time>2026-05-01T14:27:03Z</time></trkpt><trkpt lat="43.90766426642786" lon="11.12204651561848"><ele>101.83333333333333</ele><time>2026-05-01T14:27:04Z</time></trkpt><trkpt lat="43.907605151656185" lon="11.121980877795469"><ele>101.0</ele><time>2026-05-01T14:27:05Z</time></trkpt><trkpt lat="43.90754113268524" lon="11.121917707026403"><ele>100.99999999999999</ele><time>2026-05-01T14:27:06Z</time></trkpt><trkpt lat="43.90748079852202" lon="11.121859808709402"><ele>101.0</ele><time>2026-05-01T14:27:07Z</time></trkpt><trkpt lat="43.90741806375475" lon="11.12180178269576"><ele>101.0</ele><time>2026-05-01T14:27:08Z</time></trkpt><trkpt lat="43.90734673222316" lon="11.121761068803167"><ele>101.0</ele><time>2026-05-01T14:27:09Z</time></trkpt><trkpt lat="43.90727758709055" lon="11.121716742596739"><ele>100.99999999999999</ele><time>2026-05-01T14:27:10Z</time></trkpt><trkpt lat="43.90720386333071" lon="11.121683304041463"><ele>101.0</ele><time>2026-05-01T14:27:11Z</time></trkpt><trkpt lat="43.90713563723094" lon="11.12164717504316"><ele>100.99999999999999</ele><time>2026-05-01T14:27:12Z</time></trkpt><trkpt lat="43.907076277912154" lon="11.121609604516838"><ele>101.0</ele><time>2026-05-01T14:27:13Z</time></trkpt><trkpt lat="43.907012303795916" lon="11.121576391548121"><ele>101.0</ele><time>2026-05-01T14:27:14Z</time></trkpt><trkpt lat="43.90688483127449" lon="11.121515160860815"><ele>101.0</ele><time>2026-05-01T14:27:16Z</time></trkpt><trkpt lat="43.90680537127017" lon="11.121469925089437"><ele>100.99999999999999</ele><time>2026-05-01T14:27:17Z</time></trkpt><trkpt lat="43.906728495358465" lon="11.121435371980455"><ele>101.0</ele><time>2026-05-01T14:27:18Z</time></trkpt><trkpt lat="43.90665800007931" lon="11.121404845910472"><ele>100.16666666666666</ele><time>2026-05-01T14:27:19Z</time></trkpt><trkpt lat="43.90659102359052" lon="11.121370835153796"><ele>99.33333333333333</ele><time>2026-05-01T14:27:20Z</time></trkpt><trkpt lat="43.90651945603525" lon="11.12132391857397"><ele>98.5</ele><time>2026-05-01T14:27:21Z</time></trkpt><trkpt lat="43.906442628409216" lon="11.121264289918242"><ele>97.66666666666666</ele><time>2026-05-01T14:27:22Z</time></trkpt><trkpt lat="43.90637440565076" lon="11.121197969872954"><ele>96.83333333333333</ele><time>2026-05-01T14:27:23Z</time></trkpt><trkpt lat="43.90631603952466" lon="11.12111909364485"><ele>96.0</ele><time>2026-05-01T14:27:24Z</time></trkpt><trkpt lat="43.90625959996866" lon="11.121038053396376"><ele>95.99999999999999</ele><time>2026-05-01T14:27:25Z</time></trkpt><trkpt lat="43.906222834498955" lon="11.120946838927539"><ele>96.0</ele><time>2026-05-01T14:27:26Z</time></trkpt><trkpt lat="43.90617929141583" lon="11.120848863677626"><ele>96.0</ele><time>2026-05-01T14:27:27Z</time></trkpt><trkpt lat="43.90614953851203" lon="11.120755180133594"><ele>96.0</ele><time>2026-05-01T14:27:28Z</time></trkpt><trkpt lat="43.90612610541934" lon="11.120657624242039"><ele>96.0</ele><time>2026-05-01T14:27:29Z</time></trkpt><trkpt lat="43.906095539916834" lon="11.120581165165186"><ele>95.99999999999999</ele><time>2026-05-01T14:27:30Z</time></trkpt><trkpt lat="43.906061829311014" lon="11.120497458270815"><ele>96.0</ele><time>2026-05-01T14:27:31Z</time></trkpt><trkpt lat="43.90602065567469" lon="11.12041585171123"><ele>95.83333333333333</ele><time>2026-05-01T14:27:32Z</time></trkpt><trkpt lat="43.905978066973766" lon="11.120326513582633"><ele>95.66666666666667</ele><time>2026-05-01T14:27:33Z</time></trkpt><trkpt lat="43.905967278237874" lon="11.120210452542231"><ele>95.5</ele><time>2026-05-01T14:27:34Z</time></trkpt><trkpt lat="43.90591734039757" lon="11.120128149299687"><ele>95.33333333333334</ele><time>2026-05-01T14:27:35Z</time></trkpt><trkpt lat="43.905865227834084" lon="11.120051636189547"><ele>95.16666666666667</ele><time>2026-05-01T14:27:36Z</time></trkpt><trkpt lat="43.90581063376246" lon="11.119976502023658"><ele>95.0</ele><time>2026-05-01T14:27:37Z</time></trkpt><trkpt lat="43.90575391198963" lon="11.119922747867303"><ele>93.6</ele><time>2026-05-01T14:27:38Z</time></trkpt><trkpt lat="43.905679745984315" lon="11.119867163335615"><ele>92.2</ele><time>2026-05-01T14:27:39Z</time></trkpt><trkpt lat="43.90559528432996" lon="11.119841859785716"><ele>90.80000000000001</ele><time>2026-05-01T14:27:40Z</time></trkpt><trkpt lat="43.90550842595259" lon="11.11983470795594"><ele>89.4</ele><time>2026-05-01T14:27:41Z</time></trkpt><trkpt lat="43.905406189692386" lon="11.119809794976879"><ele>88.0</ele><time>2026-05-01T14:27:42Z</time></trkpt><trkpt lat="43.905296681618786" lon="11.119770763568834"><ele>88.0</ele><time>2026-05-01T14:27:43Z</time></trkpt><trkpt lat="43.905198949713544" lon="11.119739421164333"><ele>88.0</ele><time>2026-05-01T14:27:44Z</time></trkpt><trkpt lat="43.90510999166437" lon="11.11971889317149"><ele>88.0</ele><time>2026-05-01T14:27:45Z</time></trkpt><trkpt lat="43.90503694744431" lon="11.119685872929598"><ele>88.0</ele><time>2026-05-01T14:27:46Z</time></trkpt><trkpt lat="43.90498038430988" lon="11.11959910874511"><ele>88.0</ele><time>2026-05-01T14:27:47Z</time></trkpt><trkpt lat="43.90491720639979" lon="11.119523281017754"><ele>88.0</ele><time>2026-05-01T14:27:48Z</time></trkpt><trkpt lat="43.90484211425954" lon="11.1194539951272"><ele>88.0</ele><time>2026-05-01T14:27:49Z</time></trkpt><trkpt lat="43.904777598213194" lon="11.119361643651365"><ele>88.0</ele><time>2026-05-01T14:27:50Z</time></trkpt><trkpt lat="43.90469823685354" lon="11.11927281637144"><ele>88.0</ele><time>2026-05-01T14:27:51Z</time></trkpt><trkpt lat="43.90461592221793" lon="11.119202007917558"><ele>88.0</ele><time>2026-05-01T14:27:52Z</time></trkpt><trkpt lat="43.90456401799497" lon="11.119123329860708"><ele>88.0</ele><time>2026-05-01T14:27:53Z</time></trkpt><trkpt lat="43.904509399063876" lon="11.119068461416752"><ele>88.0</ele><time>2026-05-01T14:27:54Z</time></trkpt><trkpt lat="43.9044563476778" lon="11.118998886567056"><ele>87.5</ele><time>2026-05-01T14:27:56Z</time></trkpt><trkpt lat="43.90439236801839" lon="11.119048241028"><ele>87.0</ele><time>2026-05-01T14:28:39Z</time></trkpt><trkpt lat="43.90430472206662" lon="11.119007550244604"><ele>86.5</ele><time>2026-05-01T14:28:41Z</time></trkpt><trkpt lat="43.904244963529614" lon="11.118929845524278"><ele>86.0</ele><time>2026-05-01T14:28:43Z</time></trkpt><trkpt lat="43.90418403048288" lon="11.118886827394208"><ele>85.5</ele><time>2026-05-01T14:28:45Z</time></trkpt><trkpt lat="43.90412425922628" lon="11.11883375678739"><ele>85.0</ele><time>2026-05-01T14:28:46Z</time></trkpt><trkpt lat="43.90402965977565" lon="11.118756545025855"><ele>85.0</ele><time>2026-05-01T14:28:47Z</time></trkpt><trkpt lat="43.903910632149156" lon="11.11865625208108"><ele>85.0</ele><time>2026-05-01T14:28:48Z</time></trkpt><trkpt lat="43.9037599907483" lon="11.118524396219671"><ele>85.0</ele><time>2026-05-01T14:28:49Z</time></trkpt><trkpt lat="43.903615605988115" lon="11.118394471849157"><ele>85.0</ele><time>2026-05-01T14:28:50Z</time></trkpt><trkpt lat="43.903507275829355" lon="11.118296824602925"><ele>85.0</ele><time>2026-05-01T14:28:51Z</time></trkpt><trkpt lat="43.90341877373282" lon="11.118217631199219"><ele>85.0</ele><time>2026-05-01T14:28:52Z</time></trkpt><trkpt lat="43.90334293083195" lon="11.118142146030943"><ele>85.0</ele><time>2026-05-01T14:28:53Z</time></trkpt><trkpt lat="43.9032858478886" lon="11.11807133634643"><ele>85.0</ele><time>2026-05-01T14:28:54Z</time></trkpt><trkpt lat="43.903242459042765" lon="11.117986717547158"><ele>85.0</ele><time>2026-05-01T14:28:55Z</time></trkpt><trkpt lat="43.9032064732687" lon="11.117913260880705"><ele>85.0</ele><time>2026-05-01T14:28:56Z</time></trkpt><trkpt lat="43.903166393819774" lon="11.117829228755763"><ele>85.0</ele><time>2026-05-01T14:28:57Z</time></trkpt><trkpt lat="43.90312475464499" lon="11.117742796458696"><ele>85.0</ele><time>2026-05-01T14:28:58Z</time></trkpt><trkpt lat="43.90307517012617" lon="11.11765696532503"><ele>85.0</ele><time>2026-05-01T14:28:59Z</time></trkpt><trkpt lat="43.90302247377048" lon="11.117563202302415"><ele>85.0</ele><time>2026-05-01T14:29:00Z</time></trkpt><trkpt lat="43.902957973074855" lon="11.117486315112757"><ele>85.0</ele><time>2026-05-01T14:29:01Z</time></trkpt><trkpt lat="43.902885987498806" lon="11.117430029634376"><ele>85.0</ele><time>2026-05-01T14:29:02Z</time></trkpt><trkpt lat="43.90281652935144" lon="11.117376730921222"><ele>85.0</ele><time>2026-05-01T14:29:03Z</time></trkpt><trkpt lat="43.902747699042116" lon="11.117314495889433"><ele>85.0</ele><time>2026-05-01T14:29:04Z</time></trkpt><trkpt lat="43.90267748355578" lon="11.117264353430375"><ele>85.0</ele><time>2026-05-01T14:29:05Z</time></trkpt><trkpt lat="43.902620183396365" lon="11.117216165583613"><ele>85.0</ele><time>2026-05-01T14:29:06Z</time></trkpt><trkpt lat="43.9025161703635" lon="11.117161988246783"><ele>84.8</ele><time>2026-05-01T14:29:08Z</time></trkpt><trkpt lat="43.90241525594407" lon="11.117159979315781"><ele>84.6</ele><time>2026-05-01T14:29:10Z</time></trkpt><trkpt lat="43.90231587685369" lon="11.117123439433442"><ele>84.4</ele><time>2026-05-01T14:29:12Z</time></trkpt><trkpt lat="43.90226086036012" lon="11.117075924865672"><ele>84.2</ele><time>2026-05-01T14:29:13Z</time></trkpt><trkpt lat="43.90216912788092" lon="11.116965431372435"><ele>84.0</ele><time>2026-05-01T14:29:15Z</time></trkpt><trkpt lat="43.90205280954544" lon="11.11688971912202"><ele>84.0</ele><time>2026-05-01T14:29:17Z</time></trkpt><trkpt lat="43.90198938167471" lon="11.11684067566571"><ele>84.0</ele><time>2026-05-01T14:29:18Z</time></trkpt><trkpt lat="43.9019265721859" lon="11.116802404217182"><ele>84.0</ele><time>2026-05-01T14:29:19Z</time></trkpt><trkpt lat="43.90185929135903" lon="11.116753977499236"><ele>84.0</ele><time>2026-05-01T14:29:20Z</time></trkpt><trkpt lat="43.90177787522963" lon="11.116687917812198"><ele>84.0</ele><time>2026-05-01T14:29:21Z</time></trkpt><trkpt lat="43.90166612583827" lon="11.116657905030925"><ele>84.0</ele><time>2026-05-01T14:29:22Z</time></trkpt><trkpt lat="43.90160536060367" lon="11.116601300326424"><ele>84.0</ele><time>2026-05-01T14:29:23Z</time></trkpt><trkpt lat="43.90152689209205" lon="11.116558157636842"><ele>84.0</ele><time>2026-05-01T14:29:24Z</time></trkpt><trkpt lat="43.90145404278919" lon="11.116517859614936"><ele>84.0</ele><time>2026-05-01T14:29:25Z</time></trkpt><trkpt lat="43.9013859325497" lon="11.116479109445885"><ele>84.0</ele><time>2026-05-01T14:29:26Z</time></trkpt><trkpt lat="43.90132514193942" lon="11.116429257335591"><ele>84.0</ele><time>2026-05-01T14:29:27Z</time></trkpt><trkpt lat="43.90126532151455" lon="11.116385613218924"><ele>84.0</ele><time>2026-05-01T14:29:28Z</time></trkpt><trkpt lat="43.90118737772491" lon="11.116387780203514"><ele>84.0</ele><time>2026-05-01T14:29:31Z</time></trkpt><trkpt lat="43.901219443755416" lon="11.116502382113122"><ele>84.0</ele><time>2026-05-01T14:29:33Z</time></trkpt><trkpt lat="43.90132718259518" lon="11.116577006790093"><ele>84.0</ele><time>2026-05-01T14:29:35Z</time></trkpt><trkpt lat="43.90140826602017" lon="11.116675283885433"><ele>84.0</ele><time>2026-05-01T14:29:37Z</time></trkpt><trkpt lat="43.90148907555691" lon="11.116796530696288"><ele>84.0</ele><time>2026-05-01T14:29:39Z</time></trkpt><trkpt lat="43.901536546800216" lon="11.11693027190104"><ele>86.80000000000001</ele><time>2026-05-01T14:29:41Z</time></trkpt><trkpt lat="43.90154448278266" lon="11.117066024357449"><ele>89.60000000000001</ele><time>2026-05-01T14:29:43Z</time></trkpt><trkpt lat="43.90148196117499" lon="11.11721725770576"><ele>92.4</ele><time>2026-05-01T14:29:45Z</time></trkpt><trkpt lat="43.90147094304898" lon="11.1173579194157"><ele>95.2</ele><time>2026-05-01T14:29:47Z</time></trkpt><trkpt lat="43.901476529903526" lon="11.1174912796141"><ele>98.0</ele><time>2026-05-01T14:29:49Z</time></trkpt><trkpt lat="43.90147661203909" lon="11.117637382648704"><ele>99.66666666666666</ele><time>2026-05-01T14:29:51Z</time></trkpt><trkpt lat="43.901471332094246" lon="11.117758611265073"><ele>101.33333333333333</ele><time>2026-05-01T14:29:53Z</time></trkpt><trkpt lat="43.901456184927795" lon="11.11787050324647"><ele>103.0</ele><time>2026-05-01T14:29:55Z</time></trkpt><trkpt lat="43.90143466634787" lon="11.118023654276854"><ele>104.66666666666666</ele><time>2026-05-01T14:29:57Z</time></trkpt><trkpt lat="43.901444303100575" lon="11.118112623480418"><ele>106.33333333333333</ele><time>2026-05-01T14:29:58Z</time></trkpt><trkpt lat="43.901440034427814" lon="11.118204555965535"><ele>108.0</ele><time>2026-05-01T14:29:59Z</time></trkpt><trkpt lat="43.901421972101886" lon="11.11830101604648"><ele>109.66666666666667</ele><time>2026-05-01T14:30:00Z</time></trkpt><trkpt lat="43.90141082254867" lon="11.11841609279656"><ele>111.33333333333334</ele><time>2026-05-01T14:30:01Z</time></trkpt><trkpt lat="43.90141300206864" lon="11.11851708574782"><ele>113.0</ele><time>2026-05-01T14:30:02Z</time></trkpt><trkpt lat="43.90141611939868" lon="11.118617161562028"><ele>114.66666666666667</ele><time>2026-05-01T14:30:03Z</time></trkpt><trkpt lat="43.90144252864534" lon="11.118720109646636"><ele>116.33333333333334</ele><time>2026-05-01T14:30:04Z</time></trkpt><trkpt lat="43.90147578635649" lon="11.11885926497111"><ele>118.0</ele><time>2026-05-01T14:30:05Z</time></trkpt><trkpt lat="43.90150538919883" lon="11.11900545830662"><ele>121.0</ele><time>2026-05-01T14:30:06Z</time></trkpt><trkpt lat="43.90152838015294" lon="11.119161340447144"><ele>124.00000000000001</ele><time>2026-05-01T14:30:07Z</time></trkpt><trkpt lat="43.901523553686175" lon="11.11928825457695"><ele>127.00000000000001</ele><time>2026-05-01T14:30:08Z</time></trkpt><trkpt lat="43.90149255565747" lon="11.11940180090758"><ele>130.0</ele><time>2026-05-01T14:30:10Z</time></trkpt><trkpt lat="43.90142398446052" lon="11.11948110864292"><ele>133.0</ele><time>2026-05-01T14:30:12Z</time></trkpt><trkpt lat="43.90143251775942" lon="11.119659237339196"><ele>133.0</ele><time>2026-05-01T14:30:14Z</time></trkpt><trkpt lat="43.901431131881615" lon="11.119826418095414"><ele>133.0</ele><time>2026-05-01T14:30:16Z</time></trkpt><trkpt lat="43.90143894536422" lon="11.119990093577373"><ele>133.0</ele><time>2026-05-01T14:30:18Z</time></trkpt><trkpt lat="43.90143362295074" lon="11.120152708514423"><ele>133.0</ele><time>2026-05-01T14:30:20Z</time></trkpt><trkpt lat="43.901414312445574" lon="11.120238540547637"><ele>133.0</ele><time>2026-05-01T14:30:21Z</time></trkpt><trkpt lat="43.901394212511605" lon="11.120331246233357"><ele>134.0</ele><time>2026-05-01T14:30:22Z</time></trkpt><trkpt lat="43.90137734855669" lon="11.120425995085066"><ele>135.0</ele><time>2026-05-01T14:30:23Z</time></trkpt><trkpt lat="43.901336559816585" lon="11.12055339598607"><ele>136.0</ele><time>2026-05-01T14:30:25Z</time></trkpt><trkpt lat="43.90131009096" lon="11.120641170840765"><ele>137.0</ele><time>2026-05-01T14:30:27Z</time></trkpt><trkpt lat="43.90134392179392" lon="11.120749764952835"><ele>138.0</ele><time>2026-05-01T14:30:45Z</time></trkpt><trkpt lat="43.901380842614536" lon="11.120823044369223"><ele>139.0</ele><time>2026-05-01T14:30:46Z</time></trkpt><trkpt lat="43.901425052683095" lon="11.120954676942228"><ele>141.0</ele><time>2026-05-01T14:30:48Z</time></trkpt><trkpt lat="43.901481277604454" lon="11.12109850385541"><ele>143.0</ele><time>2026-05-01T14:30:50Z</time></trkpt><trkpt lat="43.90151967376335" lon="11.121248503577903"><ele>145.0</ele><time>2026-05-01T14:30:52Z</time></trkpt><trkpt lat="43.90157001745614" lon="11.121353794455915"><ele>147.0</ele><time>2026-05-01T14:30:54Z</time></trkpt><trkpt lat="43.90156849578336" lon="11.121477049929355"><ele>149.0</ele><time>2026-05-01T14:30:56Z</time></trkpt><trkpt lat="43.90160091795133" lon="11.12160658761433"><ele>149.2</ele><time>2026-05-01T14:30:58Z</time></trkpt><trkpt lat="43.901645777589145" lon="11.12170921993425"><ele>149.4</ele><time>2026-05-01T14:31:00Z</time></trkpt><trkpt lat="43.90173105057281" lon="11.121793646860382"><ele>149.6</ele><time>2026-05-01T14:31:02Z</time></trkpt><trkpt lat="43.90181493100232" lon="11.121870825404551"><ele>149.8</ele><time>2026-05-01T14:31:04Z</time></trkpt><trkpt lat="43.90190391685771" lon="11.121947995012745"><ele>150.0</ele><time>2026-05-01T14:31:06Z</time></trkpt><trkpt lat="43.9019319969967" lon="11.12203260622048"><ele>150.0</ele><time>2026-05-01T14:31:08Z</time></trkpt><trkpt lat="43.90186112453395" lon="11.12193089718312"><ele>150.0</ele><time>2026-05-01T14:31:20Z</time></trkpt><trkpt lat="43.901761621984946" lon="11.121832291804314"><ele>150.0</ele><time>2026-05-01T14:31:22Z</time></trkpt><trkpt lat="43.90168040451935" lon="11.121762671122783"><ele>150.0</ele><time>2026-05-01T14:31:24Z</time></trkpt><trkpt lat="43.9016488818322" lon="11.121680829071476"><ele>150.0</ele><time>2026-05-01T14:31:27Z</time></trkpt><trkpt lat="43.90162432806839" lon="11.121563373217898"><ele>149.66666666666666</ele><time>2026-05-01T14:31:30Z</time></trkpt><trkpt lat="43.901457933875484" lon="11.121149291453714"><ele>149.33333333333331</ele><time>2026-05-01T14:31:33Z</time></trkpt><trkpt lat="43.90141954950292" lon="11.121030058641091"><ele>149.0</ele><time>2026-05-01T14:31:34Z</time></trkpt><trkpt lat="43.90142091124721" lon="11.120901025004741"><ele>149.0</ele><time>2026-05-01T14:31:35Z</time></trkpt><trkpt lat="43.90138617791838" lon="11.120810782633043"><ele>149.0</ele><time>2026-05-01T14:31:36Z</time></trkpt><trkpt lat="43.901355359096456" lon="11.12073071012705"><ele>149.0</ele><time>2026-05-01T14:31:39Z</time></trkpt><trkpt lat="43.90118856086248" lon="11.120711959789572"><ele>149.0</ele><time>2026-05-01T14:31:45Z</time></trkpt><trkpt lat="43.90111982359442" lon="11.120753547737074"><ele>149.0</ele><time>2026-05-01T14:31:46Z</time></trkpt><trkpt lat="43.9010529617964" lon="11.12079392740249"><ele>149.0</ele><time>2026-05-01T14:31:48Z</time></trkpt><trkpt lat="43.9009587884501" lon="11.120850802968246"><ele>149.0</ele><time>2026-05-01T14:31:50Z</time></trkpt><trkpt lat="43.90085417642712" lon="11.120946052602408"><ele>149.0</ele><time>2026-05-01T14:31:52Z</time></trkpt><trkpt lat="43.900763391303656" lon="11.121024810236703"><ele>149.0</ele><time>2026-05-01T14:31:54Z</time></trkpt><trkpt lat="43.900674872550006" lon="11.121064486730774"><ele>149.0</ele><time>2026-05-01T14:31:56Z</time></trkpt><trkpt lat="43.90057044212129" lon="11.121042516674331"><ele>149.33333333333331</ele><time>2026-05-01T14:31:58Z</time></trkpt><trkpt lat="43.90049788477294" lon="11.121038581418357"><ele>149.66666666666666</ele><time>2026-05-01T14:31:59Z</time></trkpt><trkpt lat="43.900423104021144" lon="11.121046365200067"><ele>150.0</ele><time>2026-05-01T14:32:00Z</time></trkpt><trkpt lat="43.90034823968543" lon="11.121052740436788"><ele>150.33333333333334</ele><time>2026-05-01T14:32:01Z</time></trkpt><trkpt lat="43.900272607735985" lon="11.121059181050246"><ele>150.66666666666669</ele><time>2026-05-01T14:32:02Z</time></trkpt><trkpt lat="43.90020060470513" lon="11.12106512978856"><ele>151.0</ele><time>2026-05-01T14:32:03Z</time></trkpt><trkpt lat="43.90012021890373" lon="11.121068069864087"><ele>152.4</ele><time>2026-05-01T14:32:04Z</time></trkpt><trkpt lat="43.90004039772257" lon="11.121066226836895"><ele>153.8</ele><time>2026-05-01T14:32:05Z</time></trkpt><trkpt lat="43.89997216478509" lon="11.12105583611206"><ele>155.20000000000002</ele><time>2026-05-01T14:32:06Z</time></trkpt><trkpt lat="43.8998365662916" lon="11.121004531463223"><ele>156.6</ele><time>2026-05-01T14:32:08Z</time></trkpt><trkpt lat="43.899769010171006" lon="11.1209663657864"><ele>158.0</ele><time>2026-05-01T14:32:09Z</time></trkpt><trkpt lat="43.8996800217628" lon="11.120915685306937"><ele>158.0</ele><time>2026-05-01T14:32:10Z</time></trkpt><trkpt lat="43.89958493690449" lon="11.12085765191628"><ele>158.0</ele><time>2026-05-01T14:32:11Z</time></trkpt><trkpt lat="43.89946671464358" lon="11.120776963074706"><ele>158.0</ele><time>2026-05-01T14:32:12Z</time></trkpt><trkpt lat="43.899368038270474" lon="11.120703195352727"><ele>158.0</ele><time>2026-05-01T14:32:13Z</time></trkpt><trkpt lat="43.89929369299972" lon="11.120644007591594"><ele>158.0</ele><time>2026-05-01T14:32:14Z</time></trkpt><trkpt lat="43.89922629253494" lon="11.12058671148868"><ele>158.20000000000002</ele><time>2026-05-01T14:32:15Z</time></trkpt><trkpt lat="43.89912592009369" lon="11.120496065888224"><ele>158.4</ele><time>2026-05-01T14:32:17Z</time></trkpt><trkpt lat="43.89901404425299" lon="11.120399224741846"><ele>158.60000000000002</ele><time>2026-05-01T14:32:19Z</time></trkpt><trkpt lat="43.898960074049036" lon="11.12034285950707"><ele>158.8</ele><time>2026-05-01T14:32:20Z</time></trkpt><trkpt lat="43.89890194906585" lon="11.120286714475192"><ele>159.0</ele><time>2026-05-01T14:32:21Z</time></trkpt><trkpt lat="43.89885194883738" lon="11.120232312909675"><ele>159.0</ele><time>2026-05-01T14:32:22Z</time></trkpt><trkpt lat="43.89875696038679" lon="11.120121621570803"><ele>159.0</ele><time>2026-05-01T14:32:24Z</time></trkpt><trkpt lat="43.8986494218308" lon="11.120035793871102"><ele>159.0</ele><time>2026-05-01T14:32:26Z</time></trkpt><trkpt lat="43.89859107391811" lon="11.12000213824584"><ele>159.0</ele><time>2026-05-01T14:32:27Z</time></trkpt><trkpt lat="43.89853398220622" lon="11.119956282890895"><ele>159.0</ele><time>2026-05-01T14:32:28Z</time></trkpt><trkpt lat="43.89847082609588" lon="11.11993902014002"><ele>159.0</ele><time>2026-05-01T14:32:29Z</time></trkpt><trkpt lat="43.89840591552953" lon="11.119941364008135"><ele>157.0</ele><time>2026-05-01T14:32:30Z</time></trkpt><trkpt lat="43.89833950837807" lon="11.119899896968944"><ele>155.0</ele><time>2026-05-01T14:32:31Z</time></trkpt><trkpt lat="43.898262677828356" lon="11.119875405857362"><ele>153.0</ele><time>2026-05-01T14:32:32Z</time></trkpt><trkpt lat="43.89817472451347" lon="11.119853617613224"><ele>151.0</ele><time>2026-05-01T14:32:33Z</time></trkpt><trkpt lat="43.898105644880324" lon="11.119841815471009"><ele>149.0</ele><time>2026-05-01T14:32:34Z</time></trkpt><trkpt lat="43.897995231606174" lon="11.119846176903335"><ele>147.0</ele><time>2026-05-01T14:32:36Z</time></trkpt><trkpt lat="43.89787890826345" lon="11.119857804778222"><ele>147.0</ele><time>2026-05-01T14:32:38Z</time></trkpt><trkpt lat="43.89779216917874" lon="11.119843925741899"><ele>147.0</ele><time>2026-05-01T14:32:40Z</time></trkpt><trkpt lat="43.897684958115455" lon="11.119816472875137"><ele>147.0</ele><time>2026-05-01T14:32:42Z</time></trkpt><trkpt lat="43.89762072347602" lon="11.119791582947748"><ele>147.0</ele><time>2026-05-01T14:32:43Z</time></trkpt><trkpt lat="43.897508234985715" lon="11.119738121016994"><ele>147.0</ele><time>2026-05-01T14:32:45Z</time></trkpt><trkpt lat="43.89743278246779" lon="11.119700026935137"><ele>147.6</ele><time>2026-05-01T14:32:48Z</time></trkpt><trkpt lat="43.89737968392518" lon="11.119619410240492"><ele>148.2</ele><time>2026-05-01T14:33:01Z</time></trkpt><trkpt lat="43.89737260146232" lon="11.119479062978366"><ele>148.8</ele><time>2026-05-01T14:33:03Z</time></trkpt><trkpt lat="43.897337085392365" lon="11.11935145600036"><ele>149.4</ele><time>2026-05-01T14:33:05Z</time></trkpt><trkpt lat="43.897293877654754" lon="11.11921120542841"><ele>150.0</ele><time>2026-05-01T14:33:07Z</time></trkpt><trkpt lat="43.89721009812119" lon="11.11899835213298"><ele>150.0</ele><time>2026-05-01T14:33:09Z</time></trkpt><trkpt lat="43.8971145194047" lon="11.118821141206826"><ele>150.0</ele><time>2026-05-01T14:33:10Z</time></trkpt><trkpt lat="43.89704927090496" lon="11.118687470595129"><ele>150.0</ele><time>2026-05-01T14:33:11Z</time></trkpt><trkpt lat="43.89699212145451" lon="11.118556591279045"><ele>150.0</ele><time>2026-05-01T14:33:12Z</time></trkpt><trkpt lat="43.89694817148692" lon="11.118445614615753"><ele>150.0</ele><time>2026-05-01T14:33:13Z</time></trkpt><trkpt lat="43.89689579525721" lon="11.118351355687844"><ele>150.0</ele><time>2026-05-01T14:33:14Z</time></trkpt><trkpt lat="43.89686330316582" lon="11.11823691283308"><ele>150.0</ele><time>2026-05-01T14:33:15Z</time></trkpt><trkpt lat="43.89682584678553" lon="11.118117170066034"><ele>150.0</ele><time>2026-05-01T14:33:16Z</time></trkpt><trkpt lat="43.89678564869884" lon="11.11800077392473"><ele>150.0</ele><time>2026-05-01T14:33:17Z</time></trkpt><trkpt lat="43.89675657690521" lon="11.117904269712785"><ele>150.0</ele><time>2026-05-01T14:33:18Z</time></trkpt><trkpt lat="43.896724319039876" lon="11.117804077019667"><ele>150.8</ele><time>2026-05-01T14:33:19Z</time></trkpt><trkpt lat="43.89668029162374" lon="11.117700270767841"><ele>151.6</ele><time>2026-05-01T14:33:20Z</time></trkpt><trkpt lat="43.8966392342326" lon="11.1175842061061"><ele>152.4</ele><time>2026-05-01T14:33:21Z</time></trkpt><trkpt lat="43.896569721236396" lon="11.117482966711002"><ele>153.2</ele><time>2026-05-01T14:33:22Z</time></trkpt><trkpt lat="43.89649743111645" lon="11.117399842881182"><ele>154.0</ele><time>2026-05-01T14:33:23Z</time></trkpt><trkpt lat="43.89642597938736" lon="11.117324815439156"><ele>154.0</ele><time>2026-05-01T14:33:24Z</time></trkpt><trkpt lat="43.89635197322758" lon="11.11725311210789"><ele>154.0</ele><time>2026-05-01T14:33:25Z</time></trkpt><trkpt lat="43.896281228909416" lon="11.117192951118446"><ele>154.0</ele><time>2026-05-01T14:33:26Z</time></trkpt><trkpt lat="43.89621584573769" lon="11.117144016286899"><ele>154.0</ele><time>2026-05-01T14:33:27Z</time></trkpt><trkpt lat="43.89615225318258" lon="11.117099190748984"><ele>154.0</ele><time>2026-05-01T14:33:28Z</time></trkpt><trkpt lat="43.89608620107753" lon="11.117056752090019"><ele>154.0</ele><time>2026-05-01T14:33:29Z</time></trkpt><trkpt lat="43.89601861893357" lon="11.117016535652077"><ele>154.0</ele><time>2026-05-01T14:33:30Z</time></trkpt><trkpt lat="43.89595481571647" lon="11.116977475835958"><ele>154.0</ele><time>2026-05-01T14:33:31Z</time></trkpt><trkpt lat="43.89588543543111" lon="11.116934104544033"><ele>154.0</ele><time>2026-05-01T14:33:32Z</time></trkpt><trkpt lat="43.89581609799757" lon="11.116890760014188"><ele>154.0</ele><time>2026-05-01T14:33:33Z</time></trkpt><trkpt lat="43.895751104552204" lon="11.116850131109354"><ele>154.0</ele><time>2026-05-01T14:33:34Z</time></trkpt><trkpt lat="43.895679797029146" lon="11.116805170864168"><ele>154.0</ele><time>2026-05-01T14:33:35Z</time></trkpt><trkpt lat="43.89560949828726" lon="11.116757446500111"><ele>156.2</ele><time>2026-05-01T14:33:36Z</time></trkpt><trkpt lat="43.895528950816306" lon="11.116706883591263"><ele>158.4</ele><time>2026-05-01T14:33:37Z</time></trkpt><trkpt lat="43.895452162908484" lon="11.116696908081016"><ele>160.6</ele><time>2026-05-01T14:33:38Z</time></trkpt><trkpt lat="43.89533191751651" lon="11.116645340117687"><ele>162.8</ele><time>2026-05-01T14:33:40Z</time></trkpt><trkpt lat="43.8952688864982" lon="11.116631498768369"><ele>165.0</ele><time>2026-05-01T14:33:41Z</time></trkpt><trkpt lat="43.89514037873586" lon="11.116597989797912"><ele>164.66666666666666</ele><time>2026-05-01T14:33:43Z</time></trkpt><trkpt lat="43.89507336925312" lon="11.116561440482947"><ele>164.33333333333334</ele><time>2026-05-01T14:33:44Z</time></trkpt><trkpt lat="43.89500650508779" lon="11.116510557810669"><ele>164.0</ele><time>2026-05-01T14:33:45Z</time></trkpt><trkpt lat="43.89494548038078" lon="11.116459055465265"><ele>163.66666666666669</ele><time>2026-05-01T14:33:46Z</time></trkpt><trkpt lat="43.8948559424524" lon="11.116383241475571"><ele>163.33333333333334</ele><time>2026-05-01T14:33:48Z</time></trkpt><trkpt lat="43.8947837932578" lon="11.116324999915225"><ele>163.0</ele><time>2026-05-01T14:33:54Z</time></trkpt><trkpt lat="43.8946857858567" lon="11.116255367717105"><ele>163.0</ele><time>2026-05-01T14:33:56Z</time></trkpt><trkpt lat="43.89460835366398" lon="11.116182892700902"><ele>163.0</ele><time>2026-05-01T14:33:58Z</time></trkpt><trkpt lat="43.894553649651286" lon="11.116079258552574"><ele>163.0</ele><time>2026-05-01T14:34:01Z</time></trkpt><trkpt lat="43.89444687307309" lon="11.11612804272669"><ele>163.0</ele><time>2026-05-01T14:34:02Z</time></trkpt><trkpt lat="43.89434376601491" lon="11.116181406907833"><ele>163.0</ele><time>2026-05-01T14:34:04Z</time></trkpt><trkpt lat="43.89427142792929" lon="11.11622341429908"><ele>161.4</ele><time>2026-05-01T14:34:06Z</time></trkpt><trkpt lat="43.894207889048076" lon="11.116322000548335"><ele>159.8</ele><time>2026-05-01T14:34:08Z</time></trkpt><trkpt lat="43.89411460335901" lon="11.116344125061255"><ele>158.2</ele><time>2026-05-01T14:34:10Z</time></trkpt><trkpt lat="43.89398806961946" lon="11.116344144049403"><ele>156.6</ele><time>2026-05-01T14:34:12Z</time></trkpt><trkpt lat="43.8939051552629" lon="11.116348153790906"><ele>155.0</ele><time>2026-05-01T14:34:13Z</time></trkpt><trkpt lat="43.89382584133085" lon="11.116350411773425"><ele>155.0</ele><time>2026-05-01T14:34:14Z</time></trkpt><trkpt lat="43.893742112999966" lon="11.116292824126546"><ele>155.0</ele><time>2026-05-01T14:34:15Z</time></trkpt><trkpt lat="43.89365730714341" lon="11.11631243870329"><ele>155.0</ele><time>2026-05-01T14:34:16Z</time></trkpt><trkpt lat="43.89355859873132" lon="11.11634406451711"><ele>155.0</ele><time>2026-05-01T14:34:17Z</time></trkpt><trkpt lat="43.893472789645465" lon="11.116371774498727"><ele>155.0</ele><time>2026-05-01T14:34:18Z</time></trkpt><trkpt lat="43.893386312306696" lon="11.11640072163631"><ele>155.66666666666666</ele><time>2026-05-01T14:34:19Z</time></trkpt><trkpt lat="43.893304752500235" lon="11.11643484453186"><ele>156.33333333333331</ele><time>2026-05-01T14:34:20Z</time></trkpt><trkpt lat="43.8932276318595" lon="11.116473371692273"><ele>157.0</ele><time>2026-05-01T14:34:21Z</time></trkpt><trkpt lat="43.893157662618776" lon="11.116510829107815"><ele>157.66666666666666</ele><time>2026-05-01T14:34:22Z</time></trkpt><trkpt lat="43.893090773801276" lon="11.116549705932"><ele>158.33333333333334</ele><time>2026-05-01T14:34:23Z</time></trkpt><trkpt lat="43.893025047439004" lon="11.116587212829337"><ele>159.0</ele><time>2026-05-01T14:34:24Z</time></trkpt><trkpt lat="43.89295250380856" lon="11.116622092358002"><ele>159.0</ele><time>2026-05-01T14:34:25Z</time></trkpt><trkpt lat="43.89282998453077" lon="11.116676624726942"><ele>159.0</ele><time>2026-05-01T14:34:27Z</time></trkpt><trkpt lat="43.892765342727714" lon="11.116698312018283"><ele>159.0</ele><time>2026-05-01T14:34:28Z</time></trkpt><trkpt lat="43.8926540126864" lon="11.116732599963665"><ele>159.0</ele><time>2026-05-01T14:34:30Z</time></trkpt><trkpt lat="43.89253623357386" lon="11.116743544212222"><ele>159.0</ele><time>2026-05-01T14:34:32Z</time></trkpt><trkpt lat="43.89241150809908" lon="11.11675928482656"><ele>156.2</ele><time>2026-05-01T14:34:34Z</time></trkpt><trkpt lat="43.892344207036494" lon="11.116777402659665"><ele>153.4</ele><time>2026-05-01T14:34:35Z</time></trkpt><trkpt lat="43.892242357048154" lon="11.116821576263401"><ele>150.6</ele><time>2026-05-01T14:34:37Z</time></trkpt><trkpt lat="43.89215491902451" lon="11.11676458259664"><ele>147.8</ele><time>2026-05-01T14:34:40Z</time></trkpt><trkpt lat="43.8920906911564" lon="11.116635125177336"><ele>145.0</ele><time>2026-05-01T14:34:42Z</time></trkpt><trkpt lat="43.892022331898275" lon="11.116515087734284"><ele>145.33333333333334</ele><time>2026-05-01T14:34:44Z</time></trkpt><trkpt lat="43.89200057083113" lon="11.116419412532705"><ele>145.66666666666669</ele><time>2026-05-01T14:34:46Z</time></trkpt><trkpt lat="43.89196967065083" lon="11.116341266266282"><ele>146.0</ele><time>2026-05-01T14:34:49Z</time></trkpt><trkpt lat="43.89186766647209" lon="11.116274564040442"><ele>146.33333333333334</ele><time>2026-05-01T14:34:51Z</time></trkpt><trkpt lat="43.891812912329165" lon="11.116211589954133"><ele>146.66666666666666</ele><time>2026-05-01T14:34:53Z</time></trkpt><trkpt lat="43.891770277954905" lon="11.11612501901516"><ele>147.0</ele><time>2026-05-01T14:34:56Z</time></trkpt><trkpt lat="43.89175077349413" lon="11.11600854085964"><ele>147.0</ele><time>2026-05-01T14:34:59Z</time></trkpt><trkpt lat="43.89175798401709" lon="11.115906062937468"><ele>147.0</ele><time>2026-05-01T14:35:00Z</time></trkpt><trkpt lat="43.891739341466945" lon="11.115813088304927"><ele>147.0</ele><time>2026-05-01T14:35:01Z</time></trkpt><trkpt lat="43.89170755095123" lon="11.11571930520701"><ele>147.0</ele><time>2026-05-01T14:35:02Z</time></trkpt><trkpt lat="43.8917108796654" lon="11.115630016920226"><ele>147.0</ele><time>2026-05-01T14:35:03Z</time></trkpt><trkpt lat="43.891692318295995" lon="11.115452751684668"><ele>147.0</ele><time>2026-05-01T14:35:05Z</time></trkpt><trkpt lat="43.89172018533232" lon="11.115367016958091"><ele>146.83333333333334</ele><time>2026-05-01T14:35:06Z</time></trkpt><trkpt lat="43.89173064812106" lon="11.11526308928182"><ele>146.66666666666666</ele><time>2026-05-01T14:35:07Z</time></trkpt><trkpt lat="43.89176080611959" lon="11.115154091144117"><ele>146.5</ele><time>2026-05-01T14:35:08Z</time></trkpt><trkpt lat="43.89180673456764" lon="11.115076690188458"><ele>146.33333333333331</ele><time>2026-05-01T14:35:09Z</time></trkpt><trkpt lat="43.89183375731618" lon="11.114996959047852"><ele>146.16666666666666</ele><time>2026-05-01T14:35:10Z</time></trkpt><trkpt lat="43.89187188656134" lon="11.11485141894808"><ele>146.0</ele><time>2026-05-01T14:35:12Z</time></trkpt><trkpt lat="43.891842139988896" lon="11.114726629785757"><ele>144.8</ele><time>2026-05-01T14:35:14Z</time></trkpt><trkpt lat="43.89181191142591" lon="11.11454534107137"><ele>143.6</ele><time>2026-05-01T14:35:16Z</time></trkpt><trkpt lat="43.89179262183867" lon="11.114436631940196"><ele>142.4</ele><time>2026-05-01T14:35:17Z</time></trkpt><trkpt lat="43.89175591944657" lon="11.114320472651965"><ele>141.2</ele><time>2026-05-01T14:35:19Z</time></trkpt><trkpt lat="43.89166174358435" lon="11.114274127338655"><ele>140.0</ele><time>2026-05-01T14:35:21Z</time></trkpt><trkpt lat="43.89158539211743" lon="11.114246884352006"><ele>140.0</ele><time>2026-05-01T14:35:33Z</time></trkpt><trkpt lat="43.89140836561315" lon="11.114204301956342"><ele>140.0</ele><time>2026-05-01T14:36:26Z</time></trkpt><trkpt lat="43.89129548382707" lon="11.114124131072279"><ele>140.0</ele><time>2026-05-01T14:36:28Z</time></trkpt><trkpt lat="43.8912358822105" lon="11.11406639709655"><ele>140.0</ele><time>2026-05-01T14:36:29Z</time></trkpt><trkpt lat="43.89117068860086" lon="11.11407440740456"><ele>140.0</ele><time>2026-05-01T14:36:30Z</time></trkpt><trkpt lat="43.8910835575225" lon="11.114050083942745"><ele>138.16666666666666</ele><time>2026-05-01T14:36:32Z</time></trkpt><trkpt lat="43.8910172521069" lon="11.114052698680933"><ele>136.33333333333331</ele><time>2026-05-01T14:36:35Z</time></trkpt><trkpt lat="43.890928315572644" lon="11.114056146926245"><ele>134.5</ele><time>2026-05-01T14:36:53Z</time></trkpt><trkpt lat="43.89083995088724" lon="11.114061491763744"><ele>132.66666666666666</ele><time>2026-05-01T14:36:55Z</time></trkpt><trkpt lat="43.890768563006944" lon="11.11406580973908"><ele>130.83333333333334</ele><time>2026-05-01T14:36:56Z</time></trkpt><trkpt lat="43.89069577118934" lon="11.114065293232896"><ele>129.0</ele><time>2026-05-01T14:36:57Z</time></trkpt><trkpt lat="43.89060142243164" lon="11.114063876429798"><ele>128.4</ele><time>2026-05-01T14:36:58Z</time></trkpt><trkpt lat="43.89049983656744" lon="11.114065922397314"><ele>127.80000000000001</ele><time>2026-05-01T14:36:59Z</time></trkpt><trkpt lat="43.89039980850702" lon="11.114066277118164"><ele>127.19999999999999</ele><time>2026-05-01T14:37:00Z</time></trkpt><trkpt lat="43.89029939193099" lon="11.114047773566432"><ele>126.6</ele><time>2026-05-01T14:37:01Z</time></trkpt><trkpt lat="43.89019441260297" lon="11.11402807733682"><ele>126.0</ele><time>2026-05-01T14:37:02Z</time></trkpt><trkpt lat="43.89009534825618" lon="11.114047824857568"><ele>125.4</ele><time>2026-05-01T14:37:03Z</time></trkpt><trkpt lat="43.88999937513514" lon="11.11402487520236"><ele>124.8</ele><time>2026-05-01T14:37:04Z</time></trkpt><trkpt lat="43.889904948614806" lon="11.114021209732808"><ele>124.20000000000002</ele><time>2026-05-01T14:37:05Z</time></trkpt><trkpt lat="43.88980926080153" lon="11.11401547826837"><ele>123.60000000000001</ele><time>2026-05-01T14:37:06Z</time></trkpt><trkpt lat="43.8897050347906" lon="11.114009235390128"><ele>123.0</ele><time>2026-05-01T14:37:07Z</time></trkpt><trkpt lat="43.88961038513309" lon="11.11400356611137"><ele>123.0</ele><time>2026-05-01T14:37:08Z</time></trkpt><trkpt lat="43.889528929875176" lon="11.114005057124444"><ele>123.0</ele><time>2026-05-01T14:37:09Z</time></trkpt><trkpt lat="43.88944716840165" lon="11.114039420389854"><ele>123.0</ele><time>2026-05-01T14:37:10Z</time></trkpt><trkpt lat="43.889371097364524" lon="11.114066864719575"><ele>123.0</ele><time>2026-05-01T14:37:11Z</time></trkpt><trkpt lat="43.8893029626419" lon="11.114111500543514"><ele>123.0</ele><time>2026-05-01T14:37:12Z</time></trkpt><trkpt lat="43.889233219070334" lon="11.114171648867714"><ele>123.0</ele><time>2026-05-01T14:37:13Z</time></trkpt><trkpt lat="43.889174158313395" lon="11.114228261958248"><ele>126.0</ele><time>2026-05-01T14:37:14Z</time></trkpt><trkpt lat="43.889069230744745" lon="11.114272666360177"><ele>129.0</ele><time>2026-05-01T14:37:16Z</time></trkpt><trkpt lat="43.889005623064364" lon="11.114271419907968"><ele>132.0</ele><time>2026-05-01T14:37:17Z</time></trkpt><trkpt lat="43.88894024450451" lon="11.114253891874458"><ele>135.0</ele><time>2026-05-01T14:37:18Z</time></trkpt><trkpt lat="43.888875203519135" lon="11.114239464291236"><ele>138.0</ele><time>2026-05-01T14:37:19Z</time></trkpt><trkpt lat="43.88875182138876" lon="11.114230831035815"><ele>141.0</ele><time>2026-05-01T14:37:21Z</time></trkpt><trkpt lat="43.88863009894746" lon="11.114234397213915"><ele>141.0</ele><time>2026-05-01T14:37:23Z</time></trkpt><trkpt lat="43.888518372718885" lon="11.114239130205856"><ele>141.0</ele><time>2026-05-01T14:37:25Z</time></trkpt><trkpt lat="43.88844737220514" lon="11.114258610843478"><ele>141.0</ele><time>2026-05-01T14:37:27Z</time></trkpt><trkpt lat="43.88837742468256" lon="11.114281811485489"><ele>141.0</ele><time>2026-05-01T14:37:30Z</time></trkpt><trkpt lat="43.88828035868133" lon="11.114304010405094"><ele>141.0</ele><time>2026-05-01T14:37:34Z</time></trkpt><trkpt lat="43.888178015114086" lon="11.11429246547986"><ele>140.0</ele><time>2026-05-01T14:37:36Z</time></trkpt><trkpt lat="43.88805931318336" lon="11.114255552745464"><ele>139.0</ele><time>2026-05-01T14:37:38Z</time></trkpt><trkpt lat="43.8879971857284" lon="11.114238345910575"><ele>138.0</ele><time>2026-05-01T14:37:39Z</time></trkpt><trkpt lat="43.88794561776449" lon="11.114158544775146"><ele>137.0</ele><time>2026-05-01T14:37:40Z</time></trkpt><trkpt lat="43.88788390633556" lon="11.114112371216619"><ele>136.0</ele><time>2026-05-01T14:37:41Z</time></trkpt><trkpt lat="43.88783449316086" lon="11.114056925564308"><ele>135.0</ele><time>2026-05-01T14:37:42Z</time></trkpt><trkpt lat="43.88777006081402" lon="11.113951626064173"><ele>132.66666666666666</ele><time>2026-05-01T14:37:44Z</time></trkpt><trkpt lat="43.88776905494039" lon="11.113793783727154"><ele>130.33333333333334</ele><time>2026-05-01T14:37:46Z</time></trkpt><trkpt lat="43.88772326495344" lon="11.11369513141179"><ele>128.0</ele><time>2026-05-01T14:37:47Z</time></trkpt><trkpt lat="43.88765020569625" lon="11.113620958543937"><ele>125.66666666666667</ele><time>2026-05-01T14:37:48Z</time></trkpt><trkpt lat="43.88758140059427" lon="11.113549972464673"><ele>123.33333333333334</ele><time>2026-05-01T14:37:49Z</time></trkpt><trkpt lat="43.88753552229264" lon="11.113486687800988"><ele>121.0</ele><time>2026-05-01T14:37:50Z</time></trkpt><trkpt lat="43.88747993277179" lon="11.113339461559203"><ele>121.00000000000001</ele><time>2026-05-01T14:37:52Z</time></trkpt><trkpt lat="43.88744721672331" lon="11.113251268858413"><ele>121.0</ele><time>2026-05-01T14:37:53Z</time></trkpt><trkpt lat="43.88741194894508" lon="11.113153920112415"><ele>121.0</ele><time>2026-05-01T14:37:54Z</time></trkpt><trkpt lat="43.887378020880156" lon="11.113049571671743"><ele>121.0</ele><time>2026-05-01T14:37:55Z</time></trkpt><trkpt lat="43.887347438722074" lon="11.112939419295923"><ele>121.00000000000001</ele><time>2026-05-01T14:37:56Z</time></trkpt><trkpt lat="43.887319444290405" lon="11.112838587604534"><ele>121.0</ele><time>2026-05-01T14:37:57Z</time></trkpt><trkpt lat="43.88727958754618" lon="11.112735588896108"><ele>118.4</ele><time>2026-05-01T14:37:59Z</time></trkpt><trkpt lat="43.887232720438206" lon="11.112597233915636"><ele>115.8</ele><time>2026-05-01T14:38:01Z</time></trkpt><trkpt lat="43.88712644943816" lon="11.112483325615646"><ele>113.20000000000002</ele><time>2026-05-01T14:38:03Z</time></trkpt><trkpt lat="43.88705576493852" lon="11.112430887965473"><ele>110.60000000000001</ele><time>2026-05-01T14:38:04Z</time></trkpt><trkpt lat="43.886977581079016" lon="11.112385060678067"><ele>108.0</ele><time>2026-05-01T14:38:05Z</time></trkpt><trkpt lat="43.886908000669536" lon="11.11234837858862"><ele>106.33333333333333</ele><time>2026-05-01T14:38:06Z</time></trkpt><trkpt lat="43.88683664977674" lon="11.112314616834551"><ele>104.66666666666666</ele><time>2026-05-01T14:38:07Z</time></trkpt><trkpt lat="43.88676173147279" lon="11.11228398207142"><ele>103.0</ele><time>2026-05-01T14:38:08Z</time></trkpt><trkpt lat="43.886682021204294" lon="11.112256846636274"><ele>101.33333333333333</ele><time>2026-05-01T14:38:09Z</time></trkpt><trkpt lat="43.886597492278526" lon="11.11223973540575"><ele>99.66666666666666</ele><time>2026-05-01T14:38:10Z</time></trkpt><trkpt lat="43.88651206413984" lon="11.112230824026584"><ele>98.0</ele><time>2026-05-01T14:38:11Z</time></trkpt><trkpt lat="43.88642706911365" lon="11.112227839685486"><ele>97.99999999999999</ele><time>2026-05-01T14:38:12Z</time></trkpt><trkpt lat="43.88634086995544" lon="11.112226392309752"><ele>98.0</ele><time>2026-05-01T14:38:13Z</time></trkpt><trkpt lat="43.88625689520615" lon="11.112224982287511"><ele>98.0</ele><time>2026-05-01T14:38:14Z</time></trkpt><trkpt lat="43.88617289504656" lon="11.112223571837982"><ele>98.0</ele><time>2026-05-01T14:38:15Z</time></trkpt><trkpt lat="43.88609098737872" lon="11.112222196517063"><ele>97.99999999999999</ele><time>2026-05-01T14:38:16Z</time></trkpt><trkpt lat="43.886010098978765" lon="11.11222083831581"><ele>98.0</ele><time>2026-05-01T14:38:17Z</time></trkpt><trkpt lat="43.885943992514775" lon="11.112219907549168"><ele>98.2</ele><time>2026-05-01T14:38:18Z</time></trkpt><trkpt lat="43.885857476272434" lon="11.112218728368601"><ele>98.4</ele><time>2026-05-01T14:38:20Z</time></trkpt><trkpt lat="43.88584414998829" lon="11.112408333731468"><ele>98.60000000000001</ele><time>2026-05-01T14:38:26Z</time></trkpt><trkpt lat="43.885920103403656" lon="11.112522134537544"><ele>98.80000000000001</ele><time>2026-05-01T14:38:28Z</time></trkpt><trkpt lat="43.88596383891246" lon="11.11262033360256"><ele>99.0</ele><time>2026-05-01T14:38:30Z</time></trkpt><trkpt lat="43.88606431398294" lon="11.112648232819527"><ele>101.0</ele><time>2026-05-01T14:38:32Z</time></trkpt><trkpt lat="43.88613595429006" lon="11.112650890995038"><ele>103.0</ele><time>2026-05-01T14:38:33Z</time></trkpt><trkpt lat="43.88622542092685" lon="11.112667265497816"><ele>105.0</ele><time>2026-05-01T14:38:34Z</time></trkpt><trkpt lat="43.886315176584134" lon="11.112700603010401"><ele>107.0</ele><time>2026-05-01T14:38:35Z</time></trkpt><trkpt lat="43.8863783471141" lon="11.112730889374225"><ele>109.0</ele><time>2026-05-01T14:38:36Z</time></trkpt><trkpt lat="43.88647043066861" lon="11.112777603528139"><ele>111.0</ele><time>2026-05-01T14:38:37Z</time></trkpt><trkpt lat="43.88657074937037" lon="11.112818960629962"><ele>111.0</ele><time>2026-05-01T14:38:38Z</time></trkpt><trkpt lat="43.886637267159664" lon="11.112846551369357"><ele>111.0</ele><time>2026-05-01T14:38:39Z</time></trkpt><trkpt lat="43.88672356347945" lon="11.112986620157601"><ele>111.0</ele><time>2026-05-01T14:38:41Z</time></trkpt><trkpt lat="43.886755498381426" lon="11.113089373906295"><ele>111.0</ele><time>2026-05-01T14:38:42Z</time></trkpt><trkpt lat="43.88678137744154" lon="11.113200883676203"><ele>111.0</ele><time>2026-05-01T14:38:43Z</time></trkpt><trkpt lat="43.88679653398042" lon="11.113335067112674"><ele>113.0</ele><time>2026-05-01T14:38:44Z</time></trkpt><trkpt lat="43.88681272095931" lon="11.113496095398839"><ele>115.0</ele><time>2026-05-01T14:38:45Z</time></trkpt><trkpt lat="43.88681631568565" lon="11.113677924383673"><ele>117.0</ele><time>2026-05-01T14:38:46Z</time></trkpt><trkpt lat="43.88682945596853" lon="11.113824000894496"><ele>119.0</ele><time>2026-05-01T14:38:47Z</time></trkpt><trkpt lat="43.88684466333879" lon="11.113949829408151"><ele>121.0</ele><time>2026-05-01T14:38:48Z</time></trkpt><trkpt lat="43.88686135923492" lon="11.114056977942294"><ele>123.33333333333334</ele><time>2026-05-01T14:38:49Z</time></trkpt><trkpt lat="43.886881571497845" lon="11.114158436178377"><ele>125.66666666666667</ele><time>2026-05-01T14:38:50Z</time></trkpt><trkpt lat="43.88691246941653" lon="11.114242050469091"><ele>128.0</ele><time>2026-05-01T14:38:51Z</time></trkpt><trkpt lat="43.88696008954455" lon="11.11430565562286"><ele>130.33333333333334</ele><time>2026-05-01T14:38:52Z</time></trkpt><trkpt lat="43.88702844276215" lon="11.11436442418702"><ele>132.66666666666666</ele><time>2026-05-01T14:38:53Z</time></trkpt><trkpt lat="43.887118828522155" lon="11.114436585278904"><ele>135.0</ele><time>2026-05-01T14:38:54Z</time></trkpt><trkpt lat="43.88722836073626" lon="11.114478056519104"><ele>135.0</ele><time>2026-05-01T14:38:55Z</time></trkpt><trkpt lat="43.88736151331349" lon="11.114509830674445"><ele>135.0</ele><time>2026-05-01T14:38:56Z</time></trkpt><trkpt lat="43.887457842782794" lon="11.114537737854699"><ele>135.0</ele><time>2026-05-01T14:38:57Z</time></trkpt><trkpt lat="43.88752381455551" lon="11.114553798009961"><ele>135.0</ele><time>2026-05-01T14:38:58Z</time></trkpt><trkpt lat="43.887603531977945" lon="11.114608707440542"><ele>135.0</ele><time>2026-05-01T14:39:00Z</time></trkpt><trkpt lat="43.88764846335963" lon="11.114735439696833"><ele>135.0</ele><time>2026-05-01T14:39:02Z</time></trkpt><trkpt lat="43.887653049646815" lon="11.114827567902248"><ele>135.0</ele><time>2026-05-01T14:39:03Z</time></trkpt><trkpt lat="43.88773340789083" lon="11.11494448323819"><ele>135.0</ele><time>2026-05-01T14:39:05Z</time></trkpt><trkpt lat="43.88778996148268" lon="11.114992454991945"><ele>135.0</ele><time>2026-05-01T14:39:06Z</time></trkpt><trkpt lat="43.887873376621215" lon="11.11509596669051"><ele>135.0</ele><time>2026-05-01T14:39:08Z</time></trkpt><trkpt lat="43.88765905473369" lon="11.115191175847846"><ele>140.25</ele><time>2026-05-01T14:39:22Z</time></trkpt><trkpt lat="43.88763616545913" lon="11.115352471890608"><ele>145.5</ele><time>2026-05-01T14:39:24Z</time></trkpt><trkpt lat="43.88771791550702" lon="11.1153960989721"><ele>150.75</ele><time>2026-05-01T14:39:25Z</time></trkpt><trkpt lat="43.88783157944298" lon="11.115391074832056"><ele>156.0</ele><time>2026-05-01T14:39:27Z</time></trkpt><trkpt lat="43.887968621978914" lon="11.115449320688034"><ele>156.0</ele><time>2026-05-01T14:39:29Z</time></trkpt><trkpt lat="43.88806599139485" lon="11.115495779993916"><ele>156.0</ele><time>2026-05-01T14:39:30Z</time></trkpt><trkpt lat="43.88817068050763" lon="11.115556285315115"><ele>156.0</ele><time>2026-05-01T14:39:31Z</time></trkpt><trkpt lat="43.888327963117455" lon="11.115666521953882"><ele>156.0</ele><time>2026-05-01T14:39:32Z</time></trkpt><trkpt lat="43.8884782696982" lon="11.115759425136671"><ele>162.16666666666666</ele><time>2026-05-01T14:39:33Z</time></trkpt><trkpt lat="43.88857448447452" lon="11.115837183232737"><ele>168.33333333333331</ele><time>2026-05-01T14:39:34Z</time></trkpt><trkpt lat="43.88865147297227" lon="11.11587395614916"><ele>174.5</ele><time>2026-05-01T14:39:35Z</time></trkpt><trkpt lat="43.88871752895414" lon="11.115894937559794"><ele>180.66666666666666</ele><time>2026-05-01T14:39:36Z</time></trkpt><trkpt lat="43.88880737079351" lon="11.115915765988778"><ele>186.83333333333331</ele><time>2026-05-01T14:39:37Z</time></trkpt><trkpt lat="43.88888091049036" lon="11.115914116224898"><ele>193.0</ele><time>2026-05-01T14:39:38Z</time></trkpt><trkpt lat="43.888949645131554" lon="11.115933237059453"><ele>193.0</ele><time>2026-05-01T14:39:39Z</time></trkpt><trkpt lat="43.889014566653955" lon="11.115963826042858"><ele>193.0</ele><time>2026-05-01T14:39:40Z</time></trkpt><trkpt lat="43.88907850856864" lon="11.116024608169106"><ele>193.0</ele><time>2026-05-01T14:39:41Z</time></trkpt><trkpt lat="43.8891556045993" lon="11.116109238846049"><ele>193.0</ele><time>2026-05-01T14:39:42Z</time></trkpt><trkpt lat="43.88923921498097" lon="11.116189677729711"><ele>193.0</ele><time>2026-05-01T14:39:43Z</time></trkpt><trkpt lat="43.88932258222424" lon="11.116287187787016"><ele>192.0</ele><time>2026-05-01T14:39:44Z</time></trkpt><trkpt lat="43.889435638050166" lon="11.11636840814442"><ele>191.0</ele><time>2026-05-01T14:39:45Z</time></trkpt><trkpt lat="43.88957776908462" lon="11.116457641298867"><ele>190.0</ele><time>2026-05-01T14:39:46Z</time></trkpt><trkpt lat="43.8896897601558" lon="11.116535191091195"><ele>189.0</ele><time>2026-05-01T14:39:47Z</time></trkpt><trkpt lat="43.88975762595245" lon="11.11657673550543"><ele>192.6</ele><time>2026-05-01T14:39:48Z</time></trkpt><trkpt lat="43.88983261090509" lon="11.116656808981853"><ele>196.2</ele><time>2026-05-01T14:39:50Z</time></trkpt><trkpt lat="43.88972786164529" lon="11.116737585186756"><ele>199.79999999999998</ele><time>2026-05-01T14:39:53Z</time></trkpt><trkpt lat="43.88967028276553" lon="11.11677707790176"><ele>203.39999999999998</ele><time>2026-05-01T14:39:54Z</time></trkpt><trkpt lat="43.889588176743075" lon="11.116820581912897"><ele>207.0</ele><time>2026-05-01T14:39:56Z</time></trkpt><trkpt lat="43.88949703117475" lon="11.11684663466246"><ele>207.00000000000003</ele><time>2026-05-01T14:39:57Z</time></trkpt><trkpt lat="43.88942700912319" lon="11.116886730839965"><ele>207.0</ele><time>2026-05-01T14:39:58Z</time></trkpt><trkpt lat="43.88937572651226" lon="11.11694684645294"><ele>207.0</ele><time>2026-05-01T14:39:59Z</time></trkpt><trkpt lat="43.8893227954489" lon="11.117001900513332"><ele>207.0</ele><time>2026-05-01T14:40:00Z</time></trkpt><trkpt lat="43.88928032494037" lon="11.1170754833309"><ele>207.0</ele><time>2026-05-01T14:40:01Z</time></trkpt><trkpt lat="43.88922697069693" lon="11.11714438545746"><ele>207.00000000000003</ele><time>2026-05-01T14:40:02Z</time></trkpt><trkpt lat="43.8891823484523" lon="11.1172164960965"><ele>207.0</ele><time>2026-05-01T14:40:03Z</time></trkpt><trkpt lat="43.88913162876422" lon="11.117292257127895"><ele>208.16666666666666</ele><time>2026-05-01T14:40:04Z</time></trkpt><trkpt lat="43.889070310546096" lon="11.117354064274114"><ele>209.33333333333331</ele><time>2026-05-01T14:40:05Z</time></trkpt><trkpt lat="43.88900899555702" lon="11.117420043481326"><ele>210.5</ele><time>2026-05-01T14:40:06Z</time></trkpt><trkpt lat="43.88893308180263" lon="11.117460821480142"><ele>211.66666666666666</ele><time>2026-05-01T14:40:07Z</time></trkpt><trkpt lat="43.88886544008204" lon="11.117484538979268"><ele>212.83333333333331</ele><time>2026-05-01T14:40:08Z</time></trkpt><trkpt lat="43.888793471946684" lon="11.11752643898551"><ele>214.0</ele><time>2026-05-01T14:40:09Z</time></trkpt><trkpt lat="43.888726743840515" lon="11.11757809889548"><ele>218.6</ele><time>2026-05-01T14:40:10Z</time></trkpt><trkpt lat="43.88864580197418" lon="11.117610817176763"><ele>223.2</ele><time>2026-05-01T14:40:11Z</time></trkpt><trkpt lat="43.88856172075264" lon="11.11763441229352"><ele>227.79999999999998</ele><time>2026-05-01T14:40:12Z</time></trkpt><trkpt lat="43.88849828211645" lon="11.117658996087565"><ele>232.39999999999998</ele><time>2026-05-01T14:40:13Z</time></trkpt><trkpt lat="43.88841614272418" lon="11.117755892321778"><ele>237.0</ele><time>2026-05-01T14:40:15Z</time></trkpt><trkpt lat="43.88848735625481" lon="11.11791128807564"><ele>237.0</ele><time>2026-05-01T14:40:17Z</time></trkpt><trkpt lat="43.88858751515855" lon="11.118013468528902"><ele>237.0</ele><time>2026-05-01T14:40:19Z</time></trkpt><trkpt lat="43.88864081416929" lon="11.118064921217133"><ele>237.0</ele><time>2026-05-01T14:40:20Z</time></trkpt><trkpt lat="43.88873296891493" lon="11.118168281308836"><ele>237.0</ele><time>2026-05-01T14:40:22Z</time></trkpt><trkpt lat="43.88871554143459" lon="11.118298096330077"><ele>237.0</ele><time>2026-05-01T14:40:24Z</time></trkpt><trkpt lat="43.8886554713964" lon="11.118348095432754"><ele>241.0</ele><time>2026-05-01T14:40:25Z</time></trkpt><trkpt lat="43.88851710151367" lon="11.118372233017809"><ele>245.0</ele><time>2026-05-01T14:40:27Z</time></trkpt><trkpt lat="43.88844942356675" lon="11.11840944341004"><ele>249.0</ele><time>2026-05-01T14:40:28Z</time></trkpt><trkpt lat="43.88838180487821" lon="11.118448268691528"><ele>253.0</ele><time>2026-05-01T14:40:29Z</time></trkpt><trkpt lat="43.88828192442368" lon="11.118506464750526"><ele>257.0</ele><time>2026-05-01T14:40:31Z</time></trkpt><trkpt lat="43.88817447543061" lon="11.118563745722652"><ele>258.8</ele><time>2026-05-01T14:40:33Z</time></trkpt><trkpt lat="43.88813521833999" lon="11.118711422865836"><ele>260.6</ele><time>2026-05-01T14:40:35Z</time></trkpt><trkpt lat="43.88820039538035" lon="11.11880467117986"><ele>262.40000000000003</ele><time>2026-05-01T14:40:36Z</time></trkpt><trkpt lat="43.88825947133171" lon="11.118854273392625"><ele>264.2</ele><time>2026-05-01T14:40:37Z</time></trkpt><trkpt lat="43.88836493336613" lon="11.118943527262612"><ele>266.0</ele><time>2026-05-01T14:40:39Z</time></trkpt><trkpt lat="43.8884177825771" lon="11.118999035558273"><ele>268.2</ele><time>2026-05-01T14:40:40Z</time></trkpt><trkpt lat="43.88851543889443" lon="11.119111596348745"><ele>270.40000000000003</ele><time>2026-05-01T14:40:42Z</time></trkpt><trkpt lat="43.8885705271282" lon="11.119158804432445"><ele>272.6</ele><time>2026-05-01T14:40:43Z</time></trkpt><trkpt lat="43.888659751215926" lon="11.119270890217111"><ele>274.8</ele><time>2026-05-01T14:40:45Z</time></trkpt><trkpt lat="43.88875380360099" lon="11.119362825785489"><ele>277.0</ele><time>2026-05-01T14:40:47Z</time></trkpt><trkpt lat="43.88880310417165" lon="11.119494712461586"><ele>277.0</ele><time>2026-05-01T14:40:49Z</time></trkpt><trkpt lat="43.88872326437028" lon="11.119592592395446"><ele>277.0</ele><time>2026-05-01T14:40:51Z</time></trkpt><trkpt lat="43.88865438863032" lon="11.119551108096285"><ele>277.0</ele><time>2026-05-01T14:40:52Z</time></trkpt><trkpt lat="43.88857953069385" lon="11.119564568863366"><ele>277.0</ele><time>2026-05-01T14:40:53Z</time></trkpt><trkpt lat="43.88851402010223" lon="11.11955242930952"><ele>277.0</ele><time>2026-05-01T14:40:54Z</time></trkpt><trkpt lat="43.88839715614369" lon="11.119563160699023"><ele>277.0</ele><time>2026-05-01T14:40:56Z</time></trkpt><trkpt lat="43.888312329662895" lon="11.119611487315803"><ele>278.4</ele><time>2026-05-01T14:40:58Z</time></trkpt><trkpt lat="43.88824499647937" lon="11.119719838026803"><ele>279.79999999999995</ele><time>2026-05-01T14:41:00Z</time></trkpt><trkpt lat="43.88834218038028" lon="11.119868338501037"><ele>281.2</ele><time>2026-05-01T14:41:02Z</time></trkpt><trkpt lat="43.8884115831956" lon="11.119908706876352"><ele>282.59999999999997</ele><time>2026-05-01T14:41:03Z</time></trkpt><trkpt lat="43.888474963785114" lon="11.119949074590293"><ele>284.0</ele><time>2026-05-01T14:41:04Z</time></trkpt><trkpt lat="43.8885993782172" lon="11.120007352605011"><ele>285.59999999999997</ele><time>2026-05-01T14:41:06Z</time></trkpt><trkpt lat="43.88867031808039" lon="11.120049566558157"><ele>287.2</ele><time>2026-05-01T14:41:07Z</time></trkpt><trkpt lat="43.88874039628758" lon="11.120124473479116"><ele>288.79999999999995</ele><time>2026-05-01T14:41:08Z</time></trkpt><trkpt lat="43.88882471434573" lon="11.120248995744289"><ele>290.4</ele><time>2026-05-01T14:41:10Z</time></trkpt><trkpt lat="43.888857722876814" lon="11.120330743781668"><ele>292.0</ele><time>2026-05-01T14:41:11Z</time></trkpt><trkpt lat="43.88891356175284" lon="11.120478788471438"><ele>292.0</ele><time>2026-05-01T14:41:13Z</time></trkpt><trkpt lat="43.88894627970418" lon="11.120557630307086"><ele>292.0</ele><time>2026-05-01T14:41:14Z</time></trkpt><trkpt lat="43.88895137218984" lon="11.120646810847344"><ele>292.0</ele><time>2026-05-01T14:41:15Z</time></trkpt><trkpt lat="43.88895272567762" lon="11.120825737616913"><ele>292.0</ele><time>2026-05-01T14:41:17Z</time></trkpt><trkpt lat="43.888949295936044" lon="11.120913368260753"><ele>292.0</ele><time>2026-05-01T14:41:18Z</time></trkpt><trkpt lat="43.88895035856809" lon="11.121012285464008"><ele>292.0</ele><time>2026-05-01T14:41:19Z</time></trkpt><trkpt lat="43.88889887523966" lon="11.121176492591863"><ele>293.5</ele><time>2026-05-01T14:41:21Z</time></trkpt><trkpt lat="43.888884502106336" lon="11.121276594856761"><ele>295.0</ele><time>2026-05-01T14:41:22Z</time></trkpt><trkpt lat="43.88880933038267" lon="11.121414761934027"><ele>296.5</ele><time>2026-05-01T14:41:24Z</time></trkpt><trkpt lat="43.88875351619867" lon="11.121464149044176"><ele>298.0</ele><time>2026-05-01T14:41:25Z</time></trkpt><trkpt lat="43.88868944496584" lon="11.121502233785515"><ele>299.5</ele><time>2026-05-01T14:41:26Z</time></trkpt><trkpt lat="43.888585383995895" lon="11.121467921040555"><ele>301.0</ele><time>2026-05-01T14:41:28Z</time></trkpt><trkpt lat="43.88851812834281" lon="11.1214548733653"><ele>303.8</ele><time>2026-05-01T14:41:29Z</time></trkpt><trkpt lat="43.888403809311086" lon="11.121463592491757"><ele>306.6</ele><time>2026-05-01T14:41:31Z</time></trkpt><trkpt lat="43.8883406168543" lon="11.121457631256341"><ele>309.4</ele><time>2026-05-01T14:41:32Z</time></trkpt><trkpt lat="43.88822704790632" lon="11.12154417314449"><ele>312.2</ele><time>2026-05-01T14:41:34Z</time></trkpt><trkpt lat="43.88819804378008" lon="11.121665670940411"><ele>315.0</ele><time>2026-05-01T14:41:35Z</time></trkpt><trkpt lat="43.88816815651043" lon="11.121767928531934"><ele>315.1666666666667</ele><time>2026-05-01T14:41:36Z</time></trkpt><trkpt lat="43.888140236790996" lon="11.121880465780135"><ele>315.3333333333333</ele><time>2026-05-01T14:41:37Z</time></trkpt><trkpt lat="43.88813691799238" lon="11.122007410455765"><ele>315.5</ele><time>2026-05-01T14:41:38Z</time></trkpt><trkpt lat="43.88811503376765" lon="11.122112754024378"><ele>315.66666666666663</ele><time>2026-05-01T14:41:39Z</time></trkpt><trkpt lat="43.888117559230636" lon="11.122222011727493"><ele>315.8333333333333</ele><time>2026-05-01T14:41:40Z</time></trkpt><trkpt lat="43.88810565843306" lon="11.122318678737667"><ele>316.0</ele><time>2026-05-01T14:41:41Z</time></trkpt><trkpt lat="43.88811006799757" lon="11.122443050639356"><ele>316.0</ele><time>2026-05-01T14:41:42Z</time></trkpt><trkpt lat="43.888109200730554" lon="11.122533714219202"><ele>316.0</ele><time>2026-05-01T14:41:43Z</time></trkpt><trkpt lat="43.88808952702439" lon="11.122634216143789"><ele>316.0</ele><time>2026-05-01T14:41:44Z</time></trkpt><trkpt lat="43.88806059675041" lon="11.122718977437104"><ele>316.0</ele><time>2026-05-01T14:41:45Z</time></trkpt><trkpt lat="43.88802608432719" lon="11.122816534072845"><ele>316.0</ele><time>2026-05-01T14:41:46Z</time></trkpt><trkpt lat="43.887982444610586" lon="11.122924788703854"><ele>316.0</ele><time>2026-05-01T14:41:47Z</time></trkpt><trkpt lat="43.88792356796454" lon="11.123072843325069"><ele>316.0</ele><time>2026-05-01T14:41:48Z</time></trkpt><trkpt lat="43.887885059908974" lon="11.123223664681044"><ele>316.0</ele><time>2026-05-01T14:41:49Z</time></trkpt><trkpt lat="43.88785254129915" lon="11.123298588276098"><ele>316.0</ele><time>2026-05-01T14:41:50Z</time></trkpt><trkpt lat="43.887812599374996" lon="11.12345715830331"><ele>316.0</ele><time>2026-05-01T14:41:52Z</time></trkpt><trkpt lat="43.887757224594885" lon="11.123582543732075"><ele>316.0</ele><time>2026-05-01T14:41:54Z</time></trkpt><trkpt lat="43.8877416517235" lon="11.1236978749301"><ele>316.40000000000003</ele><time>2026-05-01T14:41:56Z</time></trkpt><trkpt lat="43.88770921589289" lon="11.123788495997726"><ele>316.8</ele><time>2026-05-01T14:41:59Z</time></trkpt><trkpt lat="43.88764341901771" lon="11.123927012231869"><ele>317.20000000000005</ele><time>2026-05-01T14:42:01Z</time></trkpt><trkpt lat="43.88761009134562" lon="11.124019549702986"><ele>317.6</ele><time>2026-05-01T14:42:03Z</time></trkpt><trkpt lat="43.88755773053615" lon="11.124153851388723"><ele>318.0</ele><time>2026-05-01T14:42:05Z</time></trkpt><trkpt lat="43.88752358598884" lon="11.124275103261505"><ele>321.5</ele><time>2026-05-01T14:42:07Z</time></trkpt><trkpt lat="43.8874816448692" lon="11.124344882582896"><ele>325.0</ele><time>2026-05-01T14:42:08Z</time></trkpt><trkpt lat="43.88743873025598" lon="11.124412181038185"><ele>328.5</ele><time>2026-05-01T14:42:10Z</time></trkpt><trkpt lat="43.88736967325929" lon="11.124483844733518"><ele>332.0</ele><time>2026-05-01T14:44:01Z</time></trkpt><trkpt lat="43.8873145442945" lon="11.124367247266548"><ele>335.5</ele><time>2026-05-01T14:44:03Z</time></trkpt><trkpt lat="43.88721250997225" lon="11.124350639904668"><ele>339.0</ele><time>2026-05-01T14:44:06Z</time></trkpt><trkpt lat="43.88713952008965" lon="11.124332203462023"><ele>339.0</ele><time>2026-05-01T14:44:07Z</time></trkpt><trkpt lat="43.88703432716308" lon="11.124357227323209"><ele>339.0</ele><time>2026-05-01T14:44:08Z</time></trkpt><trkpt lat="43.88695013281928" lon="11.124382380328733"><ele>339.0</ele><time>2026-05-01T14:44:09Z</time></trkpt><trkpt lat="43.88686538614457" lon="11.124463517510165"><ele>339.0</ele><time>2026-05-01T14:44:10Z</time></trkpt><trkpt lat="43.886774161806514" lon="11.124546578495773"><ele>339.0</ele><time>2026-05-01T14:44:11Z</time></trkpt><trkpt lat="43.886709319656255" lon="11.124615849586874"><ele>340.4</ele><time>2026-05-01T14:44:12Z</time></trkpt><trkpt lat="43.88662921985696" lon="11.124701551749322"><ele>341.79999999999995</ele><time>2026-05-01T14:44:13Z</time></trkpt><trkpt lat="43.8865644482834" lon="11.124768800433229"><ele>343.20000000000005</ele><time>2026-05-01T14:44:14Z</time></trkpt><trkpt lat="43.88648560417161" lon="11.124836685375296"><ele>344.6</ele><time>2026-05-01T14:44:15Z</time></trkpt><trkpt lat="43.88638826453042" lon="11.12490795832026"><ele>346.0</ele><time>2026-05-01T14:44:16Z</time></trkpt><trkpt lat="43.886296262090674" lon="11.125023187196607"><ele>348.16666666666663</ele><time>2026-05-01T14:44:17Z</time></trkpt><trkpt lat="43.886236723020666" lon="11.12507157110638"><ele>350.3333333333333</ele><time>2026-05-01T14:44:18Z</time></trkpt><trkpt lat="43.88624842385099" lon="11.125169226574561"><ele>352.5</ele><time>2026-05-01T14:44:20Z</time></trkpt><trkpt lat="43.88630905426186" lon="11.125205645899488"><ele>354.6666666666667</ele><time>2026-05-01T14:44:21Z</time></trkpt><trkpt lat="43.886391973271564" lon="11.125217966852796"><ele>356.83333333333337</ele><time>2026-05-01T14:44:22Z</time></trkpt><trkpt lat="43.886475681060844" lon="11.125251649771698"><ele>359.0</ele><time>2026-05-01T14:44:23Z</time></trkpt><trkpt lat="43.886569530187735" lon="11.125357227896867"><ele>359.0</ele><time>2026-05-01T14:44:24Z</time></trkpt><trkpt lat="43.886654866147396" lon="11.125503592289414"><ele>359.0</ele><time>2026-05-01T14:44:25Z</time></trkpt><trkpt lat="43.886732508918946" lon="11.125661226546697"><ele>359.0</ele><time>2026-05-01T14:44:26Z</time></trkpt><trkpt lat="43.886806166385796" lon="11.125855027906091"><ele>359.0</ele><time>2026-05-01T14:44:27Z</time></trkpt><trkpt lat="43.88686041649939" lon="11.1259798193759"><ele>358.6</ele><time>2026-05-01T14:44:28Z</time></trkpt><trkpt lat="43.88685832961033" lon="11.126078656886984"><ele>358.2</ele><time>2026-05-01T14:44:30Z</time></trkpt><trkpt lat="43.88675486704378" lon="11.126162539375239"><ele>357.8</ele><time>2026-05-01T14:44:32Z</time></trkpt><trkpt lat="43.88664913887045" lon="11.126175420843575"><ele>357.40000000000003</ele><time>2026-05-01T14:44:33Z</time></trkpt><trkpt lat="43.88651101936429" lon="11.126190061546467"><ele>357.0</ele><time>2026-05-01T14:44:34Z</time></trkpt><trkpt lat="43.88635699169934" lon="11.126206265674805"><ele>361.75</ele><time>2026-05-01T14:44:35Z</time></trkpt><trkpt lat="43.886196279573376" lon="11.126241210407077"><ele>366.5</ele><time>2026-05-01T14:44:36Z</time></trkpt><trkpt lat="43.886057579634105" lon="11.12627628814298"><ele>371.25</ele><time>2026-05-01T14:44:37Z</time></trkpt><trkpt lat="43.885943573880056" lon="11.126319145875218"><ele>376.0</ele><time>2026-05-01T14:44:38Z</time></trkpt><trkpt lat="43.88587805241759" lon="11.12628535264455"><ele>376.0</ele><time>2026-05-01T14:44:39Z</time></trkpt><trkpt lat="43.88584457165657" lon="11.126428096125935"><ele>376.0</ele><time>2026-05-01T14:44:42Z</time></trkpt><trkpt lat="43.88593222219736" lon="11.126474390643368"><ele>376.0</ele><time>2026-05-01T14:44:44Z</time></trkpt><trkpt lat="43.88602954223242" lon="11.1264948915389"><ele>376.0</ele><time>2026-05-01T14:44:45Z</time></trkpt><trkpt lat="43.88613790232788" lon="11.126569598878989"><ele>376.0</ele><time>2026-05-01T14:44:46Z</time></trkpt><trkpt lat="43.88624388273928" lon="11.126693782357988"><ele>380.5</ele><time>2026-05-01T14:44:47Z</time></trkpt><trkpt lat="43.88634378611261" lon="11.126835882969646"><ele>385.0</ele><time>2026-05-01T14:44:48Z</time></trkpt><trkpt lat="43.88642091500303" lon="11.12696776360014"><ele>389.5</ele><time>2026-05-01T14:44:49Z</time></trkpt><trkpt lat="43.8865063534974" lon="11.127058333879578"><ele>394.0</ele><time>2026-05-01T14:44:50Z</time></trkpt><trkpt lat="43.886595928118126" lon="11.127135915144766"><ele>394.0</ele><time>2026-05-01T14:44:51Z</time></trkpt><trkpt lat="43.886653002787575" lon="11.127205418040452"><ele>394.0</ele><time>2026-05-01T14:44:53Z</time></trkpt><trkpt lat="43.886588549621" lon="11.127319096697502"><ele>394.0</ele><time>2026-05-01T14:44:55Z</time></trkpt><trkpt lat="43.88652139842592" lon="11.127337968206085"><ele>394.0</ele><time>2026-05-01T14:44:56Z</time></trkpt><trkpt lat="43.88637862684862" lon="11.127444336913065"><ele>394.0</ele><time>2026-05-01T14:44:58Z</time></trkpt><trkpt lat="43.886288627742104" lon="11.12741290100466"><ele>394.0</ele><time>2026-05-01T14:44:59Z</time></trkpt><trkpt lat="43.886186539871524" lon="11.127395705355575"><ele>394.0</ele><time>2026-05-01T14:45:00Z</time></trkpt><trkpt lat="43.88609612867994" lon="11.127393498338087"><ele>394.0</ele><time>2026-05-01T14:45:01Z</time></trkpt><trkpt lat="43.885965756377466" lon="11.127459918956355"><ele>394.0</ele><time>2026-05-01T14:45:02Z</time></trkpt><trkpt lat="43.88591230680521" lon="11.127626800137213"><ele>397.2</ele><time>2026-05-01T14:45:03Z</time></trkpt><trkpt lat="43.88590997902657" lon="11.127779604074943"><ele>400.4</ele><time>2026-05-01T14:45:04Z</time></trkpt><trkpt lat="43.886015620462395" lon="11.12787863027252"><ele>403.6</ele><time>2026-05-01T14:45:06Z</time></trkpt><trkpt lat="43.88614063858423" lon="11.127852840770942"><ele>406.8</ele><time>2026-05-01T14:45:07Z</time></trkpt><trkpt lat="43.88621840828349" lon="11.127870840367198"><ele>410.0</ele><time>2026-05-01T14:45:08Z</time></trkpt><trkpt lat="43.886315215882604" lon="11.127922687515499"><ele>410.0</ele><time>2026-05-01T14:45:10Z</time></trkpt><trkpt lat="43.88620709438769" lon="11.128054616188743"><ele>410.0</ele><time>2026-05-01T14:45:11Z</time></trkpt><trkpt lat="43.886166599875125" lon="11.128199685427246"><ele>410.0</ele><time>2026-05-01T14:45:13Z</time></trkpt><trkpt lat="43.88606920553462" lon="11.128322979695815"><ele>410.0</ele><time>2026-05-01T14:45:14Z</time></trkpt><trkpt lat="43.88599567083849" lon="11.12855088087354"><ele>413.25</ele><time>2026-05-01T14:45:15Z</time></trkpt><trkpt lat="43.885945882567654" lon="11.128688615206801"><ele>416.5</ele><time>2026-05-01T14:45:16Z</time></trkpt><trkpt lat="43.88583758955164" lon="11.128821453634107"><ele>419.75</ele><time>2026-05-01T14:45:18Z</time></trkpt><trkpt lat="43.88572873984584" lon="11.128885445491802"><ele>423.0</ele><time>2026-05-01T14:45:19Z</time></trkpt><trkpt lat="43.88562823290892" lon="11.128964022936351"><ele>426.0</ele><time>2026-05-01T14:45:20Z</time></trkpt><trkpt lat="43.885508502721905" lon="11.129104037614818"><ele>429.0</ele><time>2026-05-01T14:45:21Z</time></trkpt><trkpt lat="43.885390428082815" lon="11.12922292358981"><ele>432.0</ele><time>2026-05-01T14:45:22Z</time></trkpt><trkpt lat="43.88529540032762" lon="11.12931018944495"><ele>435.0</ele><time>2026-05-01T14:45:23Z</time></trkpt><trkpt lat="43.885227687749804" lon="11.1294180948168"><ele>435.0</ele><time>2026-05-01T14:45:24Z</time></trkpt><trkpt lat="43.88515959328381" lon="11.12959554754142"><ele>435.0</ele><time>2026-05-01T14:45:25Z</time></trkpt><trkpt lat="43.885084518994404" lon="11.129727312028471"><ele>435.0</ele><time>2026-05-01T14:45:26Z</time></trkpt><trkpt lat="43.884974850272094" lon="11.129833508500424"><ele>435.0</ele><time>2026-05-01T14:45:27Z</time></trkpt><trkpt lat="43.88486041261491" lon="11.129926933752477"><ele>438.0</ele><time>2026-05-01T14:45:28Z</time></trkpt><trkpt lat="43.8847680163802" lon="11.12999230331095"><ele>441.0</ele><time>2026-05-01T14:45:29Z</time></trkpt><trkpt lat="43.88469758671326" lon="11.130048414350362"><ele>444.0</ele><time>2026-05-01T14:45:30Z</time></trkpt><trkpt lat="43.88462885590225" lon="11.130212188861462"><ele>447.0</ele><time>2026-05-01T14:45:32Z</time></trkpt><trkpt lat="43.88461037385416" lon="11.130354329367316"><ele>450.0</ele><time>2026-05-01T14:45:33Z</time></trkpt><trkpt lat="43.88460155272868" lon="11.130495151995627"><ele>450.0</ele><time>2026-05-01T14:45:34Z</time></trkpt><trkpt lat="43.88457038934949" lon="11.130612577775167"><ele>450.0</ele><time>2026-05-01T14:45:35Z</time></trkpt><trkpt lat="43.8845213221927" lon="11.130716219978067"><ele>450.0</ele><time>2026-05-01T14:45:36Z</time></trkpt><trkpt lat="43.88445879074464" lon="11.130823551420624"><ele>450.0</ele><time>2026-05-01T14:45:37Z</time></trkpt><trkpt lat="43.88441405163408" lon="11.130892099812213"><ele>450.0</ele><time>2026-05-01T14:45:38Z</time></trkpt><trkpt lat="43.88436768948255" lon="11.130983277384722"><ele>450.0</ele><time>2026-05-01T14:45:40Z</time></trkpt><trkpt lat="43.88432004210356" lon="11.131075381387868"><ele>451.3333333333333</ele><time>2026-05-01T14:45:56Z</time></trkpt><trkpt lat="43.88425669223377" lon="11.13103258188743"><ele>452.66666666666663</ele><time>2026-05-01T14:45:58Z</time></trkpt><trkpt lat="43.88418122394839" lon="11.131003425618907"><ele>454.0</ele><time>2026-05-01T14:45:59Z</time></trkpt><trkpt lat="43.884094920990066" lon="11.130990094166771"><ele>455.3333333333333</ele><time>2026-05-01T14:46:00Z</time></trkpt><trkpt lat="43.88399949499148" lon="11.130987336596595"><ele>456.66666666666663</ele><time>2026-05-01T14:46:01Z</time></trkpt><trkpt lat="43.88391631590257" lon="11.131000805112876"><ele>458.0</ele><time>2026-05-01T14:46:02Z</time></trkpt><trkpt lat="43.88382573746242" lon="11.131015957099214"><ele>457.99999999999994</ele><time>2026-05-01T14:46:03Z</time></trkpt><trkpt lat="43.883761027104995" lon="11.131047405092954"><ele>458.0</ele><time>2026-05-01T14:46:04Z</time></trkpt><trkpt lat="43.88369636422248" lon="11.131099987740434"><ele>458.0</ele><time>2026-05-01T14:46:05Z</time></trkpt><trkpt lat="43.88362652852297" lon="11.131175766831282"><ele>458.0</ele><time>2026-05-01T14:46:06Z</time></trkpt><trkpt lat="43.88353226114273" lon="11.131263601232952"><ele>457.99999999999994</ele><time>2026-05-01T14:46:07Z</time></trkpt><trkpt lat="43.88344770958162" lon="11.131332255884985"><ele>458.0</ele><time>2026-05-01T14:46:08Z</time></trkpt><trkpt lat="43.883369367790856" lon="11.13139640635373"><ele>457.49999999999994</ele><time>2026-05-01T14:46:09Z</time></trkpt><trkpt lat="43.883298079131656" lon="11.131453498309298"><ele>457.0</ele><time>2026-05-01T14:46:10Z</time></trkpt><trkpt lat="43.883222295215106" lon="11.131521042075457"><ele>456.5</ele><time>2026-05-01T14:46:11Z</time></trkpt><trkpt lat="43.883169291471226" lon="11.13156943150918"><ele>456.0</ele><time>2026-05-01T14:46:12Z</time></trkpt><trkpt lat="43.88310886407385" lon="11.131597501892317"><ele>455.49999999999994</ele><time>2026-05-01T14:46:13Z</time></trkpt><trkpt lat="43.88303763208996" lon="11.131633576159626"><ele>455.0</ele><time>2026-05-01T14:46:14Z</time></trkpt><trkpt lat="43.88296149481794" lon="11.131672993368362"><ele>457.2</ele><time>2026-05-01T14:46:15Z</time></trkpt><trkpt lat="43.8828901854529" lon="11.1317026399405"><ele>459.4</ele><time>2026-05-01T14:46:16Z</time></trkpt><trkpt lat="43.88282519577031" lon="11.131727670498588"><ele>461.6</ele><time>2026-05-01T14:46:17Z</time></trkpt><trkpt lat="43.88271439470732" lon="11.131782519198296"><ele>463.8</ele><time>2026-05-01T14:46:19Z</time></trkpt><trkpt lat="43.882618651738355" lon="11.131851978807607"><ele>466.0</ele><time>2026-05-01T14:46:21Z</time></trkpt><trkpt lat="43.88251494632694" lon="11.131863995545729"><ele>466.20000000000005</ele><time>2026-05-01T14:46:23Z</time></trkpt><trkpt lat="43.88239989695188" lon="11.131887770942749"><ele>466.40000000000003</ele><time>2026-05-01T14:46:25Z</time></trkpt><trkpt lat="43.88228271487697" lon="11.131912030876522"><ele>466.6</ele><time>2026-05-01T14:46:27Z</time></trkpt><trkpt lat="43.882185535749855" lon="11.131912370156895"><ele>466.8</ele><time>2026-05-01T14:46:29Z</time></trkpt><trkpt lat="43.882107276348364" lon="11.131879737580686"><ele>467.0</ele><time>2026-05-01T14:46:31Z</time></trkpt><trkpt lat="43.88203742326701" lon="11.131884532640532"><ele>467.0</ele><time>2026-05-01T14:46:34Z</time></trkpt><trkpt lat="43.88196985517428" lon="11.131884671685432"><ele>467.00000000000006</ele><time>2026-05-01T14:46:37Z</time></trkpt><trkpt lat="43.881825461592214" lon="11.131888383833335"><ele>467.00000000000006</ele><time>2026-05-01T14:46:40Z</time></trkpt><trkpt lat="43.88172925190353" lon="11.131791048832135"><ele>467.0</ele><time>2026-05-01T14:46:42Z</time></trkpt><trkpt lat="43.88166678454359" lon="11.131823849798236"><ele>467.0</ele><time>2026-05-01T14:46:44Z</time></trkpt><trkpt lat="43.88144166310347" lon="11.131975272628067"><ele>465.3333333333333</ele><time>2026-05-01T14:46:46Z</time></trkpt><trkpt lat="43.88137836370549" lon="11.132095119852995"><ele>463.66666666666663</ele><time>2026-05-01T14:46:48Z</time></trkpt><trkpt lat="43.88135721623238" lon="11.132217344786673"><ele>462.0</ele><time>2026-05-01T14:46:50Z</time></trkpt><trkpt lat="43.88133316965168" lon="11.132302210363106"><ele>460.33333333333337</ele><time>2026-05-01T14:46:51Z</time></trkpt><trkpt lat="43.88131415210256" lon="11.132432879041119"><ele>458.6666666666667</ele><time>2026-05-01T14:46:53Z</time></trkpt><trkpt lat="43.88125239992851" lon="11.132477429859454"><ele>457.0</ele><time>2026-05-01T14:46:55Z</time></trkpt><trkpt lat="43.88110608896217" lon="11.13238641755605"><ele>457.0</ele><time>2026-05-01T14:46:57Z</time></trkpt><trkpt lat="43.88102196956877" lon="11.1323550974843"><ele>457.00000000000006</ele><time>2026-05-01T14:46:58Z</time></trkpt><trkpt lat="43.88094164362843" lon="11.132336039335861"><ele>457.00000000000006</ele><time>2026-05-01T14:46:59Z</time></trkpt><trkpt lat="43.88086743975787" lon="11.132326909940105"><ele>457.0</ele><time>2026-05-01T14:47:00Z</time></trkpt><trkpt lat="43.88073400429422" lon="11.132337433710791"><ele>457.0</ele><time>2026-05-01T14:47:02Z</time></trkpt><trkpt lat="43.880662370361605" lon="11.132311449385776"><ele>454.83333333333337</ele><time>2026-05-01T14:47:03Z</time></trkpt><trkpt lat="43.88058390414333" lon="11.13225675623879"><ele>452.6666666666667</ele><time>2026-05-01T14:47:05Z</time></trkpt><trkpt lat="43.88056569925307" lon="11.13234127850824"><ele>450.5</ele><time>2026-05-01T14:47:08Z</time></trkpt><trkpt lat="43.88057339808896" lon="11.132437561472623"><ele>448.33333333333337</ele><time>2026-05-01T14:47:09Z</time></trkpt><trkpt lat="43.880583290610396" lon="11.132565062493684"><ele>446.1666666666667</ele><time>2026-05-01T14:47:10Z</time></trkpt><trkpt lat="43.880589640732694" lon="11.132739784744839"><ele>444.0</ele><time>2026-05-01T14:47:11Z</time></trkpt><trkpt lat="43.880587537310724" lon="11.13291931604873"><ele>443.0</ele><time>2026-05-01T14:47:12Z</time></trkpt><trkpt lat="43.88059124049107" lon="11.133074428490682"><ele>442.0</ele><time>2026-05-01T14:47:13Z</time></trkpt><trkpt lat="43.88059507111801" lon="11.133196862913813"><ele>441.0</ele><time>2026-05-01T14:47:14Z</time></trkpt><trkpt lat="43.880606576890905" lon="11.13329771760527"><ele>440.0</ele><time>2026-05-01T14:47:15Z</time></trkpt><trkpt lat="43.8806273726909" lon="11.133429298338099"><ele>439.0</ele><time>2026-05-01T14:47:17Z</time></trkpt><trkpt lat="43.88073148963295" lon="11.133530014652823"><ele>437.6</ele><time>2026-05-01T14:47:19Z</time></trkpt><trkpt lat="43.88078969415806" lon="11.133589719800744"><ele>436.2</ele><time>2026-05-01T14:47:20Z</time></trkpt><trkpt lat="43.880830017524225" lon="11.133764246954678"><ele>434.80000000000007</ele><time>2026-05-01T14:47:22Z</time></trkpt><trkpt lat="43.880774795043834" lon="11.133923549056012"><ele>433.40000000000003</ele><time>2026-05-01T14:47:24Z</time></trkpt><trkpt lat="43.88071425129679" lon="11.133996628468205"><ele>432.0</ele><time>2026-05-01T14:47:25Z</time></trkpt><trkpt lat="43.88063748515307" lon="11.134033525333567"><ele>432.0</ele><time>2026-05-01T14:47:26Z</time></trkpt><trkpt lat="43.880549083775215" lon="11.13403315872291"><ele>432.0</ele><time>2026-05-01T14:47:27Z</time></trkpt><trkpt lat="43.88043883335799" lon="11.133999736567887"><ele>432.0</ele><time>2026-05-01T14:47:28Z</time></trkpt><trkpt lat="43.880303021309814" lon="11.133938065878189"><ele>432.0</ele><time>2026-05-01T14:47:29Z</time></trkpt><trkpt lat="43.880163430263565" lon="11.133890539741664"><ele>429.5</ele><time>2026-05-01T14:47:30Z</time></trkpt><trkpt lat="43.88004728532306" lon="11.133862146822224"><ele>427.0</ele><time>2026-05-01T14:47:31Z</time></trkpt><trkpt lat="43.879932295723066" lon="11.133814872448713"><ele>424.5</ele><time>2026-05-01T14:47:32Z</time></trkpt><trkpt lat="43.879820353761865" lon="11.133783594999212"><ele>422.0</ele><time>2026-05-01T14:47:33Z</time></trkpt><trkpt lat="43.8797140344848" lon="11.13375378653368"><ele>422.0</ele><time>2026-05-01T14:47:34Z</time></trkpt><trkpt lat="43.87959608912048" lon="11.133713983577097"><ele>422.0</ele><time>2026-05-01T14:47:35Z</time></trkpt><trkpt lat="43.879494101555395" lon="11.133667312842494"><ele>422.0</ele><time>2026-05-01T14:47:36Z</time></trkpt><trkpt lat="43.87940105874431" lon="11.13363665713945"><ele>422.0</ele><time>2026-05-01T14:47:37Z</time></trkpt><trkpt lat="43.87931088857846" lon="11.133609829352325"><ele>422.0</ele><time>2026-05-01T14:47:38Z</time></trkpt><trkpt lat="43.8792243930678" lon="11.133556460671224"><ele>420.66666666666663</ele><time>2026-05-01T14:47:39Z</time></trkpt><trkpt lat="43.8791310731807" lon="11.133491799771246"><ele>419.3333333333333</ele><time>2026-05-01T14:47:40Z</time></trkpt><trkpt lat="43.87905131654506" lon="11.133448385747979"><ele>418.0</ele><time>2026-05-01T14:47:41Z</time></trkpt><trkpt lat="43.87897919750591" lon="11.133419783015258"><ele>416.66666666666663</ele><time>2026-05-01T14:47:42Z</time></trkpt><trkpt lat="43.87891597149561" lon="11.13339990710286"><ele>415.3333333333333</ele><time>2026-05-01T14:47:43Z</time></trkpt><trkpt lat="43.87880722779231" lon="11.133406612976593"><ele>414.0</ele><time>2026-05-01T14:47:45Z</time></trkpt><trkpt lat="43.878670888951746" lon="11.133426582046564"><ele>414.0</ele><time>2026-05-01T14:47:47Z</time></trkpt><trkpt lat="43.878584057990516" lon="11.133379391078163"><ele>414.0</ele><time>2026-05-01T14:47:48Z</time></trkpt><trkpt lat="43.87849463706603" lon="11.13330156623906"><ele>414.0</ele><time>2026-05-01T14:47:49Z</time></trkpt><trkpt lat="43.87838905531474" lon="11.133227640968594"><ele>414.0</ele><time>2026-05-01T14:47:50Z</time></trkpt><trkpt lat="43.878285639815886" lon="11.133144657309735"><ele>414.0</ele><time>2026-05-01T14:47:51Z</time></trkpt><trkpt lat="43.878194003833876" lon="11.133080291666667"><ele>412.0</ele><time>2026-05-01T14:47:52Z</time></trkpt><trkpt lat="43.87810970204728" lon="11.133019872149358"><ele>410.0</ele><time>2026-05-01T14:47:53Z</time></trkpt><trkpt lat="43.87803023947387" lon="11.13295194056584"><ele>408.0</ele><time>2026-05-01T14:47:54Z</time></trkpt><trkpt lat="43.87794406054291" lon="11.132891285580406"><ele>406.0</ele><time>2026-05-01T14:47:55Z</time></trkpt><trkpt lat="43.877859040736716" lon="11.132824874657576"><ele>404.0</ele><time>2026-05-01T14:47:56Z</time></trkpt><trkpt lat="43.877774415350586" lon="11.132750388264911"><ele>403.99999999999994</ele><time>2026-05-01T14:47:57Z</time></trkpt><trkpt lat="43.877690524811364" lon="11.132652848520179"><ele>404.0</ele><time>2026-05-01T14:47:58Z</time></trkpt><trkpt lat="43.877627937623984" lon="11.132563754214786"><ele>404.0</ele><time>2026-05-01T14:47:59Z</time></trkpt><trkpt lat="43.87756443443465" lon="11.132497150599193"><ele>404.0</ele><time>2026-05-01T14:48:00Z</time></trkpt><trkpt lat="43.877503396970845" lon="11.132426359639734"><ele>403.99999999999994</ele><time>2026-05-01T14:48:01Z</time></trkpt><trkpt lat="43.87744531703527" lon="11.132341617638502"><ele>404.0</ele><time>2026-05-01T14:48:02Z</time></trkpt><trkpt lat="43.877390743471054" lon="11.132245252165182"><ele>400.49999999999994</ele><time>2026-05-01T14:48:03Z</time></trkpt><trkpt lat="43.877337536637484" lon="11.132165284532958"><ele>397.0</ele><time>2026-05-01T14:48:04Z</time></trkpt><trkpt lat="43.87727424540407" lon="11.132088119646824"><ele>393.5</ele><time>2026-05-01T14:48:05Z</time></trkpt><trkpt lat="43.87721211630987" lon="11.132030158930025"><ele>390.0</ele><time>2026-05-01T14:48:06Z</time></trkpt><trkpt lat="43.877127805862926" lon="11.131958592098602"><ele>386.5</ele><time>2026-05-01T14:48:08Z</time></trkpt><trkpt lat="43.877051486506396" lon="11.13195050741984"><ele>383.0</ele><time>2026-05-01T14:48:11Z</time></trkpt><trkpt lat="43.87701037851491" lon="11.132018939074596"><ele>383.0</ele><time>2026-05-01T14:48:13Z</time></trkpt><trkpt lat="43.87698082687289" lon="11.132102149862458"><ele>383.0</ele><time>2026-05-01T14:48:15Z</time></trkpt><trkpt lat="43.87695807891702" lon="11.132293677820913"><ele>383.0</ele><time>2026-05-01T14:48:17Z</time></trkpt><trkpt lat="43.87691208060063" lon="11.132466416889333"><ele>383.0</ele><time>2026-05-01T14:48:18Z</time></trkpt><trkpt lat="43.876891882427536" lon="11.132618480779719"><ele>384.0</ele><time>2026-05-01T14:48:19Z</time></trkpt><trkpt lat="43.87688715680295" lon="11.132729771160156"><ele>385.0</ele><time>2026-05-01T14:48:20Z</time></trkpt><trkpt lat="43.87688324227694" lon="11.132881297010886"><ele>386.0</ele><time>2026-05-01T14:48:22Z</time></trkpt><trkpt lat="43.87679719372496" lon="11.133021210205234"><ele>387.0</ele><time>2026-05-01T14:48:24Z</time></trkpt><trkpt lat="43.876718485473376" lon="11.133107003988057"><ele>388.0</ele><time>2026-05-01T14:48:25Z</time></trkpt><trkpt lat="43.87662172626302" lon="11.13321058632674"><ele>385.0</ele><time>2026-05-01T14:48:26Z</time></trkpt><trkpt lat="43.8765245874143" lon="11.133331794771216"><ele>382.0</ele><time>2026-05-01T14:48:27Z</time></trkpt><trkpt lat="43.87643195066846" lon="11.13343692084556"><ele>379.0</ele><time>2026-05-01T14:48:28Z</time></trkpt><trkpt lat="43.87634970053735" lon="11.133528484590343"><ele>376.0</ele><time>2026-05-01T14:48:29Z</time></trkpt><trkpt lat="43.876265245396645" lon="11.13361028635431"><ele>376.0</ele><time>2026-05-01T14:48:30Z</time></trkpt><trkpt lat="43.876177229173685" lon="11.133677032425357"><ele>376.0</ele><time>2026-05-01T14:48:31Z</time></trkpt><trkpt lat="43.87610685164842" lon="11.133729153048957"><ele>376.0</ele><time>2026-05-01T14:48:32Z</time></trkpt><trkpt lat="43.876001691429614" lon="11.133782567075599"><ele>376.0</ele><time>2026-05-01T14:48:34Z</time></trkpt><trkpt lat="43.875917644987" lon="11.133775810755534"><ele>376.0</ele><time>2026-05-01T14:48:35Z</time></trkpt><trkpt lat="43.87582983727254" lon="11.133770592636782"><ele>375.8333333333333</ele><time>2026-05-01T14:48:36Z</time></trkpt><trkpt lat="43.87574980787437" lon="11.13375869921273"><ele>375.66666666666663</ele><time>2026-05-01T14:48:37Z</time></trkpt><trkpt lat="43.87566354350442" lon="11.133763912625298"><ele>375.5</ele><time>2026-05-01T14:48:38Z</time></trkpt><trkpt lat="43.875576956608086" lon="11.133762841651144"><ele>375.3333333333333</ele><time>2026-05-01T14:48:39Z</time></trkpt><trkpt lat="43.875505046597105" lon="11.133758096428025"><ele>375.1666666666667</ele><time>2026-05-01T14:48:40Z</time></trkpt><trkpt lat="43.8754274041413" lon="11.133744127975453"><ele>375.0</ele><time>2026-05-01T14:48:41Z</time></trkpt><trkpt lat="43.87533797721302" lon="11.133722524131441"><ele>375.0</ele><time>2026-05-01T14:48:42Z</time></trkpt><trkpt lat="43.875258766185546" lon="11.13371672065729"><ele>375.0</ele><time>2026-05-01T14:48:43Z</time></trkpt><trkpt lat="43.87517422199729" lon="11.133705303910055"><ele>375.0</ele><time>2026-05-01T14:48:44Z</time></trkpt><trkpt lat="43.87506654437871" lon="11.13372788199454"><ele>375.0</ele><time>2026-05-01T14:48:45Z</time></trkpt><trkpt lat="43.87496702921369" lon="11.133725563698489"><ele>375.0</ele><time>2026-05-01T14:48:46Z</time></trkpt><trkpt lat="43.874891794439584" lon="11.133700061998335"><ele>374.0</ele><time>2026-05-01T14:48:47Z</time></trkpt><trkpt lat="43.87481409054098" lon="11.133703637168907"><ele>373.0</ele><time>2026-05-01T14:48:48Z</time></trkpt><trkpt lat="43.874720999859434" lon="11.13375925443031"><ele>372.0</ele><time>2026-05-01T14:48:49Z</time></trkpt><trkpt lat="43.87462457254143" lon="11.133854271100216"><ele>371.0</ele><time>2026-05-01T14:48:50Z</time></trkpt><trkpt lat="43.874525143599016" lon="11.133957162973497"><ele>370.0</ele><time>2026-05-01T14:48:51Z</time></trkpt><trkpt lat="43.874432168335886" lon="11.134073786050019"><ele>369.6</ele><time>2026-05-01T14:48:52Z</time></trkpt><trkpt lat="43.87433107747634" lon="11.13419211770558"><ele>369.2</ele><time>2026-05-01T14:48:53Z</time></trkpt><trkpt lat="43.87425330327465" lon="11.134292960392914"><ele>368.79999999999995</ele><time>2026-05-01T14:48:54Z</time></trkpt><trkpt lat="43.87419198530884" lon="11.13438460853516"><ele>368.4</ele><time>2026-05-01T14:48:55Z</time></trkpt><trkpt lat="43.874160632883616" lon="11.134462269522281"><ele>368.0</ele><time>2026-05-01T14:48:56Z</time></trkpt><trkpt lat="43.87414622910866" lon="11.134591663956424"><ele>368.0</ele><time>2026-05-01T14:48:58Z</time></trkpt><trkpt lat="43.87415648138301" lon="11.134755591757846"><ele>368.0</ele><time>2026-05-01T14:49:00Z</time></trkpt><trkpt lat="43.87419032331999" lon="11.134882468111108"><ele>368.0</ele><time>2026-05-01T14:49:02Z</time></trkpt><trkpt lat="43.874216962971346" lon="11.134966975729009"><ele>368.0</ele><time>2026-05-01T14:49:03Z</time></trkpt><trkpt lat="43.87424546066695" lon="11.135081794647816"><ele>368.0</ele><time>2026-05-01T14:49:04Z</time></trkpt><trkpt lat="43.874277513546964" lon="11.135209309162798"><ele>369.0</ele><time>2026-05-01T14:49:05Z</time></trkpt><trkpt lat="43.87431144015144" lon="11.135345204194385"><ele>370.0</ele><time>2026-05-01T14:49:07Z</time></trkpt><trkpt lat="43.874305636923836" lon="11.135460043215442"><ele>371.0</ele><time>2026-05-01T14:49:09Z</time></trkpt><trkpt lat="43.87432613760287" lon="11.13558613201816"><ele>372.0</ele><time>2026-05-01T14:49:11Z</time></trkpt><trkpt lat="43.87432570606188" lon="11.135697207915095"><ele>373.0</ele><time>2026-05-01T14:49:13Z</time></trkpt><trkpt lat="43.87433188377163" lon="11.135810915026362"><ele>374.0</ele><time>2026-05-01T14:49:15Z</time></trkpt><trkpt lat="43.87433523478868" lon="11.135938945091901"><ele>374.2</ele><time>2026-05-01T14:49:17Z</time></trkpt><trkpt lat="43.87433638599902" lon="11.136050090491892"><ele>374.4</ele><time>2026-05-01T14:49:19Z</time></trkpt><trkpt lat="43.87433042927505" lon="11.136166072897602"><ele>374.6</ele><time>2026-05-01T14:49:21Z</time></trkpt><trkpt lat="43.8743384486943" lon="11.136308738038583"><ele>374.8</ele><time>2026-05-01T14:49:23Z</time></trkpt><trkpt lat="43.87433249498504" lon="11.136457615796322"><ele>375.0</ele><time>2026-05-01T14:49:25Z</time></trkpt><trkpt lat="43.874337293283574" lon="11.13660724431266"><ele>374.2</ele><time>2026-05-01T14:49:27Z</time></trkpt><trkpt lat="43.874330156219514" lon="11.13675211982283"><ele>373.4</ele><time>2026-05-01T14:49:29Z</time></trkpt><trkpt lat="43.874339995008825" lon="11.136916460887905"><ele>372.6</ele><time>2026-05-01T14:49:31Z</time></trkpt><trkpt lat="43.87431001530114" lon="11.137089923894854"><ele>371.8</ele><time>2026-05-01T14:49:33Z</time></trkpt><trkpt lat="43.874264302530186" lon="11.137172106867524"><ele>371.0</ele><time>2026-05-01T14:49:34Z</time></trkpt><trkpt lat="43.874196988749546" lon="11.13724143857861"><ele>373.0</ele><time>2026-05-01T14:49:35Z</time></trkpt><trkpt lat="43.87410854180847" lon="11.137295094830773"><ele>375.0</ele><time>2026-05-01T14:49:36Z</time></trkpt><trkpt lat="43.874011283579996" lon="11.137341233633464"><ele>377.0</ele><time>2026-05-01T14:49:37Z</time></trkpt><trkpt lat="43.87393695458058" lon="11.137386782100927"><ele>379.0</ele><time>2026-05-01T14:49:38Z</time></trkpt><trkpt lat="43.87386964335" lon="11.137436089252134"><ele>381.0</ele><time>2026-05-01T14:49:39Z</time></trkpt><trkpt lat="43.873817288464416" lon="11.1374991011978"><ele>383.0</ele><time>2026-05-01T14:49:40Z</time></trkpt><trkpt lat="43.873783559008544" lon="11.137584405700355"><ele>383.0</ele><time>2026-05-01T14:49:41Z</time></trkpt><trkpt lat="43.873767909342895" lon="11.137693130146648"><ele>383.0</ele><time>2026-05-01T14:49:43Z</time></trkpt><trkpt lat="43.87379828590855" lon="11.137950387909259"><ele>383.0</ele><time>2026-05-01T14:50:50Z</time></trkpt><trkpt lat="43.87385115132684" lon="11.138083903775396"><ele>383.0</ele><time>2026-05-01T14:50:51Z</time></trkpt><trkpt lat="43.873916672586994" lon="11.138221816014024"><ele>382.79999999999995</ele><time>2026-05-01T14:50:52Z</time></trkpt><trkpt lat="43.87396020937535" lon="11.138377048519065"><ele>382.6</ele><time>2026-05-01T14:50:54Z</time></trkpt><trkpt lat="43.873972205425396" lon="11.138487878125234"><ele>382.4</ele><time>2026-05-01T14:50:55Z</time></trkpt><trkpt lat="43.873976309203556" lon="11.13858338769476"><ele>382.20000000000005</ele><time>2026-05-01T14:50:56Z</time></trkpt><trkpt lat="43.8739880573787" lon="11.138742713753922"><ele>382.0</ele><time>2026-05-01T14:50:58Z</time></trkpt><trkpt lat="43.87403162619589" lon="11.138863741825878"><ele>382.0</ele><time>2026-05-01T14:51:00Z</time></trkpt><trkpt lat="43.874095836280475" lon="11.138972734446549"><ele>382.0</ele><time>2026-05-01T14:51:02Z</time></trkpt><trkpt lat="43.874154911342686" lon="11.139033300776658"><ele>382.0</ele><time>2026-05-01T14:51:04Z</time></trkpt><trkpt lat="43.87422770636572" lon="11.13906073043075"><ele>382.0</ele><time>2026-05-01T14:51:06Z</time></trkpt><trkpt lat="43.874300269311746" lon="11.139073798305896"><ele>382.0</ele><time>2026-05-01T14:51:08Z</time></trkpt><trkpt lat="43.87437003026541" lon="11.139099782797055"><ele>382.0</ele><time>2026-05-01T14:51:10Z</time></trkpt><trkpt lat="43.874434526724166" lon="11.139124812867832"><ele>381.0</ele><time>2026-05-01T14:51:12Z</time></trkpt><trkpt lat="43.87450870022411" lon="11.139169310536614"><ele>380.0</ele><time>2026-05-01T14:51:14Z</time></trkpt><trkpt lat="43.8745846496973" lon="11.139221204413742"><ele>379.0</ele><time>2026-05-01T14:51:16Z</time></trkpt><trkpt lat="43.87466561656328" lon="11.13929724488843"><ele>378.0</ele><time>2026-05-01T14:51:18Z</time></trkpt><trkpt lat="43.87472621650687" lon="11.139350034694932"><ele>377.0</ele><time>2026-05-01T14:51:19Z</time></trkpt><trkpt lat="43.87481925472692" lon="11.139443308758683"><ele>377.0</ele><time>2026-05-01T14:51:20Z</time></trkpt><trkpt lat="43.8749343087395" lon="11.139598187908739"><ele>377.0</ele><time>2026-05-01T14:51:21Z</time></trkpt><trkpt lat="43.87501580435856" lon="11.139729647604025"><ele>377.0</ele><time>2026-05-01T14:51:22Z</time></trkpt><trkpt lat="43.87507753090801" lon="11.139844841864116"><ele>377.0</ele><time>2026-05-01T14:51:23Z</time></trkpt><trkpt lat="43.87513324936902" lon="11.139962219855592"><ele>373.20000000000005</ele><time>2026-05-01T14:51:24Z</time></trkpt><trkpt lat="43.87519732461554" lon="11.140074379966384"><ele>369.4</ele><time>2026-05-01T14:51:25Z</time></trkpt><trkpt lat="43.87524043663578" lon="11.140185481845283"><ele>365.6</ele><time>2026-05-01T14:51:26Z</time></trkpt><trkpt lat="43.875280169860325" lon="11.140289428557324"><ele>361.79999999999995</ele><time>2026-05-01T14:51:27Z</time></trkpt><trkpt lat="43.875320628504035" lon="11.140400990570654"><ele>358.0</ele><time>2026-05-01T14:51:28Z</time></trkpt><trkpt lat="43.875348078881814" lon="11.140521136161357"><ele>358.0</ele><time>2026-05-01T14:51:29Z</time></trkpt><trkpt lat="43.87539058051586" lon="11.14062906115458"><ele>358.0</ele><time>2026-05-01T14:51:30Z</time></trkpt><trkpt lat="43.87542558352388" lon="11.140747019712466"><ele>358.0</ele><time>2026-05-01T14:51:31Z</time></trkpt><trkpt lat="43.875457622060196" lon="11.14085950623118"><ele>358.0</ele><time>2026-05-01T14:51:32Z</time></trkpt><trkpt lat="43.875465990553444" lon="11.140978873351118"><ele>358.0</ele><time>2026-05-01T14:51:33Z</time></trkpt><trkpt lat="43.875482030446385" lon="11.141091948526814"><ele>358.0</ele><time>2026-05-01T14:51:34Z</time></trkpt><trkpt lat="43.875500796861076" lon="11.141204017587755"><ele>358.5</ele><time>2026-05-01T14:51:35Z</time></trkpt><trkpt lat="43.875520721173814" lon="11.141318304314515"><ele>359.0</ele><time>2026-05-01T14:51:36Z</time></trkpt><trkpt lat="43.87554342946644" lon="11.141434315614264"><ele>359.5</ele><time>2026-05-01T14:51:37Z</time></trkpt><trkpt lat="43.87558566673252" lon="11.141543362810026"><ele>360.0</ele><time>2026-05-01T14:51:38Z</time></trkpt><trkpt lat="43.87561071624335" lon="11.141645452630565"><ele>360.5</ele><time>2026-05-01T14:51:39Z</time></trkpt><trkpt lat="43.87562821823342" lon="11.141776419457287"><ele>361.0</ele><time>2026-05-01T14:51:41Z</time></trkpt><trkpt lat="43.87569978181192" lon="11.141754480318019"><ele>361.0</ele><time>2026-05-01T14:52:02Z</time></trkpt><trkpt lat="43.87578859127893" lon="11.141661619222436"><ele>361.0</ele><time>2026-05-01T14:52:10Z</time></trkpt><trkpt lat="43.87583822207418" lon="11.141592779943174"><ele>361.0</ele><time>2026-05-01T14:52:12Z</time></trkpt><trkpt lat="43.875881447810315" lon="11.14152536369409"><ele>361.0</ele><time>2026-05-01T14:52:14Z</time></trkpt><trkpt lat="43.87593592449592" lon="11.141421960892794"><ele>361.0</ele><time>2026-05-01T14:52:16Z</time></trkpt><trkpt lat="43.875963699325354" lon="11.141308018442539"><ele>361.0</ele><time>2026-05-01T14:52:18Z</time></trkpt><trkpt lat="43.876000930711804" lon="11.141194121219122"><ele>355.6</ele><time>2026-05-01T14:52:21Z</time></trkpt><trkpt lat="43.876047429495245" lon="11.141079693828841"><ele>350.20000000000005</ele><time>2026-05-01T14:52:26Z</time></trkpt><trkpt lat="43.87609706747613" lon="11.140988478856432"><ele>344.79999999999995</ele><time>2026-05-01T14:52:28Z</time></trkpt><trkpt lat="43.87613887786921" lon="11.140864234272843"><ele>339.4</ele><time>2026-05-01T14:52:31Z</time></trkpt><trkpt lat="43.87617440534641" lon="11.140736304199793"><ele>334.0</ele><time>2026-05-01T14:52:33Z</time></trkpt><trkpt lat="43.87622948251934" lon="11.140620091261493"><ele>334.0</ele><time>2026-05-01T14:52:35Z</time></trkpt><trkpt lat="43.87628536203422" lon="11.140567524438046"><ele>334.0</ele><time>2026-05-01T14:52:37Z</time></trkpt><trkpt lat="43.87632589346634" lon="11.140465461662775"><ele>334.0</ele><time>2026-05-01T14:52:39Z</time></trkpt><trkpt lat="43.87637278514093" lon="11.140352099780054"><ele>334.0</ele><time>2026-05-01T14:52:41Z</time></trkpt><trkpt lat="43.87643093406337" lon="11.140247492425079"><ele>334.0</ele><time>2026-05-01T14:52:43Z</time></trkpt><trkpt lat="43.87649964853585" lon="11.140173459271995"><ele>334.0</ele><time>2026-05-01T14:52:45Z</time></trkpt><trkpt lat="43.87654758378112" lon="11.14006987815059"><ele>334.0</ele><time>2026-05-01T14:52:47Z</time></trkpt><trkpt lat="43.87659672146243" lon="11.139970388614836"><ele>334.0</ele><time>2026-05-01T14:52:50Z</time></trkpt><trkpt lat="43.87667740366718" lon="11.139952286603942"><ele>334.0</ele><time>2026-05-01T14:52:52Z</time></trkpt><trkpt lat="43.87676225945282" lon="11.139961430452002"><ele>334.0</ele><time>2026-05-01T14:52:54Z</time></trkpt><trkpt lat="43.87683547510687" lon="11.139949365028723"><ele>334.0</ele><time>2026-05-01T14:52:57Z</time></trkpt><trkpt lat="43.87704238390422" lon="11.139901695281749"><ele>335.2</ele><time>2026-05-01T14:53:05Z</time></trkpt><trkpt lat="43.877173671551446" lon="11.140001638613162"><ele>336.4</ele><time>2026-05-01T14:53:15Z</time></trkpt><trkpt lat="43.87725591050155" lon="11.14003744414602"><ele>337.6</ele><time>2026-05-01T14:53:17Z</time></trkpt><trkpt lat="43.87729293257323" lon="11.14011965435518"><ele>338.8</ele><time>2026-05-01T14:53:19Z</time></trkpt><trkpt lat="43.877313949253946" lon="11.140229723471725"><ele>340.0</ele><time>2026-05-01T14:53:22Z</time></trkpt><trkpt lat="43.877332541282925" lon="11.140329066052967"><ele>340.0</ele><time>2026-05-01T14:53:26Z</time></trkpt><trkpt lat="43.87737027714878" lon="11.140407582485054"><ele>340.0</ele><time>2026-05-01T14:53:30Z</time></trkpt><trkpt lat="43.87741829590273" lon="11.140486236350684"><ele>340.0</ele><time>2026-05-01T14:53:34Z</time></trkpt><trkpt lat="43.87746606063316" lon="11.140555976712278"><ele>340.0</ele><time>2026-05-01T14:53:37Z</time></trkpt><trkpt lat="43.87751498617157" lon="11.140630322334063"><ele>340.0</ele><time>2026-05-01T14:54:20Z</time></trkpt><trkpt lat="43.8776148826019" lon="11.140699548131803"><ele>340.0</ele><time>2026-05-01T14:54:23Z</time></trkpt><trkpt lat="43.8776929459823" lon="11.140726293763086"><ele>340.5</ele><time>2026-05-01T14:54:26Z</time></trkpt><trkpt lat="43.87776714461083" lon="11.140798840645491"><ele>341.0</ele><time>2026-05-01T14:54:29Z</time></trkpt><trkpt lat="43.87782944464048" lon="11.140821522516218"><ele>341.5</ele><time>2026-05-01T14:54:31Z</time></trkpt><trkpt lat="43.877892842679984" lon="11.140885041360908"><ele>342.0</ele><time>2026-05-01T14:54:34Z</time></trkpt><trkpt lat="43.87798797444336" lon="11.140921347199585"><ele>342.5</ele><time>2026-05-01T14:54:36Z</time></trkpt><trkpt lat="43.87807189287123" lon="11.14093551456017"><ele>343.0</ele><time>2026-05-01T14:54:39Z</time></trkpt><trkpt lat="43.87815717620459" lon="11.140917039431002"><ele>343.0</ele><time>2026-05-01T14:54:42Z</time></trkpt><trkpt lat="43.878240166479195" lon="11.14097833408565"><ele>343.0</ele><time>2026-05-01T14:54:46Z</time></trkpt><trkpt lat="43.87831128724192" lon="11.140992772777523"><ele>343.0</ele><time>2026-05-01T14:54:48Z</time></trkpt><trkpt lat="43.878384818955396" lon="11.14099741652554"><ele>343.0</ele><time>2026-05-01T14:54:51Z</time></trkpt><trkpt lat="43.87845105248212" lon="11.141080426885582"><ele>343.0</ele><time>2026-05-01T14:54:54Z</time></trkpt><trkpt lat="43.87853064958759" lon="11.141121661159561"><ele>343.0</ele><time>2026-05-01T14:54:56Z</time></trkpt><trkpt lat="43.87858973064082" lon="11.141152568018004"><ele>344.3333333333333</ele><time>2026-05-01T14:54:59Z</time></trkpt><trkpt lat="43.87864292238124" lon="11.141209056588545"><ele>345.66666666666663</ele><time>2026-05-01T14:55:15Z</time></trkpt><trkpt lat="43.87872018767742" lon="11.141251058473669"><ele>347.0</ele><time>2026-05-01T14:55:23Z</time></trkpt><trkpt lat="43.878775200118014" lon="11.141319713755598"><ele>348.3333333333333</ele><time>2026-05-01T14:55:26Z</time></trkpt><trkpt lat="43.878831118301584" lon="11.14140554419233"><ele>349.6666666666667</ele><time>2026-05-01T14:55:29Z</time></trkpt><trkpt lat="43.87891298109817" lon="11.141458361759874"><ele>351.0</ele><time>2026-05-01T14:55:32Z</time></trkpt><trkpt lat="43.879005641653826" lon="11.141474881413911"><ele>351.0</ele><time>2026-05-01T14:55:35Z</time></trkpt><trkpt lat="43.879077448738066" lon="11.141485358799573"><ele>351.0</ele><time>2026-05-01T14:55:37Z</time></trkpt><trkpt lat="43.879154539504334" lon="11.141555202312961"><ele>351.0</ele><time>2026-05-01T14:55:40Z</time></trkpt><trkpt lat="43.879229795718345" lon="11.14156008318213"><ele>351.0</ele><time>2026-05-01T14:55:43Z</time></trkpt><trkpt lat="43.879276768444214" lon="11.141475283629097"><ele>351.0</ele><time>2026-05-01T14:55:47Z</time></trkpt><trkpt lat="43.879343327005756" lon="11.141433427699111"><ele>351.0</ele><time>2026-05-01T14:55:50Z</time></trkpt><trkpt lat="43.87937950053693" lon="11.141360497539386"><ele>349.8333333333333</ele><time>2026-05-01T14:55:52Z</time></trkpt><trkpt lat="43.879442199190606" lon="11.141305222997353"><ele>348.6666666666667</ele><time>2026-05-01T14:55:55Z</time></trkpt><trkpt lat="43.879502003978786" lon="11.14123608899178"><ele>347.5</ele><time>2026-05-01T14:55:58Z</time></trkpt><trkpt lat="43.87953508590821" lon="11.14115079941605"><ele>346.33333333333337</ele><time>2026-05-01T14:56:00Z</time></trkpt><trkpt lat="43.87961767420172" lon="11.141102414304177"><ele>345.1666666666667</ele><time>2026-05-01T14:56:03Z</time></trkpt><trkpt lat="43.87968298242764" lon="11.141057312319207"><ele>344.0</ele><time>2026-05-01T14:56:05Z</time></trkpt><trkpt lat="43.87971482105084" lon="11.140965695115362"><ele>344.0</ele><time>2026-05-01T14:56:08Z</time></trkpt><trkpt lat="43.87977672091799" lon="11.140910416546307"><ele>344.0</ele><time>2026-05-01T14:56:10Z</time></trkpt><trkpt lat="43.87993509323649" lon="11.140874832432441"><ele>344.0</ele><time>2026-05-01T14:56:15Z</time></trkpt><trkpt lat="43.88003710655813" lon="11.140846744141198"><ele>344.0</ele><time>2026-05-01T14:56:17Z</time></trkpt><trkpt lat="43.880101218157314" lon="11.14081456680693"><ele>344.0</ele><time>2026-05-01T14:56:19Z</time></trkpt><trkpt lat="43.88018643164974" lon="11.140821288714148"><ele>343.5</ele><time>2026-05-01T14:56:22Z</time></trkpt><trkpt lat="43.88028306522813" lon="11.140849241421252"><ele>343.0</ele><time>2026-05-01T14:56:24Z</time></trkpt><trkpt lat="43.880358189909145" lon="11.140845920799247"><ele>342.5</ele><time>2026-05-01T14:56:27Z</time></trkpt><trkpt lat="43.88044970483716" lon="11.14082391012115"><ele>342.0</ele><time>2026-05-01T14:56:30Z</time></trkpt><trkpt lat="43.88052300485961" lon="11.140786071501447"><ele>341.5</ele><time>2026-05-01T14:56:33Z</time></trkpt><trkpt lat="43.88059430935928" lon="11.140752895842386"><ele>341.0</ele><time>2026-05-01T14:56:37Z</time></trkpt><trkpt lat="43.8806704498258" lon="11.140737472153843"><ele>342.83333333333337</ele><time>2026-05-01T14:56:40Z</time></trkpt><trkpt lat="43.88074698911368" lon="11.140688713729784"><ele>344.6666666666667</ele><time>2026-05-01T14:56:43Z</time></trkpt><trkpt lat="43.880837652313595" lon="11.14062217758458"><ele>346.5</ele><time>2026-05-01T14:56:46Z</time></trkpt><trkpt lat="43.88089101952355" lon="11.140545832660687"><ele>348.3333333333333</ele><time>2026-05-01T14:56:48Z</time></trkpt><trkpt lat="43.88092708048162" lon="11.140473318582568"><ele>350.16666666666663</ele><time>2026-05-01T14:56:51Z</time></trkpt><trkpt lat="43.880981977457274" lon="11.140400334495064"><ele>352.0</ele><time>2026-05-01T14:56:54Z</time></trkpt><trkpt lat="43.88104213104308" lon="11.140344062821276"><ele>352.0</ele><time>2026-05-01T14:56:57Z</time></trkpt><trkpt lat="43.88108037041462" lon="11.140272323110109"><ele>352.0</ele><time>2026-05-01T14:56:59Z</time></trkpt><trkpt lat="43.881140232673914" lon="11.140195414615269"><ele>352.0</ele><time>2026-05-01T14:57:02Z</time></trkpt><trkpt lat="43.88120340091959" lon="11.140124181586918"><ele>352.0</ele><time>2026-05-01T14:57:05Z</time></trkpt><trkpt lat="43.88127708560925" lon="11.140051835542977"><ele>352.0</ele><time>2026-05-01T14:57:08Z</time></trkpt><trkpt lat="43.88136653769408" lon="11.139957417488048"><ele>352.0</ele><time>2026-05-01T14:57:10Z</time></trkpt><trkpt lat="43.88142963837685" lon="11.139884638361321"><ele>353.40000000000003</ele><time>2026-05-01T14:57:12Z</time></trkpt><trkpt lat="43.88152454156027" lon="11.139837949457862"><ele>354.8</ele><time>2026-05-01T14:57:14Z</time></trkpt><trkpt lat="43.881586669986845" lon="11.139821952706429"><ele>356.2</ele><time>2026-05-01T14:57:15Z</time></trkpt><trkpt lat="43.88169296905071" lon="11.139802814276475"><ele>357.6</ele><time>2026-05-01T14:57:17Z</time></trkpt><trkpt lat="43.88177527652382" lon="11.139768378581302"><ele>359.0</ele><time>2026-05-01T14:57:19Z</time></trkpt><trkpt lat="43.881860062622856" lon="11.1397141313159"><ele>359.0</ele><time>2026-05-01T14:57:21Z</time></trkpt><trkpt lat="43.881945065884544" lon="11.139684116692704"><ele>359.0</ele><time>2026-05-01T14:57:23Z</time></trkpt><trkpt lat="43.88202671928186" lon="11.139601007210503"><ele>359.0</ele><time>2026-05-01T14:57:25Z</time></trkpt><trkpt lat="43.88209081383074" lon="11.139561930933237"><ele>359.0</ele><time>2026-05-01T14:57:27Z</time></trkpt><trkpt lat="43.882149237843855" lon="11.139515717773996"><ele>359.0</ele><time>2026-05-01T14:57:29Z</time></trkpt><trkpt lat="43.88222863099064" lon="11.139467850472476"><ele>359.0</ele><time>2026-05-01T14:57:31Z</time></trkpt><trkpt lat="43.882306797618824" lon="11.139433594843915"><ele>359.0</ele><time>2026-05-01T14:57:33Z</time></trkpt><trkpt lat="43.88239117263116" lon="11.139375103317077"><ele>359.0</ele><time>2026-05-01T14:57:35Z</time></trkpt><trkpt lat="43.88247975801422" lon="11.139294527742134"><ele>359.0</ele><time>2026-05-01T14:57:37Z</time></trkpt><trkpt lat="43.88254938441594" lon="11.139209412963083"><ele>359.0</ele><time>2026-05-01T14:57:39Z</time></trkpt><trkpt lat="43.882607722773656" lon="11.139143096334701"><ele>359.0</ele><time>2026-05-01T14:57:41Z</time></trkpt><trkpt lat="43.88265989656973" lon="11.139035140383834"><ele>361.33333333333337</ele><time>2026-05-01T14:57:43Z</time></trkpt><trkpt lat="43.88272206955677" lon="11.138963727150207"><ele>363.6666666666667</ele><time>2026-05-01T14:57:45Z</time></trkpt><trkpt lat="43.88277377017658" lon="11.138906230410289"><ele>366.0</ele><time>2026-05-01T14:57:47Z</time></trkpt><trkpt lat="43.88281843656939" lon="11.138838773563254"><ele>368.3333333333333</ele><time>2026-05-01T14:57:49Z</time></trkpt><trkpt lat="43.882915704157554" lon="11.138853581456484"><ele>370.66666666666663</ele><time>2026-05-01T14:57:51Z</time></trkpt><trkpt lat="43.88300058127425" lon="11.138927868986134"><ele>373.0</ele><time>2026-05-01T14:57:53Z</time></trkpt><trkpt lat="43.88312111386493" lon="11.1389322143327"><ele>373.0</ele><time>2026-05-01T14:57:56Z</time></trkpt><trkpt lat="43.883197887613846" lon="11.138983321970688"><ele>373.0</ele><time>2026-05-01T14:57:59Z</time></trkpt><trkpt lat="43.88324058113568" lon="11.139057631652252"><ele>373.0</ele><time>2026-05-01T14:58:01Z</time></trkpt><trkpt lat="43.88330358815491" lon="11.139081080852147"><ele>373.0</ele><time>2026-05-01T14:58:03Z</time></trkpt><trkpt lat="43.883369765408645" lon="11.13910524482551"><ele>373.0</ele><time>2026-05-01T14:58:05Z</time></trkpt><trkpt lat="43.88343237835999" lon="11.139167247872807"><ele>373.0</ele><time>2026-05-01T14:58:07Z</time></trkpt><trkpt lat="43.88348573845441" lon="11.13925442401225"><ele>373.0</ele><time>2026-05-01T14:58:09Z</time></trkpt><trkpt lat="43.883562306782935" lon="11.139268306191552"><ele>368.16666666666663</ele><time>2026-05-01T14:58:11Z</time></trkpt><trkpt lat="43.8836071643548" lon="11.139331031552967"><ele>363.3333333333333</ele><time>2026-05-01T14:58:13Z</time></trkpt><trkpt lat="43.88367723480041" lon="11.13937690678235"><ele>358.5</ele><time>2026-05-01T14:58:15Z</time></trkpt><trkpt lat="43.88373832779545" lon="11.139430340428008"><ele>353.6666666666667</ele><time>2026-05-01T14:58:17Z</time></trkpt><trkpt lat="43.88380163434126" lon="11.13948210591227"><ele>348.83333333333337</ele><time>2026-05-01T14:58:19Z</time></trkpt><trkpt lat="43.88386454435538" lon="11.139569584270278"><ele>344.0</ele><time>2026-05-01T14:58:22Z</time></trkpt><trkpt lat="43.883940216023795" lon="11.139591532863994"><ele>344.0</ele><time>2026-05-01T14:58:25Z</time></trkpt><trkpt lat="43.884000209563375" lon="11.139627202770935"><ele>344.0</ele><time>2026-05-01T14:58:33Z</time></trkpt><trkpt lat="43.88409481699381" lon="11.139661436600898"><ele>344.0</ele><time>2026-05-01T14:59:34Z</time></trkpt><trkpt lat="43.88410020047806" lon="11.139763314976479"><ele>344.0</ele><time>2026-05-01T15:00:27Z</time></trkpt><trkpt lat="43.88408694358599" lon="11.13987607154047"><ele>344.0</ele><time>2026-05-01T15:00:32Z</time></trkpt><trkpt lat="43.88404872775081" lon="11.13998135564274"><ele>344.0</ele><time>2026-05-01T15:00:35Z</time></trkpt><trkpt lat="43.88402455333896" lon="11.140113350092307"><ele>341.33333333333337</ele><time>2026-05-01T15:00:39Z</time></trkpt><trkpt lat="43.883996094874476" lon="11.140200604360272"><ele>338.6666666666667</ele><time>2026-05-01T15:00:42Z</time></trkpt><trkpt lat="43.88400337829368" lon="11.140322165965577"><ele>336.0</ele><time>2026-05-01T15:00:45Z</time></trkpt><trkpt lat="43.88400577555857" lon="11.140420452783653"><ele>333.3333333333333</ele><time>2026-05-01T15:00:48Z</time></trkpt><trkpt lat="43.883998123801184" lon="11.140522943756887"><ele>330.66666666666663</ele><time>2026-05-01T15:00:51Z</time></trkpt><trkpt lat="43.884025723196636" lon="11.140626210688543"><ele>328.0</ele><time>2026-05-01T15:00:54Z</time></trkpt><trkpt lat="43.884072041897305" lon="11.140732090815202"><ele>325.0</ele><time>2026-05-01T15:00:58Z</time></trkpt><trkpt lat="43.884099484877915" lon="11.140850170549886"><ele>322.0</ele><time>2026-05-01T15:01:01Z</time></trkpt><trkpt lat="43.884114496065905" lon="11.140956219166462"><ele>319.0</ele><time>2026-05-01T15:01:04Z</time></trkpt><trkpt lat="43.88411399358444" lon="11.141080723866986"><ele>316.0</ele><time>2026-05-01T15:01:08Z</time></trkpt><trkpt lat="43.88412937032668" lon="11.141190690651067"><ele>313.0</ele><time>2026-05-01T15:01:11Z</time></trkpt><trkpt lat="43.88411148848435" lon="11.141280178603742"><ele>310.0</ele><time>2026-05-01T15:01:13Z</time></trkpt><trkpt lat="43.884143267930405" lon="11.141361548783864"><ele>310.0</ele><time>2026-05-01T15:01:16Z</time></trkpt><trkpt lat="43.88413152941104" lon="11.141452317261534"><ele>310.0</ele><time>2026-05-01T15:01:18Z</time></trkpt><trkpt lat="43.88414368242944" lon="11.141540739710951"><ele>310.0</ele><time>2026-05-01T15:01:21Z</time></trkpt><trkpt lat="43.8842053919217" lon="11.141580662946774"><ele>310.0</ele><time>2026-05-01T15:01:24Z</time></trkpt><trkpt lat="43.88428476328161" lon="11.141551550945243"><ele>310.0</ele><time>2026-05-01T15:01:29Z</time></trkpt><trkpt lat="43.884317665697345" lon="11.141653214941083"><ele>310.0</ele><time>2026-05-01T15:01:33Z</time></trkpt><trkpt lat="43.88431287415773" lon="11.14176439285692"><ele>310.0</ele><time>2026-05-01T15:01:36Z</time></trkpt><trkpt lat="43.88427869043198" lon="11.141851988854814"><ele>308.7142857142857</ele><time>2026-05-01T15:01:39Z</time></trkpt><trkpt lat="43.884226737276116" lon="11.141954932262655"><ele>307.42857142857144</ele><time>2026-05-01T15:01:42Z</time></trkpt><trkpt lat="43.88416563694119" lon="11.142000572204124"><ele>306.1428571428571</ele><time>2026-05-01T15:01:45Z</time></trkpt><trkpt lat="43.8841254233294" lon="11.14206932726"><ele>304.8571428571429</ele><time>2026-05-01T15:01:49Z</time></trkpt><trkpt lat="43.88415800442151" lon="11.142145203755609"><ele>303.57142857142856</ele><time>2026-05-01T15:01:52Z</time></trkpt><trkpt lat="43.88421647076131" lon="11.142184073602133"><ele>302.2857142857143</ele><time>2026-05-01T15:01:55Z</time></trkpt><trkpt lat="43.88420371322677" lon="11.142286091969165"><ele>301.0</ele><time>2026-05-01T15:02:00Z</time></trkpt><trkpt lat="43.88414001457349" lon="11.142321930583366"><ele>301.0</ele><time>2026-05-01T15:02:02Z</time></trkpt><trkpt lat="43.88408284700829" lon="11.142374767459781"><ele>301.0</ele><time>2026-05-01T15:02:07Z</time></trkpt><trkpt lat="43.8840725359016" lon="11.142468450572004"><ele>301.0</ele><time>2026-05-01T15:02:34Z</time></trkpt><trkpt lat="43.884111233542754" lon="11.142554001599738"><ele>301.0</ele><time>2026-05-01T15:02:39Z</time></trkpt><trkpt lat="43.88430380758539" lon="11.142667061173556"><ele>301.0</ele><time>2026-05-01T15:02:51Z</time></trkpt><trkpt lat="43.88429503573696" lon="11.1427872630003"><ele>299.0</ele><time>2026-05-01T15:02:59Z</time></trkpt><trkpt lat="43.88426189780388" lon="11.142872004071132"><ele>297.0</ele><time>2026-05-01T15:03:50Z</time></trkpt><trkpt lat="43.88419890931196" lon="11.14289092385717"><ele>295.0</ele><time>2026-05-01T15:03:57Z</time></trkpt><trkpt lat="43.88412456521904" lon="11.14293007938571"><ele>293.0</ele><time>2026-05-01T15:04:02Z</time></trkpt><trkpt lat="43.88407466811089" lon="11.143004105409263"><ele>291.0</ele><time>2026-05-01T15:04:06Z</time></trkpt><trkpt lat="43.8840016014124" lon="11.142995592777126"><ele>289.0</ele><time>2026-05-01T15:04:09Z</time></trkpt><trkpt lat="43.8839846425202" lon="11.143085433408444"><ele>287.0</ele><time>2026-05-01T15:04:14Z</time></trkpt><trkpt lat="43.88402508107785" lon="11.143162959993232"><ele>287.0</ele><time>2026-05-01T15:04:17Z</time></trkpt><trkpt lat="43.88407902551854" lon="11.14320933593051"><ele>287.0</ele><time>2026-05-01T15:04:20Z</time></trkpt><trkpt lat="43.88413300492732" lon="11.143289797308634"><ele>287.0</ele><time>2026-05-01T15:04:28Z</time></trkpt><trkpt lat="43.88416431394195" lon="11.143399175529991"><ele>287.0</ele><time>2026-05-01T15:04:31Z</time></trkpt><trkpt lat="43.88421570873254" lon="11.143462327492694"><ele>287.0</ele><time>2026-05-01T15:04:40Z</time></trkpt><trkpt lat="43.88423049730323" lon="11.14355350290892"><ele>287.0</ele><time>2026-05-01T15:04:49Z</time></trkpt><trkpt lat="43.88417057789971" lon="11.143595813005252"><ele>287.0</ele><time>2026-05-01T15:04:52Z</time></trkpt><trkpt lat="43.884106026334145" lon="11.143624717927727"><ele>283.6666666666667</ele><time>2026-05-01T15:04:56Z</time></trkpt><trkpt lat="43.884161011034784" lon="11.143719150629767"><ele>280.33333333333337</ele><time>2026-05-01T15:05:01Z</time></trkpt><trkpt lat="43.88424097299011" lon="11.14374711979248"><ele>277.0</ele><time>2026-05-01T15:05:05Z</time></trkpt><trkpt lat="43.884315634820325" lon="11.14380011783956"><ele>273.6666666666667</ele><time>2026-05-01T15:05:09Z</time></trkpt><trkpt lat="43.88431263311679" lon="11.143899777705174"><ele>270.3333333333333</ele><time>2026-05-01T15:05:13Z</time></trkpt><trkpt lat="43.884244701358" lon="11.14396422340914"><ele>267.0</ele><time>2026-05-01T15:05:17Z</time></trkpt><trkpt lat="43.88417297159842" lon="11.143991730972012"><ele>263.7142857142857</ele><time>2026-05-01T15:05:21Z</time></trkpt><trkpt lat="43.88412408396758" lon="11.144052999805789"><ele>260.42857142857144</ele><time>2026-05-01T15:05:26Z</time></trkpt><trkpt lat="43.88417814098118" lon="11.144139723336801"><ele>257.1428571428571</ele><time>2026-05-01T15:05:29Z</time></trkpt><trkpt lat="43.88424223415428" lon="11.14417797311745"><ele>253.85714285714286</ele><time>2026-05-01T15:05:32Z</time></trkpt><trkpt lat="43.88430995138041" lon="11.144230147134415"><ele>250.57142857142856</ele><time>2026-05-01T15:05:36Z</time></trkpt><trkpt lat="43.884377294539526" lon="11.144260361150858"><ele>247.28571428571425</ele><time>2026-05-01T15:05:39Z</time></trkpt><trkpt lat="43.88445616703661" lon="11.144269312413739"><ele>243.99999999999997</ele><time>2026-05-01T15:05:41Z</time></trkpt><trkpt lat="43.884534595710335" lon="11.144312816804861"><ele>242.57142857142856</ele><time>2026-05-01T15:05:43Z</time></trkpt><trkpt lat="43.88461737137854" lon="11.144293533082486"><ele>241.14285714285714</ele><time>2026-05-01T15:05:46Z</time></trkpt><trkpt lat="43.88469332453979" lon="11.144314927699988"><ele>239.71428571428572</ele><time>2026-05-01T15:05:50Z</time></trkpt><trkpt lat="43.884664639640974" lon="11.144404745057802"><ele>238.28571428571428</ele><time>2026-05-01T15:05:53Z</time></trkpt><trkpt lat="43.884628447715485" lon="11.144476603200232"><ele>236.8571428571429</ele><time>2026-05-01T15:05:56Z</time></trkpt><trkpt lat="43.88457343109558" lon="11.144542380887682"><ele>235.42857142857144</ele><time>2026-05-01T15:06:00Z</time></trkpt><trkpt lat="43.88455001505564" lon="11.144643811648091"><ele>234.0</ele><time>2026-05-01T15:06:04Z</time></trkpt><trkpt lat="43.884514027072335" lon="11.144717269696663"><ele>234.0</ele><time>2026-05-01T15:06:07Z</time></trkpt><trkpt lat="43.88456617123207" lon="11.144791717722052"><ele>234.00000000000003</ele><time>2026-05-01T15:06:11Z</time></trkpt><trkpt lat="43.884637105073146" lon="11.14484460546002"><ele>234.0</ele><time>2026-05-01T15:06:17Z</time></trkpt><trkpt lat="43.88467920246148" lon="11.144922866022075"><ele>234.0</ele><time>2026-05-01T15:06:20Z</time></trkpt><trkpt lat="43.884739763963445" lon="11.144959618818268"><ele>234.00000000000003</ele><time>2026-05-01T15:06:22Z</time></trkpt><trkpt lat="43.88480122517936" lon="11.14497858356447"><ele>234.0</ele><time>2026-05-01T15:06:25Z</time></trkpt><trkpt lat="43.8847611818518" lon="11.145085983524602"><ele>234.0</ele><time>2026-05-01T15:06:28Z</time></trkpt><trkpt lat="43.884702453015876" lon="11.14513851205625"><ele>231.2857142857143</ele><time>2026-05-01T15:06:31Z</time></trkpt><trkpt lat="43.88464011940488" lon="11.145184592649578"><ele>228.5714285714286</ele><time>2026-05-01T15:06:33Z</time></trkpt><trkpt lat="43.884558566721026" lon="11.145206350674297"><ele>225.85714285714286</ele><time>2026-05-01T15:06:36Z</time></trkpt><trkpt lat="43.88449744016991" lon="11.145253816357249"><ele>223.14285714285717</ele><time>2026-05-01T15:06:42Z</time></trkpt><trkpt lat="43.88443300972098" lon="11.145259627676786"><ele>220.42857142857144</ele><time>2026-05-01T15:06:46Z</time></trkpt><trkpt lat="43.8844590315072" lon="11.145354326057502"><ele>217.71428571428572</ele><time>2026-05-01T15:07:03Z</time></trkpt><trkpt lat="43.88448959324314" lon="11.145445692608806"><ele>215.0</ele><time>2026-05-01T15:07:07Z</time></trkpt><trkpt lat="43.88452438141736" lon="11.145528283632478"><ele>215.0</ele><time>2026-05-01T15:07:11Z</time></trkpt><trkpt lat="43.884452942961296" lon="11.145573228859652"><ele>215.0</ele><time>2026-05-01T15:07:15Z</time></trkpt><trkpt lat="43.88439270085548" lon="11.145605218594195"><ele>215.0</ele><time>2026-05-01T15:07:19Z</time></trkpt><trkpt lat="43.884414765738605" lon="11.145690877426684"><ele>215.0</ele><time>2026-05-01T15:07:24Z</time></trkpt><trkpt lat="43.88447436366765" lon="11.145748127984792"><ele>215.0</ele><time>2026-05-01T15:07:29Z</time></trkpt><trkpt lat="43.88453367811067" lon="11.145802251891048"><ele>215.0</ele><time>2026-05-01T15:07:33Z</time></trkpt><trkpt lat="43.884598161002785" lon="11.145822513076109"><ele>215.0</ele><time>2026-05-01T15:07:38Z</time></trkpt><trkpt lat="43.884625559367024" lon="11.145922747482894"><ele>212.14285714285714</ele><time>2026-05-01T15:07:48Z</time></trkpt><trkpt lat="43.88466238539156" lon="11.146003004285983"><ele>209.2857142857143</ele><time>2026-05-01T15:07:53Z</time></trkpt><trkpt lat="43.884723271318606" lon="11.146053927172018"><ele>206.42857142857144</ele><time>2026-05-01T15:08:04Z</time></trkpt><trkpt lat="43.884740894094726" lon="11.14614764382749"><ele>203.57142857142856</ele><time>2026-05-01T15:08:10Z</time></trkpt><trkpt lat="43.8847889461239" lon="11.146245743636873"><ele>200.71428571428572</ele><time>2026-05-01T15:08:35Z</time></trkpt><trkpt lat="43.88482205289292" lon="11.146331554637793"><ele>197.85714285714286</ele><time>2026-05-01T15:08:45Z</time></trkpt><trkpt lat="43.88488795227938" lon="11.146354551936078"><ele>195.0</ele><time>2026-05-01T15:08:49Z</time></trkpt><trkpt lat="43.8849627810197" lon="11.146412069276218"><ele>190.6</ele><time>2026-05-01T15:08:52Z</time></trkpt><trkpt lat="43.88500694809924" lon="11.1466478025536"><ele>186.2</ele><time>2026-05-01T15:09:02Z</time></trkpt><trkpt lat="43.88508009678726" lon="11.146664789731481"><ele>181.8</ele><time>2026-05-01T15:09:05Z</time></trkpt><trkpt lat="43.88515026142226" lon="11.146632499413325"><ele>177.4</ele><time>2026-05-01T15:09:07Z</time></trkpt><trkpt lat="43.88521381796725" lon="11.1466447623303"><ele>173.0</ele><time>2026-05-01T15:09:10Z</time></trkpt><trkpt lat="43.88525063233597" lon="11.146737618735962"><ele>173.0</ele><time>2026-05-01T15:09:13Z</time></trkpt><trkpt lat="43.88521280270718" lon="11.146814409014114"><ele>173.0</ele><time>2026-05-01T15:09:19Z</time></trkpt><trkpt lat="43.88519192722975" lon="11.146927772846336"><ele>173.0</ele><time>2026-05-01T15:09:25Z</time></trkpt><trkpt lat="43.88519343904094" lon="11.147044943163246"><ele>173.0</ele><time>2026-05-01T15:09:30Z</time></trkpt><trkpt lat="43.88514698246936" lon="11.147115748346199"><ele>173.0</ele><time>2026-05-01T15:09:33Z</time></trkpt><trkpt lat="43.885089062845125" lon="11.147159307080816"><ele>173.0</ele><time>2026-05-01T15:09:36Z</time></trkpt><trkpt lat="43.885076439848824" lon="11.147268851468805"><ele>171.16666666666666</ele><time>2026-05-01T15:09:40Z</time></trkpt><trkpt lat="43.885150509225745" lon="11.147311297114602"><ele>169.33333333333331</ele><time>2026-05-01T15:09:44Z</time></trkpt><trkpt lat="43.88515148840009" lon="11.147413306531456"><ele>167.5</ele><time>2026-05-01T15:09:48Z</time></trkpt><trkpt lat="43.88519191114905" lon="11.147497044219827"><ele>165.66666666666666</ele><time>2026-05-01T15:09:53Z</time></trkpt><trkpt lat="43.88520527933109" lon="11.14758347868196"><ele>163.83333333333334</ele><time>2026-05-01T15:09:56Z</time></trkpt><trkpt lat="43.88523726827899" lon="11.14766850790882"><ele>162.0</ele><time>2026-05-01T15:10:04Z</time></trkpt><trkpt lat="43.885192853650615" lon="11.147779556313475"><ele>159.14285714285714</ele><time>2026-05-01T15:10:08Z</time></trkpt><trkpt lat="43.88519823887144" lon="11.147890735752954"><ele>156.28571428571428</ele><time>2026-05-01T15:10:11Z</time></trkpt><trkpt lat="43.88520318974964" lon="11.147994556141402"><ele>153.42857142857142</ele><time>2026-05-01T15:10:15Z</time></trkpt><trkpt lat="43.88525360437656" lon="11.148075048534727"><ele>150.57142857142856</ele><time>2026-05-01T15:10:18Z</time></trkpt><trkpt lat="43.88530570400865" lon="11.148146090532663"><ele>147.7142857142857</ele><time>2026-05-01T15:10:21Z</time></trkpt><trkpt lat="43.885352475455264" lon="11.148227726617996"><ele>144.85714285714286</ele><time>2026-05-01T15:10:24Z</time></trkpt><trkpt lat="43.88535322946892" lon="11.14832058501627"><ele>142.0</ele><time>2026-05-01T15:10:27Z</time></trkpt><trkpt lat="43.88540701445635" lon="11.148370093965564"><ele>142.0</ele><time>2026-05-01T15:10:30Z</time></trkpt><trkpt lat="43.88546886618898" lon="11.148350962618188"><ele>142.0</ele><time>2026-05-01T15:10:33Z</time></trkpt><trkpt lat="43.8855575697579" lon="11.148394520488786"><ele>142.0</ele><time>2026-05-01T15:10:38Z</time></trkpt><trkpt lat="43.88562292171285" lon="11.148439357558244"><ele>142.0</ele><time>2026-05-01T15:10:42Z</time></trkpt><trkpt lat="43.88567586896303" lon="11.148367729274309"><ele>142.0</ele><time>2026-05-01T15:10:46Z</time></trkpt><trkpt lat="43.88571720320285" lon="11.14825630723224"><ele>142.0</ele><time>2026-05-01T15:10:49Z</time></trkpt><trkpt lat="43.88576756871481" lon="11.148201053057203"><ele>142.0</ele><time>2026-05-01T15:10:55Z</time></trkpt><trkpt lat="43.885823100975365" lon="11.148143236725351"><ele>142.0</ele><time>2026-05-01T15:10:57Z</time></trkpt><trkpt lat="43.88592265695232" lon="11.148073634313755"><ele>142.0</ele><time>2026-05-01T15:12:29Z</time></trkpt><trkpt lat="43.885938208773936" lon="11.148158413474015"><ele>142.0</ele><time>2026-05-01T15:12:38Z</time></trkpt><trkpt lat="43.885940352703265" lon="11.148249820318823"><ele>142.0</ele><time>2026-05-01T15:12:41Z</time></trkpt><trkpt lat="43.88595311534433" lon="11.14836462524535"><ele>142.0</ele><time>2026-05-01T15:12:43Z</time></trkpt><trkpt lat="43.88597122716522" lon="11.14844942489244"><ele>140.0</ele><time>2026-05-01T15:12:45Z</time></trkpt><trkpt lat="43.88599842058413" lon="11.148545873385707"><ele>138.0</ele><time>2026-05-01T15:12:47Z</time></trkpt><trkpt lat="43.88597666618603" lon="11.14865088870311"><ele>136.0</ele><time>2026-05-01T15:12:49Z</time></trkpt><trkpt lat="43.88596938645956" lon="11.148755529345582"><ele>134.0</ele><time>2026-05-01T15:12:51Z</time></trkpt><trkpt lat="43.885963681334296" lon="11.148849795647001"><ele>132.0</ele><time>2026-05-01T15:12:54Z</time></trkpt><trkpt lat="43.885941427218455" lon="11.148942332204234"><ele>130.0</ele><time>2026-05-01T15:12:56Z</time></trkpt><trkpt lat="43.885917132985476" lon="11.149061501330522"><ele>126.66666666666667</ele><time>2026-05-01T15:12:59Z</time></trkpt><trkpt lat="43.885910821949274" lon="11.149154349729795"><ele>123.33333333333334</ele><time>2026-05-01T15:13:01Z</time></trkpt><trkpt lat="43.88589567663513" lon="11.149309961632023"><ele>120.0</ele><time>2026-05-01T15:13:03Z</time></trkpt><trkpt lat="43.88586558266529" lon="11.149402404735612"><ele>116.66666666666666</ele><time>2026-05-01T15:13:05Z</time></trkpt><trkpt lat="43.88588358575258" lon="11.149498428352988"><ele>113.33333333333333</ele><time>2026-05-01T15:13:07Z</time></trkpt><trkpt lat="43.88588859982489" lon="11.149604874643765"><ele>110.0</ele><time>2026-05-01T15:13:09Z</time></trkpt><trkpt lat="43.885916804095956" lon="11.149695764538123"><ele>109.99999999999999</ele><time>2026-05-01T15:13:11Z</time></trkpt><trkpt lat="43.88592613623918" lon="11.149805447199046"><ele>110.0</ele><time>2026-05-01T15:13:13Z</time></trkpt><trkpt lat="43.885904490373896" lon="11.149891457807017"><ele>110.0</ele><time>2026-05-01T15:13:15Z</time></trkpt><trkpt lat="43.88588502654046" lon="11.150008154993909"><ele>110.0</ele><time>2026-05-01T15:13:18Z</time></trkpt><trkpt lat="43.88586009084668" lon="11.150104860823602"><ele>110.0</ele><time>2026-05-01T15:13:21Z</time></trkpt><trkpt lat="43.885832983458165" lon="11.150199365609318"><ele>109.99999999999999</ele><time>2026-05-01T15:13:36Z</time></trkpt><trkpt lat="43.885820864747366" lon="11.150288010985632"><ele>110.0</ele><time>2026-05-01T15:13:38Z</time></trkpt><trkpt lat="43.885787770775586" lon="11.150405080759725"><ele>107.2</ele><time>2026-05-01T15:13:40Z</time></trkpt><trkpt lat="43.88574323251237" lon="11.150512791243887"><ele>104.4</ele><time>2026-05-01T15:13:42Z</time></trkpt><trkpt lat="43.88566873070776" lon="11.150588509929445"><ele>101.6</ele><time>2026-05-01T15:13:44Z</time></trkpt><trkpt lat="43.885613356712206" lon="11.150694162596553"><ele>98.8</ele><time>2026-05-01T15:13:46Z</time></trkpt><trkpt lat="43.88557722866524" lon="11.150835317906171"><ele>96.0</ele><time>2026-05-01T15:13:48Z</time></trkpt><trkpt lat="43.885549372741416" lon="11.150955365802139"><ele>95.0</ele><time>2026-05-01T15:13:50Z</time></trkpt><trkpt lat="43.885518477613836" lon="11.151079357897135"><ele>94.0</ele><time>2026-05-01T15:13:52Z</time></trkpt><trkpt lat="43.885513877606826" lon="11.151186101796354"><ele>93.0</ele><time>2026-05-01T15:13:54Z</time></trkpt><trkpt lat="43.88551097165696" lon="11.15129100609669"><ele>92.0</ele><time>2026-05-01T15:13:56Z</time></trkpt><trkpt lat="43.885521203436866" lon="11.151419477191387"><ele>91.0</ele><time>2026-05-01T15:13:58Z</time></trkpt><trkpt lat="43.8855095634251" lon="11.15157556673204"><ele>91.0</ele><time>2026-05-01T15:14:00Z</time></trkpt><trkpt lat="43.88549512201334" lon="11.15166148103402"><ele>91.0</ele><time>2026-05-01T15:14:01Z</time></trkpt><trkpt lat="43.885451569957446" lon="11.15181124695719"><ele>91.0</ele><time>2026-05-01T15:14:03Z</time></trkpt><trkpt lat="43.88538839981559" lon="11.151930479689545"><ele>91.0</ele><time>2026-05-01T15:14:05Z</time></trkpt><trkpt lat="43.88530368394176" lon="11.152053172893737"><ele>91.0</ele><time>2026-05-01T15:14:07Z</time></trkpt><trkpt lat="43.885231374138755" lon="11.152210839259016"><ele>91.0</ele><time>2026-05-01T15:14:09Z</time></trkpt><trkpt lat="43.88519362340696" lon="11.152293790061805"><ele>91.0</ele><time>2026-05-01T15:14:10Z</time></trkpt><trkpt lat="43.885153975855296" lon="11.152367810072535"><ele>91.0</ele><time>2026-05-01T15:14:11Z</time></trkpt><trkpt lat="43.885108658798636" lon="11.152511096237124"><ele>91.0</ele><time>2026-05-01T15:14:13Z</time></trkpt><trkpt lat="43.885062801739025" lon="11.152648658320265"><ele>91.0</ele><time>2026-05-01T15:14:15Z</time></trkpt><trkpt lat="43.88500152882633" lon="11.152797972678677"><ele>90.0</ele><time>2026-05-01T15:14:17Z</time></trkpt><trkpt lat="43.884960802742285" lon="11.152941822180575"><ele>89.0</ele><time>2026-05-01T15:14:19Z</time></trkpt><trkpt lat="43.88491218079784" lon="11.153076858438924"><ele>88.0</ele><time>2026-05-01T15:14:21Z</time></trkpt><trkpt lat="43.88487749363511" lon="11.153157719869046"><ele>87.0</ele><time>2026-05-01T15:14:23Z</time></trkpt><trkpt lat="43.88484392468224" lon="11.153257860737817"><ele>86.0</ele><time>2026-05-01T15:14:56Z</time></trkpt><trkpt lat="43.88477200105496" lon="11.15336560486175"><ele>86.0</ele><time>2026-05-01T15:14:58Z</time></trkpt><trkpt lat="43.88464674292163" lon="11.15343407758862"><ele>86.0</ele><time>2026-05-01T15:15:00Z</time></trkpt><trkpt lat="43.88456017700125" lon="11.153409262161427"><ele>86.0</ele><time>2026-05-01T15:15:01Z</time></trkpt><trkpt lat="43.88446411122321" lon="11.153409454595119"><ele>86.0</ele><time>2026-05-01T15:15:02Z</time></trkpt><trkpt lat="43.884379282558406" lon="11.153367272974476"><ele>86.0</ele><time>2026-05-01T15:15:03Z</time></trkpt><trkpt lat="43.88429998883253" lon="11.153366544860228"><ele>85.4</ele><time>2026-05-01T15:15:04Z</time></trkpt><trkpt lat="43.88423568921302" lon="11.153350215366034"><ele>84.8</ele><time>2026-05-01T15:15:05Z</time></trkpt><trkpt lat="43.884125674708955" lon="11.153335058113163"><ele>84.2</ele><time>2026-05-01T15:15:07Z</time></trkpt><trkpt lat="43.88404621475614" lon="11.153304533100105"><ele>83.60000000000001</ele><time>2026-05-01T15:15:09Z</time></trkpt><trkpt lat="43.88399590498891" lon="11.153449502774775"><ele>83.0</ele><time>2026-05-01T15:15:11Z</time></trkpt><trkpt lat="43.88395452454903" lon="11.153557654337416"><ele>83.0</ele><time>2026-05-01T15:15:13Z</time></trkpt><trkpt lat="43.88391358099332" lon="11.15369873310242"><ele>83.0</ele><time>2026-05-01T15:15:15Z</time></trkpt><trkpt lat="43.88389485091621" lon="11.153836371231598"><ele>83.0</ele><time>2026-05-01T15:15:17Z</time></trkpt><trkpt lat="43.883867743481616" lon="11.153935942134693"><ele>83.0</ele><time>2026-05-01T15:15:19Z</time></trkpt><trkpt lat="43.883838535661454" lon="11.154050085689603"><ele>83.0</ele><time>2026-05-01T15:15:21Z</time></trkpt><trkpt lat="43.883799100548366" lon="11.154184435890128"><ele>82.4</ele><time>2026-05-01T15:15:23Z</time></trkpt><trkpt lat="43.88374392520029" lon="11.15426879604922"><ele>81.80000000000001</ele><time>2026-05-01T15:15:25Z</time></trkpt><trkpt lat="43.88369969583521" lon="11.154411419196734"><ele>81.2</ele><time>2026-05-01T15:15:27Z</time></trkpt><trkpt lat="43.88365570178568" lon="11.154558363251514"><ele>80.6</ele><time>2026-05-01T15:15:29Z</time></trkpt><trkpt lat="43.88362803734909" lon="11.154654560614912"><ele>80.0</ele><time>2026-05-01T15:15:33Z</time></trkpt><trkpt lat="43.883607461345406" lon="11.154774149357113"><ele>79.83333333333334</ele><time>2026-05-01T15:15:40Z</time></trkpt><trkpt lat="43.88357338924304" lon="11.15488526936564"><ele>79.66666666666667</ele><time>2026-05-01T15:15:42Z</time></trkpt><trkpt lat="43.88355060682378" lon="11.154975283831522"><ele>79.5</ele><time>2026-05-01T15:15:43Z</time></trkpt><trkpt lat="43.88351220303316" lon="11.155087929779384"><ele>79.33333333333333</ele><time>2026-05-01T15:15:44Z</time></trkpt><trkpt lat="43.88347707752232" lon="11.15520049665376"><ele>79.16666666666666</ele><time>2026-05-01T15:15:45Z</time></trkpt><trkpt lat="43.88344772100961" lon="11.155313908686054"><ele>79.0</ele><time>2026-05-01T15:15:46Z</time></trkpt><trkpt lat="43.88341036943182" lon="11.155449685247671"><ele>78.75</ele><time>2026-05-01T15:15:47Z</time></trkpt><trkpt lat="43.88336708267317" lon="11.155602867490057"><ele>78.5</ele><time>2026-05-01T15:15:48Z</time></trkpt><trkpt lat="43.88331131060666" lon="11.155767414896596"><ele>78.25</ele><time>2026-05-01T15:15:49Z</time></trkpt><trkpt lat="43.88326247826657" lon="11.155958590546673"><ele>78.0</ele><time>2026-05-01T15:15:50Z</time></trkpt><trkpt lat="43.88321299617577" lon="11.156101623798836"><ele>78.0</ele><time>2026-05-01T15:15:51Z</time></trkpt><trkpt lat="43.883182050472165" lon="11.156217068079075"><ele>78.0</ele><time>2026-05-01T15:15:52Z</time></trkpt><trkpt lat="43.88315874254446" lon="11.156321214909475"><ele>78.0</ele><time>2026-05-01T15:15:53Z</time></trkpt><trkpt lat="43.88312881987612" lon="11.1564135178544"><ele>78.0</ele><time>2026-05-01T15:15:54Z</time></trkpt><trkpt lat="43.88309564481563" lon="11.156534265432821"><ele>78.0</ele><time>2026-05-01T15:15:55Z</time></trkpt><trkpt lat="43.883041914872585" lon="11.156652334603182"><ele>78.0</ele><time>2026-05-01T15:15:57Z</time></trkpt><trkpt lat="43.8829601645792" lon="11.156743500704808"><ele>78.5</ele><time>2026-05-01T15:15:59Z</time></trkpt><trkpt lat="43.88287074713513" lon="11.15682286956603"><ele>79.0</ele><time>2026-05-01T15:16:01Z</time></trkpt><trkpt lat="43.882792938051274" lon="11.156890051657763"><ele>79.5</ele><time>2026-05-01T15:16:03Z</time></trkpt><trkpt lat="43.88273175476497" lon="11.156921678561439"><ele>80.0</ele><time>2026-05-01T15:16:04Z</time></trkpt><trkpt lat="43.88266659723913" lon="11.156948813756717"><ele>80.5</ele><time>2026-05-01T15:16:05Z</time></trkpt><trkpt lat="43.88260046263234" lon="11.156978275309564"><ele>81.0</ele><time>2026-05-01T15:16:06Z</time></trkpt><trkpt lat="43.882484881323066" lon="11.157003396055728"><ele>81.0</ele><time>2026-05-01T15:16:08Z</time></trkpt><trkpt lat="43.8823729227095" lon="11.157030900250215"><ele>81.0</ele><time>2026-05-01T15:16:10Z</time></trkpt><trkpt lat="43.88226128471668" lon="11.157062326454934"><ele>81.0</ele><time>2026-05-01T15:16:12Z</time></trkpt><trkpt lat="43.88215574502837" lon="11.15709215105835"><ele>81.0</ele><time>2026-05-01T15:16:14Z</time></trkpt><trkpt lat="43.88205806509738" lon="11.157136313094421"><ele>81.0</ele><time>2026-05-01T15:16:16Z</time></trkpt><trkpt lat="43.88197174078585" lon="11.1571482655289"><ele>81.0</ele><time>2026-05-01T15:16:18Z</time></trkpt><trkpt lat="43.881870105226874" lon="11.157136562859446"><ele>81.0</ele><time>2026-05-01T15:16:20Z</time></trkpt><trkpt lat="43.88177315051393" lon="11.157103527515364"><ele>81.0</ele><time>2026-05-01T15:16:22Z</time></trkpt><trkpt lat="43.88166175679686" lon="11.157052456622573"><ele>81.0</ele><time>2026-05-01T15:16:24Z</time></trkpt><trkpt lat="43.8815829513828" lon="11.157002668078082"><ele>81.0</ele><time>2026-05-01T15:16:26Z</time></trkpt><trkpt lat="43.88147786903656" lon="11.156941244501462"><ele>80.6</ele><time>2026-05-01T15:16:28Z</time></trkpt><trkpt lat="43.881379491075904" lon="11.156914379652966"><ele>80.19999999999999</ele><time>2026-05-01T15:16:30Z</time></trkpt><trkpt lat="43.88129086928441" lon="11.156879602201895"><ele>79.80000000000001</ele><time>2026-05-01T15:16:32Z</time></trkpt><trkpt lat="43.88119714371933" lon="11.156842186316501"><ele>79.4</ele><time>2026-05-01T15:16:34Z</time></trkpt><trkpt lat="43.88110097533003" lon="11.156803813291312"><ele>79.0</ele><time>2026-05-01T15:16:36Z</time></trkpt><trkpt lat="43.88100367140701" lon="11.156783168271016"><ele>78.66666666666666</ele><time>2026-05-01T15:16:38Z</time></trkpt><trkpt lat="43.880914740881835" lon="11.156861667878756"><ele>78.33333333333333</ele><time>2026-05-01T15:16:40Z</time></trkpt><trkpt lat="43.88088133806565" lon="11.157009985344587"><ele>78.0</ele><time>2026-05-01T15:16:42Z</time></trkpt><trkpt lat="43.8808482954569" lon="11.157099697081565"><ele>77.66666666666667</ele><time>2026-05-01T15:16:43Z</time></trkpt><trkpt lat="43.88080598260333" lon="11.157181041830968"><ele>77.33333333333334</ele><time>2026-05-01T15:16:44Z</time></trkpt><trkpt lat="43.88076045382632" lon="11.15727761614718"><ele>77.0</ele><time>2026-05-01T15:16:45Z</time></trkpt><trkpt lat="43.88070751864501" lon="11.157383782594081"><ele>76.6</ele><time>2026-05-01T15:16:46Z</time></trkpt><trkpt lat="43.88064317364536" lon="11.157493808711905"><ele>76.2</ele><time>2026-05-01T15:16:47Z</time></trkpt><trkpt lat="43.880576279387476" lon="11.1576037948553"><ele>75.8</ele><time>2026-05-01T15:16:48Z</time></trkpt><trkpt lat="43.880487586865314" lon="11.157685972719221"><ele>75.4</ele><time>2026-05-01T15:16:49Z</time></trkpt><trkpt lat="43.8804138621231" lon="11.157775159873017"><ele>75.0</ele><time>2026-05-01T15:16:50Z</time></trkpt><trkpt lat="43.880338417024795" lon="11.157833696847012"><ele>75.0</ele><time>2026-05-01T15:16:51Z</time></trkpt><trkpt lat="43.880259991372334" lon="11.1578990337553"><ele>75.0</ele><time>2026-05-01T15:16:52Z</time></trkpt><trkpt lat="43.88018570878041" lon="11.157958254693833"><ele>75.0</ele><time>2026-05-01T15:16:53Z</time></trkpt><trkpt lat="43.88011214552294" lon="11.158015965270762"><ele>75.0</ele><time>2026-05-01T15:16:54Z</time></trkpt><trkpt lat="43.880037522058764" lon="11.158060451378333"><ele>75.0</ele><time>2026-05-01T15:16:55Z</time></trkpt><trkpt lat="43.87997224372929" lon="11.158105400091205"><ele>75.0</ele><time>2026-05-01T15:16:56Z</time></trkpt><trkpt lat="43.879908779676235" lon="11.158142902515891"><ele>74.6</ele><time>2026-05-01T15:16:57Z</time></trkpt><trkpt lat="43.87980167118655" lon="11.158201595826988"><ele>74.2</ele><time>2026-05-01T15:16:59Z</time></trkpt><trkpt lat="43.87970034999609" lon="11.158273021142831"><ele>73.8</ele><time>2026-05-01T15:17:01Z</time></trkpt><trkpt lat="43.87964232923437" lon="11.158309285722368"><ele>73.4</ele><time>2026-05-01T15:17:02Z</time></trkpt><trkpt lat="43.8795419202703" lon="11.158363360273393"><ele>73.0</ele><time>2026-05-01T15:17:04Z</time></trkpt><trkpt lat="43.87945647106846" lon="11.158414091484374"><ele>73.0</ele><time>2026-05-01T15:17:06Z</time></trkpt><trkpt lat="43.87936374544519" lon="11.15845203134088"><ele>73.0</ele><time>2026-05-01T15:17:08Z</time></trkpt><trkpt lat="43.879290906490944" lon="11.158474234912582"><ele>73.0</ele><time>2026-05-01T15:17:09Z</time></trkpt><trkpt lat="43.87919880388136" lon="11.158457286273379"><ele>73.0</ele><time>2026-05-01T15:17:10Z</time></trkpt><trkpt lat="43.879121436318705" lon="11.158476058290976"><ele>73.0</ele><time>2026-05-01T15:17:11Z</time></trkpt><trkpt lat="43.87899934068878" lon="11.15850134086127"><ele>72.4</ele><time>2026-05-01T15:17:13Z</time></trkpt><trkpt lat="43.87890538355954" lon="11.158545366237933"><ele>71.8</ele><time>2026-05-01T15:17:14Z</time></trkpt><trkpt lat="43.87882534125749" lon="11.158575684414947"><ele>71.2</ele><time>2026-05-01T15:17:15Z</time></trkpt><trkpt lat="43.878719013783666" lon="11.158610082566106"><ele>70.6</ele><time>2026-05-01T15:17:17Z</time></trkpt><trkpt lat="43.87860539782163" lon="11.158650103504803"><ele>70.0</ele><time>2026-05-01T15:17:19Z</time></trkpt><trkpt lat="43.878542877157805" lon="11.1586683056777"><ele>70.0</ele><time>2026-05-01T15:17:20Z</time></trkpt><trkpt lat="43.87847808327191" lon="11.158689780125698"><ele>70.0</ele><time>2026-05-01T15:17:21Z</time></trkpt><trkpt lat="43.87841337465679" lon="11.158710496536717"><ele>70.0</ele><time>2026-05-01T15:17:22Z</time></trkpt><trkpt lat="43.87830538717109" lon="11.158747013261067"><ele>70.0</ele><time>2026-05-01T15:17:24Z</time></trkpt><trkpt lat="43.878214850378676" lon="11.158784679308722"><ele>70.0</ele><time>2026-05-01T15:17:26Z</time></trkpt><trkpt lat="43.878141500867" lon="11.158813503528833"><ele>70.0</ele><time>2026-05-01T15:17:28Z</time></trkpt><trkpt lat="43.878064376139456" lon="11.158840239891651"><ele>70.16666666666666</ele><time>2026-05-01T15:17:30Z</time></trkpt><trkpt lat="43.877991238681936" lon="11.15886656644757"><ele>70.33333333333333</ele><time>2026-05-01T15:17:32Z</time></trkpt><trkpt lat="43.87791851048176" lon="11.158872017782633"><ele>70.5</ele><time>2026-05-01T15:17:34Z</time></trkpt><trkpt lat="43.87783520023178" lon="11.158903300270902"><ele>70.66666666666667</ele><time>2026-05-01T15:17:37Z</time></trkpt><trkpt lat="43.877768557889006" lon="11.158928324100273"><ele>70.83333333333334</ele><time>2026-05-01T15:17:40Z</time></trkpt><trkpt lat="43.87767876054498" lon="11.158990207376425"><ele>71.0</ele><time>2026-05-01T15:17:47Z</time></trkpt><trkpt lat="43.87759981311915" lon="11.1590286453449"><ele>70.6</ele><time>2026-05-01T15:17:50Z</time></trkpt><trkpt lat="43.87751390608979" lon="11.159028153386847"><ele>70.19999999999999</ele><time>2026-05-01T15:17:53Z</time></trkpt><trkpt lat="43.87746600809524" lon="11.158932461643447"><ele>69.80000000000001</ele><time>2026-05-01T15:17:57Z</time></trkpt><trkpt lat="43.87743322184992" lon="11.158821724268723"><ele>69.4</ele><time>2026-05-01T15:17:59Z</time></trkpt><trkpt lat="43.877403972837705" lon="11.158661558380421"><ele>69.0</ele><time>2026-05-01T15:18:01Z</time></trkpt><trkpt lat="43.877363903722234" lon="11.15854561038073"><ele>69.0</ele><time>2026-05-01T15:18:03Z</time></trkpt><trkpt lat="43.87728929262029" lon="11.158455518600215"><ele>69.0</ele><time>2026-05-01T15:18:05Z</time></trkpt><trkpt lat="43.87720267779451" lon="11.158359842897248"><ele>69.0</ele><time>2026-05-01T15:18:07Z</time></trkpt><trkpt lat="43.87713127510324" lon="11.158248488811426"><ele>69.0</ele><time>2026-05-01T15:18:09Z</time></trkpt><trkpt lat="43.87711789460544" lon="11.158079976052639"><ele>69.0</ele><time>2026-05-01T15:18:11Z</time></trkpt><trkpt lat="43.87711994970416" lon="11.157977575463788"><ele>69.0</ele><time>2026-05-01T15:18:12Z</time></trkpt><trkpt lat="43.87712001482187" lon="11.157871501370824"><ele>69.0</ele><time>2026-05-01T15:18:13Z</time></trkpt><trkpt lat="43.87711918871018" lon="11.157772523323272"><ele>69.0</ele><time>2026-05-01T15:18:14Z</time></trkpt><trkpt lat="43.87714593933728" lon="11.157677996473332"><ele>69.0</ele><time>2026-05-01T15:18:15Z</time></trkpt><trkpt lat="43.87715202354064" lon="11.157576931512478"><ele>69.0</ele><time>2026-05-01T15:18:16Z</time></trkpt><trkpt lat="43.87715040218036" lon="11.157460927869778"><ele>69.0</ele><time>2026-05-01T15:18:17Z</time></trkpt><trkpt lat="43.87716393244286" lon="11.157346805739206"><ele>69.0</ele><time>2026-05-01T15:18:18Z</time></trkpt><trkpt lat="43.877167910286644" lon="11.157237927970463"><ele>69.0</ele><time>2026-05-01T15:18:19Z</time></trkpt><trkpt lat="43.87719508059302" lon="11.157106444263423"><ele>69.0</ele><time>2026-05-01T15:18:20Z</time></trkpt><trkpt lat="43.87721957073572" lon="11.156971730576686"><ele>69.0</ele><time>2026-05-01T15:18:21Z</time></trkpt><trkpt lat="43.87724662003366" lon="11.156859549256632"><ele>69.0</ele><time>2026-05-01T15:18:22Z</time></trkpt><trkpt lat="43.87727093166016" lon="11.156758907502025"><ele>69.0</ele><time>2026-05-01T15:18:23Z</time></trkpt><trkpt lat="43.87729339903975" lon="11.156665354550054"><ele>69.0</ele><time>2026-05-01T15:18:24Z</time></trkpt><trkpt lat="43.877296431522474" lon="11.156573080093537"><ele>69.0</ele><time>2026-05-01T15:18:25Z</time></trkpt><trkpt lat="43.87732912487006" lon="11.156413088711208"><ele>69.0</ele><time>2026-05-01T15:18:27Z</time></trkpt><trkpt lat="43.877363252081594" lon="11.156260485239802"><ele>69.0</ele><time>2026-05-01T15:18:29Z</time></trkpt><trkpt lat="43.87736810237766" lon="11.156166904699727"><ele>69.0</ele><time>2026-05-01T15:18:30Z</time></trkpt><trkpt lat="43.87734419905234" lon="11.15607394903216"><ele>69.0</ele><time>2026-05-01T15:18:31Z</time></trkpt><trkpt lat="43.87725952724007" lon="11.156020173515735"><ele>70.2</ele><time>2026-05-01T15:18:32Z</time></trkpt><trkpt lat="43.87714336124667" lon="11.156061610903013"><ele>71.4</ele><time>2026-05-01T15:18:33Z</time></trkpt><trkpt lat="43.877053178305346" lon="11.156084935124815"><ele>72.6</ele><time>2026-05-01T15:18:34Z</time></trkpt><trkpt lat="43.87698257944871" lon="11.156093105142071"><ele>73.8</ele><time>2026-05-01T15:18:35Z</time></trkpt><trkpt lat="43.87685662273854" lon="11.156077834960353"><ele>75.0</ele><time>2026-05-01T15:18:37Z</time></trkpt><trkpt lat="43.87678527608437" lon="11.156071076205558"><ele>74.83333333333333</ele><time>2026-05-01T15:18:38Z</time></trkpt><trkpt lat="43.876713380936536" lon="11.156038760461131"><ele>74.66666666666667</ele><time>2026-05-01T15:18:39Z</time></trkpt><trkpt lat="43.8766337491028" lon="11.156043396756166"><ele>74.5</ele><time>2026-05-01T15:18:40Z</time></trkpt><trkpt lat="43.87655416654082" lon="11.15602352308108"><ele>74.33333333333334</ele><time>2026-05-01T15:18:41Z</time></trkpt><trkpt lat="43.8764782142667" lon="11.156003493648189"><ele>74.16666666666667</ele><time>2026-05-01T15:18:42Z</time></trkpt><trkpt lat="43.87640380088586" lon="11.155988685454027"><ele>74.0</ele><time>2026-05-01T15:18:43Z</time></trkpt><trkpt lat="43.876342702140256" lon="11.155957278983093"><ele>74.0</ele><time>2026-05-01T15:18:44Z</time></trkpt><trkpt lat="43.87627808858472" lon="11.155906300737348"><ele>74.0</ele><time>2026-05-01T15:18:46Z</time></trkpt><trkpt lat="43.8763489590718" lon="11.155786004146004"><ele>74.0</ele><time>2026-05-01T15:18:48Z</time></trkpt><trkpt lat="43.876378063810925" lon="11.155646986955029"><ele>74.0</ele><time>2026-05-01T15:18:50Z</time></trkpt><trkpt lat="43.876401532096246" lon="11.155508589697003"><ele>74.0</ele><time>2026-05-01T15:18:52Z</time></trkpt><trkpt lat="43.876493081370704" lon="11.155457705619252"><ele>77.16666666666667</ele><time>2026-05-01T15:18:54Z</time></trkpt><trkpt lat="43.8765767661435" lon="11.155432652501528"><ele>80.33333333333334</ele><time>2026-05-01T15:18:56Z</time></trkpt><trkpt lat="43.87664867071908" lon="11.155471261703156"><ele>83.5</ele><time>2026-05-01T15:18:58Z</time></trkpt><trkpt lat="43.87672125899288" lon="11.155521427860382"><ele>86.66666666666667</ele><time>2026-05-01T15:19:01Z</time></trkpt><trkpt lat="43.87678687018332" lon="11.155567588716673"><ele>89.83333333333333</ele><time>2026-05-01T15:19:03Z</time></trkpt><trkpt lat="43.876854888700706" lon="11.15562300845042"><ele>93.0</ele><time>2026-05-01T15:19:06Z</time></trkpt><trkpt lat="43.87691910686893" lon="11.1556213371353"><ele>93.5</ele><time>2026-05-01T15:20:37Z</time></trkpt><trkpt lat="43.87702368995447" lon="11.155628340799234"><ele>94.0</ele><time>2026-05-01T15:21:52Z</time></trkpt><trkpt lat="43.876970053000406" lon="11.155790274683358"><ele>94.5</ele><time>2026-05-01T15:23:09.684Z</time></trkpt><trkpt lat="43.87694615010387" lon="11.156030998666088"><ele>95.0</ele><time>2026-05-01T15:23:15.339Z</time></trkpt><trkpt lat="43.87694972658713" lon="11.15579734577255"><ele>75.0</ele><time>2026-05-01T15:23:51.894Z</time></trkpt><trkpt lat="43.877032393851366" lon="11.155759027012975"><ele>75.0</ele><time>2026-05-01T15:25:02.999Z</time></trkpt><trkpt lat="43.87706507274227" lon="11.15564887860843"><ele>95.0</ele><time>2026-05-01T15:25:05.999Z</time></trkpt></trkseg></trk></gpx>